# Wetter Temperatur Luftdruck Luftfeuchtigkeit Sichtweite Windgeschwindigkeit Windrichtung Zeit
1 Snow -38 1016 67 5000 2 10 14:21 01.02.2023
2 Snow -37 1016 67 5000 2 10 13:19 01.02.2023
3 Snow -37 1016 67 5000 2 10 12:26 01.02.2023
4 Snow -37 1015 67 3200 2 10 10:46 01.02.2023
5 Snow -38 1015 67 5000 1 20 08:26 01.02.2023
6 Fog -39 1015 67 250 0 0 22:41 31.01.2023
7 Fog -41 1015 66 150 0 0 21:20 31.01.2023
8 Fog -43 1015 66 150 0 0 19:24 31.01.2023
9 Fog -46 1016 65 100 0 0 17:37 31.01.2023
10 Fog -46 1016 65 150 1 50 15:36 31.01.2023
11 Fog -46 1016 65 150 1 50 15:18 31.01.2023
12 Fog -46 1016 65 150 0 0 13:34 31.01.2023
13 Fog -46 1015 65 250 0 0 11:28 31.01.2023
14 Fog -45 1016 65 250 1 360 10:25 31.01.2023
15 Fog -45 1015 65 250 1 360 09:44 31.01.2023
16 Fog -43 1015 66 150 0 0 08:36 31.01.2023
17 Fog -44 1014 66 300 2 190 06:25 31.01.2023
18 Fog -46 1015 65 300 1 150 03:34 31.01.2023
19 Fog -47 1014 63 350 0 0 23:27 30.01.2023
20 Fog -47 1014 63 600 0 0 22:50 30.01.2023
21 Fog -47 1014 63 400 0 0 21:43 30.01.2023
22 Fog -47 1014 56 200 0 0 20:44 30.01.2023
23 Fog -47 1015 63 200 1 10 18:26 30.01.2023
24 Fog -47 1014 63 250 0 0 17:25 30.01.2023
25 Fog -46 1015 56 150 1 300 14:47 30.01.2023
26 Fog -47 1015 63 150 1 310 13:39 30.01.2023
27 Fog -47 1016 63 250 1 360 12:18 30.01.2023
28 Fog -46 1016 63 700 1 30 10:20 30.01.2023
29 Fog -46 1016 63 650 0 0 09:53 30.01.2023
30 Fog -45 1017 64 450 1 150 08:23 30.01.2023
31 Fog -45 1018 59 250 0 0 04:32 30.01.2023
32 Fog -47 1020 56 200 0 0 23:35 29.01.2023
33 Fog -47 1020 63 200 0 0 22:59 29.01.2023
34 Fog -47 1019 56 200 0 0 22:31 29.01.2023
35 Fog -47 1020 56 200 0 0 20:52 29.01.2023
36 Fog -47 1020 56 200 0 0 20:19 29.01.2023
37 Fog -47 1020 56 200 0 0 19:32 29.01.2023
38 Fog -47 1019 63 200 0 0 17:55 29.01.2023
39 Fog -47 1019 63 300 0 0 16:43 29.01.2023
40 Fog -47 1019 63 300 0 0 16:19 29.01.2023
41 Fog -45 1019 64 700 0 0 14:20 29.01.2023
42 Fog -45 1019 64 750 0 0 12:59 29.01.2023
43 Fog -45 1019 64 300 0 0 12:36 29.01.2023
44 Fog -45 1019 64 300 0 0 12:18 29.01.2023
45 Fog -44 1018 57 300 0 0 11:36 29.01.2023
46 Fog -44 1018 57 250 0 0 10:45 29.01.2023
47 Fog -45 1016 57 350 0 0 08:30 29.01.2023
48 Fog -45 1014 59 550 0 0 04:44 29.01.2023
49 Fog -49 1013 62 300 0 0 23:51 28.01.2023
50 Fog -49 1012 62 650 0 0 20:53 28.01.2023
51 Fog -48 1012 56 500 0 0 19:56 28.01.2023
52 Fog -48 1012 56 300 0 0 18:53 28.01.2023
53 Fog -49 1012 62 400 0 0 17:42 28.01.2023
54 Fog -48 1012 63 300 0 0 16:41 28.01.2023
55 Fog -48 1012 63 300 0 0 16:41 28.01.2023
56 Fog -48 1013 63 300 0 0 16:19 28.01.2023
57 Fog -48 1013 63 300 0 0 15:36 28.01.2023
58 Fog -48 1013 56 150 0 0 13:49 28.01.2023
59 Fog -48 1013 63 350 0 0 12:28 28.01.2023
60 Fog -47 1014 56 150 0 0 10:35 28.01.2023
61 Fog -47 1014 56 400 0 0 09:35 28.01.2023
62 Fog -47 1015 58 150 0 0 04:37 28.01.2023
63 Fog -45 1016 65 350 0 0 00:30 28.01.2023
64 Fog -45 1016 64 200 0 0 23:35 27.01.2023
65 Fog -45 1018 64 300 0 0 19:48 27.01.2023
66 Fog -46 1019 65 650 0 0 17:58 27.01.2023
67 Fog -46 1019 65 300 0 0 17:21 27.01.2023
68 Fog -46 1019 65 350 0 0 16:58 27.01.2023
69 Fog -45 1020 65 100 0 0 15:49 27.01.2023
70 Fog -45 1021 57 50 0 0 14:28 27.01.2023
71 Fog -46 1022 65 250 0 0 13:39 27.01.2023
72 Fog -46 1023 63 100 0 0 10:28 27.01.2023
73 Fog -46 1024 65 300 0 0 08:35 27.01.2023
74 Fog -49 1028 62 250 0 0 00:45 27.01.2023
75 Fog -49 1028 62 200 0 0 22:45 26.01.2023
76 Fog -48 1029 63 300 0 0 20:57 26.01.2023
77 Fog -48 1029 63 250 0 0 20:34 26.01.2023
78 Fog -48 1029 63 400 0 0 18:20 26.01.2023
79 Fog -46 1029 58 250 0 0 16:59 26.01.2023
80 Fog -46 1029 65 250 0 0 16:26 26.01.2023
81 Fog -46 1030 65 250 0 0 15:46 26.01.2023
82 Fog -46 1030 65 200 1 160 15:26 26.01.2023
83 Fog -44 1030 59 250 0 0 13:58 26.01.2023
84 Fog -45 1030 57 500 0 0 12:43 26.01.2023
85 Fog -47 1030 63 700 0 0 11:25 26.01.2023
86 Fog -46 1030 56 700 0 0 10:27 26.01.2023
87 Fog -46 1030 63 400 0 0 09:44 26.01.2023
88 Fog -46 1030 65 800 0 0 08:25 26.01.2023
89 Fog -48 1029 56 350 0 0 23:58 25.01.2023
90 Fog -48 1029 56 350 0 0 23:37 25.01.2023
91 Fog -48 1029 56 300 1 10 21:56 25.01.2023
92 Fog -49 1029 64 250 0 0 21:20 25.01.2023
93 Fog -50 1029 62 200 0 0 18:41 25.01.2023
94 Fog -50 1029 62 200 0 0 18:21 25.01.2023
95 Fog -49 1028 62 250 1 10 15:44 25.01.2023
96 Fog -49 1028 55 350 0 0 12:58 25.01.2023
97 Fog -49 1028 62 300 0 0 11:20 25.01.2023
98 Fog -49 1028 55 200 0 0 09:45 25.01.2023
99 Fog -49 1027 62 500 0 0 07:43 25.01.2023
100 Fog -51 1026 62 200 0 0 01:36 25.01.2023
101 Fog -50 1026 55 200 0 0 00:23 25.01.2023
102 Fog -49 1026 55 300 1 10 21:34 24.01.2023
103 Fog -49 1026 58 350 0 0 20:19 24.01.2023
104 Fog -49 1026 58 350 0 0 20:19 24.01.2023
105 Fog -49 1026 64 300 0 0 18:46 24.01.2023
106 Fog -48 1026 58 300 1 360 17:31 24.01.2023
107 Fog -49 1026 64 400 0 0 16:53 24.01.2023
108 Fog -48 1026 65 500 0 0 16:26 24.01.2023
109 Fog -48 1026 65 500 0 0 16:26 24.01.2023
110 Snow -48 1026 65 1200 1 10 13:46 24.01.2023
111 Snow -48 1027 65 1500 1 10 11:43 24.01.2023
112 Fog -49 1027 58 900 1 10 08:43 24.01.2023
113 Fog -49 1026 58 800 1 20 08:18 24.01.2023
114 Fog -49 1026 58 900 1 20 07:48 24.01.2023
115 Fog -51 1026 57 450 1 20 02:43 24.01.2023
116 Fog -51 1026 55 200 0.89 350 00:38 24.01.2023
117 Mist -51 1026 55 1500 1 30 22:28 23.01.2023
118 Fog -51 1026 62 300 0 0 20:43 23.01.2023
119 Fog -51 1027 62 250 1 340 19:21 23.01.2023
120 Fog -50 1027 62 200 0 0 17:19 23.01.2023
121 Fog -49 1027 62 250 0 0 15:32 23.01.2023
122 Fog -49 1028 62 250 1 350 13:56 23.01.2023
123 Fog -49 1029 55 900 1 10 12:55 23.01.2023
124 Fog -49 1029 62 200 0 0 11:57 23.01.2023
125 Fog -49 1029 62 500 0 0 11:28 23.01.2023
126 Fog -49 1030 55 550 1 30 08:25 23.01.2023
127 Fog -50 1034 62 100 0 0 00:22 23.01.2023
128 Fog -50 1034 62 150 0 0 22:19 22.01.2023
129 Fog -49 1035 55 150 0 0 21:19 22.01.2023
130 Fog -49 1036 62 150 0 0 19:58 22.01.2023
131 Fog -49 1036 62 150 0 0 19:40 22.01.2023
132 Fog -49 1036 62 200 0 0 18:43 22.01.2023
133 Fog -48 1037 56 150 0 0 17:55 22.01.2023
134 Fog -48 1037 56 350 0 0 17:24 22.01.2023
135 Fog -47 1038 56 250 0 0 15:29 22.01.2023
136 Fog -47 1039 63 250 0 0 14:43 22.01.2023
137 Fog -47 1039 63 250 0 0 13:28 22.01.2023
138 Fog -47 1039 63 300 0 0 12:32 22.01.2023
139 Fog -46 1040 63 250 0 0 11:34 22.01.2023
140 Fog -44 1040 64 900 0 0 09:35 22.01.2023
141 Fog -45 1041 65 900 1 160 05:51 22.01.2023
142 Fog -48 1043 63 500 0.89 300 00:40 22.01.2023
143 Fog -48 1043 63 700 0 0 23:30 21.01.2023
144 Fog -48 1043 63 600 0 0 21:40 21.01.2023
145 Fog -47 1043 56 450 0 0 19:23 21.01.2023
146 Fog -48 1043 63 200 0 0 16:55 21.01.2023
147 Fog -48 1044 63 150 0 0 14:24 21.01.2023
148 Fog -48 1044 63 150 0 0 12:57 21.01.2023
149 Fog -49 1044 62 200 0 0 11:42 21.01.2023
150 Fog -48 1044 56 150 0 0 10:49 21.01.2023
151 Fog -48 1044 56 150 0 0 08:57 21.01.2023
152 Fog -50 1043 64 100 0 0 04:32 21.01.2023
153 Fog -50 1041 57 300 0 0 22:29 20.01.2023
154 Fog -50 1041 64 250 0 0 21:38 20.01.2023
155 Fog -50 1040 64 200 0 0 20:56 20.01.2023
156 Fog -50 1040 64 350 0 0 19:45 20.01.2023
157 Fog -49 1039 64 300 0 0 16:44 20.01.2023
158 Fog -48 1038 58 150 0 0 14:46 20.01.2023
159 Fog -49 1038 64 200 0 0 13:51 20.01.2023
160 Fog -50 1038 64 600 0 0 10:24 20.01.2023
161 Fog -50 1038 64 400 0 0 08:54 20.01.2023
162 Fog -50 1037 64 750 0 0 05:54 20.01.2023
163 Fog -52 1037 61 300 1 20 02:30 20.01.2023
164 Fog -51 1036 64 500 0 0 22:35 19.01.2023
165 Fog -51 1036 64 450 0 0 20:44 19.01.2023
166 Fog -50 1035 55 250 0 0 19:29 19.01.2023
167 Fog -51 1035 62 200 0 0 16:56 19.01.2023
168 Fog -50 1034 62 250 1 360 13:30 19.01.2023
169 Fog -50 1034 64 150 1 360 09:37 19.01.2023
170 Fog -46 1032 58 500 0 0 05:57 19.01.2023
171 Fog -49 1033 58 250 1 190 22:26 18.01.2023
172 Fog -51 1034 64 200 1 180 20:20 18.01.2023
173 Fog -51 1034 64 200 0 0 19:38 18.01.2023
174 Fog -51 1034 64 200 0 0 19:20 18.01.2023
175 Fog -52 1034 61 150 0 0 15:57 18.01.2023
176 Fog -51 1034 55 150 0 0 13:54 18.01.2023
177 Fog -51 1033 64 250 0 0 11:46 18.01.2023
178 Fog -52 1032 64 300 0 0 09:28 18.01.2023
179 Fog -51 1030 64 350 0 0 05:35 18.01.2023
180 Fog -54 1028 61 250 1 340 00:35 18.01.2023
181 Fog -53 1027 54 300 0 0 21:27 17.01.2023
182 Fog -54 1027 63 200 1 350 19:37 17.01.2023
183 Fog -54 1027 61 200 1 320 18:48 17.01.2023
184 Fog -54 1027 61 350 1 330 17:38 17.01.2023
185 Fog -53 1027 61 300 1 350 15:26 17.01.2023
186 Fog -53 1027 63 350 0 0 14:34 17.01.2023
187 Clouds -50 1033 100 4120 0.3 287 13:32 17.01.2023
188 Fog -52 1027 61 150 1 20 11:46 17.01.2023
189 Fog -51 1026 62 300 1 350 09:36 17.01.2023
190 Fog -51 1026 62 400 0 0 08:20 17.01.2023
191 Fog -50 1025 55 250 1 350 07:28 17.01.2023
192 Fog -49 1024 62 350 1 10 01:32 17.01.2023
193 Fog -49 1024 62 350 1 10 01:32 17.01.2023
194 Fog -48 1024 63 400 1 10 00:48 17.01.2023
195 Fog -47 1024 65 450 1 360 22:38 16.01.2023
196 Snow -47 1024 65 3200 1 30 21:39 16.01.2023
197 Snow -46 1023 65 3200 0 0 19:55 16.01.2023
198 Snow -45 1023 65 3200 1 80 18:57 16.01.2023
199 Snow -45 1023 64 3200 1 70 18:37 16.01.2023
200 Snow -45 1023 64 3200 1 70 18:18 16.01.2023
201 Mist -44 1023 57 3200 2 70 17:20 16.01.2023
202 Snow -44 1023 64 3200 2 140 14:18 16.01.2023
203 Snow -44 1023 64 2400 1 140 13:35 16.01.2023
204 Mist -45 1022 64 2100 2 170 10:23 16.01.2023
205 Mist -45 1022 59 2000 2 180 08:23 16.01.2023
206 Mist -49 1022 64 1500 1 290 22:44 15.01.2023
207 Mist -49 1022 64 1500 1 290 22:44 15.01.2023
208 Fog -51 1023 64 150 0 0 21:23 15.01.2023
209 Fog -52 1023 64 150 0 0 20:28 15.01.2023
210 Fog -52 1023 57 100 0 0 19:31 15.01.2023
211 Fog -53 1023 61 100 1 280 17:25 15.01.2023
212 Fog -54 1024 61 100 0 0 13:55 15.01.2023
213 Fog -53 1024 54 150 0 0 12:23 15.01.2023
214 Fog -51 1024 62 150 0 0 11:28 15.01.2023
215 Fog -50 1024 62 100 0 0 10:24 15.01.2023
216 Fog -49 1023 64 350 1 170 07:56 15.01.2023
217 Fog -50 1023 64 250 1 140 23:56 14.01.2023
218 Fog -49 1023 64 250 0 0 22:44 14.01.2023
219 Fog -49 1023 64 350 1 170 21:37 14.01.2023
220 Fog -49 1023 64 350 1 170 21:37 14.01.2023
221 Fog -49 1023 64 300 0 0 21:18 14.01.2023
222 Fog -49 1023 64 300 0 0 21:18 14.01.2023
223 Fog -49 1023 64 200 0 0 20:56 14.01.2023
224 Fog -49 1023 64 400 0 0 20:26 14.01.2023
225 Fog -49 1024 64 150 0 0 18:18 14.01.2023
226 Fog -49 1024 64 150 1 140 15:41 14.01.2023
227 Fog -49 1024 64 150 0 0 15:23 14.01.2023
228 Fog -49 1024 64 250 1 150 14:19 14.01.2023
229 Fog -48 1024 58 150 0 0 13:25 14.01.2023
230 Fog -49 1025 64 350 1 170 10:50 14.01.2023
231 Fog -48 1025 65 200 0 0 09:23 14.01.2023
232 Fog -51 1026 62 200 0 0 02:39 14.01.2023
233 Fog -50 1027 62 150 1 330 23:19 13.01.2023
234 Fog -49 1027 58 150 0 0 22:41 13.01.2023
235 Fog -49 1027 62 250 1 330 21:58 13.01.2023
236 Fog -48 1027 65 250 0 0 20:38 13.01.2023
237 Fog -49 1028 62 100 0 0 19:27 13.01.2023
238 Fog -48 1028 56 150 1 300 17:40 13.01.2023
239 Fog -45 1028 65 350 1 270 15:20 13.01.2023
240 Fog -44 1030 64 350 0 0 12:25 13.01.2023
241 Fog -43 1030 64 400 0 0 10:43 13.01.2023
242 Fog -43 1030 64 400 0 0 10:23 13.01.2023
243 Fog -43 1030 64 350 0.89 170 09:44 13.01.2023
244 Fog -42 1030 64 300 1 210 08:51 13.01.2023
245 Fog -44 1030 66 300 1 130 06:57 13.01.2023
246 Fog -44 1030 66 250 1 160 06:27 13.01.2023
247 Fog -45 1031 65 150 1 290 02:20 13.01.2023
248 Fog -44 1030 64 300 0 0 22:52 12.01.2023
249 Fog -44 1029 64 300 1 260 21:59 12.01.2023
250 Fog -44 1029 64 200 1 250 20:52 12.01.2023
251 Fog -42 1029 66 300 1 290 18:27 12.01.2023
252 Fog -42 1028 66 250 1 330 17:20 12.01.2023
253 Fog -39 1028 65 450 0 0 15:28 12.01.2023
254 Fog -40 1028 67 400 0 0 14:42 12.01.2023
255 Fog -40 1028 67 500 2 310 14:19 12.01.2023
256 Fog -40 1028 65 900 1 60 12:29 12.01.2023
257 Clear -39 1028 73 10000 2 250 10:26 12.01.2023
258 Clear -35 1027 68 10000 3 240 07:27 12.01.2023
259 Clear -31 1022 67 10000 4.02 300 00:34 12.01.2023
260 Clear -32 1022 74 10000 4.02 300 23:57 11.01.2023
261 Clear -32 1022 74 10000 4.02 300 23:38 11.01.2023
262 Snow -32 1021 74 10000 3.13 300 23:19 11.01.2023
263 Fog -38 1020 74 1100 1 130 21:32 11.01.2023
264 Fog -39 1019 67 800 2 320 19:19 11.01.2023
265 Mist -38 1018 67 3200 1 310 17:49 11.01.2023
266 Clouds -28 1020 99 9924 1.16 256 15:52 11.01.2023
267 Clouds -27 1018 99 2660 0.97 212 13:59 11.01.2023
268 Snow -35 1015 68 5000 1 40 12:34 11.01.2023
269 Snow -35 1015 68 5000 0 0 11:40 11.01.2023
270 Clear -34 1014 68 10000 0 0 09:32 11.01.2023
271 Mist -34 1013 68 5000 1 120 07:31 11.01.2023
272 Clear -35 1013 75 10000 0 0 06:56 11.01.2023
273 Clear -35 1009 68 10000 0 0 23:55 10.01.2023
274 Clear -35 1008 75 10000 2 300 22:36 10.01.2023
275 Clear -32 1007 68 10000 1 220 21:29 10.01.2023
276 Snow -29 1006 69 3200 2 270 19:56 10.01.2023
277 Snow -29 1006 69 3200 2 300 19:34 10.01.2023
278 Snow -30 1006 76 3200 1 310 18:47 10.01.2023
279 Snow -30 1005 76 2100 2 340 17:53 10.01.2023
280 Snow -31 1004 69 5000 2 10 15:48 10.01.2023
281 Snow -32 1004 68 10000 2 360 15:22 10.01.2023
282 Snow -34 1004 75 10000 2 10 13:42 10.01.2023
283 Snow -35 1005 68 10000 3 30 11:28 10.01.2023
284 Clouds -27 1007 96 1960 3.65 72 08:44 10.01.2023
285 Clouds -28 1007 96 3069 3.34 65 07:59 10.01.2023
286 Clouds -28 1007 96 3069 3.34 65 07:59 10.01.2023
287 Clouds -29 1009 98 7063 2.78 52 07:25 10.01.2023
288 Mist -42 1007 66 2400 3 30 04:50 10.01.2023
289 Fog -46 1012 63 700 2 30 22:50 09.01.2023
290 Fog -46 1013 63 800 2 20 21:20 09.01.2023
291 Fog -45 1014 64 550 2 20 20:32 09.01.2023
292 Fog -45 1014 65 400 1 10 18:42 09.01.2023
293 Fog -45 1015 65 400 2 360 17:51 09.01.2023
294 Fog -45 1015 65 400 1 350 16:47 09.01.2023
295 Fog -45 1015 65 450 1 340 16:29 09.01.2023
296 Fog -45 1015 65 550 1 340 15:22 09.01.2023
297 Fog -45 1015 65 550 1 340 15:22 09.01.2023
298 Fog -45 1015 65 350 1 340 14:43 09.01.2023
299 Fog -45 1015 65 350 1 340 14:43 09.01.2023
300 Fog -44 1016 66 350 0 0 12:54 09.01.2023
301 Fog -44 1016 66 500 1 350 12:18 09.01.2023
302 Fog -42 1016 66 350 2 360 11:19 09.01.2023
303 Clouds -28 1018 100 2083 1.19 42 07:23 09.01.2023
304 Clouds -27 1018 98 1715 1.04 53 06:21 09.01.2023
305 Clouds -28 1018 100 1754 0.87 73 02:53 09.01.2023
306 Clouds -28 1019 98 1123 0.5 111 22:29 08.01.2023
307 Fog -38 1017 67 550 0 0 21:22 08.01.2023
308 Clouds -28 1020 99 1157 0.44 107 20:57 08.01.2023
309 Clouds -28 1020 99 1201 0.66 91 19:19 08.01.2023
310 Clouds -28 1020 98 1024 0.43 77 17:37 08.01.2023
311 Clouds -28 1020 99 1118 0.47 63 17:18 08.01.2023
312 Clouds -28 1020 99 982 0.6 53 15:37 08.01.2023
313 Clouds -28 1021 99 722 0.78 11 14:18 08.01.2023
314 Clouds -28 1021 99 722 0.78 11 13:32 08.01.2023
315 Clouds -28 1021 99 859 0.76 27 12:58 08.01.2023
316 Snow -38 1018 67 2400 0 0 11:22 08.01.2023
317 Snow -39 1017 67 3200 1 20 09:37 08.01.2023
318 Snow -39 1017 67 3200 1 40 07:55 08.01.2023
319 Fog -43 1017 66 900 2 20 02:25 08.01.2023
320 Fog -45 1017 65 750 1 10 22:49 07.01.2023
321 Fog -45 1017 59 800 1 20 22:26 07.01.2023
322 Fog -46 1017 65 650 1 360 21:49 07.01.2023
323 Fog -46 1017 65 500 1 20 20:58 07.01.2023
324 Fog -46 1017 63 550 1 10 20:25 07.01.2023
325 Fog -47 1017 65 600 1 20 19:19 07.01.2023
326 Fog -47 1017 63 550 1 360 18:18 07.01.2023
327 Fog -47 1017 63 400 1 10 17:39 07.01.2023
328 Fog -47 1017 63 300 1 10 16:39 07.01.2023
329 Fog -47 1017 63 200 1 20 15:52 07.01.2023
330 Fog -47 1017 63 450 1 10 15:31 07.01.2023
331 Fog -47 1017 63 300 1 20 14:50 07.01.2023
332 Fog -47 1017 63 450 1 20 13:58 07.01.2023
333 Fog -47 1017 63 550 1 20 13:39 07.01.2023
334 Fog -47 1017 63 300 0 0 12:44 07.01.2023
335 Fog -47 1017 63 550 1 30 11:59 07.01.2023
336 Fog -47 1017 63 250 1 350 10:27 07.01.2023
337 Fog -47 1016 56 200 0 0 08:48 07.01.2023
338 Fog -47 1016 63 350 1 10 07:47 07.01.2023
339 Fog -47 1016 63 550 1 30 07:20 07.01.2023
340 Fog -47 1015 65 150 0 0 04:59 07.01.2023
341 Fog -48 1015 63 250 1 350 22:57 06.01.2023
342 Fog -48 1015 63 150 0 0 22:20 06.01.2023
343 Fog -48 1015 63 300 0 0 21:44 06.01.2023
344 Fog -48 1015 63 350 1 340 20:32 06.01.2023
345 Fog -48 1015 63 350 1 320 19:54 06.01.2023
346 Fog -48 1015 65 350 1 320 19:36 06.01.2023
347 Fog -47 1015 58 300 1 310 19:18 06.01.2023
348 Fog -47 1015 65 350 1 330 17:44 06.01.2023
349 Fog -46 1015 65 300 1 340 16:52 06.01.2023
350 Fog -46 1015 65 200 0 0 16:21 06.01.2023
351 Fog -45 1016 65 200 1 350 15:51 06.01.2023
352 Fog -46 1016 65 250 1 320 15:27 06.01.2023
353 Fog -45 1016 65 400 0 0 13:31 06.01.2023
354 Fog -46 1017 65 200 1 30 11:19 06.01.2023
355 Fog -46 1017 65 150 0 0 10:33 06.01.2023
356 Fog -45 1017 65 150 0 0 08:34 06.01.2023
357 Fog -44 1018 66 350 0 0 03:44 06.01.2023
358 Fog -42 1019 66 300 1 360 22:56 05.01.2023
359 Fog -42 1019 66 300 1 10 22:20 05.01.2023
360 Clouds -32 1022 100 1573 1.03 145 20:24 05.01.2023
361 Fog -42 1020 66 300 1 350 17:30 05.01.2023
362 Fog -42 1020 66 200 1 30 16:37 05.01.2023
363 Fog -42 1020 66 200 0 0 15:48 05.01.2023
364 Fog -42 1020 66 450 1 40 14:56 05.01.2023
365 Fog -42 1021 73 250 0 0 13:28 05.01.2023
366 Fog -41 1021 66 250 0 0 12:38 05.01.2023
367 Fog -41 1021 74 200 1 20 09:57 05.01.2023
368 Fog -40 1021 67 200 0 0 09:33 05.01.2023
369 Fog -41 1021 66 250 1 10 07:26 05.01.2023
370 Clouds -33 1023 100 3004 0.83 259 06:38 05.01.2023
371 Fog -41 1020 66 300 0 0 00:28 05.01.2023
372 Fog -40 1019 67 250 1 310 22:23 04.01.2023
373 Fog -41 1019 66 700 1 290 21:29 04.01.2023
374 Mist -39 1018 74 5000 1 320 19:58 04.01.2023
375 Mist -39 1018 74 5000 1 320 19:36 04.01.2023
376 Clear -38 1018 67 10000 1 330 19:18 04.01.2023
377 Snow -36 1017 68 10000 3 20 16:58 04.01.2023
378 Snow -36 1017 68 5000 3 20 16:30 04.01.2023
379 Snow -36 1017 68 5000 3 20 16:30 04.01.2023
380 Snow -37 1017 74 5000 3 30 14:49 04.01.2023
381 Snow -37 1016 67 10000 3 20 11:56 04.01.2023
382 Snow -37 1016 67 10000 4 30 11:22 04.01.2023
383 Snow -38 1016 74 5000 3 30 10:44 04.01.2023
384 Snow -38 1016 74 5000 3 30 10:24 04.01.2023
385 Snow -38 1016 67 2400 3 40 09:19 04.01.2023
386 Mist -39 1015 67 5000 3 30 05:37 04.01.2023
387 Snow -42 1016 73 3200 3 40 01:20 04.01.2023
388 Snow -41 1016 66 5000 3 30 23:37 03.01.2023
389 Mist -41 1017 66 3200 2 30 22:55 03.01.2023
390 Mist -41 1017 66 2400 2 30 21:36 03.01.2023
391 Mist -41 1018 66 2400 2 30 20:28 03.01.2023
392 Mist -41 1018 66 1500 2 10 18:22 03.01.2023
393 Snow -41 1019 66 3200 2 30 16:39 03.01.2023
394 Snow -41 1020 66 2100 2 30 14:23 03.01.2023
395 -273 0 0 0 0 0 13:32 03.01.2023
396 Mist -42 1020 66 1500 2 30 13:32 03.01.2023
397 Fog -42 1021 66 1200 2 10 12:59 03.01.2023
398 Mist -43 1021 66 1500 2 10 12:31 03.01.2023
399 Fog -44 1021 66 900 2 10 11:53 03.01.2023
400 Fog -44 1022 66 550 1 360 09:26 03.01.2023
401 Fog -44 1022 64 700 1 20 04:26 03.01.2023
402 Fog -45 1022 64 600 1 60 03:47 03.01.2023
403 Fog -45 1022 64 500 1 20 03:27 03.01.2023
404 Fog -45 1022 64 200 1 30 23:19 02.01.2023
405 Fog -45 1022 64 150 1 40 22:39 02.01.2023
406 Fog -44 1022 57 250 1 330 20:51 02.01.2023
407 Fog -43 1022 64 600 1 170 20:31 02.01.2023
408 Fog -43 1022 64 400 2 180 18:45 02.01.2023
409 Fog -42 1022 64 400 1 200 16:20 02.01.2023
410 Fog -43 1022 64 600 1 290 14:26 02.01.2023
411 Mist -43 1022 64 1000 1 170 12:38 02.01.2023
412 Mist -42 1021 66 5000 2 310 11:25 02.01.2023
413 Clear -41 1020 66 10000 1 10 08:51 02.01.2023
414 Mist -42 1018 66 5000 1 310 04:42 02.01.2023
415 Mist -44 1017 64 1100 1 330 23:28 01.01.2023
416 Mist -45 1017 73 1500 2 50 21:54 01.01.2023
417 Mist -44 1017 66 1100 1 50 20:49 01.01.2023
418 Mist -44 1016 66 1400 1 10 20:18 01.01.2023
419 Fog -44 1016 66 800 1 40 18:53 01.01.2023
420 Mist -44 1016 66 1100 2 20 17:24 01.01.2023
421 Mist -43 1016 66 1200 1 10 16:57 01.01.2023
422 Mist -44 1016 66 1600 1 10 15:38 01.01.2023
423 Mist -43 1016 66 2100 1 30 13:49 01.01.2023
424 Fog -44 1017 66 700 1 20 12:57 01.01.2023
425 Mist -44 1017 66 1500 1 50 11:41 01.01.2023
426 Mist -44 1017 66 1500 1 50 11:21 01.01.2023
427 Mist -44 1017 66 1000 1 70 09:35 01.01.2023
428 Fog -45 1018 64 350 1 70 08:25 01.01.2023
429 Fog -45 1017 64 600 0 0 07:57 01.01.2023
430 Fog -45 1017 64 600 1 70 06:42 01.01.2023
431 Fog -46 1018 63 350 1 20 23:46 31.12.2022
432 Fog -45 1018 64 250 1 340 23:21 31.12.2022
433 Fog -44 1018 64 900 2 10 21:46 31.12.2022
434 Fog -44 1018 64 600 2 360 21:23 31.12.2022
435 Fog -44 1018 64 550 2 10 20:24 31.12.2022
436 Fog -44 1018 64 250 1 20 18:51 31.12.2022
437 Fog -44 1018 64 150 1 350 18:32 31.12.2022
438 Fog -44 1018 64 150 1 360 17:57 31.12.2022
439 Fog -45 1018 65 200 1 30 17:31 31.12.2022
440 Fog -44 1018 66 150 1 340 16:31 31.12.2022
441 Fog -44 1018 66 150 0 0 15:36 31.12.2022
442 Fog -43 1019 66 200 1 330 13:56 31.12.2022
443 Fog -43 1019 66 200 1 330 13:27 31.12.2022
444 Fog -43 1019 73 250 0 0 12:24 31.12.2022
445 Fog -42 1019 66 200 1 340 11:52 31.12.2022
446 Fog -41 1019 66 300 0 0 11:25 31.12.2022
447 Clear -40 1020 74 10000 1 340 09:57 31.12.2022
448 Clear -40 1020 74 10000 1 340 09:39 31.12.2022
449 Clear -40 1019 74 10000 0 0 08:22 31.12.2022
450 Clear -36 1020 66 10000 4.02 260 02:26 31.12.2022
451 Clear -35 1020 68 10000 3 240 00:32 31.12.2022
452 Snow -35 1020 68 10000 3 260 22:55 30.12.2022
453 Snow -35 1020 68 10000 3 250 22:18 30.12.2022
454 Snow -35 1020 68 10000 3 260 21:37 30.12.2022
455 Snow -35 1020 68 10000 3 270 21:18 30.12.2022
456 Snow -34 1020 68 10000 3 240 18:28 30.12.2022
457 Snow -35 1020 75 10000 2 260 17:34 30.12.2022
458 Snow -35 1020 75 10000 2 260 17:34 30.12.2022
459 Snow -35 1020 68 10000 2 250 16:46 30.12.2022
460 Clear -35 1019 68 10000 2 280 14:55 30.12.2022
461 Snow -32 1019 68 10000 3 320 12:54 30.12.2022
462 Clear -32 1018 68 10000 3 320 08:24 30.12.2022
463 Snow -32 1016 75 5000 3 340 03:55 30.12.2022
464 Snow -31 1015 76 3200 3 10 02:26 30.12.2022
465 Snow -31 1014 76 3200 3 30 23:45 29.12.2022
466 Snow -32 1014 68 5000 2 360 21:55 29.12.2022
467 Snow -32 1014 75 5000 2 20 21:20 29.12.2022
468 Snow -32 1015 68 5000 2 10 20:45 29.12.2022
469 Snow -33 1015 75 5000 2 20 19:21 29.12.2022
470 Snow -33 1015 68 5000 2 20 17:53 29.12.2022
471 Snow -33 1015 68 5000 2 30 17:25 29.12.2022
472 Snow -33 1015 68 5000 2 360 16:54 29.12.2022
473 Snow -33 1015 68 5000 2 360 16:54 29.12.2022
474 Snow -34 1015 68 10000 1 30 15:55 29.12.2022
475 Snow -36 1016 68 10000 1 330 13:41 29.12.2022
476 Clear -36 1017 68 10000 2 330 11:54 29.12.2022
477 Clear -36 1017 75 10000 1 10 09:53 29.12.2022
478 Snow -33 1018 75 5000 1 350 03:41 29.12.2022
479 Snow -33 1019 68 10000 1 20 23:29 28.12.2022
480 Snow -34 1019 68 10000 1 360 22:19 28.12.2022
481 Snow -34 1019 68 10000 1 40 21:20 28.12.2022
482 Snow -35 1020 75 3200 1 40 20:19 28.12.2022
483 Snow -35 1020 75 2400 1 60 18:31 28.12.2022
484 Fog -37 1021 67 900 1 340 16:21 28.12.2022
485 Mist -39 1022 74 1100 1 330 14:26 28.12.2022
486 Mist -39 1023 67 1300 0 0 12:48 28.12.2022
487 Mist -38 1023 73 3200 1 340 11:33 28.12.2022
488 Mist -38 1025 73 3200 1.79 10 09:34 28.12.2022
489 Mist -38 1025 66 1800 1 10 07:48 28.12.2022
490 Mist -38 1026 73 1500 1 50 06:46 28.12.2022
491 Fog -39 1029 65 800 1 340 01:18 28.12.2022
492 Mist -38 1031 66 1800 1 330 22:28 27.12.2022
493 Mist -38 1032 66 2400 1 320 19:51 27.12.2022
494 Mist -38 1032 73 2400 1 340 18:41 27.12.2022
495 Mist -38 1033 73 3200 1 330 16:59 27.12.2022
496 Mist -37 1034 66 5000 1 350 15:55 27.12.2022
497 Mist -37 1035 66 5000 1 30 14:25 27.12.2022
498 Mist -37 1035 66 1500 1 40 12:27 27.12.2022
499 Mist -37 1036 66 3200 0 0 10:30 27.12.2022
500 Mist -37 1037 66 3200 0 0 09:41 27.12.2022
501 Mist -37 1037 66 3200 1 20 08:47 27.12.2022
502 Mist -38 1038 73 1200 0 0 04:55 27.12.2022
503 Mist -37 1040 66 5000 1 40 23:39 26.12.2022
504 Mist -36 1040 66 1500 1 90 21:51 26.12.2022
505 Mist -37 1041 73 1500 1 50 20:44 26.12.2022
506 Mist -37 1041 66 1100 0 0 19:51 26.12.2022
507 Mist -38 1041 73 1100 0 0 18:42 26.12.2022
508 Fog -39 1041 73 1100 1 360 17:18 26.12.2022
509 Fog -38 1041 66 1100 1 60 15:38 26.12.2022
510 Fog -38 1042 73 1100 1 350 12:59 26.12.2022
511 Clear -37 1042 67 10000 1 360 10:49 26.12.2022
512 Mist -36 1042 73 5000 0 0 05:43 26.12.2022
513 Clear -37 1041 73 10000 0 0 23:41 25.12.2022
514 Clear -37 1041 73 10000 0 0 22:51 25.12.2022
515 Clear -38 1042 66 10000 0 0 22:22 25.12.2022
516 Clear -37 1042 73 10000 1 310 19:56 25.12.2022
517 Clear -34 1041 74 10000 2 300 17:52 25.12.2022
518 Clear -33 1041 67 10000 2 300 17:34 25.12.2022
519 Clear -32 1041 67 10000 1 300 16:41 25.12.2022
520 Clouds -30 1041 75 10000 1 300 13:30 25.12.2022
521 Clear -28 1040 75 10000 3.13 300 11:39 25.12.2022
522 Clouds -26 1039 69 10000 2 300 04:48 25.12.2022
523 Clear -26 1038 69 10000 3.13 300 22:55 24.12.2022
524 Clear -25 1038 69 10000 1 350 19:53 24.12.2022
525 Clear -26 1037 76 10000 1 350 17:34 24.12.2022
526 Clear -25 1037 77 10000 1 10 15:38 24.12.2022
527 Clear -24 1036 70 10000 2 360 14:30 24.12.2022
528 Snow -25 1036 77 10000 1 30 12:20 24.12.2022
529 Snow -25 1035 77 10000 1 130 10:24 24.12.2022
530 Snow -25 1035 70 5000 1 150 09:37 24.12.2022
531 Snow -26 1035 76 5000 1 160 08:46 24.12.2022
532 Snow -27 1035 76 10000 0 0 02:52 24.12.2022
533 Clear -27 1035 75 10000 1 360 00:29 24.12.2022
534 Clear -27 1035 75 10000 1 50 22:45 23.12.2022
535 Clear -27 1034 75 10000 1 60 21:43 23.12.2022
536 Clear -27 1035 75 10000 2 30 19:40 23.12.2022
537 Clear -27 1035 75 10000 2 20 19:22 23.12.2022
538 Clear -27 1035 75 10000 2 20 18:53 23.12.2022
539 Clear -27 1035 75 10000 2 20 18:22 23.12.2022
540 Clear -27 1035 75 10000 2 20 17:43 23.12.2022
541 Clear -26 1036 69 10000 2 30 15:52 23.12.2022
542 Clear -27 1036 75 10000 1 20 14:33 23.12.2022
543 Clear -27 1037 69 10000 0 0 10:21 23.12.2022
544 Clear -28 1037 75 10000 1 130 09:35 23.12.2022
545 Clear -28 1037 75 10000 1 180 07:43 23.12.2022
546 Clear -28 1037 75 10000 1 180 06:50 23.12.2022
547 Snow -30 1038 76 10000 1 150 02:45 23.12.2022
548 Clear -30 1038 76 10000 1 190 23:20 22.12.2022
549 Clear -31 1039 76 10000 1 180 21:56 22.12.2022
550 Clear -32 1040 68 10000 1 150 19:48 22.12.2022
551 Clear -32 1040 68 10000 0 0 19:21 22.12.2022
552 Mist -33 1040 75 5000 1 150 17:59 22.12.2022
553 Mist -33 1040 68 5000 0 0 16:54 22.12.2022
554 Mist -34 1040 68 5000 0 0 15:48 22.12.2022
555 Mist -35 1040 75 5000 0 0 15:29 22.12.2022
556 Mist -35 1041 66 5000 0 0 14:30 22.12.2022
557 Mist -36 1040 75 5000 0 0 13:31 22.12.2022
558 Mist -36 1040 68 5000 0 0 12:31 22.12.2022
559 Mist -37 1040 74 2100 0 0 10:32 22.12.2022
560 Mist -36 1040 68 2100 0 0 09:24 22.12.2022
561 Mist -36 1040 68 5000 0 0 08:59 22.12.2022
562 Mist -36 1040 68 5000 0 0 07:54 22.12.2022
563 Fog -38 1038 67 800 0 0 04:19 22.12.2022
564 Fog -39 1037 65 400 0 0 00:48 22.12.2022
565 Mist -39 1036 65 1500 0 0 22:41 21.12.2022
566 Mist -40 1036 65 1500 0 0 21:50 21.12.2022
567 Mist -39 1036 65 1100 0 0 21:20 21.12.2022
568 Mist -39 1036 65 1100 0 0 20:40 21.12.2022
569 Mist -39 1035 65 1400 0 0 19:56 21.12.2022
570 Mist -39 1035 65 1400 0 0 19:37 21.12.2022
571 Fog -39 1035 65 600 0 0 19:18 21.12.2022
572 Fog -39 1035 65 600 0 0 18:38 21.12.2022
573 Mist -39 1034 73 1500 0 0 16:19 21.12.2022
574 Mist -38 1034 73 5000 1 340 14:24 21.12.2022
575 Mist -37 1033 66 5000 0 0 12:18 21.12.2022
576 Mist -35 1032 66 5000 1 320 11:21 21.12.2022
577 Mist -36 1032 73 3200 1 320 10:30 21.12.2022
578 Mist -36 1031 66 2400 1 340 08:50 21.12.2022
579 Mist -34 1028 75 3200 1 130 06:35 21.12.2022
580 Fog -36 1024 68 800 1 170 00:27 21.12.2022
581 Fog -40 1023 67 800 1 190 21:48 20.12.2022
582 Fog -41 1022 66 400 1 140 20:58 20.12.2022
583 Fog -41 1023 66 550 1 170 19:59 20.12.2022
584 Fog -42 1022 66 450 1 230 18:48 20.12.2022
585 Fog -42 1022 66 250 0 0 18:23 20.12.2022
586 Fog -42 1022 66 250 1 160 17:50 20.12.2022
587 Fog -42 1022 64 350 1 170 17:25 20.12.2022
588 Fog -43 1022 64 900 1 230 15:59 20.12.2022
589 Fog -43 1022 64 400 0 0 14:56 20.12.2022
590 Fog -43 1022 64 350 1 40 14:36 20.12.2022
591 Mist -43 1022 64 2100 0 0 13:30 20.12.2022
592 Fog -42 1022 64 800 0 0 12:37 20.12.2022
593 Fog -42 1022 64 350 1 90 11:54 20.12.2022
594 Fog -42 1022 64 600 1 210 10:21 20.12.2022
595 Fog -42 1021 64 350 1 150 07:25 20.12.2022
596 Fog -44 1020 64 300 1 360 00:20 20.12.2022
597 Fog -44 1020 66 500 1 330 22:22 19.12.2022
598 Fog -44 1019 66 500 1 340 21:22 19.12.2022
599 Fog -43 1019 66 350 1 330 19:41 19.12.2022
600 Fog -44 1019 66 300 1 320 18:57 19.12.2022
601 Fog -43 1018 66 250 2 360 17:38 19.12.2022
602 Fog -43 1018 66 250 2 360 15:59 19.12.2022
603 Fog -42 1017 66 250 1 350 13:20 19.12.2022
604 Fog -42 1017 66 300 1 350 11:36 19.12.2022
605 Fog -42 1017 66 300 1 350 11:36 19.12.2022
606 Mist -40 1015 67 1000 2 10 07:50 19.12.2022
607 Snow -41 1015 66 5000 2 40 06:58 19.12.2022
608 Snow -39 1014 67 3200 2 40 00:50 19.12.2022
609 Snow -39 1014 67 3200 1 80 21:49 18.12.2022
610 Snow -39 1014 67 2400 1 90 21:31 18.12.2022
611 Snow -39 1014 67 2100 1 110 20:54 18.12.2022
612 Snow -39 1014 67 2400 1 100 19:44 18.12.2022
613 Snow -39 1014 67 2400 0 0 19:23 18.12.2022
614 Snow -40 1014 67 1700 0 0 17:52 18.12.2022
615 Fog -42 1017 66 300 0 0 15:43 18.12.2022
616 Fog -42 1017 66 300 0 0 15:25 18.12.2022
617 Fog -42 1017 66 200 0 0 14:59 18.12.2022
618 Fog -44 1019 59 350 1 170 13:29 18.12.2022
619 Fog -45 1019 65 300 1 180 12:50 18.12.2022
620 Fog -45 1020 65 200 1 180 11:51 18.12.2022
621 Fog -45 1021 64 200 1 210 09:47 18.12.2022
622 Fog -46 1023 63 300 1 180 08:46 18.12.2022
623 Fog -45 1024 64 300 0 0 07:20 18.12.2022
624 Fog -46 1024 65 400 0 0 06:19 18.12.2022
625 Fog -47 1027 63 400 1 290 01:57 18.12.2022
626 Fog -48 1029 56 800 1 300 23:32 17.12.2022
627 Fog -49 1030 62 600 2 300 21:18 17.12.2022
628 Fog -50 1032 62 600 1 310 18:50 17.12.2022
629 Fog -49 1033 58 450 1 320 15:51 17.12.2022
630 Fog -50 1033 64 350 0 0 13:33 17.12.2022
631 Fog -49 1034 58 300 1 350 11:23 17.12.2022
632 Fog -50 1034 64 400 1 10 10:44 17.12.2022
633 Fog -49 1033 58 350 1 360 09:40 17.12.2022
634 Fog -49 1032 58 600 0 0 07:24 17.12.2022
635 Fog -49 1032 64 550 1 30 06:45 17.12.2022
636 Fog -48 1030 63 300 1 350 23:32 16.12.2022
637 Fog -47 1029 56 250 1 40 20:34 16.12.2022
638 Fog -47 1028 63 250 1 320 18:42 16.12.2022
639 Fog -46 1028 65 200 1 350 15:37 16.12.2022
640 Fog -47 1027 65 300 0 0 14:47 16.12.2022
641 Fog -46 1027 63 350 1 340 13:40 16.12.2022
642 Fog -45 1028 64 200 0 0 11:57 16.12.2022
643 Fog -46 1027 65 150 0 0 09:53 16.12.2022
644 Fog -46 1027 65 150 0 0 08:54 16.12.2022
645 Fog -46 1027 65 150 0 0 07:55 16.12.2022
646 Fog -46 1027 65 150 0 0 07:25 16.12.2022
647 Fog -45 1028 64 550 0 0 23:24 15.12.2022
648 Fog -44 1028 64 600 1 270 22:20 15.12.2022
649 Fog -44 1028 64 200 0 0 20:30 15.12.2022
650 Fog -44 1028 64 150 1 290 19:35 15.12.2022
651 Fog -44 1028 64 150 0 0 17:28 15.12.2022
652 Fog -45 1027 64 200 1 260 16:39 15.12.2022
653 Fog -44 1028 57 200 0 0 14:57 15.12.2022
654 Fog -43 1027 64 100 2 230 13:18 15.12.2022
655 Fog -45 1028 64 200 1 240 12:25 15.12.2022
656 Fog -45 1026 64 150 1 180 09:32 15.12.2022
657 Fog -45 1026 64 100 1 230 08:49 15.12.2022
658 Fog -47 1025 65 150 1 180 05:48 15.12.2022
659 Fog -47 1026 56 200 1 140 02:38 15.12.2022
660 Fog -48 1027 63 450 1 170 21:25 14.12.2022
661 Fog -48 1027 63 200 0 0 20:57 14.12.2022
662 Fog -48 1027 63 300 0 0 20:23 14.12.2022
663 Fog -47 1028 56 150 1 330 17:56 14.12.2022
664 Fog -48 1028 63 250 0 0 16:57 14.12.2022
665 Fog -48 1028 63 200 1 320 15:39 14.12.2022
666 Fog -47 1029 63 200 1 360 13:40 14.12.2022
667 Fog -47 1029 63 250 0 0 11:20 14.12.2022
668 Fog -48 1029 63 250 1 60 10:31 14.12.2022
669 Fog -47 1029 56 250 1 20 08:48 14.12.2022
670 Fog -48 1029 63 800 1 360 22:47 13.12.2022
671 Fog -48 1029 63 750 2 10 21:48 13.12.2022
672 Fog -48 1029 63 450 2 10 20:48 13.12.2022
673 Fog -48 1029 63 350 1 10 19:57 13.12.2022
674 Fog -48 1029 63 350 1 40 17:21 13.12.2022
675 Fog -48 1029 65 350 1 340 15:35 13.12.2022
676 Fog -48 1029 65 500 1 10 14:36 13.12.2022
677 Fog -47 1028 65 350 2 10 10:55 13.12.2022
678 Fog -47 1028 65 500 2 30 10:36 13.12.2022
679 Fog -46 1028 58 550 1 40 09:23 13.12.2022
680 Clouds -34 1028 98 1598 1.15 225 23:23 12.12.2022
681 Clouds -33 1028 98 1376 1.21 236 22:22 12.12.2022
682 Clouds -33 1028 97 1225 1.43 239 20:53 12.12.2022
683 Clouds -33 1028 97 899 1.64 243 18:32 12.12.2022
684 Fog -41 1024 66 1200 2 20 16:35 12.12.2022
685 Snow -37 1024 67 10000 2 240 15:22 12.12.2022
686 Snow -36 1023 68 10000 3 250 11:50 12.12.2022
687 Snow -35 1022 66 10000 3.13 260 09:19 12.12.2022
688 Fog -39 1020 65 900 1 210 04:54 12.12.2022
689 Fog -42 1019 64 750 3.13 180 01:53 12.12.2022
690 Fog -43 1019 64 350 1 170 22:53 11.12.2022
691 Fog -43 1018 64 400 1 180 20:42 11.12.2022
692 Fog -44 1018 64 450 1 160 19:42 11.12.2022
693 Fog -44 1017 64 400 2 160 18:56 11.12.2022
694 Fog -44 1017 64 300 0 0 17:58 11.12.2022
695 Fog -44 1017 64 300 1 240 17:29 11.12.2022
696 Fog -42 1017 66 500 1 280 16:51 11.12.2022
697 Fog -42 1016 66 750 2 310 15:46 11.12.2022
698 Fog -44 1016 64 450 2 310 14:26 11.12.2022
699 Fog -44 1016 64 400 1 340 12:44 11.12.2022
700 Fog -44 1015 57 500 1 210 11:41 11.12.2022
701 Fog -44 1014 64 450 0 0 08:25 11.12.2022
702 Fog -45 1013 73 300 2 300 00:34 11.12.2022
703 Fog -44 1012 66 450 2 310 22:54 10.12.2022
704 Fog -44 1012 66 600 1 300 22:33 10.12.2022
705 Clouds -33 1015 99 3051 1.36 341 21:19 10.12.2022
706 Clouds -32 1015 99 2129 1.32 354 20:26 10.12.2022
707 Clouds -32 1015 98 1931 1.35 4 18:46 10.12.2022
708 Fog -41 1011 66 900 2 310 16:51 10.12.2022
709 Snow -41 1011 66 1100 1 310 16:32 10.12.2022
710 Snow -40 1011 67 2400 2 10 15:38 10.12.2022
711 Mist -41 1011 66 1300 2 360 14:22 10.12.2022
712 Snow -40 1011 67 3200 2 10 12:53 10.12.2022
713 Snow -40 1011 67 2100 2 350 11:35 10.12.2022
714 Snow -40 1011 67 2000 2 360 10:34 10.12.2022
715 Snow -40 1010 67 2100 2 10 08:55 10.12.2022
716 Snow -41 1010 74 2000 2 10 07:19 10.12.2022
717 Clouds -32 1013 98 1512 1.46 49 00:19 10.12.2022
718 Clouds -32 1013 98 1570 1.4 54 22:46 09.12.2022
719 Clouds -32 1013 98 1765 1.32 56 21:48 09.12.2022
720 Clouds -33 1013 99 2021 1.15 52 21:21 09.12.2022
721 Clouds -33 1013 99 2021 1.15 52 20:41 09.12.2022
722 Clouds -32 1014 99 1347 1.1 54 18:42 09.12.2022
723 Clouds -32 1014 100 1515 1 59 17:51 09.12.2022
724 Fog -41 1010 66 800 2 350 16:30 09.12.2022
725 Fog -40 1010 67 600 1 320 15:34 09.12.2022
726 Fog -39 1010 67 800 2 350 14:40 09.12.2022
727 Mist -39 1009 74 5000 3 320 11:29 09.12.2022
728 Clear -38 1009 74 10000 2 330 10:32 09.12.2022
729 Clear -34 1009 68 10000 2 330 08:24 09.12.2022
730 Snow -34 1008 68 5000 1 210 03:19 09.12.2022
731 Snow -35 1007 68 5000 2 200 00:18 09.12.2022
732 Snow -35 1008 68 5000 3 190 21:23 08.12.2022
733 Snow -35 1008 68 5000 2 210 20:21 08.12.2022
734 Mist -38 1007 73 2400 3 180 16:52 08.12.2022
735 Fog -40 1007 72 900 1 170 14:46 08.12.2022
736 Fog -40 1007 65 500 1 160 14:21 08.12.2022
737 Clear -40 1007 65 10000 0 0 10:56 08.12.2022
738 Clear -40 1007 65 10000 1 300 09:35 08.12.2022
739 Clear -40 1006 65 10000 2 310 08:58 08.12.2022
740 Mist -39 1000 67 5000 5 40 22:44 07.12.2022
741 Mist -39 1000 67 5000 5 30 22:19 07.12.2022
742 Mist -39 1000 67 5000 5 30 22:19 07.12.2022
743 Mist -39 1000 67 5000 4 40 21:47 07.12.2022
744 Snow -40 1000 74 5000 4 20 20:36 07.12.2022
745 Snow -40 1001 67 3200 4 30 18:42 07.12.2022
746 Mist -41 1002 66 2100 3 10 16:21 07.12.2022
747 Mist -41 1002 66 1800 3 20 14:40 07.12.2022
748 Fog -42 1002 64 500 2 20 11:37 07.12.2022
749 Fog -42 1002 64 350 2 360 10:36 07.12.2022
750 Fog -42 1003 64 350 2 360 09:36 07.12.2022
751 Fog -42 1003 64 350 2 340 08:44 07.12.2022
752 Fog -42 1003 66 300 1 20 05:28 07.12.2022
753 Fog -43 1003 66 300 1 30 03:55 07.12.2022
754 Mist -39 1003 73 3200 0 0 22:35 06.12.2022
755 Clear -38 1002 67 10000 2 340 19:45 06.12.2022
756 Clear -38 1001 67 10000 2 310 17:39 06.12.2022
757 Snow -38 1001 67 10000 3 320 16:40 06.12.2022
758 Clear -37 1000 67 10000 2 330 15:40 06.12.2022
759 Clear -37 999 67 10000 2 320 14:55 06.12.2022
760 Snow -36 998 68 10000 3 340 14:24 06.12.2022
761 Snow -36 997 68 10000 2 10 12:42 06.12.2022
762 Snow -36 997 68 10000 2 360 12:20 06.12.2022
763 Snow -37 994 67 2400 2 30 07:51 06.12.2022
764 Clouds -26 996 96 876 0.63 87 04:54 06.12.2022
765 Clouds -28 996 99 747 0.83 137 01:24 06.12.2022
766 Snow -38 992 67 10000 1 50 22:25 05.12.2022
767 Snow -39 992 74 10000 1 150 20:55 05.12.2022
768 Snow -38 992 74 10000 0 0 20:25 05.12.2022
769 Snow -38 992 74 10000 0 0 19:43 05.12.2022
770 Snow -38 992 67 10000 1 210 16:57 05.12.2022
771 Snow -38 992 67 10000 1 210 16:57 05.12.2022
772 Snow -36 992 68 10000 1 310 15:49 05.12.2022
773 Snow -35 992 61 10000 2 320 15:18 05.12.2022
774 Snow -36 991 68 10000 3 330 12:59 05.12.2022
775 Snow -36 991 68 10000 4 340 12:38 05.12.2022
776 Snow -36 991 68 10000 3 330 11:46 05.12.2022
777 Snow -37 989 74 10000 3 10 09:36 05.12.2022
778 Snow -36 990 68 5000 4 40 00:19 05.12.2022
779 Snow -36 991 68 10000 4 40 22:44 04.12.2022
780 Snow -36 991 68 10000 4 30 22:20 04.12.2022
781 Snow -36 992 68 10000 4 40 21:41 04.12.2022
782 Snow -36 992 68 10000 3 40 20:27 04.12.2022
783 Snow -36 993 68 5000 3 40 19:26 04.12.2022
784 Snow -36 993 68 5000 3 50 18:40 04.12.2022
785 Snow -36 995 68 5000 3 80 17:23 04.12.2022
786 Snow -36 996 68 10000 2 80 16:37 04.12.2022
787 Snow -36 996 68 5000 3 100 16:19 04.12.2022
788 Snow -36 997 68 5000 3 100 15:54 04.12.2022
789 Snow -36 998 68 5000 2 120 14:43 04.12.2022
790 Snow -36 1001 68 5000 2 140 13:18 04.12.2022
791 Snow -36 1002 68 5000 2 160 12:42 04.12.2022
792 Snow -36 1003 68 3200 2 170 11:46 04.12.2022
793 Snow -36 1005 68 3200 1 140 09:20 04.12.2022
794 Snow -37 1007 74 5000 1 160 07:21 04.12.2022
795 Mist -40 1010 74 1000 1 330 00:44 04.12.2022
796 Snow -39 1010 67 1200 1 40 23:30 03.12.2022
797 Fog -40 1010 74 900 1 10 21:55 03.12.2022
798 Fog -40 1011 67 1000 1 360 21:19 03.12.2022
799 Fog -41 1011 66 800 1 330 19:34 03.12.2022
800 Clouds -31 1013 100 1977 0.96 33 18:39 03.12.2022
801 Clouds -30 1014 98 1275 1.03 40 15:53 03.12.2022
802 Clouds -30 1014 98 1865 1 39 14:23 03.12.2022
803 Clouds -30 1015 98 1275 0.95 31 12:54 03.12.2022
804 Clouds -30 1015 98 1358 1.13 40 12:22 03.12.2022
805 Snow -40 1012 67 3200 2 40 10:21 03.12.2022
806 Clouds -29 1014 98 1173 1.28 44 06:56 03.12.2022
807 Clouds -30 1013 99 980 0.82 88 00:31 03.12.2022
808 Clouds -30 1013 99 808 0.9 102 22:41 02.12.2022
809 Clouds -31 1013 98 909 0.93 122 20:53 02.12.2022
810 Clouds -30 1013 98 793 0.75 131 19:26 02.12.2022
811 Clouds -33 1013 99 1822 0.5 115 15:59 02.12.2022
812 Fog -42 1011 66 450 1 350 14:43 02.12.2022
813 Fog -42 1011 66 450 1 350 14:23 02.12.2022
814 Fog -42 1010 66 900 1 30 12:56 02.12.2022
815 Fog -42 1010 66 450 1 20 11:40 02.12.2022
816 Fog -41 1010 66 750 2 10 08:48 02.12.2022
817 Fog -41 1009 74 900 1 350 07:24 02.12.2022
818 Fog -42 1007 66 350 1 330 23:54 01.12.2022
819 Fog -42 1007 66 250 1 350 21:59 01.12.2022
820 Clouds -32 1009 97 1154 0.33 53 21:37 01.12.2022
821 Clouds -32 1009 97 1433 0.29 348 20:18 01.12.2022
822 Fog -41 1006 66 500 1 320 18:23 01.12.2022
823 Fog -40 1006 74 800 1 350 15:59 01.12.2022
824 Snow -37 1005 67 10000 2 50 12:35 01.12.2022
825 Snow -36 1004 68 10000 2 40 10:28 01.12.2022
826 Snow -36 1004 68 10000 3 30 09:54 01.12.2022
827 Snow -36 1004 75 10000 3 30 09:36 01.12.2022
828 Mist -37 1003 67 2100 1 280 02:00 01.12.2022
829 Clear -37 1004 67 10000 1 230 22:39 30.11.2022
830 Mist -39 1005 67 2400 1 240 21:19 30.11.2022
831 Mist -39 1005 74 2400 0 0 20:47 30.11.2022
832 Mist -38 1005 67 5000 0 0 20:23 30.11.2022
833 Snow -37 1007 67 2400 1 340 18:34 30.11.2022
834 Snow -37 1007 67 10000 0 0 17:36 30.11.2022
835 Snow -37 1008 74 10000 0 0 16:19 30.11.2022
836 Snow -38 1009 74 5000 0 0 14:39 30.11.2022
837 Snow -38 1010 74 5000 0 0 14:20 30.11.2022
838 Snow -35 1013 75 10000 1 140 11:34 30.11.2022
839 Snow -34 1015 67 10000 1 320 08:40 30.11.2022
840 Snow -34 1015 67 10000 1 320 08:40 30.11.2022
841 Snow -34 1015 67 10000 2 300 07:57 30.11.2022
842 Clear -35 1020 74 10000 2 300 23:42 29.11.2022
843 Clear -34 1021 67 10000 2 290 23:21 29.11.2022
844 Clear -34 1022 67 10000 1 280 21:39 29.11.2022
845 Clouds -35 1022 74 10000 1 290 20:37 29.11.2022
846 Snow -35 1022 74 10000 2 270 19:18 29.11.2022
847 Snow -34 1023 67 10000 2 270 17:36 29.11.2022
848 Clear -34 1024 67 10000 2 270 16:26 29.11.2022
849 Clear -34 1024 74 10000 2 290 14:50 29.11.2022
850 Snow -33 1025 74 10000 2 300 13:35 29.11.2022
851 Clouds -33 1025 75 10000 0 0 11:57 29.11.2022
852 Clouds -33 1025 74 10000 0 0 11:18 29.11.2022
853 Clouds -33 1025 74 10000 1 260 10:22 29.11.2022
854 Clouds -33 1026 68 10000 2 250 08:42 29.11.2022
855 Clouds -35 1029 68 10000 2 280 01:30 29.11.2022
856 Snow -36 1030 75 10000 1 300 23:35 28.11.2022
857 Mist -36 1030 75 5000 1 300 22:53 28.11.2022
858 Mist -38 1031 73 5000 1 270 21:44 28.11.2022
859 Mist -39 1031 73 5000 0 0 21:21 28.11.2022
860 Mist -39 1031 65 5000 0 0 19:39 28.11.2022
861 Mist -40 1032 65 5000 0 0 18:29 28.11.2022
862 Mist -39 1032 65 3200 0 0 17:51 28.11.2022
863 Mist -39 1032 65 1500 0 0 16:35 28.11.2022
864 Fog -40 1033 72 550 0 0 14:28 28.11.2022
865 Fog -40 1033 72 500 0 0 13:52 28.11.2022
866 Fog -40 1033 65 350 0 0 12:42 28.11.2022
867 Fog -41 1033 65 200 0 0 10:22 28.11.2022
868 Fog -38 1033 66 700 1 180 07:27 28.11.2022
869 Fog -39 1033 67 400 0 0 04:43 28.11.2022
870 Fog -40 1033 67 400 1 110 03:58 28.11.2022
871 Fog -40 1033 65 300 0 0 03:18 28.11.2022
872 Fog -41 1033 65 200 0 0 22:47 27.11.2022
873 Fog -41 1033 65 300 0 0 21:42 27.11.2022
874 Fog -41 1032 65 250 0 0 20:26 27.11.2022
875 Fog -42 1032 64 350 0 0 17:49 27.11.2022
876 Fog -41 1032 72 300 0 0 15:28 27.11.2022
877 Fog -40 1032 65 350 1 40 12:41 27.11.2022
878 Fog -40 1032 65 300 0 0 10:50 27.11.2022
879 Fog -39 1031 65 600 1 130 08:19 27.11.2022
880 Fog -42 1030 64 450 1 330 00:49 27.11.2022
881 Fog -41 1030 66 800 1 320 22:25 26.11.2022
882 Fog -40 1030 67 600 1 350 20:51 26.11.2022
883 Fog -40 1030 67 600 1 30 19:26 26.11.2022
884 Mist -39 1029 74 5000 1 40 17:30 26.11.2022
885 Clear -37 1029 67 10000 1 360 15:47 26.11.2022
886 Mist -37 1030 67 5000 1 20 13:33 26.11.2022
887 Mist -37 1029 67 5000 1 30 11:36 26.11.2022
888 Mist -37 1029 67 2400 1 50 09:45 26.11.2022
889 Mist -37 1029 67 2400 1 40 09:21 26.11.2022
890 Fog -39 1028 73 800 1 90 05:37 26.11.2022
891 Fog -39 1028 65 800 0.89 330 21:43 25.11.2022
892 Fog -39 1028 65 800 0 0 21:21 25.11.2022
893 Fog -40 1028 65 450 0 0 19:56 25.11.2022
894 Fog -40 1028 65 800 1 330 16:49 25.11.2022
895 Fog -39 1029 65 700 1 260 14:21 25.11.2022
896 Mist -38 1028 66 2100 0 0 09:21 25.11.2022
897 Mist -37 1028 66 1800 1 140 08:40 25.11.2022
898 Mist -38 1028 73 1800 1 150 06:54 25.11.2022
899 Mist -37 1027 66 1200 1 170 05:40 25.11.2022
900 Fog -38 1026 66 1200 2 320 23:53 24.11.2022
901 Fog -40 1026 74 450 1 290 22:50 24.11.2022
902 Fog -39 1025 65 350 1 310 21:58 24.11.2022
903 Fog -39 1025 65 400 1 290 20:19 24.11.2022
904 Fog -38 1024 66 800 1 310 18:19 24.11.2022
905 Mist -38 1024 73 1500 2 310 17:38 24.11.2022
906 Mist -38 1024 73 1900 1 310 17:20 24.11.2022
907 Clear -34 1023 67 10000 1 340 14:37 24.11.2022
908 Snow -35 1023 68 10000 1 320 13:45 24.11.2022
909 Snow -36 1022 75 10000 2 310 11:55 24.11.2022
910 Snow -35 1022 68 10000 1 230 10:35 24.11.2022
911 Mist -35 1020 68 5000 1 160 07:53 24.11.2022
912 Snow -33 1018 68 10000 0 0 03:22 24.11.2022
913 Snow -34 1017 75 10000 1 350 23:45 23.11.2022
914 Snow -33 1017 68 5000 2 340 21:56 23.11.2022
915 Snow -33 1017 68 5000 0 0 21:23 23.11.2022
916 Snow -33 1017 75 5000 1 10 20:21 23.11.2022
917 Snow -33 1017 75 10000 1 350 18:59 23.11.2022
918 Snow -33 1017 75 5000 1 340 18:41 23.11.2022
919 Snow -32 1017 75 5000 1 20 16:33 23.11.2022
920 Snow -32 1017 75 5000 1 40 13:39 23.11.2022
921 Snow -31 1017 69 5000 0 0 13:19 23.11.2022
922 Snow -31 1017 76 5000 1 160 11:59 23.11.2022
923 Snow -31 1017 69 5000 0 0 11:41 23.11.2022
924 Snow -31 1018 74 5000 0 0 10:42 23.11.2022
925 Snow -30 1018 75 10000 1 180 09:42 23.11.2022
926 Snow -30 1018 68 10000 1 180 09:24 23.11.2022
927 Snow -31 1018 74 10000 1 170 08:36 23.11.2022
928 Mist -31 1017 69 5000 2 160 05:22 23.11.2022
929 Snow -32 1018 75 5000 2 180 04:22 23.11.2022
930 Clouds -30 1018 75 10000 1 140 22:59 22.11.2022
931 Clouds -30 1018 68 10000 1 160 22:18 22.11.2022
932 Clouds -31 1019 74 10000 0 0 21:33 22.11.2022
933 Clouds -31 1019 74 10000 0 0 20:45 22.11.2022
934 Clouds -32 1019 74 10000 0 0 19:53 22.11.2022
935 Clouds -32 1019 74 10000 1 360 17:56 22.11.2022
936 Clear -32 1019 67 10000 1 360 16:55 22.11.2022
937 Snow -32 1019 74 10000 1 350 15:50 22.11.2022
938 Clear -33 1020 74 10000 1 330 13:41 22.11.2022
939 Clear -33 1020 74 10000 1.79 330 11:40 22.11.2022
940 Clear -33 1021 74 10000 1 50 09:18 22.11.2022
941 Clear -30 1020 75 10000 0 0 07:18 22.11.2022
942 Snow -29 1022 75 10000 1 170 01:38 22.11.2022
943 Snow -30 1021 75 10000 1 340 23:36 21.11.2022
944 Snow -30 1021 75 10000 0 0 22:34 21.11.2022
945 Snow -30 1021 75 10000 1 270 21:58 21.11.2022
946 Snow -29 1021 75 10000 1 330 20:36 21.11.2022
947 Snow -29 1022 75 10000 1.79 310 19:41 21.11.2022
948 Snow -29 1022 76 10000 1 330 18:54 21.11.2022
949 Snow -29 1022 76 10000 1 320 17:46 21.11.2022
950 Snow -29 1022 76 10000 1 0 16:53 21.11.2022
951 Snow -28 1022 76 10000 1 320 16:34 21.11.2022
952 Snow -27 1022 76 10000 2 280 15:24 21.11.2022
953 Clouds -28 1022 76 10000 0 0 13:59 21.11.2022
954 Clear -29 1022 76 10000 0 0 13:40 21.11.2022
955 Clear -28 1022 75 10000 1 230 10:27 21.11.2022
956 Snow -26 1022 76 5000 1 200 08:39 21.11.2022
957 Snow -25 1022 76 5000 1 180 06:39 21.11.2022
958 Snow -31 1022 67 10000 0 0 22:26 20.11.2022
959 Clear -33 1022 67 10000 1 200 21:33 20.11.2022
960 Clear -34 1022 74 10000 1 210 20:24 20.11.2022
961 Clear -34 1022 74 10000 1 160 18:25 20.11.2022
962 Clear -33 1022 74 10000 1 190 16:23 20.11.2022
963 Clear -33 1022 67 10000 0 0 15:29 20.11.2022
964 Clear -34 1022 74 10000 1 210 14:41 20.11.2022
965 Clear -32 1022 67 10000 0 0 13:32 20.11.2022
966 Clear -32 1022 67 10000 0 0 13:32 20.11.2022
967 Clear -32 1022 74 10000 1 270 12:33 20.11.2022
968 Clear -32 1022 74 10000 1 320 10:59 20.11.2022
969 Clear -32 1022 74 10000 0 0 10:29 20.11.2022
970 Clear -31 1022 67 10000 1 30 09:19 20.11.2022
971 Clear -30 1022 75 10000 0 0 08:34 20.11.2022
972 Clear -29 1022 75 10000 1 160 07:29 20.11.2022
973 Clear -33 1024 67 10000 1 350 02:19 20.11.2022
974 Clear -34 1024 74 10000 2 330 01:20 20.11.2022
975 Clear -34 1024 67 10000 1.79 320 00:41 20.11.2022
976 Clear -34 1024 74 10000 1 280 00:22 20.11.2022
977 Clear -33 1024 67 10000 1 320 23:49 19.11.2022
978 Clear -33 1024 74 10000 1 290 23:23 19.11.2022
979 Clear -33 1024 74 10000 1 320 22:38 19.11.2022
980 Clear -32 1024 74 10000 2 330 21:32 19.11.2022
981 Clear -31 1025 67 10000 1 330 20:56 19.11.2022
982 Clear -31 1025 74 10000 1 320 20:29 19.11.2022
983 Clear -29 1025 76 10000 1 320 18:57 19.11.2022
984 Clear -27 1025 76 10000 1 310 17:41 19.11.2022
985 Clear -27 1025 76 10000 1 310 17:19 19.11.2022
986 Clouds -25 1025 84 10000 1 100 15:41 19.11.2022
987 Snow -25 1025 77 10000 1 50 14:30 19.11.2022
988 Snow -23 1026 70 10000 1 340 11:58 19.11.2022
989 Snow -23 1026 69 10000 2 360 10:56 19.11.2022
990 Snow -23 1025 69 10000 2 30 08:39 19.11.2022
991 Snow -24 1025 76 10000 2 20 04:55 19.11.2022
992 Snow -24 1025 76 10000 3.13 40 02:51 19.11.2022
993 Snow -24 1024 77 10000 2 30 23:45 18.11.2022
994 Snow -23 1024 70 10000 2 30 22:38 18.11.2022
995 Snow -23 1024 70 10000 2 30 21:37 18.11.2022
996 Snow -23 1024 70 10000 2 30 20:59 18.11.2022
997 Clear -23 1024 70 10000 1 40 20:30 18.11.2022
998 Snow -23 1024 70 10000 1 40 19:46 18.11.2022
999 Clear -23 1024 69 10000 1 350 18:38 18.11.2022
1000 Clear -24 1024 77 10000 1 300 17:42 18.11.2022
1001 Clear -27 1023 76 10000 2 330 14:32 18.11.2022
1002 Snow -24 1021 76 10000 1 10 11:31 18.11.2022
1003 Snow -25 1020 77 10000 2 360 08:46 18.11.2022
1004 Snow -25 1019 70 10000 3 360 07:51 18.11.2022
1005 Snow -26 1018 70 5000 2 20 05:19 18.11.2022
1006 Snow -27 1017 75 10000 2 60 00:50 18.11.2022
1007 Snow -27 1017 69 10000 2 50 22:20 17.11.2022
1008 Snow -27 1017 69 10000 2 50 20:46 17.11.2022
1009 Snow -28 1017 76 10000 2 40 19:51 17.11.2022
1010 Snow -28 1016 76 10000 2 60 18:47 17.11.2022
1011 Snow -28 1016 76 10000 2 60 17:33 17.11.2022
1012 Clear -28 1016 76 10000 2 90 16:53 17.11.2022
1013 Clear -28 1016 69 10000 2 110 14:57 17.11.2022
1014 Clear -30 1016 76 10000 2 40 11:24 17.11.2022
1015 Mist -32 1016 68 5000 2 30 08:39 17.11.2022
1016 Mist -34 1016 68 5000 2 10 05:47 17.11.2022
1017 Fog -39 1018 65 750 2 20 00:22 17.11.2022
1018 Fog -40 1017 72 750 2 10 22:31 16.11.2022
1019 Fog -40 1017 65 700 2 10 21:18 16.11.2022
1020 Fog -40 1017 65 500 2 10 19:54 16.11.2022
1021 Fog -40 1018 65 800 2 10 18:46 16.11.2022
1022 Fog -40 1018 65 550 2 360 17:34 16.11.2022
1023 Fog -39 1018 65 800 2 10 14:19 16.11.2022
1024 Fog -39 1019 65 900 1 10 09:57 16.11.2022
1025 Mist -37 1020 66 1000 1 10 06:38 16.11.2022
1026 Fog -41 1020 72 600 1 360 01:29 16.11.2022
1027 Fog -39 1021 73 400 1.79 310 22:38 15.11.2022
1028 Mist -38 1021 73 1200 2 310 20:45 15.11.2022
1029 Mist -37 1020 66 2100 2 320 19:35 15.11.2022
1030 Mist -37 1020 66 3200 2 310 18:48 15.11.2022
1031 Mist -36 1020 73 5000 2 310 17:31 15.11.2022
1032 Clear -35 1020 74 10000 1 310 16:19 15.11.2022
1033 Clear -35 1020 74 10000 3.13 310 14:59 15.11.2022
1034 Clear -37 1020 73 10000 0 0 13:38 15.11.2022
1035 Clear -33 1020 67 10000 3.13 250 11:47 15.11.2022
1036 Clear -34 1020 74 10000 2 250 11:19 15.11.2022
1037 Clear -33 1019 67 10000 1 180 09:18 15.11.2022
1038 Clear -35 1017 66 10000 3 250 00:39 15.11.2022
1039 Clear -35 1017 66 10000 3.13 250 00:18 15.11.2022
1040 Clear -34 1016 74 10000 3.13 290 21:48 14.11.2022
1041 Clear -34 1015 74 10000 3.13 290 20:42 14.11.2022
1042 Clear -32 1015 68 10000 3 310 18:57 14.11.2022
1043 Clear -32 1013 75 10000 5 320 16:56 14.11.2022
1044 Clear -29 1012 69 10000 4 320 12:55 14.11.2022
1045 Clear -28 1011 76 10000 4 320 11:42 14.11.2022
1046 Clear -28 1010 76 10000 2 330 09:54 14.11.2022
1047 Clear -27 1009 75 10000 2 340 08:29 14.11.2022
1048 Clear -27 1009 75 10000 2 350 07:50 14.11.2022
1049 Snow -30 1009 83 2100 1 320 00:19 14.11.2022
1050 Clear -31 1009 74 10000 2 350 22:39 13.11.2022
1051 Clear -30 1009 68 10000 2 320 21:40 13.11.2022
1052 Clear -30 1009 75 10000 1 300 20:22 13.11.2022
1053 Snow -27 1009 76 10000 1 290 18:35 13.11.2022
1054 Clear -28 1009 82 10000 2 310 17:49 13.11.2022
1055 Clear -24 1008 83 10000 3.13 270 15:20 13.11.2022
1056 Clear -23 1008 83 10000 1 290 14:30 13.11.2022
1057 Clear -19 1007 78 10000 0 0 12:52 13.11.2022
1058 Clear -17 1006 71 10000 1 60 11:34 13.11.2022
1059 Clear -15 1004 72 10000 6 330 09:44 13.11.2022
1060 Clouds -5 997 80 10000 4 210 05:52 13.11.2022
1061 Snow -15 999 85 2400 2 360 23:44 12.11.2022
1062 Snow -13 1001 85 3200 3 70 21:24 12.11.2022
1063 Snow -14 1002 85 3200 2 60 20:25 12.11.2022
1064 Snow -14 1003 84 2400 1 80 18:56 12.11.2022
1065 Snow -14 1005 77 2100 2 130 16:32 12.11.2022
1066 Snow -15 1006 84 2100 3.13 130 15:24 12.11.2022
1067 Snow -15 1008 77 2100 3.13 140 13:32 12.11.2022
1068 Clear -19 1012 84 10000 1 140 09:35 12.11.2022
1069 Clear -18 1014 77 10000 3.13 200 07:47 12.11.2022
1070 Clear -20 1015 70 10000 4.02 250 23:37 11.11.2022
1071 Clear -19 1015 77 10000 3.13 250 20:52 11.11.2022
1072 Clear -19 1015 77 10000 2 260 20:28 11.11.2022
1073 Clear -19 1015 77 10000 3.13 300 19:26 11.11.2022
1074 Clear -18 1014 71 10000 4 330 17:59 11.11.2022
1075 Clear -16 1013 65 10000 6 330 16:55 11.11.2022
1076 Clear -20 1011 84 10000 2 350 14:31 11.11.2022
1077 Clear -19 1010 78 10000 3 10 13:42 11.11.2022
1078 Snow -19 1010 78 10000 1 270 12:18 11.11.2022
1079 Snow -20 1010 77 10000 2 20 08:57 11.11.2022
1080 Snow -20 1010 77 10000 2 10 08:26 11.11.2022
1081 Snow -22 1011 77 5000 3 20 00:31 11.11.2022
1082 Snow -22 1011 77 10000 3 20 22:53 10.11.2022
1083 Snow -22 1011 77 5000 3 10 21:44 10.11.2022
1084 Snow -22 1012 77 5000 3 20 21:26 10.11.2022
1085 Snow -21 1012 77 5000 3 10 20:25 10.11.2022
1086 Snow -21 1012 77 5000 3 20 19:56 10.11.2022
1087 Snow -21 1012 77 10000 2 20 18:45 10.11.2022
1088 Snow -22 1013 77 10000 3 30 17:30 10.11.2022
1089 Snow -20 1013 77 5000 3 30 16:25 10.11.2022
1090 Snow -20 1015 77 5000 3 40 13:34 10.11.2022
1091 Clear -21 1016 76 10000 2 10 09:38 10.11.2022
1092 Snow -22 1016 69 10000 2 10 07:57 10.11.2022
1093 Snow -24 1016 77 5000 2 360 01:21 10.11.2022
1094 Snow -24 1015 76 3200 1 110 23:20 09.11.2022
1095 Snow -26 1015 76 5000 2 10 21:57 09.11.2022
1096 Snow -27 1015 76 10000 1 360 20:46 09.11.2022
1097 Clouds -27 1015 76 5000 1 340 20:28 09.11.2022
1098 Clouds -28 1016 83 5000 1 350 19:26 09.11.2022
1099 Mist -30 1015 76 5000 0 0 17:49 09.11.2022
1100 Mist -30 1015 76 5000 1 330 14:58 09.11.2022
1101 Mist -29 1015 76 5000 1 340 14:40 09.11.2022
1102 Mist -29 1015 76 5000 1 340 14:22 09.11.2022
1103 Mist -28 1015 76 5000 1 340 12:57 09.11.2022
1104 Snow -26 1015 75 10000 0 0 09:45 09.11.2022
1105 Clear -26 1014 75 10000 1 40 07:47 09.11.2022
1106 Clear -26 1013 76 10000 1 30 06:55 09.11.2022
1107 Clear -31 1011 76 10000 2 330 22:50 08.11.2022
1108 Clear -31 1011 76 10000 2 330 21:43 08.11.2022
1109 Clear -31 1011 76 10000 2 330 21:21 08.11.2022
1110 Clear -30 1010 75 10000 2 340 20:36 08.11.2022
1111 Clear -29 1010 75 10000 2 20 19:35 08.11.2022
1112 Clear -29 1010 75 10000 2 330 17:38 08.11.2022
1113 Clear -28 1009 75 10000 2 10 15:50 08.11.2022
1114 Clear -29 1010 75 10000 2 350 14:52 08.11.2022
1115 Clear -28 1010 82 10000 2 350 13:35 08.11.2022
1116 Clear -27 1009 76 10000 2 350 11:55 08.11.2022
1117 Clear -25 1009 76 10000 3.13 10 08:25 08.11.2022
1118 Clear -23 1009 76 10000 2 360 06:53 08.11.2022
1119 Clouds -26 1010 83 10000 2 320 23:52 07.11.2022
1120 Clear -25 1010 76 10000 1 340 22:23 07.11.2022
1121 Clear -24 1010 76 10000 2 300 21:20 07.11.2022
1122 Clear -23 1010 76 10000 3.13 310 20:18 07.11.2022
1123 Snow -21 1010 76 10000 3.13 280 17:51 07.11.2022
1124 Snow -19 1010 70 5000 3.13 290 16:27 07.11.2022
1125 Snow -19 1010 70 5000 2 280 15:34 07.11.2022
1126 Snow -20 1010 76 10000 2 240 14:30 07.11.2022
1127 Snow -21 1011 76 10000 2 220 12:34 07.11.2022
1128 Clouds -22 1011 69 10000 1 230 10:48 07.11.2022
1129 Clouds -23 1011 76 10000 2 300 09:25 07.11.2022
1130 Clouds -21 1010 70 10000 3.13 300 07:29 07.11.2022
1131 Clear -24 1010 69 10000 3.13 280 03:27 07.11.2022
1132 Clear -26 1010 76 10000 1 290 01:19 07.11.2022
1133 Snow -25 1008 76 10000 3.13 290 22:18 06.11.2022
1134 Clouds -25 1008 76 10000 4.02 330 21:19 06.11.2022
1135 Clouds -24 1007 77 10000 4 320 20:20 06.11.2022
1136 Clear -25 1007 76 10000 3.13 330 19:32 06.11.2022
1137 Clear -25 1007 83 10000 3.13 330 18:39 06.11.2022
1138 Clear -24 1006 76 10000 2 310 18:19 06.11.2022
1139 Clouds -23 1006 76 10000 3.13 310 17:20 06.11.2022
1140 Clouds -23 1006 83 10000 2 310 16:37 06.11.2022
1141 Clear -23 1006 83 10000 3.13 300 15:42 06.11.2022
1142 Clear -19 1005 84 10000 3.13 320 12:48 06.11.2022
1143 Clear -17 1004 77 10000 3.13 330 11:58 06.11.2022
1144 Snow -16 1004 77 10000 4.02 310 10:40 06.11.2022
1145 Clear -15 1003 77 10000 3.13 260 07:45 06.11.2022
1146 Clear -16 1003 77 10000 1 350 00:49 06.11.2022
1147 Snow -17 1002 84 10000 2 320 22:52 05.11.2022
1148 Snow -17 1002 91 10000 2 290 19:21 05.11.2022
1149 Clear -20 1003 84 10000 1 290 17:23 05.11.2022
1150 Clear -19 1003 84 10000 1 310 15:45 05.11.2022
1151 Clear -17 1004 85 10000 2 240 14:33 05.11.2022
1152 Snow -15 1004 84 10000 1 240 12:34 05.11.2022
1153 Clouds -17 1005 92 10000 2 230 10:23 05.11.2022
1154 Clouds -13 1005 78 10000 2 190 07:58 05.11.2022
1155 Clear -12 1005 72 10000 2 200 06:57 05.11.2022
1156 Clear -15 1007 84 10000 2 180 02:35 05.11.2022
1157 Clouds -18 1008 84 10000 1 150 23:33 04.11.2022
1158 Clouds -19 1009 84 10000 1 240 22:20 04.11.2022
1159 Clear -17 1010 78 10000 2 180 19:52 04.11.2022
1160 Clear -17 1011 85 10000 2 200 17:45 04.11.2022
1161 Clear -17 1012 85 10000 2 210 16:33 04.11.2022
1162 Snow -12 1013 79 10000 3 300 13:24 04.11.2022
1163 Snow -12 1014 78 10000 3.13 310 12:21 04.11.2022
1164 Snow -14 1013 92 10000 1 80 09:31 04.11.2022
1165 Snow -14 1013 85 10000 1 340 08:21 04.11.2022
1166 Snow -13 1012 85 10000 1 30 07:26 04.11.2022
1167 Snow -13 1010 92 3200 1 140 00:58 04.11.2022
1168 Snow -13 1010 84 5000 2 150 22:25 03.11.2022
1169 Snow -13 1011 84 3200 2 150 20:47 03.11.2022
1170 Snow -13 1011 84 5000 2 190 19:42 03.11.2022
1171 Snow -12 1011 78 3200 2 190 18:46 03.11.2022
1172 Snow -13 1011 84 10000 2 200 17:38 03.11.2022
1173 Clouds -12 1013 85 10000 2 190 15:41 03.11.2022
1174 Clouds -16 1013 91 10000 0 0 13:51 03.11.2022
1175 Clouds -17 1015 84 10000 0 0 12:35 03.11.2022
1176 Clouds -17 1015 84 10000 1 340 11:43 03.11.2022
1177 Clear -18 1016 84 10000 1 30 07:51 03.11.2022
1178 Mist -23 1020 76 1800 1 300 23:56 02.11.2022
1179 Clear -24 1021 83 10000 1 240 20:56 02.11.2022
1180 Clear -24 1021 83 10000 1 290 20:33 02.11.2022
1181 Clear -22 1021 76 10000 1 300 18:58 02.11.2022
1182 Clear -21 1022 83 10000 2 330 16:31 02.11.2022
1183 Clear -19 1022 92 10000 1 320 15:35 02.11.2022
1184 Clear -21 1022 83 10000 0 0 13:42 02.11.2022
1185 Clear -19 1023 84 10000 1 350 12:35 02.11.2022
1186 Clear -17 1023 85 10000 1 250 10:45 02.11.2022
1187 Clouds -13 1023 78 10000 1 240 08:43 02.11.2022
1188 Snow -13 1023 78 10000 3.13 310 03:32 02.11.2022
1189 Snow -15 1021 84 10000 2 340 22:53 01.11.2022
1190 Snow -14 1021 77 10000 2 330 22:18 01.11.2022
1191 Snow -14 1021 84 10000 2 330 21:20 01.11.2022
1192 Snow -16 1021 92 10000 1 330 20:23 01.11.2022
1193 Snow -16 1021 85 10000 1 340 19:41 01.11.2022
1194 Snow -15 1020 85 10000 2 320 18:30 01.11.2022
1195 Snow -12 1020 78 10000 2 340 16:53 01.11.2022
1196 Snow -11 1020 85 5000 3.13 340 14:45 01.11.2022
1197 Snow -10 1020 78 5000 3.13 350 13:20 01.11.2022
1198 Snow -10 1019 85 5000 4.02 340 12:26 01.11.2022
1199 Snow -10 1019 85 3200 4.02 350 11:21 01.11.2022
1200 Snow -10 1019 78 2400 3.13 350 09:25 01.11.2022
1201 Snow -10 1018 78 2100 4.02 350 07:54 01.11.2022
1202 Snow -9 1018 72 10000 4.02 350 07:28 01.11.2022
1203 Snow -9 1018 72 10000 4.02 350 06:46 01.11.2022
1204 Snow -9 1018 72 5000 4.02 360 05:23 01.11.2022
1205 Snow -13 1019 78 10000 2 330 22:51 31.10.2022
1206 Clouds -14 1019 77 10000 2 320 21:34 31.10.2022
1207 Clouds -17 1019 84 10000 3.13 320 19:58 31.10.2022
1208 Clear -17 1019 84 10000 3.13 310 18:44 31.10.2022
1209 Clouds -16 1019 84 10000 3.13 320 16:45 31.10.2022
1210 Clouds -15 1019 84 10000 2 320 15:35 31.10.2022
1211 Clouds -13 1020 78 10000 2 330 12:49 31.10.2022
1212 Clear -12 1020 78 10000 2 360 09:46 31.10.2022
1213 Clear -11 1020 78 10000 2 20 07:41 31.10.2022
1214 Clear -13 1021 84 10000 3.13 360 02:49 31.10.2022
1215 Clear -14 1022 84 10000 2 360 01:48 31.10.2022
1216 Clouds -14 1022 92 10000 2 350 22:22 30.10.2022
1217 Clouds -13 1022 85 10000 3 10 20:43 30.10.2022
1218 Clouds -12 1022 85 10000 3 360 19:53 30.10.2022
1219 Clouds -9 1022 73 10000 3 30 16:42 30.10.2022
1220 Clouds -9 1022 73 10000 3 40 14:54 30.10.2022
1221 Clouds -8 1022 73 10000 3 40 13:51 30.10.2022
1222 Clouds -8 1022 73 10000 3 30 12:27 30.10.2022
1223 Clouds -8 1021 72 10000 2 50 10:32 30.10.2022
1224 Clouds -7 1021 62 10000 2 60 09:35 30.10.2022
1225 Snow -7 1021 67 10000 2 110 07:57 30.10.2022
1226 Clear -12 1023 85 10000 1 80 00:29 30.10.2022
1227 Clear -12 1023 78 10000 2 90 23:47 29.10.2022
1228 Clouds -15 1024 92 10000 1 10 22:31 29.10.2022
1229 Clouds -16 1025 91 10000 1 340 19:57 29.10.2022
1230 Clear -16 1026 84 10000 2 320 17:24 29.10.2022
1231 Clear -16 1026 84 10000 2 310 15:40 29.10.2022
1232 Clear -15 1026 85 10000 1 310 14:56 29.10.2022
1233 Clear -15 1026 92 10000 2 290 14:36 29.10.2022
1234 Clear -11 1027 73 10000 2 330 12:33 29.10.2022
1235 Clear -7 1026 63 10000 5 300 09:57 29.10.2022
1236 Clear -5 1025 57 10000 5 300 07:31 29.10.2022
1237 Clear -5 1025 57 10000 5 300 05:55 29.10.2022
1238 Clouds -3 1021 74 10000 7 320 00:27 29.10.2022
1239 Clouds -2 1019 74 10000 7 320 22:30 28.10.2022
1240 Snow -2 1018 86 10000 6 300 20:46 28.10.2022
1241 Clouds -1 1016 74 10000 5 300 18:51 28.10.2022
1242 Clouds -1 1016 74 10000 5 300 18:30 28.10.2022
1243 Clouds -2 1015 63 10000 3.13 260 15:29 28.10.2022
1244 Clouds -3 1015 68 10000 3 230 14:36 28.10.2022
1245 Clouds -3 1015 68 10000 2 230 12:26 28.10.2022
1246 Clouds -3 1016 68 10000 1 210 11:34 28.10.2022
1247 Clouds -2 1016 63 10000 1 210 10:47 28.10.2022
1248 Clear -2 1016 63 10000 3.13 210 09:47 28.10.2022
1249 Clear -1 1016 58 10000 3.13 200 08:21 28.10.2022
1250 Clear -3 1019 79 10000 2 190 03:42 28.10.2022
1251 Clear -3 1020 86 10000 1 190 23:48 27.10.2022
1252 Clear -3 1020 86 10000 2 170 22:40 27.10.2022
1253 Clear -2 1020 74 10000 1 210 21:35 27.10.2022
1254 Clear -2 1021 74 10000 2 250 19:55 27.10.2022
1255 Clear -2 1020 74 10000 2 290 18:22 27.10.2022
1256 Clouds 1 1020 64 10000 4 280 13:58 27.10.2022
1257 Clouds -1 1019 74 10000 3.13 210 09:20 27.10.2022
1258 Snow -2 1019 79 10000 5 210 06:21 27.10.2022
1259 Clouds -5 1023 86 10000 2 190 23:55 26.10.2022
1260 Clouds -15 1026 100 4882 2.11 190 22:47 26.10.2022
1261 Clouds -6 1022 93 10000 1 210 22:22 26.10.2022
1262 Clouds -6 1022 93 10000 1 210 22:22 26.10.2022
1263 Clear -6 1023 86 10000 2 210 19:34 26.10.2022
1264 Clear -7 1022 93 10000 2 240 16:35 26.10.2022
1265 Clear -7 1021 93 10000 2 300 14:52 26.10.2022
1266 Clear -5 1020 86 10000 3 270 12:37 26.10.2022
1267 Clouds -2 1019 74 10000 2 260 10:24 26.10.2022
1268 Clouds -1 1018 74 10000 4 280 08:54 26.10.2022
1269 Clouds -1 1018 68 10000 3.13 270 08:24 26.10.2022
1270 Clear -3 1014 79 10000 4.02 270 00:46 26.10.2022
1271 Clear -3 1013 79 10000 4.02 260 00:21 26.10.2022
1272 Snow -3 1012 80 10000 4 250 21:52 25.10.2022
1273 Clouds -3 1012 80 10000 6 250 21:24 25.10.2022
1274 Clear -4 1012 79 10000 2 230 19:43 25.10.2022
1275 Clear -4 1012 79 10000 4.02 220 17:52 25.10.2022
1276 Clear -3 1011 73 10000 6 270 14:56 25.10.2022
1277 Clear -4 1009 73 10000 4 230 11:39 25.10.2022
1278 Clouds -2 1009 63 10000 5 240 10:38 25.10.2022
1279 Clouds -1 1008 54 10000 5 250 09:53 25.10.2022
1280 Clouds 0 1008 46 10000 7.15 270 08:19 25.10.2022
1281 Clouds 0 1008 46 10000 6 280 07:54 25.10.2022
1282 Clouds 0 1008 50 10000 7.15 280 06:59 25.10.2022
1283 Clouds 1 1005 47 10000 7 280 03:48 25.10.2022
1284 Snow -1 1003 80 10000 7.15 310 00:40 25.10.2022
1285 Clouds 1 1002 64 10000 8 290 23:49 24.10.2022
1286 Clouds 1 1000 69 10000 7.15 290 22:24 24.10.2022
1287 Clouds 2 998 64 10000 6 290 21:33 24.10.2022
1288 Clouds 1 997 86 10000 3 300 20:42 24.10.2022
1289 Clouds 1 995 93 10000 4.02 240 18:52 24.10.2022
1290 Snow 0 994 92 10000 4.02 210 17:51 24.10.2022
1291 Snow -1 995 100 2100 4 190 16:45 24.10.2022
1292 Snow -2 996 92 900 4.02 190 14:23 24.10.2022
1293 Clouds -1 996 74 10000 5 190 13:40 24.10.2022
1294 Snow 0 998 63 10000 5 190 11:54 24.10.2022
1295 Clear -1 1000 68 10000 6 180 08:50 24.10.2022
1296 Clear -7 1008 92 10000 2 180 00:52 24.10.2022
1297 Clouds -6 1011 100 10000 1 170 21:23 23.10.2022
1298 Clouds -5 1012 93 10000 1 180 19:51 23.10.2022
1299 Clouds -5 1013 93 10000 1 190 17:59 23.10.2022
1300 Mist -5 1013 93 3200 1 190 17:27 23.10.2022
1301 Fog -4 1014 93 900 2 190 15:21 23.10.2022
1302 Clouds -5 1015 100 10000 1 150 12:59 23.10.2022
1303 Clouds -8 1016 92 10000 1 150 10:59 23.10.2022
1304 Snow -2 1016 86 10000 2 170 08:19 23.10.2022
1305 Clouds -4 1017 93 10000 3 340 23:56 22.10.2022
1306 Clouds -3 1017 93 10000 4 320 22:31 22.10.2022
1307 Clouds -5 1016 100 10000 1 10 21:42 22.10.2022
1308 Clouds -5 1016 100 10000 0 0 20:49 22.10.2022
1309 Clouds -5 1017 92 10000 0 0 19:45 22.10.2022
1310 Clouds -5 1017 93 10000 1 40 19:24 22.10.2022
1311 Snow -5 1017 93 10000 1 20 17:37 22.10.2022
1312 Snow -4 1017 92 10000 1 30 15:57 22.10.2022
1313 Snow -4 1017 92 10000 2 50 14:42 22.10.2022
1314 Snow -4 1017 92 10000 2 40 13:45 22.10.2022
1315 Snow -3 1016 100 5000 2 40 10:25 22.10.2022
1316 Snow -2 1016 100 1700 3.13 30 09:36 22.10.2022
1317 Snow 1 1016 93 10000 2 330 07:58 22.10.2022
1318 Snow -1 1016 93 10000 2 300 02:59 22.10.2022
1319 Snow -2 1016 93 5000 1 300 23:49 21.10.2022
1320 Snow -2 1016 93 2400 1 240 21:35 21.10.2022
1321 Snow -2 1016 93 1800 1 220 20:57 21.10.2022
1322 Snow -2 1016 93 2400 1 210 19:26 21.10.2022
1323 Snow -3 1016 100 10000 1 230 16:51 21.10.2022
1324 Snow -3 1016 100 5000 1 20 13:57 21.10.2022
1325 Snow -2 1015 92 3200 0 0 12:57 21.10.2022
1326 Snow -3 1015 100 5000 1 210 10:59 21.10.2022
1327 Snow -3 1015 92 3200 2 180 09:49 21.10.2022
1328 Snow -3 1015 92 5000 1.79 180 08:39 21.10.2022
1329 Snow -2 1015 79 10000 1 200 07:26 21.10.2022
1330 Clear -7 1014 86 10000 0 0 00:28 21.10.2022
1331 Clear -7 1014 79 10000 2 280 22:26 20.10.2022
1332 Clear -7 1013 79 10000 4.02 310 20:37 20.10.2022
1333 Clear -6 1013 79 10000 3.13 320 19:35 20.10.2022
1334 Clear -6 1012 79 10000 4.02 320 17:53 20.10.2022
1335 Clouds -6 1012 79 10000 3.13 310 16:57 20.10.2022
1336 Snow -4 1010 85 10000 3.13 310 12:37 20.10.2022
1337 Snow -4 1010 85 10000 3.13 310 12:18 20.10.2022
1338 Snow -4 1009 85 5000 2 290 10:59 20.10.2022
1339 Snow -4 1009 79 5000 3.13 300 10:29 20.10.2022
1340 Snow -3 1008 68 10000 5 310 07:46 20.10.2022
1341 Snow -3 1006 73 3200 5 350 05:18 20.10.2022
1342 Snow -3 1004 79 10000 2 330 01:49 20.10.2022
1343 Snow -4 1002 92 10000 3.13 330 22:45 19.10.2022
1344 Snow -4 1002 92 10000 2 330 21:56 19.10.2022
1345 Snow -5 1001 92 10000 2 340 20:52 19.10.2022
1346 Snow -6 1000 93 5000 1 340 18:49 19.10.2022
1347 Snow -6 1000 93 5000 1 340 17:38 19.10.2022
1348 Snow -5 999 86 10000 1 130 15:41 19.10.2022
1349 Snow -4 999 85 10000 1 140 13:51 19.10.2022
1350 Clouds -3 999 79 10000 3.13 110 09:34 19.10.2022
1351 Clouds -3 999 79 10000 3.13 120 08:29 19.10.2022
1352 Clouds -4 999 79 10000 2 100 05:19 19.10.2022
1353 Clouds -5 1000 85 10000 2 100 01:25 19.10.2022
1354 Clouds -5 1001 85 10000 2 130 23:18 18.10.2022
1355 Snow -5 1002 92 10000 1 140 21:45 18.10.2022
1356 Snow -4 1002 86 10000 2 130 20:59 18.10.2022
1357 Snow -4 1003 86 10000 1 200 19:58 18.10.2022
1358 Snow -5 1004 86 10000 0 0 17:44 18.10.2022
1359 Snow -5 1004 86 10000 0 0 16:49 18.10.2022
1360 Clear -6 1005 86 10000 1 260 14:26 18.10.2022
1361 Clear -9 1007 85 10000 2 250 12:32 18.10.2022
1362 Clear -8 1007 78 10000 1 260 11:21 18.10.2022
1363 Clouds -4 1007 63 10000 2 330 09:45 18.10.2022
1364 Clouds -3 1007 68 10000 2 300 07:56 18.10.2022
1365 Clouds -5 1009 79 10000 4.02 340 03:19 18.10.2022
1366 Clouds -5 1010 80 10000 3 320 22:24 17.10.2022
1367 Clouds -5 1010 80 10000 4 330 20:55 17.10.2022
1368 Clouds -4 1010 73 10000 5 330 20:31 17.10.2022
1369 Clouds -4 1010 73 10000 5 330 19:51 17.10.2022
1370 Clouds -3 1009 73 10000 5 330 18:52 17.10.2022
1371 Clouds -2 1009 79 10000 6 330 16:52 17.10.2022
1372 Clouds -2 1009 79 10000 7.15 340 15:29 17.10.2022
1373 Clouds -2 1009 79 10000 7.15 340 15:29 17.10.2022
1374 Clouds -1 1009 80 10000 7.15 330 14:35 17.10.2022
1375 Snow 0 1009 92 2400 4.02 10 11:23 17.10.2022
1376 Snow 0 1009 100 2400 3.13 240 06:36 17.10.2022
1377 Clouds -2 1016 86 10000 3 290 23:30 16.10.2022
1378 Clouds -2 1017 86 10000 3 290 21:56 16.10.2022
1379 Clouds -3 1017 86 10000 3 260 20:47 16.10.2022
1380 Clouds -3 1018 79 10000 2 230 19:46 16.10.2022
1381 Clouds -3 1019 80 10000 2 240 17:57 16.10.2022
1382 Clouds -3 1019 80 10000 2 240 17:30 16.10.2022
1383 Clouds -2 1020 80 10000 2 240 15:57 16.10.2022
1384 Snow -2 1021 79 10000 3.13 270 14:33 16.10.2022
1385 Clouds -2 1022 74 10000 3.13 240 12:23 16.10.2022
1386 Clouds -2 1022 68 10000 2 240 10:27 16.10.2022
1387 Clouds -1 1023 63 10000 4.02 270 08:47 16.10.2022
1388 Clouds -3 1025 86 10000 1 350 01:30 16.10.2022
1389 Snow -2 1025 86 10000 4 310 23:41 15.10.2022
1390 Clouds -2 1025 93 10000 1 290 21:26 15.10.2022
1391 Clouds -2 1025 93 10000 1 320 20:56 15.10.2022
1392 Snow -2 1025 92 10000 2 10 18:50 15.10.2022
1393 Snow -1 1025 93 10000 3 10 15:49 15.10.2022
1394 Clouds -4 1027 97 1375 1.68 336 14:55 15.10.2022
1395 Clouds 0 1024 92 10000 0 0 11:58 15.10.2022
1396 Clouds 0 1024 92 10000 1 350 11:18 15.10.2022
1397 Snow 0 1024 100 3200 2 60 08:54 15.10.2022
1398 Mist 0 1023 92 1500 1 40 03:21 15.10.2022
1399 Clouds -1 1022 92 10000 1 330 23:58 14.10.2022
1400 Clouds -1 1021 100 10000 1 10 22:24 14.10.2022
1401 Mist -2 1021 100 5000 1 330 21:30 14.10.2022
1402 Mist -2 1020 100 5000 1 360 20:18 14.10.2022
1403 Mist -1 1019 100 1000 1 360 16:59 14.10.2022
1404 Mist 0 1018 100 3200 1 20 13:52 14.10.2022
1405 Clouds 0 1018 100 10000 1 30 12:19 14.10.2022
1406 Clouds 1 1016 100 10000 1 20 09:46 14.10.2022
1407 Clouds 2 1015 86 10000 1 130 07:47 14.10.2022
1408 Clouds 2 1015 86 10000 1 130 06:18 14.10.2022
1409 Snow 2 1015 86 10000 1 170 05:42 14.10.2022
1410 Clouds 1 1015 93 10000 1 180 04:42 14.10.2022
1411 Snow -1 1014 100 10000 0 0 00:41 14.10.2022
1412 Clouds -1 1013 92 10000 1 180 22:32 13.10.2022
1413 Clouds -1 1013 92 10000 1 130 21:29 13.10.2022
1414 Clouds -1 1013 92 10000 1 130 20:19 13.10.2022
1415 Snow -1 1013 92 5000 1 130 19:38 13.10.2022
1416 Snow -1 1012 92 3200 1 130 18:43 13.10.2022
1417 Snow -1 1012 92 5000 1 130 17:24 13.10.2022
1418 Snow -1 1012 92 2400 1 130 15:48 13.10.2022
1419 Snow -1 1012 92 5000 2 140 14:25 13.10.2022
1420 Snow -1 1012 92 5000 1 140 12:51 13.10.2022
1421 Snow 0 1012 86 10000 2 140 11:37 13.10.2022
1422 Clouds 0 1011 86 10000 2 150 09:46 13.10.2022
1423 Clouds 0 1010 86 10000 1 130 08:32 13.10.2022
1424 Clouds 0 1010 86 10000 2 90 07:35 13.10.2022
1425 Snow -2 1010 86 3200 1 110 01:53 13.10.2022
1426 Snow -2 1010 86 3200 2 120 00:59 13.10.2022
1427 Snow -2 1010 92 3200 2 130 22:57 12.10.2022
1428 Snow -2 1010 92 3200 2 130 22:36 12.10.2022
1429 Snow -2 1010 92 5000 2 130 21:22 12.10.2022
1430 Snow -2 1010 92 5000 2 130 20:52 12.10.2022
1431 Snow -2 1010 92 5000 2 130 20:23 12.10.2022
1432 Snow -1 1011 86 5000 2 150 18:26 12.10.2022
1433 Snow -1 1011 86 10000 3 160 17:50 12.10.2022
1434 Snow -1 1011 80 10000 2 140 15:50 12.10.2022
1435 Clouds 0 1012 74 10000 3 140 13:57 12.10.2022
1436 Clouds 0 1012 74 10000 3 150 13:29 12.10.2022
1437 Clouds 0 1012 69 10000 2 150 09:48 12.10.2022
1438 Clouds 1 1013 64 10000 2 180 07:59 12.10.2022
1439 Clouds 1 1013 59 10000 2 200 07:41 12.10.2022
1440 Clouds 1 1013 69 10000 2 160 06:43 12.10.2022
1441 Clouds -5 1014 92 10000 1 340 01:32 12.10.2022
1442 Clear -3 1014 86 10000 1.79 320 22:39 11.10.2022
1443 Clear -3 1014 86 10000 1 310 20:55 11.10.2022
1444 Clear -3 1015 86 10000 2 320 19:56 11.10.2022
1445 Clear -3 1015 92 10000 2 320 17:28 11.10.2022
1446 Clear -2 1015 86 10000 2 320 14:48 11.10.2022
1447 Clear -2 1015 86 10000 1 360 13:23 11.10.2022
1448 Clear -1 1015 74 10000 2 330 10:29 11.10.2022
1449 Clear -1 1015 80 10000 3.13 340 09:36 11.10.2022
1450 Clouds -1 1015 80 10000 4.02 350 07:53 11.10.2022
1451 Snow -2 1014 92 10000 4.02 350 02:39 11.10.2022
1452 Snow -2 1014 92 10000 3.13 350 00:33 11.10.2022
1453 Snow -1 1013 92 10000 4.02 10 21:40 10.10.2022
1454 Snow -1 1012 92 3200 3.13 10 20:30 10.10.2022
1455 Snow -1 1012 100 10000 3.13 10 18:44 10.10.2022
1456 Snow 0 1011 92 5000 3.13 10 17:24 10.10.2022
1457 Snow 0 1010 92 5000 3.13 20 16:20 10.10.2022
1458 Snow 0 1009 100 3200 2 20 13:31 10.10.2022
1459 Snow 0 1008 100 3200 2 40 12:22 10.10.2022
1460 Clouds 1 1007 93 5000 1 160 09:23 10.10.2022
1461 Clouds 2 1006 93 10000 2 190 05:52 10.10.2022
1462 Snow 1 1006 93 5000 2 190 05:32 10.10.2022
1463 Snow -1 1007 100 2100 3.13 180 00:41 10.10.2022
1464 Snow -1 1008 92 5000 3.13 180 23:36 09.10.2022
1465 Snow -1 1008 92 5000 3.13 190 22:24 09.10.2022
1466 Snow -1 1009 92 10000 2 190 21:27 09.10.2022
1467 Snow -1 1009 92 10000 3.13 180 20:42 09.10.2022
1468 Snow -1 1010 92 10000 2 190 19:47 09.10.2022
1469 Snow -2 1011 100 10000 2 190 18:49 09.10.2022
1470 Snow -1 1012 92 10000 3.13 200 17:39 09.10.2022
1471 Snow -1 1012 92 10000 2 210 16:44 09.10.2022
1472 Snow -1 1012 92 10000 3.13 210 16:19 09.10.2022
1473 Clouds -2 1013 92 10000 2 200 14:54 09.10.2022
1474 Clouds -1 1013 92 10000 2 210 14:26 09.10.2022
1475 Clouds -1 1014 92 10000 3.13 210 12:49 09.10.2022
1476 Clouds 0 1014 86 10000 3.13 200 11:27 09.10.2022
1477 Clouds 1 1015 80 10000 3.13 220 08:32 09.10.2022
1478 Snow 1 1016 80 5000 3.13 220 05:44 09.10.2022
1479 Snow 0 1017 80 10000 3.13 210 03:25 09.10.2022
1480 Snow -2 1017 86 10000 3.13 200 00:47 09.10.2022
1481 Snow -2 1018 86 10000 2 220 23:33 08.10.2022
1482 Snow -2 1018 86 10000 2 220 23:33 08.10.2022
1483 Snow -2 1018 86 10000 2 220 22:38 08.10.2022
1484 Snow -3 1019 86 10000 2 210 20:43 08.10.2022
1485 Snow -3 1019 79 10000 2 210 19:38 08.10.2022
1486 Snow -4 1020 79 10000 2 220 17:44 08.10.2022
1487 Snow -4 1021 68 10000 3.13 210 15:36 08.10.2022
1488 Clouds -4 1021 62 10000 2 200 13:53 08.10.2022
1489 Clouds -4 1022 62 10000 3.13 230 12:20 08.10.2022
1490 Clear -2 1022 54 10000 6 250 10:35 08.10.2022
1491 Clouds -1 1021 50 10000 5.81 240 09:42 08.10.2022
1492 Clouds -2 1022 54 10000 4.02 210 07:29 08.10.2022
1493 Clouds -4 1023 62 10000 6 250 02:41 08.10.2022
1494 Clouds -6 1022 73 10000 4.02 280 00:24 08.10.2022
1495 Clear -6 1022 73 10000 5 270 23:20 07.10.2022
1496 Clouds -5 1022 67 10000 4.02 300 22:19 07.10.2022
1497 Clouds -5 1022 67 10000 4.02 300 22:19 07.10.2022
1498 Clouds -4 1021 68 10000 5 290 20:37 07.10.2022
1499 Clouds -3 1021 63 10000 4.92 300 18:40 07.10.2022
1500 Snow -3 1020 63 10000 4.02 280 16:58 07.10.2022
1501 Clouds -3 1020 63 10000 4.02 290 15:50 07.10.2022
1502 Clouds -3 1020 63 10000 3.13 300 14:42 07.10.2022
1503 Clouds -2 1019 58 10000 3.13 310 12:23 07.10.2022
1504 Clear 0 1017 50 10000 5 280 09:26 07.10.2022
1505 Clear 0 1017 50 10000 6 290 08:49 07.10.2022
1506 Clear 0 1016 54 10000 3.13 340 05:51 07.10.2022
1507 Snow -4 1014 85 5000 4.02 320 00:41 07.10.2022
1508 Snow -4 1013 79 10000 3.13 320 22:50 06.10.2022
1509 Snow -4 1012 79 10000 3.13 330 21:44 06.10.2022
1510 Snow -4 1012 79 10000 3.13 330 21:22 06.10.2022
1511 Snow -4 1011 79 10000 3.13 320 19:50 06.10.2022
1512 Snow -4 1011 79 10000 3.13 320 19:50 06.10.2022
1513 Snow -4 1011 79 10000 3.13 330 18:37 06.10.2022
1514 Snow -4 1011 79 10000 3.13 330 18:37 06.10.2022
1515 Snow -4 1011 79 10000 3.13 330 18:37 06.10.2022
1516 Snow -3 1011 68 10000 4.02 330 17:50 06.10.2022
1517 Clouds -2 1009 63 10000 4.02 340 14:24 06.10.2022
1518 Clouds -1 1007 58 10000 2 330 11:24 06.10.2022
1519 Snow 0 1004 63 10000 5 310 06:53 06.10.2022
1520 Snow -1 1003 86 10000 4.02 270 03:29 06.10.2022
1521 Clouds -1 1004 74 10000 3 250 23:20 05.10.2022
1522 Clear -4 1004 85 10000 3.13 280 19:58 05.10.2022
1523 Clear -3 1004 79 10000 4.02 280 18:42 05.10.2022
1524 Clear -3 1005 73 10000 4.02 290 17:34 05.10.2022
1525 Clear -3 1005 68 10000 3.13 300 15:54 05.10.2022
1526 Clear -3 1005 68 10000 3.13 320 14:47 05.10.2022
1527 Clear -4 1006 79 10000 2 320 13:55 05.10.2022
1528 Clear -3 1006 73 10000 2 310 12:20 05.10.2022
1529 Clouds -1 1007 58 10000 5 300 08:53 05.10.2022
1530 Clouds 0 1007 59 10000 7 310 07:35 05.10.2022
1531 Clear 0 1008 54 10000 7.15 300 05:36 05.10.2022
1532 Clear -1 1009 63 10000 7.15 320 03:32 05.10.2022
1533 Clear -5 1010 85 10000 6 320 00:45 05.10.2022
1534 Clear -5 1010 85 10000 4.02 320 00:24 05.10.2022
1535 Clear -5 1011 85 10000 4.02 330 22:22 04.10.2022
1536 Clear -4 1011 79 10000 5 320 20:31 04.10.2022
1537 Clear -4 1012 79 10000 5 330 18:58 04.10.2022
1538 Clear -4 1012 79 10000 5 330 18:35 04.10.2022
1539 Clear -4 1012 79 10000 4.02 340 17:44 04.10.2022
1540 Clear -3 1013 73 10000 6 320 16:28 04.10.2022
1541 Clear -2 1015 50 10000 3.13 310 12:41 04.10.2022
1542 Clear 1 1015 40 10000 6 340 09:32 04.10.2022
1543 Clear 0 1015 46 10000 6 360 07:23 04.10.2022
1544 Clear -5 1017 73 10000 3.13 330 02:19 04.10.2022
1545 Clear -6 1016 85 10000 4.92 320 23:40 03.10.2022
1546 Clear -6 1016 85 10000 3.13 330 21:52 03.10.2022
1547 Clear -6 1016 85 10000 4.02 310 20:56 03.10.2022
1548 Clear -5 1017 79 10000 4.02 310 19:38 03.10.2022
1549 Clear -3 1017 73 10000 4.02 310 17:58 03.10.2022
1550 Clear -2 1017 68 10000 3.13 310 16:56 03.10.2022
1551 Clear -3 1017 68 10000 2 300 15:28 03.10.2022
1552 Clouds -2 1017 63 10000 3.13 280 13:45 03.10.2022
1553 Clouds -1 1017 58 10000 3.13 320 12:24 03.10.2022
1554 Clouds 0 1017 59 10000 4.02 300 10:39 03.10.2022
1555 Clouds 0 1017 59 10000 4.02 300 09:37 03.10.2022
1556 Clouds 0 1017 59 10000 5 300 06:29 03.10.2022
1557 Clear -1 1017 68 10000 5 290 02:52 03.10.2022
1558 Clear -4 1016 79 10000 3.13 290 22:29 02.10.2022
1559 Clouds -3 1016 73 10000 3.13 310 20:51 02.10.2022
1560 Clouds -2 1016 68 10000 2 310 18:42 02.10.2022
1561 Clouds -2 1016 68 10000 2 310 17:52 02.10.2022
1562 Clouds -2 1015 68 10000 3.13 340 16:33 02.10.2022
1563 Clouds -2 1015 68 10000 2 330 15:56 02.10.2022
1564 Clouds -2 1015 63 10000 3.13 350 14:52 02.10.2022
1565 Clouds -2 1015 63 10000 3.13 350 13:45 02.10.2022
1566 Clouds -2 1015 68 10000 4.02 360 12:30 02.10.2022
1567 Clouds -2 1014 68 10000 5 10 11:40 02.10.2022
1568 Clouds -2 1014 68 10000 5 10 11:19 02.10.2022
1569 Clouds -2 1014 63 10000 6 20 09:28 02.10.2022
1570 Clouds -1 1013 58 10000 5 20 07:41 02.10.2022
1571 Clouds -1 1015 58 10000 4.02 60 02:55 02.10.2022
1572 Clouds -2 1015 68 10000 4.02 70 00:50 02.10.2022
1573 Clouds -2 1015 69 10000 4 60 00:22 02.10.2022
1574 Clouds -2 1016 64 10000 4 100 22:53 01.10.2022
1575 Clouds -2 1017 64 10000 3 120 20:53 01.10.2022
1576 Clouds -2 1017 69 10000 3 130 18:51 01.10.2022
1577 Clouds -2 1018 68 10000 1 310 16:42 01.10.2022
1578 Clouds -1 1018 64 10000 2 290 14:42 01.10.2022
1579 Clouds -1 1018 63 10000 1 360 13:32 01.10.2022
1580 Clouds -1 1018 58 10000 1 10 12:33 01.10.2022
1581 Clouds -1 1018 58 10000 1 300 11:21 01.10.2022
1582 Clouds -1 1018 58 10000 3.13 290 10:32 01.10.2022
1583 Clouds -1 1018 58 10000 2 310 09:55 01.10.2022
1584 Clouds -1 1017 58 10000 3.13 310 08:58 01.10.2022
1585 Clouds -1 1017 63 10000 3.13 300 05:47 01.10.2022
1586 Clouds -1 1016 58 10000 3.13 280 03:34 01.10.2022
1587 Clouds -1 1016 59 10000 2 280 01:21 01.10.2022
1588 Clouds -2 1015 69 10000 3 300 22:55 30.09.2022
1589 Clouds -1 1015 64 10000 3 310 21:41 30.09.2022
1590 Clouds -2 1015 80 10000 2 310 20:44 30.09.2022
1591 Clouds -2 1015 80 10000 2 300 20:18 30.09.2022
1592 Clear -2 1014 80 10000 3 290 17:40 30.09.2022
1593 Clouds -1 1014 74 10000 3 310 16:25 30.09.2022
1594 Clouds 0 1013 64 10000 5 300 13:40 30.09.2022
1595 Clouds 0 1012 69 10000 3 290 11:59 30.09.2022
1596 Clouds 0 1012 69 10000 3.13 300 11:31 30.09.2022
1597 Clouds 1 1011 69 10000 4.92 280 08:37 30.09.2022
1598 Clouds 1 1010 69 10000 4.02 280 06:29 30.09.2022
1599 Clouds -1 1009 80 10000 4.02 260 02:45 30.09.2022
1600 Clouds -2 1009 80 10000 4 270 23:47 29.09.2022
1601 Clear -2 1010 69 10000 3 280 21:29 29.09.2022
1602 Clear -2 1010 69 10000 4 280 20:59 29.09.2022
1603 Clouds -1 1010 59 10000 2 260 18:48 29.09.2022
1604 Clouds -1 1010 59 10000 3 270 17:45 29.09.2022
1605 Clouds -1 1010 59 10000 2 270 16:28 29.09.2022
1606 Clouds -1 1010 64 10000 2 280 15:36 29.09.2022
1607 Clouds -1 1011 64 10000 1 310 14:54 29.09.2022
1608 Clouds 0 1011 59 10000 2 310 11:52 29.09.2022
1609 Clouds 1 1011 55 10000 4.02 280 07:31 29.09.2022
1610 Clear 1 1012 50 10000 5 290 02:55 29.09.2022
1611 Clear -4 1012 79 10000 3.13 240 00:28 29.09.2022
1612 Clear -4 1012 79 10000 3.13 240 23:19 28.09.2022
1613 Clear -2 1012 63 10000 3.13 270 21:30 28.09.2022
1614 Clouds -3 1012 68 10000 3.13 290 20:45 28.09.2022
1615 Clouds -2 1012 63 10000 3.13 290 18:53 28.09.2022
1616 Clouds 0 1011 64 10000 4 310 15:46 28.09.2022
1617 Clouds 1 1011 64 10000 3.13 320 13:28 28.09.2022
1618 Clouds 1 1011 64 10000 3.13 320 13:28 28.09.2022
1619 Clouds 1 1011 64 10000 5 320 11:34 28.09.2022
1620 Clouds 1 1010 74 10000 6 300 09:26 28.09.2022
1621 Clouds 1 1009 74 10000 7.15 300 07:41 28.09.2022
1622 Clouds 1 1008 80 10000 6 300 05:31 28.09.2022
1623 Snow 1 1007 86 10000 4.02 280 01:40 28.09.2022
1624 Clouds 0 1007 92 10000 3.13 290 23:30 27.09.2022
1625 Snow 0 1006 92 10000 4.02 290 22:32 27.09.2022
1626 Clouds -1 1006 86 10000 1 220 20:56 27.09.2022
1627 Clouds -1 1007 86 10000 2 250 20:19 27.09.2022
1628 Clouds 0 1006 86 10000 3.13 240 19:36 27.09.2022
1629 Snow 0 1006 86 10000 2 230 17:46 27.09.2022
1630 Snow -1 1006 100 10000 1 240 16:20 27.09.2022
1631 Clouds 0 1006 86 10000 1 290 14:59 27.09.2022
1632 Snow 0 1006 92 10000 2 280 13:36 27.09.2022
1633 Clouds 1 1006 74 10000 1 250 12:23 27.09.2022
1634 Clouds 3 1005 59 10000 3.13 270 09:54 27.09.2022
1635 Clouds 3 1005 64 10000 3.13 270 07:41 27.09.2022
1636 Clouds 1 1006 80 10000 3.13 250 03:51 27.09.2022
1637 Clear 0 1006 80 10000 3.13 250 01:36 27.09.2022
1638 Clear -1 1006 86 10000 2 220 23:45 26.09.2022
1639 Clear -1 1007 86 10000 3.13 260 23:21 26.09.2022
1640 Clouds 0 1007 74 10000 3.13 280 20:58 26.09.2022
1641 Clouds 0 1008 74 10000 2 280 19:44 26.09.2022
1642 Clear 0 1008 74 10000 3.13 290 18:39 26.09.2022
1643 Clear 0 1009 80 10000 2 280 17:24 26.09.2022
1644 Clear 1 1010 86 10000 2 360 14:57 26.09.2022
1645 Clouds 2 1010 86 10000 3.13 320 12:31 26.09.2022
1646 Clouds 4 1010 75 10000 2 330 10:42 26.09.2022
1647 Clouds 4 1010 75 10000 3.13 330 10:23 26.09.2022
1648 Clouds 4 1010 75 10000 2 350 09:57 26.09.2022
1649 Clouds 4 1010 80 10000 3.13 310 09:27 26.09.2022
1650 Clouds 4 1010 75 10000 3.13 320 08:59 26.09.2022
1651 Clouds 3 1009 80 10000 4.02 340 05:30 26.09.2022
1652 Clear 1 1009 86 10000 2 280 01:57 26.09.2022
1653 Clear -1 1008 92 10000 3.13 250 23:24 25.09.2022
1654 Clear -1 1007 100 10000 0 0 21:44 25.09.2022
1655 Clear 0 1007 92 10000 1 330 20:59 25.09.2022
1656 Clouds 0 1007 92 10000 1 10 20:34 25.09.2022
1657 Clouds 1 1006 93 10000 2 310 18:49 25.09.2022
1658 Clear 1 1006 100 10000 3.13 300 18:24 25.09.2022
1659 Clouds 2 1006 93 10000 2 320 17:22 25.09.2022
1660 Clouds 2 1005 93 10000 1 250 15:50 25.09.2022
1661 Clouds 2 1005 93 10000 1 330 14:37 25.09.2022
1662 Rain 2 1005 93 10000 1 320 13:58 25.09.2022
1663 Rain 3 1004 93 10000 3.13 290 10:38 25.09.2022
1664 Rain 4 1004 93 10000 4.02 300 09:37 25.09.2022
1665 Rain 6 1003 93 10000 2 270 07:41 25.09.2022
1666 Rain 7 1003 87 10000 2 140 05:19 25.09.2022
1667 Clouds 3 1003 93 10000 1 20 23:36 24.09.2022
1668 Clouds 3 1004 93 10000 2 30 21:19 24.09.2022
1669 Clouds 3 1005 93 10000 2 20 19:34 24.09.2022
1670 Clouds 3 1005 93 10000 3.13 30 18:57 24.09.2022
1671 Clouds 3 1006 86 10000 3.13 30 16:50 24.09.2022
1672 Clouds 3 1006 86 10000 3.13 10 15:23 24.09.2022
1673 Clouds 3 1006 86 10000 3.13 10 15:23 24.09.2022
1674 Clouds 3 1007 93 10000 2 40 14:36 24.09.2022
1675 Clouds 3 1007 86 10000 3.13 60 13:18 24.09.2022
1676 Clouds 4 1007 80 10000 3.13 60 12:22 24.09.2022
1677 Clouds 4 1006 80 10000 3.13 100 09:59 24.09.2022
1678 Clouds 4 1006 75 10000 4.02 90 08:58 24.09.2022
1679 Clouds 4 1006 75 10000 5 100 07:41 24.09.2022
1680 Clouds 3 1006 74 10000 4.02 80 04:53 24.09.2022
1681 Clouds 3 1006 74 10000 4.02 70 04:19 24.09.2022
1682 Clouds 2 1008 69 10000 5 100 22:54 23.09.2022
1683 Clouds 2 1009 74 10000 5 100 21:33 23.09.2022
1684 Clouds 2 1009 74 10000 5 100 20:57 23.09.2022
1685 Clouds 1 1009 80 10000 5 100 20:37 23.09.2022
1686 Clear 1 1010 80 10000 4.02 110 19:19 23.09.2022
1687 Clear 1 1012 80 10000 4.02 120 16:23 23.09.2022
1688 Clear 3 1013 60 10000 4 100 12:39 23.09.2022
1689 Clear 4 1013 51 10000 3.13 80 09:36 23.09.2022
1690 Clouds 4 1015 48 10000 3.13 110 06:51 23.09.2022
1691 Clouds 0 1016 80 10000 1 130 00:44 23.09.2022
1692 Clouds -1 1016 80 10000 2 240 23:28 22.09.2022
1693 Clear -3 1016 92 10000 0 0 22:27 22.09.2022
1694 Clear -2 1015 86 10000 2 290 21:24 22.09.2022
1695 Clear -1 1015 80 10000 3.13 290 20:18 22.09.2022
1696 Clouds -1 1015 80 10000 2 300 18:30 22.09.2022
1697 Clouds -2 1014 79 10000 2 270 14:48 22.09.2022
1698 Clouds 2 1012 59 10000 4.02 320 10:38 22.09.2022
1699 Clouds 3 1012 55 10000 3.13 300 10:18 22.09.2022
1700 Clouds 3 1011 59 10000 5 290 07:48 22.09.2022
1701 Clouds 3 1010 59 10000 4.02 280 04:37 22.09.2022
1702 Clear 0 1008 80 10000 6 290 23:46 21.09.2022
1703 Clear 0 1007 80 10000 6 300 22:26 21.09.2022
1704 Clear 0 1006 80 10000 5 300 20:55 21.09.2022
1705 Clear 0 1004 80 10000 4.02 300 18:30 21.09.2022
1706 Clear 0 1004 80 10000 4.02 300 17:39 21.09.2022
1707 Clear 1 1003 69 10000 4.02 310 15:29 21.09.2022
1708 Clear 2 1002 64 10000 4.02 320 13:39 21.09.2022
1709 Clear 5 1000 41 10000 2 300 11:34 21.09.2022
1710 Clear 6 1000 38 10000 3.13 300 10:52 21.09.2022
1711 Clear 6 999 41 10000 4.92 300 09:38 21.09.2022
1712 Clear 6 998 41 10000 5 320 08:24 21.09.2022
1713 Clear 1 996 59 10000 2 300 02:54 21.09.2022
1714 Clear 0 996 63 10000 2 300 02:34 21.09.2022
1715 Clear -1 996 68 10000 3.13 320 01:50 21.09.2022
1716 Clear -4 995 79 10000 4.02 320 23:58 20.09.2022
1717 Clear -3 995 73 10000 4.02 310 21:40 20.09.2022
1718 Clear -3 995 73 10000 4.02 310 20:26 20.09.2022
1719 Clear -1 994 58 10000 4.02 320 17:53 20.09.2022
1720 Clear -2 995 68 10000 3.13 300 15:33 20.09.2022
1721 Clear 0 995 59 10000 3.13 290 13:59 20.09.2022
1722 Clear 5 996 41 10000 4.02 300 11:28 20.09.2022
1723 Clear 7 997 36 10000 6 320 08:36 20.09.2022
1724 Clear 7 997 36 10000 6 310 07:32 20.09.2022
1725 Clear 5 999 41 10000 6 310 04:35 20.09.2022
1726 Clear 0 1002 69 10000 4.02 290 01:32 20.09.2022
1727 Clear -2 1004 79 10000 5 300 22:41 19.09.2022
1728 Clear -2 1004 79 10000 4.02 330 21:28 19.09.2022
1729 Clear -1 1005 74 10000 5 300 20:39 19.09.2022
1730 Clear -1 1006 80 10000 4.02 310 18:45 19.09.2022
1731 Clear 0 1007 74 10000 4.02 300 16:48 19.09.2022
1732 Clear 1 1009 74 10000 4.02 300 13:47 19.09.2022
1733 Clouds 3 1009 74 10000 4.02 310 11:57 19.09.2022
1734 Clouds 6 1009 45 10000 6 320 09:44 19.09.2022
1735 Clouds 7 1009 42 10000 7 330 08:32 19.09.2022
1736 Clouds 3 1010 64 10000 6 300 03:37 19.09.2022
1737 Clouds 0 1010 80 10000 6 300 00:44 19.09.2022
1738 Clear -2 1010 93 10000 4 300 22:32 18.09.2022
1739 Clear -2 1010 86 10000 4.02 300 21:18 18.09.2022
1740 Clear -1 1010 80 10000 5 300 19:33 18.09.2022
1741 Clear -1 1011 80 10000 4.02 300 17:52 18.09.2022
1742 Clear 0 1011 74 10000 4.02 290 16:47 18.09.2022
1743 Clear 1 1011 69 10000 4.02 290 14:44 18.09.2022
1744 Clear 2 1011 64 10000 3.13 290 13:34 18.09.2022
1745 Clear 4 1011 51 10000 4.02 310 12:20 18.09.2022
1746 Clouds 5 1011 56 10000 6.52 311 09:25 18.09.2022
1747 Clouds 7 1007 93 10000 3 220 01:43 18.09.2022
1748 Rain 6 1007 93 10000 2 210 01:19 18.09.2022
1749 Rain 3 1007 100 10000 0 0 22:56 17.09.2022
1750 Clear 3 1008 93 10000 1 340 20:55 17.09.2022
1751 Clear 4 1008 86 10000 1.79 320 19:37 17.09.2022
1752 Clouds 5 1008 93 10000 1 10 18:21 17.09.2022
1753 Clouds 9 1009 61 10000 3.13 300 14:24 17.09.2022
1754 Clouds 9 1009 66 10000 2 240 13:26 17.09.2022
1755 Clouds 11 1009 57 10000 1 230 10:49 17.09.2022
1756 Clouds 14 1009 38 10000 5 240 07:28 17.09.2022
1757 Clouds 13 1009 47 10000 4.02 200 06:19 17.09.2022
1758 Clear 2 1013 80 10000 3.13 180 23:41 16.09.2022
1759 Clear 0 1013 86 10000 2 210 22:19 16.09.2022
1760 Clear 0 1013 86 10000 2 210 20:53 16.09.2022
1761 Clear 2 1014 80 10000 3 190 19:35 16.09.2022
1762 Clear -1 1015 86 10000 1 260 16:24 16.09.2022
1763 Clear 1 1015 80 10000 1 220 14:52 16.09.2022
1764 Clear 3 1015 74 10000 2 240 13:21 16.09.2022
1765 Clear 11 1016 32 10000 2 280 10:24 16.09.2022
1766 Clear 10 1017 37 10000 3.13 280 07:26 16.09.2022
1767 Clear 11 1017 37 10000 3.13 290 06:48 16.09.2022
1768 Clear 10 1017 39 10000 3.13 310 05:57 16.09.2022
1769 Clear 5 1018 65 10000 4.02 310 02:35 16.09.2022
1770 Clear 1 1017 93 10000 3.13 330 21:47 15.09.2022
1771 Clear 2 1017 86 10000 2 320 20:38 15.09.2022
1772 Clear 3 1017 86 10000 2 320 19:42 15.09.2022
1773 Clouds 4 1017 93 10000 2 320 17:58 15.09.2022
1774 Clouds 5 1017 86 10000 1 310 17:28 15.09.2022
1775 Clouds 7 1017 75 10000 3.13 300 15:47 15.09.2022
1776 Clear 9 1016 61 10000 2 320 12:51 15.09.2022
1777 Clouds 10 1016 62 10000 2 280 11:48 15.09.2022
1778 Clouds 12 1016 58 10000 4 300 09:46 15.09.2022
1779 Rain 11 1017 66 10000 7.15 300 07:44 15.09.2022
1780 Clear 9 1017 61 10000 3.13 280 03:48 15.09.2022
1781 Clear 3 1017 74 10000 2 240 23:30 14.09.2022
1782 Clear 5 1017 65 10000 5 290 20:47 14.09.2022
1783 Clear 5 1016 60 10000 4.02 280 19:33 14.09.2022
1784 Clear 5 1016 60 10000 4.02 290 17:48 14.09.2022
1785 Clear 6 1015 56 10000 3.13 300 16:37 14.09.2022
1786 Clear 6 1014 56 10000 4.02 310 15:27 14.09.2022
1787 Clouds 7 1012 56 10000 8.05 310 12:57 14.09.2022
1788 Clouds 7 1011 70 10000 10 310 10:40 14.09.2022
1789 Clouds 6 1009 86 10000 9 310 08:41 14.09.2022
1790 Clouds 8 1005 81 10000 10 310 06:50 14.09.2022
1791 Rain 8 1004 87 10000 9 310 06:31 14.09.2022
1792 Clouds 8 999 81 10000 7.15 280 03:21 14.09.2022
1793 Clouds 10 998 76 10000 7.15 290 01:39 14.09.2022
1794 Rain 9 998 87 10000 8.05 270 01:19 14.09.2022
1795 Clouds 10 997 87 10000 5 230 23:55 13.09.2022
1796 Clouds 10 997 87 10000 5 230 23:37 13.09.2022
1797 Clouds 10 997 87 10000 4.02 230 23:19 13.09.2022
1798 Clouds 10 997 87 10000 4.02 230 22:32 13.09.2022
1799 Clouds 10 997 93 10000 5 230 21:40 13.09.2022
1800 Rain 10 997 93 10000 5 230 19:26 13.09.2022
1801 Rain 10 997 93 10000 4.02 190 16:45 13.09.2022
1802 Rain 9 998 93 10000 4.02 160 15:38 13.09.2022
1803 Rain 9 1001 93 10000 4.92 130 13:41 13.09.2022
1804 Clouds 12 1002 40 10000 4.92 150 11:34 13.09.2022
1805 Clear 16 1004 33 10000 5 170 08:20 13.09.2022
1806 Clear 9 1012 61 10000 1 160 02:58 13.09.2022
1807 Clear 5 1014 75 10000 2 180 23:23 12.09.2022
1808 Clear 4 1014 75 10000 2 200 22:45 12.09.2022
1809 Clear 4 1015 80 10000 3 190 21:35 12.09.2022
1810 Clear 4 1015 81 10000 2 200 20:24 12.09.2022
1811 Clear 6 1016 75 10000 3.13 200 18:41 12.09.2022
1812 Clear 3 1016 86 10000 1 350 15:53 12.09.2022
1813 Clear 8 1016 70 10000 1 170 12:57 12.09.2022
1814 Clear 14 1016 47 10000 3 190 10:56 12.09.2022
1815 Clear 13 1017 54 10000 3.13 160 09:33 12.09.2022
1816 Clouds 10 1019 53 10000 1 150 04:42 12.09.2022
1817 Clouds 6 1020 75 10000 2 180 02:57 12.09.2022
1818 Clear 0 1019 80 10000 1 10 23:18 11.09.2022
1819 Clear 1 1019 69 10000 1 20 21:41 11.09.2022
1820 Clear 1 1019 74 10000 1 360 20:45 11.09.2022
1821 Clear 2 1019 69 10000 1 60 19:46 11.09.2022
1822 Clear 2 1019 74 10000 1 340 19:22 11.09.2022
1823 Clear 1 1019 69 10000 2 270 17:57 11.09.2022
1824 Clear 1 1018 69 10000 2 290 16:23 11.09.2022
1825 Clear 4 1018 64 10000 2 230 14:18 11.09.2022
1826 Clear 6 1018 52 10000 2 270 12:32 11.09.2022
1827 Clear 10 1017 34 10000 6 290 08:27 11.09.2022
1828 Clouds 11 1017 37 10000 5 300 06:33 11.09.2022
1829 Clear 4 1017 60 10000 4.02 270 00:49 11.09.2022
1830 Clear 4 1016 55 10000 4.02 290 22:54 10.09.2022
1831 Clear 5 1015 52 10000 3 300 20:55 10.09.2022
1832 Clear 6 1015 49 10000 3 280 19:46 10.09.2022
1833 Clear 6 1014 49 10000 3 290 19:27 10.09.2022
1834 Clear 6 1014 49 10000 4 290 17:59 10.09.2022
1835 Clear 6 1014 52 10000 3.13 290 15:45 10.09.2022
1836 Clear 8 1013 49 10000 4 270 14:37 10.09.2022
1837 Clear 7 1012 57 10000 3 250 12:52 10.09.2022
1838 Clouds 10 1010 42 10000 6 300 10:35 10.09.2022
1839 Clouds 11 1010 40 10000 6 290 09:24 10.09.2022
1840 Clouds 11 1010 37 10000 7 290 08:27 10.09.2022
1841 Clear 11 1009 46 10000 8.05 280 05:50 10.09.2022
1842 Clouds 10 1005 71 10000 6 250 23:56 09.09.2022
1843 Clouds 10 1005 71 10000 5 260 23:29 09.09.2022
1844 Clouds 10 1004 71 10000 5 280 21:24 09.09.2022
1845 Clouds 10 1004 71 10000 5 270 20:28 09.09.2022
1846 Clouds 10 1004 71 10000 4 290 19:23 09.09.2022
1847 Clouds 10 1003 71 10000 4.02 260 18:33 09.09.2022
1848 Clouds 11 1002 66 10000 5 270 16:18 09.09.2022
1849 Clouds 11 1000 81 10000 4.02 240 13:47 09.09.2022
1850 Clouds 11 999 81 10000 4.02 190 11:52 09.09.2022
1851 Clouds 11 999 76 10000 3.13 190 09:21 09.09.2022
1852 Clouds 8 1001 81 10000 3.13 200 03:48 09.09.2022
1853 Clear 7 1002 75 10000 4.02 210 00:40 09.09.2022
1854 Clear 4 1003 86 10000 4.02 280 21:52 08.09.2022
1855 Clear 6 1003 75 10000 4.02 260 20:50 08.09.2022
1856 Clear 6 1003 75 10000 4.02 280 20:29 08.09.2022
1857 Clear 6 1003 75 10000 5 290 19:39 08.09.2022
1858 Clear 7 1002 70 10000 5 290 17:40 08.09.2022
1859 Clear 8 1002 65 10000 4.02 300 16:19 08.09.2022
1860 Clear 10 1001 61 10000 5 310 14:37 08.09.2022
1861 Clear 11 1001 57 10000 6 310 12:51 08.09.2022
1862 Clear 13 999 50 10000 9 320 11:36 08.09.2022
1863 Clear 13 998 50 10000 8.05 320 10:23 08.09.2022
1864 Clear 14 996 44 10000 11.18 320 07:49 08.09.2022
1865 Clouds 14 995 50 10000 10 320 05:51 08.09.2022
1866 Clear 10 994 61 10000 9 320 02:36 08.09.2022
1867 Clear 10 994 61 10000 9 320 02:18 08.09.2022
1868 Clear 8 994 75 10000 10 310 00:22 08.09.2022
1869 Clear 8 994 75 10000 9 310 22:19 07.09.2022
1870 Clear 8 994 75 10000 8.94 310 21:39 07.09.2022
1871 Clear 9 994 70 10000 7.15 320 20:31 07.09.2022
1872 Clear 9 995 70 10000 7.15 330 19:30 07.09.2022
1873 Clear 9 997 75 10000 6 340 17:22 07.09.2022
1874 Clouds 10 1000 81 10000 2 360 12:41 07.09.2022
1875 Clouds 12 1001 71 10000 4.02 20 10:45 07.09.2022
1876 Clouds 11 1002 87 10000 3.13 60 08:36 07.09.2022
1877 Clouds 11 1003 87 10000 4.02 20 06:51 07.09.2022
1878 Clouds 9 1005 93 10000 3.13 320 01:50 07.09.2022
1879 Clouds 9 1005 93 10000 1 260 22:35 06.09.2022
1880 Clouds 9 1005 100 10000 1 260 21:38 06.09.2022
1881 Rain 9 1005 100 10000 1 270 19:57 06.09.2022
1882 Rain 10 1005 93 10000 2 290 18:45 06.09.2022
1883 Rain 10 1004 100 10000 2 320 17:56 06.09.2022
1884 Rain 11 1004 93 5000 4.02 310 17:20 06.09.2022
1885 Rain 12 1003 93 10000 4.02 340 16:37 06.09.2022
1886 Rain 12 1003 93 10000 4.02 330 14:55 06.09.2022
1887 Rain 12 1003 93 10000 2 310 13:44 06.09.2022
1888 Rain 12 1003 93 10000 1 80 13:21 06.09.2022
1889 Clouds 13 1004 87 10000 0 0 11:29 06.09.2022
1890 Rain 13 1004 87 10000 2 170 10:33 06.09.2022
1891 Clouds 16 1005 58 10000 4.02 170 08:29 06.09.2022
1892 Clouds 15 1005 62 10000 3.13 170 07:37 06.09.2022
1893 Clear 11 1007 66 10000 3.13 180 02:34 06.09.2022
1894 Clouds 10 1008 66 10000 2 150 23:21 05.09.2022
1895 Clouds 10 1009 66 10000 2 140 21:50 05.09.2022
1896 Clouds 10 1009 61 10000 3.13 130 20:32 05.09.2022
1897 Clouds 10 1010 66 10000 1 80 19:18 05.09.2022
1898 Clear 10 1011 66 10000 3 130 18:39 05.09.2022
1899 Clear 10 1011 66 10000 3.13 130 18:21 05.09.2022
1900 Clear 10 1012 66 10000 3.13 120 16:27 05.09.2022
1901 Clear 9 1013 75 10000 1 50 15:29 05.09.2022
1902 Clear 9 1014 81 10000 2 40 13:21 05.09.2022
1903 Clear 10 1014 71 10000 3.13 50 12:26 05.09.2022
1904 Clear 13 1016 50 10000 3.13 50 09:19 05.09.2022
1905 Clear 13 1018 47 10000 2 90 06:40 05.09.2022
1906 Clear 7 1021 75 10000 1 270 01:56 05.09.2022
1907 Clear 0 1020 92 10000 3.13 320 22:39 04.09.2022
1908 Clear 0 1020 92 10000 3.13 320 22:19 04.09.2022
1909 Clear 1 1020 93 10000 2 310 20:37 04.09.2022
1910 Clear 2 1020 93 10000 2 300 19:20 04.09.2022
1911 Clear 3 1019 87 10000 2 340 17:43 04.09.2022
1912 Clear 4 1019 81 10000 4 320 16:28 04.09.2022
1913 Clear 5 1018 81 10000 3 320 14:27 04.09.2022
1914 Clear 9 1017 66 10000 2 330 12:57 04.09.2022
1915 Clear 12 1017 50 10000 2 330 11:51 04.09.2022
1916 Clear 14 1016 54 10000 3.13 360 09:50 04.09.2022
1917 Clear 13 1015 47 10000 2 50 06:51 04.09.2022
1918 Clear 10 1015 76 10000 1 90 03:31 04.09.2022
1919 Clear 0 1014 93 10000 2 350 23:40 03.09.2022
1920 Clear 0 1014 93 10000 2 320 22:20 03.09.2022
1921 Clear 0 1013 100 10000 2 310 21:23 03.09.2022
1922 Clear 0 1013 100 10000 2 310 21:23 03.09.2022
1923 Clear 0 1013 100 10000 2 290 18:59 03.09.2022
1924 Clear 1 1013 93 10000 1 320 17:25 03.09.2022
1925 Clear 2 1012 93 10000 1 360 16:26 03.09.2022
1926 Clear 4 1012 93 10000 1 310 14:44 03.09.2022
1927 Clear 6 1012 86 10000 2 250 13:50 03.09.2022
1928 Clouds 12 1011 54 10000 2 280 11:37 03.09.2022
1929 Clouds 13 1010 50 10000 2 320 09:51 03.09.2022
1930 Clouds 13 1010 50 10000 5 260 07:57 03.09.2022
1931 Clouds 12 1009 62 10000 4.02 310 04:57 03.09.2022
1932 Clouds 10 1009 71 10000 5 280 03:57 03.09.2022
1933 Clouds 6 1007 93 10000 3.13 230 23:49 02.09.2022
1934 Clouds 5 1007 93 10000 4.02 260 22:39 02.09.2022
1935 Clouds 5 1006 93 10000 3.13 290 20:59 02.09.2022
1936 Clouds 5 1006 93 10000 3.13 300 20:27 02.09.2022
1937 Clouds 5 1005 93 10000 4.02 300 18:59 02.09.2022
1938 Clouds 5 1005 93 10000 4.02 310 18:27 02.09.2022
1939 Clouds 6 1004 86 10000 4.02 310 17:36 02.09.2022
1940 Clouds 6 1004 93 10000 3.13 320 16:45 02.09.2022
1941 Clouds 7 1003 93 10000 2 300 13:51 02.09.2022
1942 Rain 8 1001 93 10000 3.13 270 11:47 02.09.2022
1943 Rain 8 1001 87 10000 3.13 260 09:49 02.09.2022
1944 Rain 8 1000 93 10000 2 220 08:55 02.09.2022
1945 Rain 8 1000 93 10000 4.02 230 07:24 02.09.2022
1946 Clouds 8 999 93 10000 1 220 06:35 02.09.2022
1947 Clouds 6 999 100 10000 3.13 140 02:37 02.09.2022
1948 Rain 6 1000 93 10000 3.13 110 22:30 01.09.2022
1949 Rain 6 1000 100 10000 2 100 21:43 01.09.2022
1950 Rain 7 1001 93 10000 2 180 21:23 01.09.2022
1951 Rain 6 1001 93 10000 3.13 200 20:37 01.09.2022
1952 Clouds 7 1001 87 10000 2 190 18:54 01.09.2022
1953 Clear 5 1001 93 10000 1 200 17:21 01.09.2022
1954 Clear 5 1001 93 10000 2 210 15:47 01.09.2022
1955 Clouds 7 1000 87 10000 3.13 180 13:55 01.09.2022
1956 Clouds 8 1000 75 10000 3.13 190 12:58 01.09.2022
1957 Clouds 10 1000 76 10000 3.13 170 11:52 01.09.2022
1958 Clouds 10 1000 71 10000 3.13 170 11:31 01.09.2022
1959 Clouds 10 999 66 10000 4.02 180 10:19 01.09.2022
1960 Clouds 8 1000 81 10000 3 160 07:51 01.09.2022
1961 Rain 7 1001 87 10000 1 200 06:22 01.09.2022
1962 Rain 4 1004 100 10000 0 0 01:32 01.09.2022
1963 Clouds 2 1004 93 10000 1 340 23:29 31.08.2022
1964 Clouds 1 1005 93 10000 2 350 21:32 31.08.2022
1965 Clear 1 1005 93 10000 1 320 19:50 31.08.2022
1966 Clear 1 1006 93 10000 1 270 18:18 31.08.2022
1967 Clear 4 1006 93 10000 1 290 15:45 31.08.2022
1968 Clear 5 1005 93 10000 2 240 13:57 31.08.2022
1969 Clear 9 1005 70 10000 2 220 12:21 31.08.2022
1970 Clear 11 1005 57 10000 2 270 10:52 31.08.2022
1971 Clouds 12 1005 54 10000 3.13 290 08:35 31.08.2022
1972 Clouds 8 1004 87 10000 4.02 280 04:26 31.08.2022
1973 Mist 5 1002 100 3200 0.89 310 23:20 30.08.2022
1974 Fog 7 1002 100 200 1 220 21:38 30.08.2022
1975 Fog 6 1002 100 250 1 220 20:56 30.08.2022
1976 Mist 5 1001 100 5000 1 230 17:30 30.08.2022
1977 Clear 9 1002 87 10000 2 230 14:44 30.08.2022
1978 Clear 11 1002 81 10000 2 210 13:24 30.08.2022
1979 Clouds 13 1002 76 10000 2 170 11:21 30.08.2022
1980 Clouds 13 1002 76 10000 3 160 10:40 30.08.2022
1981 Clouds 12 1003 81 10000 3.13 310 06:51 30.08.2022
1982 Clouds 10 1003 87 10000 3.13 330 01:53 30.08.2022
1983 Clouds 11 1004 81 10000 4.02 310 22:58 29.08.2022
1984 Clouds 11 1004 87 10000 3.13 320 22:24 29.08.2022
1985 Clouds 11 1004 87 10000 2 340 21:25 29.08.2022
1986 Clouds 12 1004 87 10000 4 340 19:51 29.08.2022
1987 Clouds 12 1004 93 10000 3.13 350 17:50 29.08.2022
1988 Clouds 12 1004 93 10000 3.13 340 17:24 29.08.2022
1989 Clouds 13 1004 87 10000 4.02 330 16:37 29.08.2022
1990 Clouds 14 1004 82 10000 5 320 14:44 29.08.2022
1991 Clouds 18 1004 63 10000 3 210 12:53 29.08.2022
1992 Clouds 21 1004 52 10000 1 120 11:19 29.08.2022
1993 Clouds 22 1003 40 10000 2 180 09:45 29.08.2022
1994 Clouds 22 1004 43 10000 4.02 180 08:28 29.08.2022
1995 Clear 15 1006 63 10000 1 80 02:49 29.08.2022
1996 Clear 8 1007 87 10000 2 350 00:20 29.08.2022
1997 Clear 3 1008 100 10000 2 320 22:37 28.08.2022
1998 Clear 4 1008 93 10000 1 360 21:43 28.08.2022
1999 Clear 5 1008 93 10000 1 20 20:54 28.08.2022
2000 Clear 5 1008 93 10000 2 350 19:23 28.08.2022
2001 Clear 5 1008 93 10000 2 340 18:20 28.08.2022
2002 Clear 7 1008 93 10000 1 350 16:57 28.08.2022
2003 Clear 7 1008 93 10000 2 350 16:22 28.08.2022
2004 Clear 9 1008 87 10000 1 360 14:36 28.08.2022
2005 Clear 16 1008 55 10000 1 210 12:32 28.08.2022
2006 Clouds 17 1008 45 10000 2 170 10:43 28.08.2022
2007 Clouds 16 1008 55 10000 2 120 09:42 28.08.2022
2008 Clouds 16 1009 58 10000 1 110 08:37 28.08.2022
2009 Clouds 16 1009 63 10000 3 20 07:43 28.08.2022
2010 Clouds 11 1010 93 10000 3.13 180 02:39 28.08.2022
2011 Clouds 10 1009 93 10000 2 280 00:26 28.08.2022
2012 Clouds 10 1008 93 10000 1 230 22:34 27.08.2022
2013 Clouds 10 1007 93 10000 1 230 21:31 27.08.2022
2014 Clouds 9 1007 93 10000 1 290 19:44 27.08.2022
2015 Clouds 10 1006 87 10000 1 330 17:29 27.08.2022
2016 Clouds 11 1005 76 10000 1 320 15:53 27.08.2022
2017 Clouds 11 1005 76 10000 3.13 330 15:24 27.08.2022
2018 Clouds 16 1003 55 10000 2 230 12:28 27.08.2022
2019 Clouds 18 1003 48 10000 2 190 11:31 27.08.2022
2020 Clear 19 1002 39 10000 3.13 190 09:48 27.08.2022
2021 Clear 19 1002 42 10000 4.02 200 07:54 27.08.2022
2022 Clear 12 1003 71 10000 3.13 180 02:52 27.08.2022
2023 Clear 3 1003 93 10000 0 0 23:57 26.08.2022
2024 Clear 2 1003 93 10000 1 220 22:40 26.08.2022
2025 Clear 2 1003 93 10000 1 290 21:19 26.08.2022
2026 Clear 3 1003 93 10000 2 320 19:23 26.08.2022
2027 Clear 6 1002 93 10000 1 290 16:50 26.08.2022
2028 Clear 9 1002 81 10000 2 270 15:31 26.08.2022
2029 Clear 10 1002 76 10000 2 240 14:30 26.08.2022
2030 Clear 13 1002 62 10000 2 240 12:49 26.08.2022
2031 Clear 16 1002 58 10000 2 180 11:27 26.08.2022
2032 Clear 17 1002 45 10000 2 300 10:29 26.08.2022
2033 Clear 17 1002 48 10000 4.02 300 07:28 26.08.2022
2034 Clear 13 1002 62 10000 3.13 300 01:41 26.08.2022
2035 Clear 10 1002 76 10000 3.13 250 23:32 25.08.2022
2036 Clear 11 1001 71 10000 5 290 21:36 25.08.2022
2037 Clear 11 1001 71 10000 4.02 300 20:29 25.08.2022
2038 Clear 11 1001 71 10000 4.02 300 18:55 25.08.2022
2039 Clear 12 1001 66 10000 4.02 300 17:50 25.08.2022
2040 Clear 12 1001 62 10000 4.02 300 17:31 25.08.2022
2041 Clear 12 1001 66 10000 5 300 15:40 25.08.2022
2042 Clear 13 1000 58 10000 5 300 14:34 25.08.2022
2043 Clear 14 1000 58 10000 4.02 300 11:54 25.08.2022
2044 Clear 15 999 51 10000 6 310 10:46 25.08.2022
2045 Clear 15 999 51 10000 5 310 08:54 25.08.2022
2046 Clear 15 998 54 10000 6 310 05:24 25.08.2022
2047 Clear 10 998 71 10000 5 330 01:37 25.08.2022
2048 Clouds 6 998 86 10000 3.13 310 23:26 24.08.2022
2049 Clear 6 998 86 10000 3.13 300 22:22 24.08.2022
2050 Clear 6 998 93 10000 4 310 21:35 24.08.2022
2051 Clouds 7 998 87 10000 2 310 20:52 24.08.2022
2052 Clear 9 998 87 10000 3.13 310 18:58 24.08.2022
2053 Clouds 9 999 93 10000 3.13 290 16:37 24.08.2022
2054 Clouds 9 999 93 10000 3.13 310 15:52 24.08.2022
2055 Clouds 9 1000 87 10000 4.02 320 13:40 24.08.2022
2056 Clouds 10 1000 81 10000 5 300 11:38 24.08.2022
2057 Clouds 11 1000 81 10000 4.02 340 09:39 24.08.2022
2058 Clouds 12 1000 76 10000 5 320 07:59 24.08.2022
2059 Clouds 11 1001 87 10000 5 330 02:36 24.08.2022
2060 Clouds 9 1002 93 10000 3.13 300 23:32 23.08.2022
2061 Clouds 9 1002 93 10000 2 270 22:32 23.08.2022
2062 Clouds 9 1003 93 10000 3.13 290 21:34 23.08.2022
2063 Clouds 9 1003 93 10000 3.13 290 20:21 23.08.2022
2064 Clouds 9 1004 93 10000 3.13 300 18:46 23.08.2022
2065 Clouds 9 1004 93 10000 2 280 17:49 23.08.2022
2066 Clouds 9 1004 93 10000 1 290 16:54 23.08.2022
2067 Rain 9 1005 93 10000 2 280 15:39 23.08.2022
2068 Clouds 10 1005 81 10000 1.79 340 13:36 23.08.2022
2069 Clouds 12 1005 66 10000 4.02 320 11:33 23.08.2022
2070 Clouds 12 1005 66 10000 4.02 310 10:48 23.08.2022
2071 Clouds 12 1005 66 10000 4.02 320 10:24 23.08.2022
2072 Clouds 13 1005 62 10000 4.02 330 08:52 23.08.2022
2073 Clouds 14 1005 58 10000 3 310 08:21 23.08.2022
2074 Clouds 14 1005 58 10000 4 310 07:38 23.08.2022
2075 Clouds 14 1005 58 10000 4.02 280 06:29 23.08.2022
2076 Clouds 14 1005 58 10000 4.02 280 06:29 23.08.2022
2077 Clouds 14 1005 54 10000 4.02 290 04:45 23.08.2022
2078 Clear 8 1005 75 10000 3.13 270 00:28 23.08.2022
2079 Clear 7 1005 81 10000 4.02 260 23:54 22.08.2022
2080 Clear 5 1005 86 10000 2 230 22:45 22.08.2022
2081 Clear 5 1005 86 10000 3.13 280 21:45 22.08.2022
2082 Clouds 5 1004 86 10000 2 230 19:49 22.08.2022
2083 Clouds 6 1004 86 10000 2 270 19:21 22.08.2022
2084 Clear 6 1004 86 10000 1.79 310 17:37 22.08.2022
2085 Clear 8 1004 81 10000 3.13 290 15:40 22.08.2022
2086 Clear 10 1003 71 10000 3.13 290 14:32 22.08.2022
2087 Clear 16 1002 47 10000 7.15 310 10:49 22.08.2022
2088 Clouds 15 1002 51 10000 6 320 08:21 22.08.2022
2089 Clouds 15 1001 62 10000 6 310 04:30 22.08.2022
2090 Clouds 11 1001 81 10000 7.15 310 00:49 22.08.2022
2091 Clouds 10 1001 81 10000 7.15 320 00:29 22.08.2022
2092 Clouds 9 1001 93 10000 4.02 310 22:54 21.08.2022
2093 Clouds 9 1001 93 10000 4.02 300 21:36 21.08.2022
2094 Clouds 9 1000 93 10000 4.02 320 20:57 21.08.2022
2095 Clear 9 1000 93 10000 1 280 19:28 21.08.2022
2096 Clear 10 1000 93 10000 3.13 320 17:59 21.08.2022
2097 Clouds 11 1001 87 10000 3.13 320 16:21 21.08.2022
2098 Clouds 12 1001 81 10000 3.13 310 15:43 21.08.2022
2099 Clouds 14 1001 76 10000 3.13 330 13:58 21.08.2022
2100 Clouds 14 1001 76 10000 3.13 330 13:40 21.08.2022
2101 Clouds 15 1001 72 10000 5 340 12:37 21.08.2022
2102 Clouds 16 1001 72 10000 6 350 09:32 21.08.2022
2103 Clouds 17 1001 72 10000 4.02 310 08:56 21.08.2022
2104 Clouds 17 1001 72 10000 4.02 310 08:38 21.08.2022
2105 Rain 14 1001 87 5000 3.13 290 07:28 21.08.2022
2106 Clouds 15 1002 76 10000 3.13 330 04:18 21.08.2022
2107 Clouds 11 1002 93 10000 5 310 00:53 21.08.2022
2108 Clouds 11 1002 100 10000 2 290 22:59 20.08.2022
2109 Clouds 11 1002 100 10000 2 290 21:43 20.08.2022
2110 Clouds 11 1002 100 10000 2 320 20:48 20.08.2022
2111 Clouds 11 1001 100 10000 3.13 330 19:41 20.08.2022
2112 Clouds 11 1001 100 10000 2 310 18:43 20.08.2022
2113 Clouds 11 1001 100 10000 2 310 18:25 20.08.2022
2114 Clouds 12 1001 93 10000 2 310 17:19 20.08.2022
2115 Clouds 12 1001 93 10000 3.13 310 15:51 20.08.2022
2116 Clouds 11 1001 92 10000 2.29 289 13:39 20.08.2022
2117 Clouds 15 999 82 10000 4.02 330 11:53 20.08.2022
2118 Clouds 16 999 72 10000 5 330 10:39 20.08.2022
2119 Clouds 17 999 67 10000 4.02 280 09:18 20.08.2022
2120 Clouds 16 998 72 10000 5 260 06:40 20.08.2022
2121 Clouds 15 998 76 10000 3.13 260 03:57 20.08.2022
2122 Clouds 13 997 87 10000 3.13 230 00:51 20.08.2022
2123 Clouds 13 996 81 10000 4.02 230 23:19 19.08.2022
2124 Clouds 12 996 87 10000 3.13 210 22:35 19.08.2022
2125 Clouds 12 996 87 10000 3.13 210 22:35 19.08.2022
2126 Clouds 12 996 87 10000 2 200 20:29 19.08.2022
2127 Clouds 12 996 87 10000 3.13 260 18:51 19.08.2022
2128 Clouds 12 995 87 10000 2 260 15:54 19.08.2022
2129 Clouds 14 995 82 10000 3 290 13:40 19.08.2022
2130 Clouds 17 995 59 10000 4 310 11:39 19.08.2022
2131 Clouds 19 994 55 10000 3.13 320 10:29 19.08.2022
2132 Clouds 18 994 55 10000 3.13 320 07:25 19.08.2022
2133 Clear 16 995 77 10000 2 230 02:23 19.08.2022
2134 Clouds 13 995 93 10000 2 250 00:32 19.08.2022
2135 Clouds 12 996 93 10000 1 230 23:48 18.08.2022
2136 Clouds 10 996 100 10000 1 240 22:52 18.08.2022
2137 Clouds 10 996 100 10000 0 0 22:18 18.08.2022
2138 Clouds 10 996 100 10000 0.89 310 21:40 18.08.2022
2139 Clouds 11 996 93 10000 1 60 20:27 18.08.2022
2140 Clouds 11 996 93 10000 0 0 19:30 18.08.2022
2141 Clouds 12 996 93 10000 1 310 17:55 18.08.2022
2142 Clouds 12 996 93 10000 0 0 17:19 18.08.2022
2143 Clouds 12 996 93 10000 1 240 15:20 18.08.2022
2144 Clouds 13 996 87 10000 1 210 14:20 18.08.2022
2145 Clouds 14 996 87 10000 2 190 13:36 18.08.2022
2146 Clouds 16 996 77 10000 2 220 12:26 18.08.2022
2147 Clouds 17 996 67 10000 3.13 180 10:22 18.08.2022
2148 Clouds 17 996 72 10000 3.13 190 09:42 18.08.2022
2149 Clouds 17 996 59 10000 3.13 270 07:24 18.08.2022
2150 Clouds 16 995 63 10000 4.02 240 04:47 18.08.2022
2151 Clear 11 996 87 10000 2 220 23:49 17.08.2022
2152 Clear 10 996 87 10000 4.02 230 21:54 17.08.2022
2153 Clear 11 995 81 10000 3.13 250 20:20 17.08.2022
2154 Clear 11 995 87 10000 3.13 270 19:32 17.08.2022
2155 Clear 13 994 82 10000 3 270 17:39 17.08.2022
2156 Clear 12 994 87 10000 2 230 16:47 17.08.2022
2157 Clouds 14 994 82 10000 4.02 260 15:30 17.08.2022
2158 Clouds 15 994 82 10000 4 230 13:52 17.08.2022
2159 Clouds 16 994 77 10000 4.02 270 11:42 17.08.2022
2160 Clouds 16 993 82 10000 3.13 250 10:22 17.08.2022
2161 Clouds 15 993 87 10000 4.02 260 08:24 17.08.2022
2162 Rain 14 993 93 10000 2 180 04:20 17.08.2022
2163 Mist 14 993 87 5000 1 20 00:40 17.08.2022
2164 Fog 9 995 100 450 0 0 22:50 16.08.2022
2165 Fog 9 995 100 150 1 360 20:59 16.08.2022
2166 Fog 9 995 93 10000 1 340 19:55 16.08.2022
2167 Clear 9 995 100 10000 1 330 19:22 16.08.2022
2168 Clear 11 996 100 10000 2 340 17:54 16.08.2022
2169 Clear 12 996 93 10000 2 320 16:35 16.08.2022
2170 Clear 13 997 93 10000 1 310 15:44 16.08.2022
2171 Clear 14 997 93 10000 1 40 14:54 16.08.2022
2172 Clear 14 997 93 10000 0 0 14:36 16.08.2022
2173 Clouds 19 997 72 10000 2 90 11:39 16.08.2022
2174 Clouds 19 997 77 10000 1 100 09:58 16.08.2022
2175 Clouds 19 997 72 10000 2 130 08:49 16.08.2022
2176 Clouds 19 998 72 10000 2 140 08:19 16.08.2022
2177 Clouds 17 998 82 10000 2 120 05:28 16.08.2022
2178 Clouds 14 1000 87 10000 1 320 23:27 15.08.2022
2179 Clouds 13 1000 93 10000 2 240 22:20 15.08.2022
2180 Clouds 13 1000 93 10000 2 300 21:43 15.08.2022
2181 Clouds 13 1000 93 10000 3.13 320 20:31 15.08.2022
2182 Clouds 13 1000 93 10000 2 290 18:57 15.08.2022
2183 Clouds 14 1000 87 10000 2 350 17:59 15.08.2022
2184 Clouds 15 1000 87 10000 3.13 310 16:24 15.08.2022
2185 Clouds 16 1000 87 10000 3.13 310 15:26 15.08.2022
2186 Thunderstorm 19 1001 77 10000 3.13 230 13:27 15.08.2022
2187 Thunderstorm 21 1000 64 10000 4 330 10:37 15.08.2022
2188 Clouds 24 999 46 10000 1 10 08:55 15.08.2022
2189 Clouds 23 1000 56 10000 2 30 06:51 15.08.2022
2190 Clouds 16 1002 77 10000 1 50 03:56 15.08.2022
2191 Clouds 11 1002 100 10000 1 360 23:49 14.08.2022
2192 Clear 12 1002 100 10000 1 20 22:28 14.08.2022
2193 Clear 12 1001 100 10000 2 10 21:25 14.08.2022
2194 Rain 15 1003 83 10000 2.09 104 19:46 14.08.2022
2195 Clouds 16 1003 72 10000 1.73 107 18:41 14.08.2022
2196 Clouds 15 1003 74 10000 1.3 120 17:44 14.08.2022
2197 Clouds 16 1003 71 10000 1.37 135 16:30 14.08.2022
2198 Clouds 18 1003 67 10000 1.69 134 15:45 14.08.2022
2199 Clouds 18 1004 66 10000 2.35 119 13:52 14.08.2022
2200 Clouds 18 1004 66 10000 2.35 119 13:34 14.08.2022
2201 Clouds 19 1003 65 10000 2.62 113 12:55 14.08.2022
2202 Clouds 20 1003 63 10000 3.24 104 11:31 14.08.2022
2203 Clouds 22 1002 68 10000 3.13 70 10:26 14.08.2022
2204 Thunderstorm 22 1003 68 10000 5 60 08:20 14.08.2022
2205 Clouds 23 1003 64 10000 5 50 06:20 14.08.2022
2206 Clouds 20 1004 72 10000 3.13 80 02:35 14.08.2022
2207 Clouds 16 1004 87 10000 2 40 23:23 13.08.2022
2208 Clouds 16 1004 87 10000 2 20 22:28 13.08.2022
2209 Clouds 16 1004 87 10000 2 100 20:58 13.08.2022
2210 Clouds 16 1004 82 10000 3.13 70 19:50 13.08.2022
2211 Clouds 16 1004 82 10000 2 80 19:19 13.08.2022
2212 Clouds 16 1004 93 10000 2 70 17:35 13.08.2022
2213 Clouds 17 1004 88 10000 1 340 15:18 13.08.2022
2214 Clouds 18 1004 72 10000 1 190 14:24 13.08.2022
2215 Rain 19 1004 72 10000 2 160 13:37 13.08.2022
2216 Thunderstorm 24 1003 53 10000 3 170 11:49 13.08.2022
2217 Clouds 25 1002 44 10000 1 190 09:50 13.08.2022
2218 Clouds 25 1003 50 10000 2 130 07:50 13.08.2022
2219 Clouds 19 1004 82 10000 2 110 02:33 13.08.2022
2220 Fog 15 1004 100 400 1 360 23:46 12.08.2022
2221 Fog 14 1004 93 400 1.79 330 21:40 12.08.2022
2222 Fog 14 1004 100 250 1 340 19:51 12.08.2022
2223 Fog 14 1004 100 250 1 330 19:26 12.08.2022
2224 Fog 14 1004 100 100 1 20 18:34 12.08.2022
2225 Clouds 16 1004 93 10000 1 10 16:28 12.08.2022
2226 Clouds 16 1004 100 10000 1 350 15:31 12.08.2022
2227 Clouds 16 1004 100 10000 0 0 14:27 12.08.2022
2228 Clouds 19 1003 82 10000 2 250 12:51 12.08.2022
2229 Clouds 18 1003 88 10000 3.13 190 09:50 12.08.2022
2230 Clouds 18 1003 93 10000 1 210 07:47 12.08.2022
2231 Clouds 18 1004 85 10000 1.6 145 06:28 12.08.2022
2232 Clouds 18 1002 82 10000 1 200 02:22 12.08.2022
2233 Clouds 16 1002 93 10000 0 0 00:23 12.08.2022
2234 Clouds 15 1002 93 10000 1 10 23:34 11.08.2022
2235 Clear 13 1001 100 10000 2 230 21:58 11.08.2022
2236 Clear 13 1001 100 10000 0 0 21:35 11.08.2022
2237 Clear 13 1001 100 10000 0 0 20:32 11.08.2022
2238 Clear 14 1001 93 10000 1 310 19:53 11.08.2022
2239 Clear 15 1001 93 10000 1 230 19:30 11.08.2022
2240 Clear 17 1001 82 10000 0 0 17:47 11.08.2022
2241 Clouds 19 1001 72 10000 1.79 270 16:32 11.08.2022
2242 Clear 20 1001 72 10000 2 190 15:20 11.08.2022
2243 Clear 24 1000 53 10000 2 210 12:39 11.08.2022
2244 Clear 24 1000 53 10000 2 260 09:54 11.08.2022
2245 Clear 24 1000 57 10000 2 250 06:59 11.08.2022
2246 Clouds 20 1000 77 10000 2 150 03:45 11.08.2022
2247 Mist 15 999 100 3200 2 160 00:35 11.08.2022
2248 Fog 16 999 93 10000 3.13 350 22:21 10.08.2022
2249 Clouds 15 999 100 10000 1 60 21:24 10.08.2022
2250 Clouds 16 998 93 10000 2 350 20:47 10.08.2022
2251 Rain 17 998 93 10000 1 340 18:55 10.08.2022
2252 Clouds 20 998 73 10000 3 60 17:37 10.08.2022
2253 Clouds 21 998 64 10000 5 20 16:33 10.08.2022
2254 Clouds 23 998 64 10000 2 330 13:35 10.08.2022
2255 Clouds 26 997 50 10000 1 80 12:35 10.08.2022
2256 Clouds 25 998 53 10000 2 180 09:24 10.08.2022
2257 Clouds 25 998 53 10000 2 140 08:32 10.08.2022
2258 Clouds 26 999 47 10000 1 260 06:23 10.08.2022
2259 Clouds 21 1000 56 10000 3.13 340 03:24 10.08.2022
2260 Clear 11 1002 87 10000 3 320 23:34 09.08.2022
2261 Clear 11 1002 82 10000 3 320 22:56 09.08.2022
2262 Clear 10 1003 87 10000 2 310 21:35 09.08.2022
2263 Clear 10 1003 87 10000 3 320 20:26 09.08.2022
2264 Clear 11 1003 87 10000 2 320 18:42 09.08.2022
2265 Clear 12 1004 87 10000 2 330 17:28 09.08.2022
2266 Clear 12 1004 87 10000 2 330 17:28 09.08.2022
2267 Clear 12 1004 94 10000 2 340 16:40 09.08.2022
2268 Clear 13 1003 87 10000 1 340 15:58 09.08.2022
2269 Clouds 15 1006 70 10000 1.07 22 12:51 09.08.2022
2270 Clear 21 1002 56 10000 2 160 09:39 09.08.2022
2271 Clear 21 1002 56 10000 3 150 08:50 09.08.2022
2272 Clear 22 1002 53 10000 4 140 07:52 09.08.2022
2273 Clear 21 1001 64 10000 4.02 40 04:22 09.08.2022
2274 Clear 14 1001 87 10000 3.13 10 23:27 08.08.2022
2275 Clear 14 1001 87 10000 3.13 360 22:55 08.08.2022
2276 Clear 14 1001 87 10000 3.13 360 22:18 08.08.2022
2277 Clear 14 1001 87 10000 2 10 21:18 08.08.2022
2278 Clear 14 1001 87 10000 3.13 10 19:51 08.08.2022
2279 Clear 15 1002 82 10000 3.13 10 18:50 08.08.2022
2280 Clear 15 1002 82 10000 2 20 16:44 08.08.2022
2281 Clear 16 1002 77 10000 2 30 15:40 08.08.2022
2282 Smoke 20 1003 64 5000 2 80 13:55 08.08.2022
2283 Clear 21 1003 56 10000 4.02 40 12:19 08.08.2022
2284 Clear 22 1003 49 10000 4.02 40 09:48 08.08.2022
2285 Clear 21 1005 49 10000 5 50 06:51 08.08.2022
2286 Clear 17 1007 63 10000 3.13 50 02:56 08.08.2022
2287 Clear 6 1008 100 10000 2 350 22:42 07.08.2022
2288 Clear 6 1008 93 10000 2 350 21:40 07.08.2022
2289 Clear 6 1008 100 10000 1 330 20:26 07.08.2022
2290 Clear 7 1008 93 10000 2 340 19:57 07.08.2022
2291 Clear 7 1008 93 10000 2 340 19:39 07.08.2022
2292 Clear 8 1008 100 10000 1 20 18:35 07.08.2022
2293 Clear 10 1007 87 10000 1 360 16:54 07.08.2022
2294 Clear 11 1007 87 10000 1 360 16:35 07.08.2022
2295 Clear 12 1007 81 10000 2 250 15:23 07.08.2022
2296 Clouds 15 1006 67 10000 5 260 13:34 07.08.2022
2297 Clouds 15 1004 72 10000 5 250 11:58 07.08.2022
2298 Clouds 16 1003 72 10000 6 230 10:34 07.08.2022
2299 Clouds 17 999 72 10000 8.05 220 07:59 07.08.2022
2300 Clouds 21 995 68 10000 6 140 03:32 07.08.2022
2301 Clouds 19 996 68 10000 4.02 130 01:45 07.08.2022
2302 Clouds 19 996 68 10000 4.02 110 22:25 06.08.2022
2303 Clouds 19 996 68 10000 3.13 120 21:18 06.08.2022
2304 Clouds 18 996 88 10000 1.79 100 19:41 06.08.2022
2305 Rain 20 997 72 10000 5 180 18:30 06.08.2022
2306 Clouds 22 996 60 10000 4.02 140 17:37 06.08.2022
2307 Clouds 22 996 64 10000 3.13 130 14:52 06.08.2022
2308 Clouds 20 996 77 10000 2 360 13:49 06.08.2022
2309 Clouds 20 996 77 10000 3.13 340 12:19 06.08.2022
2310 Smoke 24 997 64 5000 1 90 10:33 06.08.2022
2311 Smoke 23 997 64 5000 1 120 09:21 06.08.2022
2312 Smoke 21 997 77 5000 3.13 180 03:54 06.08.2022
2313 Smoke 21 996 73 5000 3.13 140 23:56 05.08.2022
2314 Smoke 22 996 68 5000 2 150 22:33 05.08.2022
2315 Clouds 22 995 68 10000 1 170 20:20 05.08.2022
2316 Smoke 23 996 64 5000 2 160 18:47 05.08.2022
2317 Smoke 23 996 68 5000 2 140 18:27 05.08.2022
2318 Smoke 23 996 68 3200 2 140 16:50 05.08.2022
2319 Smoke 23 997 73 3200 3.13 120 15:23 05.08.2022
2320 Smoke 24 997 69 5000 3.13 120 14:33 05.08.2022
2321 Smoke 25 997 61 5000 3.13 130 13:25 05.08.2022
2322 Smoke 25 997 65 5000 3.13 140 12:45 05.08.2022
2323 Smoke 26 997 61 5000 3.13 140 10:59 05.08.2022
2324 Smoke 27 998 54 5000 3.13 100 08:45 05.08.2022
2325 Smoke 28 998 51 5000 3.13 120 07:33 05.08.2022
2326 Smoke 21 1001 77 3200 2 80 01:52 05.08.2022
2327 Smoke 19 1002 88 3200 1.79 130 22:40 04.08.2022
2328 Mist 19 1002 94 3200 2 80 21:27 04.08.2022
2329 Mist 18 1002 100 3200 1 50 20:53 04.08.2022
2330 Mist 18 1003 93 3200 1 360 20:33 04.08.2022
2331 Mist 19 1003 100 5000 2 60 18:57 04.08.2022
2332 Mist 20 1003 93 5000 2 40 18:33 04.08.2022
2333 Clouds 22 1003 88 10000 3.13 40 14:50 04.08.2022
2334 Clouds 23 1003 83 10000 2 30 13:23 04.08.2022
2335 Clouds 24 1003 78 10000 2 60 11:38 04.08.2022
2336 Clouds 25 1003 73 10000 2 70 10:20 04.08.2022
2337 Clouds 24 1004 73 10000 3.13 50 07:44 04.08.2022
2338 Clear 23 1005 73 10000 3.13 80 02:46 04.08.2022
2339 Fog 18 1006 100 900 2 10 23:58 03.08.2022
2340 Fog 17 1006 100 250 2 10 23:36 03.08.2022
2341 Fog 17 1005 100 250 2 20 21:27 03.08.2022
2342 Fog 16 1005 100 150 2 360 20:20 03.08.2022
2343 Fog 16 1005 100 350 2 350 19:19 03.08.2022
2344 Mist 17 1005 100 2000 2 360 16:48 03.08.2022
2345 Mist 18 1005 93 1800 1 40 16:22 03.08.2022
2346 Clouds 20 1005 93 10000 2 40 13:40 03.08.2022
2347 Clouds 22 1005 78 10000 2 60 10:50 03.08.2022
2348 Clouds 21 1005 82 10000 1 140 07:23 03.08.2022
2349 Smoke 20 1004 82 5000 2 320 04:22 03.08.2022
2350 Smoke 19 1005 93 5000 2 320 03:23 03.08.2022
2351 Smoke 18 1004 93 5000 3.13 310 00:49 03.08.2022
2352 Smoke 18 1003 93 5000 3.13 310 22:37 02.08.2022
2353 Smoke 18 1003 93 5000 4.02 330 21:51 02.08.2022
2354 Smoke 18 1003 100 5000 4.02 360 20:30 02.08.2022
2355 Smoke 19 1002 93 5000 3.13 330 17:52 02.08.2022
2356 Smoke 19 1001 100 2400 2 340 14:46 02.08.2022
2357 Smoke 21 1000 94 5000 1 280 10:51 02.08.2022
2358 Smoke 20 999 93 2400 2 280 08:54 02.08.2022
2359 Rain 20 999 93 1500 2 240 07:52 02.08.2022
2360 Smoke 21 998 94 5000 1 140 05:40 02.08.2022
2361 Smoke 21 998 88 5000 2 130 03:40 02.08.2022
2362 Clouds 19 998 100 10000 3.13 360 23:35 01.08.2022
2363 Clouds 19 998 93 10000 2 20 22:21 01.08.2022
2364 Clouds 19 998 93 10000 2 350 20:47 01.08.2022
2365 Rain 19 998 93 10000 1 100 19:22 01.08.2022
2366 Clouds 19 998 93 10000 0 0 17:27 01.08.2022
2367 Clouds 19 997 93 10000 1 310 16:50 01.08.2022
2368 Rain 19 997 93 10000 3.13 360 15:51 01.08.2022
2369 Rain 19 998 93 10000 3.13 10 15:29 01.08.2022
2370 Clouds 24 997 64 10000 1 60 13:45 01.08.2022
2371 Clouds 27 997 50 10000 4 310 11:49 01.08.2022
2372 Clouds 27 997 61 10000 3 170 09:39 01.08.2022
2373 Clouds 28 997 51 10000 3.13 190 08:21 01.08.2022
2374 Clear 27 998 54 10000 3.13 200 04:46 01.08.2022
2375 Smoke 24 998 64 5000 2 170 02:32 01.08.2022
2376 Smoke 21 998 82 2400 2 170 23:54 31.07.2022
2377 Smoke 20 998 93 2100 1 150 22:36 31.07.2022
2378 Smoke 20 998 93 2100 1 150 22:36 31.07.2022
2379 Smoke 20 998 88 3200 1 130 20:50 31.07.2022
2380 Smoke 20 998 93 5000 2 140 19:40 31.07.2022
2381 Smoke 20 999 88 5000 1 350 17:44 31.07.2022
2382 Clear 24 999 60 10000 2 150 15:30 31.07.2022
2383 Clear 26 998 57 10000 1 120 13:41 31.07.2022
2384 Clear 28 998 51 10000 2 90 11:52 31.07.2022
2385 Clear 32 999 29 10000 4.02 180 09:28 31.07.2022
2386 Clear 29 1000 48 10000 2 130 06:43 31.07.2022
2387 Clouds 25 1001 61 10000 3.13 200 02:57 31.07.2022
2388 Clouds 22 1001 73 10000 2 320 23:30 30.07.2022
2389 Clouds 21 1001 77 10000 2 240 22:19 30.07.2022
2390 Clouds 20 1001 82 10000 4.02 200 21:47 30.07.2022
2391 Clouds 20 1000 82 10000 2 180 20:56 30.07.2022
2392 Clouds 21 1001 82 10000 1 170 19:58 30.07.2022
2393 Clouds 21 1001 77 10000 1 230 18:51 30.07.2022
2394 Clouds 22 1001 73 10000 2 170 17:41 30.07.2022
2395 Clouds 23 1001 64 10000 3.13 240 15:38 30.07.2022
2396 Clouds 24 1001 60 10000 3.13 190 14:53 30.07.2022
2397 Clouds 29 1001 48 10000 3 230 12:47 30.07.2022
2398 Clouds 29 1000 54 10000 2 170 11:55 30.07.2022
2399 Clear 29 1000 48 10000 3.13 160 10:28 30.07.2022
2400 Clear 30 1000 45 10000 3.13 160 09:46 30.07.2022
2401 Clear 29 1001 51 10000 4.02 170 07:54 30.07.2022
2402 Smoke 24 1002 69 2400 3.13 210 02:36 30.07.2022
2403 Smoke 22 1003 78 2400 2 170 01:46 30.07.2022
2404 Smoke 17 1002 77 3200 0 0 22:25 29.07.2022
2405 Smoke 17 1002 82 3200 1 230 21:23 29.07.2022
2406 Smoke 18 1002 77 5000 0 0 19:57 29.07.2022
2407 Smoke 20 1002 77 3200 0 0 17:53 29.07.2022
2408 Smoke 22 1002 78 2400 1 170 15:26 29.07.2022
2409 Smoke 30 1001 37 5000 3 230 13:18 29.07.2022
2410 Clear 34 1001 30 10000 2 160 10:42 29.07.2022
2411 Clear 35 1002 26 10000 2 210 08:50 29.07.2022
2412 Clear 35 1002 28 10000 3.13 230 07:54 29.07.2022
2413 Clear 25 1006 57 10000 2 90 01:47 29.07.2022
2414 Clear 19 1007 77 10000 1 10 22:49 28.07.2022
2415 Clear 17 1007 82 10000 2 340 21:20 28.07.2022
2416 Clear 18 1007 77 10000 2 350 20:31 28.07.2022
2417 Clear 18 1007 77 10000 2 330 19:43 28.07.2022
2418 Clear 20 1007 68 10000 2 340 18:50 28.07.2022
2419 Clear 21 1007 68 10000 1.79 330 17:43 28.07.2022
2420 Clear 22 1007 68 10000 2 350 16:51 28.07.2022
2421 Clear 25 1007 53 10000 3.13 320 15:32 28.07.2022
2422 Clear 30 1007 42 10000 1 50 13:29 28.07.2022
2423 Clear 34 1007 30 10000 1 160 10:37 28.07.2022
2424 Clear 33 1008 33 10000 2 120 06:42 28.07.2022
2425 Clear 31 1009 43 10000 2 140 05:29 28.07.2022
2426 Clear 23 1010 68 10000 1 220 00:49 28.07.2022
2427 Clear 17 1010 77 10000 0 0 22:41 27.07.2022
2428 Clear 16 1009 77 10000 1 10 21:28 27.07.2022
2429 Clear 17 1009 72 10000 1.79 320 19:43 27.07.2022
2430 Clear 18 1009 72 10000 1 330 17:50 27.07.2022
2431 Smoke 22 1009 64 5000 1 280 15:52 27.07.2022
2432 Smoke 23 1008 64 5000 1 230 14:58 27.07.2022
2433 Smoke 24 1009 60 5000 1 230 14:35 27.07.2022
2434 Clear 29 1008 39 10000 1 190 12:50 27.07.2022
2435 Clear 31 1009 35 10000 2 140 08:44 27.07.2022
2436 Clear 30 1010 35 10000 2 180 06:56 27.07.2022
2437 Clear 24 1011 60 10000 2 160 02:42 27.07.2022
2438 Clear 13 1011 82 10000 1 20 22:29 26.07.2022
2439 Clear 13 1010 82 10000 1 20 21:21 26.07.2022
2440 Clear 13 1010 88 10000 2 330 20:43 26.07.2022
2441 Clear 15 1010 82 10000 0.89 350 18:44 26.07.2022
2442 Clear 18 1010 72 10000 0.89 230 18:19 26.07.2022
2443 Clear 17 1009 77 10000 1 200 16:32 26.07.2022
2444 Clear 19 1009 72 10000 2 180 15:36 26.07.2022
2445 Clear 26 1009 47 10000 2 170 13:47 26.07.2022
2446 Clear 29 1009 34 10000 2 150 11:39 26.07.2022
2447 Clear 30 1009 30 10000 2 170 09:32 26.07.2022
2448 Clear 29 1009 32 10000 3.13 180 07:31 26.07.2022
2449 Clear 21 1010 68 10000 3.13 150 00:57 26.07.2022
2450 Clear 20 1009 72 10000 3.13 170 23:33 25.07.2022
2451 Clear 19 1008 77 10000 1 140 22:27 25.07.2022
2452 Clear 18 1008 82 10000 2 140 21:43 25.07.2022
2453 Clear 18 1008 82 10000 2 130 20:42 25.07.2022
2454 Clear 17 1007 88 10000 1 150 19:50 25.07.2022
2455 Clear 17 1007 82 10000 0 0 18:21 25.07.2022
2456 Clear 19 1006 68 10000 1 340 17:31 25.07.2022
2457 Clear 20 1006 77 10000 1 10 15:30 25.07.2022
2458 Clear 29 1005 39 10000 1 100 12:29 25.07.2022
2459 Clear 30 1005 37 10000 2 120 10:32 25.07.2022
2460 Clear 29 1006 39 10000 1 110 06:32 25.07.2022
2461 Clear 20 1007 72 10000 2 10 23:55 24.07.2022
2462 Clear 19 1007 68 10000 2 360 23:18 24.07.2022
2463 Clear 15 1007 82 10000 2 350 22:35 24.07.2022
2464 Clear 14 1006 82 10000 2 350 21:28 24.07.2022
2465 Clear 14 1006 82 10000 3.13 330 20:53 24.07.2022
2466 Clear 14 1006 82 10000 3.13 340 20:27 24.07.2022
2467 Clear 16 1005 72 10000 3.13 340 18:56 24.07.2022
2468 Clear 19 1005 63 10000 2 340 16:48 24.07.2022
2469 Clear 21 1005 60 10000 2 340 15:51 24.07.2022
2470 Clear 22 1005 56 10000 2 360 14:40 24.07.2022
2471 Clear 27 1004 44 10000 1 80 12:55 24.07.2022
2472 Clear 29 1004 37 10000 2 40 12:18 24.07.2022
2473 Clear 30 1004 27 10000 4.02 360 11:26 24.07.2022
2474 Clear 31 1004 29 10000 4.02 340 08:56 24.07.2022
2475 Clear 31 1004 29 10000 3.13 340 07:52 24.07.2022
2476 Clear 30 1005 28 10000 4.02 350 06:27 24.07.2022
2477 Clear 24 1007 57 10000 3.13 330 01:50 24.07.2022
2478 Clear 15 1007 82 10000 2 70 22:25 23.07.2022
2479 Clear 14 1007 87 10000 1 130 20:35 23.07.2022
2480 Clear 16 1007 82 10000 3.13 320 18:51 23.07.2022
2481 Clear 16 1007 82 10000 4.02 320 17:48 23.07.2022
2482 Clear 17 1007 82 10000 3.13 320 17:24 23.07.2022
2483 Clear 19 1007 72 10000 2 310 15:51 23.07.2022
2484 Clear 20 1007 68 10000 2 340 15:20 23.07.2022
2485 Clear 22 1007 68 10000 1 300 14:36 23.07.2022
2486 Clear 24 1007 64 10000 1 250 13:53 23.07.2022
2487 Clear 25 1007 65 10000 3.13 180 11:46 23.07.2022
2488 Clear 25 1007 65 10000 3.13 170 10:28 23.07.2022
2489 Clear 25 1007 57 10000 4.02 170 09:26 23.07.2022
2490 Clouds 23 1009 73 10000 3.13 170 05:58 23.07.2022
2491 Clouds 20 1010 88 10000 0 0 02:54 23.07.2022
2492 Rain 18 1011 93 3200 0 0 23:57 22.07.2022
2493 Rain 18 1011 88 10000 0 0 21:28 22.07.2022
2494 Clouds 18 1011 88 10000 1 320 19:58 22.07.2022
2495 Clouds 19 1011 82 3178 1.79 310 18:41 22.07.2022
2496 Clouds 19 1011 82 10000 0 0 17:38 22.07.2022
2497 Clouds 22 1011 68 10000 2 340 15:30 22.07.2022
2498 Clouds 25 1011 57 10000 3.13 310 12:33 22.07.2022
2499 Clouds 26 1010 54 10000 5 290 09:45 22.07.2022
2500 Clouds 26 1010 57 10000 4.02 280 09:19 22.07.2022
2501 Clouds 26 1010 61 10000 3.13 200 07:30 22.07.2022
2502 Clouds 25 1011 65 10000 3.13 260 04:19 22.07.2022
2503 Clear 18 1011 93 10000 0 0 23:27 21.07.2022
2504 Mist 16 1010 100 5000 0 0 21:39 21.07.2022
2505 Mist 17 1009 100 2100 1 340 19:41 21.07.2022
2506 Fog 18 1009 100 1800 1 310 18:29 21.07.2022
2507 Fog 19 1008 93 1300 1 200 17:21 21.07.2022
2508 Smoke 19 1008 100 3200 1 170 15:58 21.07.2022
2509 Smoke 20 1007 100 5000 0 0 14:46 21.07.2022
2510 Smoke 22 1007 88 5000 1 140 13:49 21.07.2022
2511 Smoke 23 1007 83 5000 2 260 11:54 21.07.2022
2512 Smoke 28 1005 51 5000 2 230 09:54 21.07.2022
2513 Clouds 29 1005 45 10000 4.02 220 08:53 21.07.2022
2514 Clouds 29 1005 45 10000 4.02 220 08:53 21.07.2022
2515 Clear 30 1005 42 10000 4.02 180 07:50 21.07.2022
2516 Clear 29 1006 42 10000 4.02 180 06:27 21.07.2022
2517 Smoke 26 1006 65 3200 3.13 140 02:49 21.07.2022
2518 Smoke 20 1006 93 3200 2 10 22:47 20.07.2022
2519 Smoke 20 1006 93 3200 2 360 22:19 20.07.2022
2520 Smoke 20 1006 88 3200 2 350 20:46 20.07.2022
2521 Smoke 20 1006 88 3200 2 30 19:46 20.07.2022
2522 Smoke 20 1006 88 3200 2 10 18:54 20.07.2022
2523 Smoke 20 1006 88 3200 2 20 18:31 20.07.2022
2524 Smoke 21 1006 82 3200 2 10 17:28 20.07.2022
2525 Smoke 21 1006 83 3200 2 30 15:33 20.07.2022
2526 Smoke 22 1006 78 3200 2 10 14:49 20.07.2022
2527 Smoke 23 1006 78 3200 3 20 13:21 20.07.2022
2528 Smoke 24 1005 73 3200 4 30 10:59 20.07.2022
2529 Clouds 24 1004 69 10000 3 50 06:35 20.07.2022
2530 Clouds 19 1004 82 10000 4 30 01:56 20.07.2022
2531 Clear 19 1004 82 10000 3 20 00:42 20.07.2022
2532 Smoke 18 1004 82 5000 3.13 350 22:37 19.07.2022
2533 Smoke 18 1004 82 5000 3.13 350 22:18 19.07.2022
2534 Smoke 17 1003 88 5000 3.13 10 20:50 19.07.2022
2535 Smoke 17 1003 88 3200 2 360 19:37 19.07.2022
2536 Smoke 18 1003 88 3200 2 10 18:42 19.07.2022
2537 Smoke 18 1003 88 3200 2 360 17:55 19.07.2022
2538 Smoke 19 1002 82 3200 2 360 15:50 19.07.2022
2539 Smoke 21 1002 83 3200 2 50 13:51 19.07.2022
2540 Smoke 25 1001 57 3200 1 100 11:34 19.07.2022
2541 Smoke 25 1001 53 2400 1 120 09:54 19.07.2022
2542 Smoke 25 1001 50 3200 1 160 08:48 19.07.2022
2543 Smoke 25 1001 50 3200 2 190 08:21 19.07.2022
2544 Smoke 23 1001 56 3200 3 150 07:18 19.07.2022
2545 Smoke 22 1000 56 2400 2 130 05:20 19.07.2022
2546 Smoke 21 1000 56 2400 2 130 04:40 19.07.2022
2547 Smoke 19 1000 68 3200 0 0 00:21 19.07.2022
2548 Smoke 19 999 72 3200 2 110 23:21 18.07.2022
2549 Smoke 18 999 77 3200 2 100 22:51 18.07.2022
2550 Smoke 18 999 77 3200 1 110 21:50 18.07.2022
2551 Smoke 18 999 88 3200 0 0 20:50 18.07.2022
2552 Smoke 19 999 82 3200 1 10 19:24 18.07.2022
2553 Smoke 22 999 78 3200 1 340 16:50 18.07.2022
2554 Smoke 23 999 78 3200 1 70 15:42 18.07.2022
2555 Smoke 26 999 69 3200 1 80 13:45 18.07.2022
2556 Smoke 28 999 58 5000 1 160 12:37 18.07.2022
2557 Smoke 31 999 40 5000 1 170 10:34 18.07.2022
2558 Smoke 31 999 43 5000 2 160 08:50 18.07.2022
2559 Clear 31 1000 45 10000 2 110 06:54 18.07.2022
2560 Clear 21 1003 88 10000 0 0 23:31 17.07.2022
2561 Clear 20 1003 88 10000 0 0 22:34 17.07.2022
2562 Clear 19 1003 93 10000 0 0 21:47 17.07.2022
2563 Clear 19 1003 93 10000 0 0 20:55 17.07.2022
2564 Clear 20 1003 93 10000 1 50 20:36 17.07.2022
2565 Clear 21 1003 88 10000 1 300 19:28 17.07.2022
2566 Clear 21 1003 88 10000 1 330 18:27 17.07.2022
2567 Clear 23 1002 83 10000 1 310 17:38 17.07.2022
2568 Clear 22 1002 88 10000 0 0 16:50 17.07.2022
2569 Clear 23 1002 83 10000 0 0 16:26 17.07.2022
2570 Clear 27 1002 69 10000 1 10 14:37 17.07.2022
2571 Clear 29 1002 58 10000 2 70 13:31 17.07.2022
2572 Clear 32 1002 40 10000 1 100 11:35 17.07.2022
2573 Clear 33 1002 43 10000 2 90 08:57 17.07.2022
2574 Clear 31 1004 48 10000 2 170 03:44 17.07.2022
2575 Clear 27 1004 65 10000 1 110 02:32 17.07.2022
2576 Clear 22 1005 78 10000 0 0 23:20 16.07.2022
2577 Clear 19 1005 82 10000 2 360 21:30 16.07.2022
2578 Clear 19 1005 88 10000 2 330 19:30 16.07.2022
2579 Clear 21 1005 77 10000 2 360 18:27 16.07.2022
2580 Clear 22 1005 78 10000 2 360 16:34 16.07.2022
2581 Clear 26 1005 61 10000 2 80 13:49 16.07.2022
2582 Clear 30 1006 45 10000 2 100 10:53 16.07.2022
2583 Clear 31 1006 45 10000 2 90 09:33 16.07.2022
2584 Clear 31 1006 43 10000 1 120 08:43 16.07.2022
2585 Clear 31 1006 45 10000 1 120 08:23 16.07.2022
2586 Clear 28 1008 54 10000 2 120 04:21 16.07.2022
2587 Clear 26 1008 61 10000 2 120 02:49 16.07.2022
2588 Clear 20 1009 82 10000 1 30 23:34 15.07.2022
2589 Clear 19 1009 88 10000 1.79 360 22:41 15.07.2022
2590 Clear 18 1009 93 10000 2 310 21:29 15.07.2022
2591 Clear 18 1009 93 10000 1 330 20:30 15.07.2022
2592 Clear 19 1009 93 10000 2 340 18:42 15.07.2022
2593 Clear 19 1009 93 10000 1 320 17:38 15.07.2022
2594 Clear 23 1009 78 10000 0 0 14:54 15.07.2022
2595 Clouds 25 1009 69 10000 1 70 13:18 15.07.2022
2596 Clouds 27 1009 57 10000 2 110 11:44 15.07.2022
2597 Clouds 28 1009 51 10000 2 100 10:23 15.07.2022
2598 Clouds 26 1010 61 10000 2 110 06:30 15.07.2022
2599 Clouds 21 1011 88 10000 3.13 310 00:58 15.07.2022
2600 Clouds 21 1011 82 10000 3.13 320 00:22 15.07.2022
2601 Rain 19 1011 93 10000 2 320 22:52 14.07.2022
2602 Clouds 19 1011 93 10000 3.13 320 21:51 14.07.2022
2603 Clouds 19 1011 93 10000 3.13 320 21:30 14.07.2022
2604 Clouds 19 1011 100 10000 4.02 320 20:45 14.07.2022
2605 Rain 19 1011 100 10000 2 300 20:24 14.07.2022
2606 Rain 19 1011 100 10000 2 310 19:45 14.07.2022
2607 Rain 20 1011 93 10000 5 320 16:23 14.07.2022
2608 Rain 20 1011 93 10000 2 290 15:50 14.07.2022
2609 Clouds 21 1011 88 10000 4.02 320 14:43 14.07.2022
2610 Rain 22 1011 83 10000 3.13 300 13:32 14.07.2022
2611 Clouds 23 1010 78 10000 5 260 12:18 14.07.2022
2612 Clouds 26 1010 57 10000 2 20 11:25 14.07.2022
2613 Clouds 27 1010 54 10000 3 40 10:39 14.07.2022
2614 Clear 28 1010 51 10000 3.13 60 08:21 14.07.2022
2615 Clear 26 1012 61 10000 2 80 03:29 14.07.2022
2616 Clear 20 1012 82 10000 2 80 00:54 14.07.2022
2617 Clear 19 1011 88 10000 2 40 23:35 13.07.2022
2618 Clear 18 1011 93 10000 2 10 22:23 13.07.2022
2619 Clear 17 1011 100 10000 1 10 21:30 13.07.2022
2620 Clear 17 1011 93 10000 2 360 20:26 13.07.2022
2621 Clear 19 1011 88 10000 2 350 17:56 13.07.2022
2622 Clear 19 1010 93 10000 1 20 16:59 13.07.2022
2623 Clear 22 1010 83 10000 1 10 15:51 13.07.2022
2624 Clear 24 1009 69 10000 1 90 13:45 13.07.2022
2625 Clear 26 1009 54 10000 1 100 11:24 13.07.2022
2626 Clouds 26 1009 54 10000 2 100 10:40 13.07.2022
2627 Clouds 26 1008 57 10000 2 110 09:28 13.07.2022
2628 Clouds 26 1008 54 10000 2 140 08:21 13.07.2022
2629 Clouds 22 1009 78 10000 2 150 04:36 13.07.2022
2630 Clouds 18 1008 100 10000 1 260 00:25 13.07.2022
2631 Clouds 18 1007 100 10000 2 210 22:29 12.07.2022
2632 Clouds 17 1007 100 10000 1 300 21:46 12.07.2022
2633 Rain 17 1007 100 10000 1 160 20:53 12.07.2022
2634 Thunderstorm 18 1007 100 10000 1 130 19:48 12.07.2022
2635 Rain 20 1006 77 10000 3 230 18:35 12.07.2022
2636 Clouds 20 1006 77 10000 2 20 16:36 12.07.2022
2637 Clear 23 1007 64 10000 2 30 14:32 12.07.2022
2638 Clear 23 1007 64 10000 2 30 14:32 12.07.2022
2639 Clear 23 1007 64 10000 2 50 13:35 12.07.2022
2640 Clouds 25 1007 57 10000 2 70 11:54 12.07.2022
2641 Clouds 25 1007 53 10000 2 60 10:27 12.07.2022
2642 Clouds 25 1008 57 10000 2 100 08:57 12.07.2022
2643 Clouds 24 1008 57 10000 1 190 07:48 12.07.2022
2644 Clouds 23 1008 60 10000 2 100 05:47 12.07.2022
2645 Clouds 23 1008 60 10000 2 90 05:29 12.07.2022
2646 Clouds 18 1009 82 10000 1 80 01:31 12.07.2022
2647 Clouds 15 1008 100 10000 1 330 22:43 11.07.2022
2648 Clouds 14 1008 93 10000 0 0 21:34 11.07.2022
2649 Clouds 14 1008 93 10000 2 320 20:32 11.07.2022
2650 Clouds 14 1007 93 10000 2 330 19:27 11.07.2022
2651 Clear 15 1007 93 10000 2 340 18:30 11.07.2022
2652 Clear 14 1006 93 10000 1 170 16:31 11.07.2022
2653 Clear 17 1006 82 10000 1 310 15:28 11.07.2022
2654 Clouds 19 1005 72 10000 1 270 13:26 11.07.2022
2655 Clouds 20 1004 72 10000 3.13 280 11:24 11.07.2022
2656 Clouds 20 1004 72 10000 3.13 280 11:24 11.07.2022
2657 Clouds 20 1004 72 10000 3.13 280 11:24 11.07.2022
2658 Clouds 21 1003 68 10000 4.02 240 10:18 11.07.2022
2659 Clouds 20 1003 77 10000 4.02 230 09:40 11.07.2022
2660 Clouds 17 1003 88 10000 3.13 260 08:32 11.07.2022
2661 Clouds 19 996 93 10000 6 200 01:54 11.07.2022
2662 Mist 18 995 100 5000 3.13 360 23:55 10.07.2022
2663 Clouds 17 996 100 10000 3.13 340 22:52 10.07.2022
2664 Rain 17 997 100 5000 3.13 330 21:20 10.07.2022
2665 Rain 18 997 93 10000 3.13 350 20:37 10.07.2022
2666 Rain 18 998 93 10000 3.13 350 19:40 10.07.2022
2667 Thunderstorm 18 999 93 10000 2 50 18:43 10.07.2022
2668 Clouds 20 998 73 10000 3 360 17:36 10.07.2022
2669 Clouds 21 998 68 10000 4 350 16:41 10.07.2022
2670 Clouds 21 999 68 10000 4 360 15:24 10.07.2022
2671 Clouds 23 999 64 10000 4 10 13:48 10.07.2022
2672 Clear 26 999 53 10000 5 40 12:27 10.07.2022
2673 Clear 25 1000 57 10000 4 30 09:58 10.07.2022
2674 Clear 25 1000 53 10000 4 40 08:44 10.07.2022
2675 Clear 22 1000 68 10000 5 30 07:30 10.07.2022
2676 Clouds 17 1002 77 10000 4 30 01:31 10.07.2022
2677 Clouds 16 1003 77 10000 3.13 10 22:43 09.07.2022
2678 Clouds 16 1003 82 10000 3.13 350 22:19 09.07.2022
2679 Clouds 17 1003 77 10000 3.13 20 20:46 09.07.2022
2680 Clouds 18 1004 67 10000 2 350 18:37 09.07.2022
2681 Clouds 18 1004 67 10000 3.13 50 17:45 09.07.2022
2682 Clouds 18 1004 72 10000 3.13 40 16:44 09.07.2022
2683 Clouds 19 1005 68 10000 3.13 50 15:41 09.07.2022
2684 Clouds 20 1005 59 10000 3.13 40 14:36 09.07.2022
2685 Clouds 20 1006 59 10000 3.13 40 13:50 09.07.2022
2686 Clouds 21 1006 56 10000 3.13 50 12:47 09.07.2022
2687 Clear 22 1006 46 10000 4.02 40 11:31 09.07.2022
2688 Clear 24 1006 31 10000 4.02 40 10:22 09.07.2022
2689 Clear 24 1007 33 10000 3.13 80 07:53 09.07.2022
2690 Clear 23 1007 40 10000 2 120 05:24 09.07.2022
2691 Clear 19 1007 63 10000 3.13 170 02:34 09.07.2022
2692 Clear 14 1006 71 10000 2 330 22:59 08.07.2022
2693 Clear 11 1006 81 10000 2 320 21:59 08.07.2022
2694 Clear 10 1006 87 10000 1 310 20:42 08.07.2022
2695 Clear 9 1006 87 10000 1 230 20:23 08.07.2022
2696 Clear 14 1004 71 10000 3.13 290 18:26 08.07.2022
2697 Clear 16 1004 63 10000 4 280 16:49 08.07.2022
2698 Clear 18 1002 55 10000 3 300 14:54 08.07.2022
2699 Clear 20 1001 52 10000 4 300 13:45 08.07.2022
2700 Clear 23 999 40 10000 7 310 11:59 08.07.2022
2701 Clear 22 997 46 10000 7.15 300 10:37 08.07.2022
2702 Clouds 19 995 68 10000 3 280 08:37 08.07.2022
2703 Clouds 17 993 72 10000 8 280 06:50 08.07.2022
2704 Clouds 17 986 72 10000 7.15 220 01:49 08.07.2022
2705 Clouds 17 985 67 10000 5 200 23:30 07.07.2022
2706 Clouds 17 985 67 10000 5 190 22:38 07.07.2022
2707 Clouds 18 985 67 10000 4.92 220 20:40 07.07.2022
2708 Clear 19 984 82 10000 4.02 220 18:23 07.07.2022
2709 Clouds 19 983 88 10000 4.02 210 16:57 07.07.2022
2710 Clouds 20 983 88 10000 4.02 190 14:56 07.07.2022
2711 Clouds 20 983 88 10000 3.13 190 13:25 07.07.2022
2712 Clouds 20 983 88 10000 3.13 180 12:37 07.07.2022
2713 Clouds 20 983 88 10000 3.13 180 12:18 07.07.2022
2714 Rain 21 984 88 10000 7 250 11:29 07.07.2022
2715 Clouds 24 984 73 10000 8.05 240 10:42 07.07.2022
2716 Clouds 34 981 36 10000 8.05 156 10:24 07.07.2022
2717 Clouds 24 986 78 10000 5 30 07:22 07.07.2022
2718 Clouds 18 992 88 10000 5 30 02:55 07.07.2022
2719 Clouds 18 995 83 10000 3.99 42 23:36 06.07.2022
2720 Clouds 17 995 88 10000 6 50 23:18 06.07.2022
2721 Clouds 17 995 88 10000 6 50 22:56 06.07.2022
2722 Clouds 17 996 88 10000 0 0 22:38 06.07.2022
2723 Clouds 19 997 77 10000 4.92 30 20:54 06.07.2022
2724 Clouds 19 998 88 10000 4.02 30 19:35 06.07.2022
2725 Clouds 21 998 77 10000 2 60 17:32 06.07.2022
2726 Clouds 23 998 68 10000 2 350 15:59 06.07.2022
2727 Clouds 25 998 65 10000 5 340 14:33 06.07.2022
2728 Clouds 29 997 54 10000 3 300 12:35 06.07.2022
2729 Clouds 30 996 51 10000 4 300 11:48 06.07.2022
2730 Clouds 30 996 55 10000 4.02 310 10:18 06.07.2022
2731 Clouds 34 995 40 10000 5 260 07:44 06.07.2022
2732 Clouds 34 995 40 10000 5 260 07:44 06.07.2022
2733 Clouds 33 995 43 10000 7.15 270 07:20 06.07.2022
2734 Clear 28 994 61 10000 4.02 200 01:42 06.07.2022
2735 Clear 25 994 73 10000 3.13 200 22:45 05.07.2022
2736 Clear 22 994 83 10000 1 190 21:36 05.07.2022
2737 Clear 20 995 93 10000 1 120 20:38 05.07.2022
2738 Clear 20 995 88 10000 0.89 100 19:41 05.07.2022
2739 Clear 21 995 82 10000 0 0 19:21 05.07.2022
2740 Clear 23 996 73 10000 1 10 17:46 05.07.2022
2741 Clear 23 996 73 10000 1 360 16:44 05.07.2022
2742 Clear 25 997 69 10000 2 20 15:25 05.07.2022
2743 Clouds 28 998 58 10000 3.13 40 13:53 05.07.2022
2744 Clouds 28 997 65 10000 2 60 12:42 05.07.2022
2745 Clouds 31 998 55 10000 2 60 11:32 05.07.2022
2746 Clear 32 999 49 10000 2 110 10:34 05.07.2022
2747 Clear 32 999 49 10000 3.13 150 08:26 05.07.2022
2748 Clear 32 1000 49 10000 3.13 160 07:31 05.07.2022
2749 Clear 30 1001 55 10000 2 110 04:47 05.07.2022
2750 Clear 29 1001 54 10000 2 130 04:21 05.07.2022
2751 Clear 25 1001 65 10000 3.13 340 23:45 04.07.2022
2752 Clear 23 1001 73 10000 2 330 23:25 04.07.2022
2753 Clear 23 1001 73 10000 4.02 310 22:21 04.07.2022
2754 Clear 21 1001 82 10000 2 280 21:20 04.07.2022
2755 Clear 21 1001 82 10000 1 290 20:52 04.07.2022
2756 Clear 21 1001 82 10000 3.13 310 20:33 04.07.2022
2757 Clear 21 1001 82 10000 2 300 19:51 04.07.2022
2758 Clear 22 1000 78 10000 2 310 19:33 04.07.2022
2759 Clear 22 1000 78 10000 1.79 10 17:42 04.07.2022
2760 Clear 24 999 73 10000 3.13 260 15:44 04.07.2022
2761 Clouds 26 999 61 10000 2 240 14:54 04.07.2022
2762 Clouds 28 999 61 10000 2 180 13:29 04.07.2022
2763 Thunderstorm 28 999 58 10000 2 160 12:20 04.07.2022
2764 Clouds 29 997 51 10000 4 170 10:33 04.07.2022
2765 Clear 32 997 40 10000 4 180 09:40 04.07.2022
2766 Clear 28 998 51 10000 3 170 07:21 04.07.2022
2767 Clear 29 998 48 10000 1 170 03:35 04.07.2022
2768 Clear 23 998 68 10000 2 150 00:35 04.07.2022
2769 Clear 22 998 78 10000 1 240 22:58 03.07.2022
2770 Clear 22 998 78 10000 1 240 22:58 03.07.2022
2771 Clouds 19 998 88 10000 0 0 20:51 03.07.2022
2772 Clouds 19 998 88 10000 2 200 20:25 03.07.2022
2773 Clouds 20 998 88 10000 2 140 19:26 03.07.2022
2774 Clouds 21 998 82 10000 1 240 18:35 03.07.2022
2775 Clouds 22 998 78 10000 1 240 17:43 03.07.2022
2776 Clouds 23 998 73 10000 3.13 160 15:49 03.07.2022
2777 Clouds 25 998 50 10000 1 140 14:58 03.07.2022
2778 Clouds 27 998 44 10000 3.13 130 13:59 03.07.2022
2779 Clouds 27 998 44 10000 3.13 130 13:33 03.07.2022
2780 Clouds 28 998 45 10000 2 120 12:33 03.07.2022
2781 Clear 29 998 42 10000 2 130 11:20 03.07.2022
2782 Clouds 29 998 42 10000 3.13 140 10:38 03.07.2022
2783 Clouds 30 999 35 10000 3.13 190 09:31 03.07.2022
2784 Clear 31 999 33 10000 2 110 07:34 03.07.2022
2785 Clear 23 1002 56 10000 0 0 01:42 03.07.2022
2786 Clear 20 1003 59 10000 1 90 00:20 03.07.2022
2787 Clear 17 1003 72 10000 2 40 22:33 02.07.2022
2788 Clear 15 1003 76 10000 2 10 20:50 02.07.2022
2789 Clear 14 1003 76 10000 1 340 19:52 02.07.2022
2790 Clear 15 1003 76 10000 2 330 19:20 02.07.2022
2791 Clear 18 1003 67 10000 1.79 10 17:41 02.07.2022
2792 Clear 18 1003 72 10000 2 360 16:53 02.07.2022
2793 Clear 24 1003 50 10000 2 50 14:31 02.07.2022
2794 Clear 27 1003 41 10000 3.13 60 12:21 02.07.2022
2795 Clear 28 1003 37 10000 3.13 80 11:26 02.07.2022
2796 Clear 28 1003 37 10000 2 90 10:37 02.07.2022
2797 Clear 28 1003 37 10000 3.13 90 08:55 02.07.2022
2798 Clear 28 1004 34 10000 3.13 90 08:20 02.07.2022
2799 Clear 28 1004 34 10000 3.13 100 07:27 02.07.2022
2800 Clear 24 1006 50 10000 2 110 01:53 02.07.2022
2801 Clear 21 1006 64 10000 2 330 23:56 01.07.2022
2802 Clear 17 1006 67 10000 1 330 22:41 01.07.2022
2803 Clear 14 1005 82 10000 2 320 21:47 01.07.2022
2804 Clear 14 1005 82 10000 2 310 21:27 01.07.2022
2805 Clear 14 1006 82 10000 3 320 20:40 01.07.2022
2806 Clear 14 1005 82 10000 2 310 19:46 01.07.2022
2807 Clear 17 1005 77 10000 2 340 17:53 01.07.2022
2808 Clear 19 1004 77 10000 1 310 15:54 01.07.2022
2809 Clear 24 1004 50 10000 2 240 13:54 01.07.2022
2810 Clear 24 1004 53 10000 2 170 12:41 01.07.2022
2811 Clear 27 1004 41 10000 3.13 120 10:20 01.07.2022
2812 Clear 27 1004 41 10000 2 120 09:43 01.07.2022
2813 Clear 26 1005 39 10000 5 170 05:25 01.07.2022
2814 Clear 21 1005 60 10000 1 300 00:42 01.07.2022
2815 Clear 17 1005 72 10000 3.13 310 23:22 30.06.2022
2816 Clear 16 1005 77 10000 2 310 22:44 30.06.2022
2817 Clear 15 1005 76 10000 1 310 22:25 30.06.2022
2818 Clear 14 1005 82 10000 2 320 21:45 30.06.2022
2819 Clear 11 1005 93 10000 1 280 20:30 30.06.2022
2820 Clear 11 1005 93 10000 0 0 19:54 30.06.2022
2821 Clear 13 1005 87 10000 1 300 19:25 30.06.2022
2822 Clear 14 1005 82 10000 2 320 18:42 30.06.2022
2823 Clear 15 1005 82 10000 2 310 17:44 30.06.2022
2824 Clear 16 1004 82 10000 3.13 330 16:55 30.06.2022
2825 Clear 17 1004 77 10000 2 330 15:42 30.06.2022
2826 Clouds 21 1005 60 10000 2 340 13:49 30.06.2022
2827 Clouds 23 1005 53 10000 3.13 330 12:36 30.06.2022
2828 Clouds 23 1005 53 10000 3.13 320 11:55 30.06.2022
2829 Clouds 25 1005 53 10000 4.02 300 09:55 30.06.2022
2830 Clouds 24 1005 57 10000 3.13 310 09:35 30.06.2022
2831 Clouds 23 1005 60 10000 4.02 310 08:19 30.06.2022
2832 Clouds 23 1005 60 10000 4.02 320 07:24 30.06.2022
2833 Clouds 21 1004 73 10000 6 310 02:38 30.06.2022
2834 Clouds 20 1003 82 10000 4.02 340 23:38 29.06.2022
2835 Clouds 19 1002 82 10000 1 10 22:41 29.06.2022
2836 Clouds 19 1002 82 10000 2 60 21:58 29.06.2022
2837 Clouds 18 1001 82 10000 1 350 20:34 29.06.2022
2838 Clouds 18 1001 82 10000 2 360 19:55 29.06.2022
2839 Clouds 19 1001 82 10000 1 350 17:55 29.06.2022
2840 Clouds 19 1002 82 10000 0 0 16:55 29.06.2022
2841 Clear 20 1002 77 10000 1 130 15:33 29.06.2022
2842 Clear 22 1002 73 10000 1 90 13:43 29.06.2022
2843 Clouds 24 1002 64 10000 1 140 12:36 29.06.2022
2844 Clouds 23 1002 56 10000 3.13 160 09:46 29.06.2022
2845 Clouds 23 1003 60 10000 4.02 170 09:22 29.06.2022
2846 Clear 23 1003 56 10000 5 150 06:29 29.06.2022
2847 Clear 21 1003 40 10000 4.02 300 02:59 29.06.2022
2848 Clear 18 1003 45 10000 3.13 270 00:53 29.06.2022
2849 Clear 17 1003 48 10000 3.13 280 00:33 29.06.2022
2850 Clear 14 1002 71 10000 4.02 300 22:50 28.06.2022
2851 Clear 12 1001 87 10000 2 320 21:58 28.06.2022
2852 Clear 13 1001 81 10000 2 300 21:39 28.06.2022
2853 Clear 13 1001 81 10000 2 300 21:19 28.06.2022
2854 Clear 13 1001 81 10000 2 320 19:54 28.06.2022
2855 Clear 14 1001 82 10000 4.02 310 19:28 28.06.2022
2856 Clear 14 1000 82 10000 3.13 310 18:40 28.06.2022
2857 Clear 16 999 77 10000 4.02 310 16:58 28.06.2022
2858 Clear 17 999 72 10000 2 300 15:55 28.06.2022
2859 Clear 19 998 63 10000 4 300 14:50 28.06.2022
2860 Clear 20 998 64 10000 5 320 14:18 28.06.2022
2861 Clouds 22 997 56 10000 4 310 13:45 28.06.2022
2862 Clouds 23 997 53 10000 5 320 12:28 28.06.2022
2863 Clouds 24 995 57 10000 4 330 09:53 28.06.2022
2864 Clouds 25 995 50 10000 5 320 08:55 28.06.2022
2865 Clouds 27 995 41 10000 5 300 08:33 28.06.2022
2866 Clouds 26 995 44 10000 5 310 07:20 28.06.2022
2867 Clouds 23 995 60 10000 6 280 03:39 28.06.2022
2868 Clear 20 994 72 10000 2 240 23:51 27.06.2022
2869 Clouds 20 994 72 10000 2 240 23:26 27.06.2022
2870 Clouds 18 994 82 10000 3.13 230 21:53 27.06.2022
2871 Clouds 18 994 82 10000 3.13 230 21:22 27.06.2022
2872 Clouds 19 994 72 10000 3.13 250 20:21 27.06.2022
2873 Clouds 20 994 73 10000 2 180 18:50 27.06.2022
2874 Clouds 19 994 77 10000 3.13 230 17:38 27.06.2022
2875 Clouds 20 994 77 10000 1 180 15:50 27.06.2022
2876 Clouds 21 995 73 10000 2 210 14:18 27.06.2022
2877 Rain 22 994 68 10000 1 280 12:58 27.06.2022
2878 Thunderstorm 23 994 68 10000 3 360 11:40 27.06.2022
2879 Clouds 28 994 45 10000 5 200 09:45 27.06.2022
2880 Clouds 28 994 45 10000 6 200 08:43 27.06.2022
2881 Clouds 27 994 47 10000 6 180 07:49 27.06.2022
2882 Clouds 26 996 47 10000 3.13 250 05:50 27.06.2022
2883 Clear 23 996 56 10000 4.02 230 01:24 27.06.2022
2884 Clear 21 996 60 10000 3.13 220 22:59 26.06.2022
2885 Clear 21 996 60 10000 1.79 220 21:38 26.06.2022
2886 Clouds 22 995 49 10000 3 250 20:33 26.06.2022
2887 Clouds 24 994 43 10000 3 250 18:34 26.06.2022
2888 Clouds 25 994 38 10000 6 280 17:47 26.06.2022
2889 Clear 23 994 56 10000 2 180 15:37 26.06.2022
2890 Clear 28 994 39 10000 2 180 14:23 26.06.2022
2891 Clear 30 994 32 10000 2 190 13:24 26.06.2022
2892 Clear 30 994 35 10000 4.02 180 11:49 26.06.2022
2893 Clear 31 994 23 10000 3.13 160 10:42 26.06.2022
2894 Clear 31 995 23 10000 3.13 150 10:19 26.06.2022
2895 Clear 31 996 20 10000 4.02 160 08:27 26.06.2022
2896 Clear 31 997 19 10000 4.02 180 06:31 26.06.2022
2897 Clear 19 999 68 10000 1 150 00:37 26.06.2022
2898 Clear 19 999 68 10000 1 150 00:19 26.06.2022
2899 Clear 17 999 67 10000 0 0 23:31 25.06.2022
2900 Clear 16 1000 67 10000 0 0 22:48 25.06.2022
2901 Clear 14 999 77 10000 0 0 22:25 25.06.2022
2902 Clear 12 1000 76 10000 0 0 21:21 25.06.2022
2903 Clear 11 1000 82 10000 1 280 20:48 25.06.2022
2904 Clear 12 1000 82 10000 1 310 20:25 25.06.2022
2905 Clear 12 1000 82 10000 1 310 20:25 25.06.2022
2906 Clear 14 1000 76 10000 3.13 320 18:24 25.06.2022
2907 Clear 14 1000 77 10000 1 310 17:27 25.06.2022
2908 Clear 18 999 63 10000 2 320 16:27 25.06.2022
2909 Clear 23 999 49 10000 0 0 14:41 25.06.2022
2910 Clear 28 999 26 10000 0.89 90 12:51 25.06.2022
2911 Clear 28 999 26 10000 1 90 12:31 25.06.2022
2912 Clear 28 1000 28 10000 3.13 90 09:35 25.06.2022
2913 Clear 29 1000 26 10000 2 90 08:54 25.06.2022
2914 Clear 28 1001 26 10000 3.13 90 08:20 25.06.2022
2915 Clear 26 1001 36 10000 4.02 100 06:36 25.06.2022
2916 Clear 20 1002 37 10000 2 310 00:50 25.06.2022
2917 Clear 19 1002 39 10000 2 310 23:57 24.06.2022
2918 Clear 17 1002 39 10000 3.13 300 22:28 24.06.2022
2919 Clear 14 1001 41 10000 2 360 21:28 24.06.2022
2920 Clear 12 1001 50 10000 1 280 20:24 24.06.2022
2921 Clear 15 1001 38 10000 1 310 19:37 24.06.2022
2922 Clear 15 1001 38 10000 1 310 19:18 24.06.2022
2923 Clear 14 1001 38 10000 2 340 18:31 24.06.2022
2924 Clear 14 1001 38 10000 3.13 340 17:57 24.06.2022
2925 Clear 17 1001 31 10000 3.13 320 16:46 24.06.2022
2926 Clear 23 1000 20 10000 3 330 14:50 24.06.2022
2927 Clear 24 1000 25 10000 4 320 14:23 24.06.2022
2928 Clear 26 1000 17 10000 5 340 13:41 24.06.2022
2929 Clear 28 999 13 10000 5 350 11:41 24.06.2022
2930 Clear 29 999 12 10000 5 340 10:36 24.06.2022
2931 Clear 29 999 12 10000 6 320 09:42 24.06.2022
2932 Clear 29 999 12 10000 6 320 09:42 24.06.2022
2933 Clear 29 1000 13 10000 5 330 08:54 24.06.2022
2934 Clear 29 1000 14 10000 6 320 08:19 24.06.2022
2935 Clear 29 1000 15 10000 6 360 06:44 24.06.2022
2936 Clear 28 1000 20 10000 6 330 06:22 24.06.2022
2937 Clear 27 1001 26 10000 7.15 360 04:46 24.06.2022
2938 Clear 20 1000 49 10000 7.15 330 23:32 23.06.2022
2939 Clear 19 1000 52 10000 7.15 320 22:43 23.06.2022
2940 Clear 16 1000 58 10000 7.15 320 20:59 23.06.2022
2941 Clear 17 1000 55 10000 7.15 300 20:36 23.06.2022
2942 Clear 17 1000 55 10000 6 300 19:48 23.06.2022
2943 Clear 18 1000 51 10000 4.02 320 18:27 23.06.2022
2944 Clear 19 1000 45 10000 4.02 300 17:34 23.06.2022
2945 Clear 20 1000 39 10000 3.13 330 16:26 23.06.2022
2946 Clear 22 1001 35 10000 3 320 15:26 23.06.2022
2947 Clear 22 1001 35 10000 3 320 15:26 23.06.2022
2948 Clear 25 1001 27 10000 5 320 14:18 23.06.2022
2949 Clear 30 1000 20 10000 6 330 11:41 23.06.2022
2950 Clear 30 1000 16 10000 6 350 10:40 23.06.2022
2951 Clear 30 1000 22 10000 5 310 09:19 23.06.2022
2952 Clear 28 1002 30 10000 6 320 04:43 23.06.2022
2953 Clear 23 1002 43 10000 4.02 320 00:27 23.06.2022
2954 Clear 20 1002 45 10000 4.02 320 23:52 22.06.2022
2955 Clear 20 1002 45 10000 4.02 320 23:18 22.06.2022
2956 Clear 16 1003 51 10000 4.02 320 21:36 22.06.2022
2957 Clear 16 1003 51 10000 5 320 20:51 22.06.2022
2958 Clear 15 1002 51 10000 4.02 310 20:18 22.06.2022
2959 Clear 12 1002 62 10000 1 280 19:27 22.06.2022
2960 Clear 13 1003 62 10000 2 300 17:33 22.06.2022
2961 Clear 15 1003 51 10000 3 320 16:41 22.06.2022
2962 Clear 15 1003 51 10000 3 320 16:41 22.06.2022
2963 Clear 19 1002 39 10000 2 320 15:28 22.06.2022
2964 Clear 24 1002 29 10000 3 320 14:41 22.06.2022
2965 Clear 25 1002 27 10000 4 330 13:46 22.06.2022
2966 Clear 27 1002 21 10000 4 320 13:24 22.06.2022
2967 Clear 27 1002 39 10000 1 30 11:54 22.06.2022
2968 Clear 27 1002 39 10000 1 140 10:58 22.06.2022
2969 Clear 27 1002 41 10000 2 130 10:36 22.06.2022
2970 Clear 26 1002 44 10000 2 150 08:57 22.06.2022
2971 Clear 26 1003 47 10000 3.13 100 06:39 22.06.2022
2972 Clear 22 1004 60 10000 2 360 01:59 22.06.2022
2973 Clear 20 1004 59 10000 3.13 350 00:56 22.06.2022
2974 Clear 17 1004 67 10000 3.13 340 22:40 21.06.2022
2975 Clear 15 1003 76 10000 3.13 350 20:47 21.06.2022
2976 Clear 17 1003 77 10000 3.13 360 19:20 21.06.2022
2977 Clear 18 1003 67 10000 3.13 10 17:47 21.06.2022
2978 Clear 19 1002 68 10000 4.02 360 16:36 21.06.2022
2979 Clear 24 1001 46 10000 5 10 11:57 21.06.2022
2980 Clear 24 1000 43 10000 6 350 10:38 21.06.2022
2981 Clear 25 1000 44 10000 5 360 09:20 21.06.2022
2982 Clear 25 1000 44 10000 6 10 07:40 21.06.2022
2983 Clear 23 999 53 10000 2 60 04:43 21.06.2022
2984 Clear 18 999 59 10000 4.02 350 00:21 21.06.2022
2985 Clear 15 998 76 10000 3.13 340 22:21 20.06.2022
2986 Clear 15 997 76 10000 4.02 320 21:36 20.06.2022
2987 Clear 17 997 77 10000 3.13 340 20:28 20.06.2022
2988 Clouds 17 997 67 10000 2 360 19:35 20.06.2022
2989 Clouds 19 997 63 10000 3 10 18:25 20.06.2022
2990 Clouds 19 997 59 10000 3 20 17:45 20.06.2022
2991 Clear 21 997 56 10000 3.13 30 16:24 20.06.2022
2992 Clear 22 997 56 10000 3 10 15:20 20.06.2022
2993 Clear 29 996 30 10000 2 170 12:18 20.06.2022
2994 Clear 29 996 28 10000 4.02 140 09:57 20.06.2022
2995 Clear 29 996 26 10000 4.02 140 08:54 20.06.2022
2996 Clear 29 996 30 10000 5 130 07:51 20.06.2022
2997 Clear 28 997 32 10000 6 170 05:18 20.06.2022
2998 Clear 20 999 59 10000 2 170 01:32 20.06.2022
2999 Clear 18 999 67 10000 2 190 23:49 19.06.2022
3000 Clear 16 999 77 10000 1 190 22:40 19.06.2022
3001 Clear 12 999 82 10000 0 0 21:43 19.06.2022
3002 Clear 11 1000 87 10000 1 230 20:55 19.06.2022
3003 Clear 11 1000 93 10000 2 220 20:25 19.06.2022
3004 Clear 12 1000 93 10000 1 220 19:45 19.06.2022
3005 Clear 13 999 81 10000 0 0 18:33 19.06.2022
3006 Clear 14 999 82 10000 1 230 17:48 19.06.2022
3007 Clear 15 999 76 10000 1 230 17:21 19.06.2022
3008 Clear 15 1000 82 10000 2 230 16:34 19.06.2022
3009 Clear 17 1000 67 10000 1 230 15:37 19.06.2022
3010 Clear 20 1000 59 10000 1 210 14:51 19.06.2022
3011 Clear 24 1000 43 10000 2 180 13:54 19.06.2022
3012 Clear 26 1000 34 10000 3 200 12:39 19.06.2022
3013 Clear 26 1001 29 10000 5 170 10:54 19.06.2022
3014 Clear 27 1001 28 10000 5 170 09:34 19.06.2022
3015 Clear 27 1002 30 10000 5 180 08:43 19.06.2022
3016 Clear 27 1002 32 10000 6 180 07:36 19.06.2022
3017 Clear 26 1003 41 10000 4.02 170 04:41 19.06.2022
3018 Clear 20 1005 64 10000 2 150 01:28 19.06.2022
3019 Clear 19 1005 68 10000 2 160 00:24 19.06.2022
3020 Clear 18 1005 72 10000 1 160 23:35 18.06.2022
3021 Clear 15 1005 72 10000 0 0 22:36 18.06.2022
3022 Clear 12 1004 76 10000 1 10 20:56 18.06.2022
3023 Clear 10 1004 93 10000 1 30 20:28 18.06.2022
3024 Clear 11 1004 87 10000 1 10 19:37 18.06.2022
3025 Clear 12 1004 87 10000 1 330 18:45 18.06.2022
3026 Clear 14 1004 82 10000 2 260 17:31 18.06.2022
3027 Clear 14 1004 82 10000 1 240 16:47 18.06.2022
3028 Clear 18 1004 63 10000 2 220 15:30 18.06.2022
3029 Clear 22 1004 49 10000 1 180 14:42 18.06.2022
3030 Clear 23 1003 40 10000 1 170 13:22 18.06.2022
3031 Clear 24 1003 38 10000 1.79 110 11:38 18.06.2022
3032 Clear 24 1003 38 10000 2 90 10:46 18.06.2022
3033 Clear 24 1003 38 10000 3.13 140 09:22 18.06.2022
3034 Clear 24 1003 38 10000 3.13 90 08:19 18.06.2022
3035 Clear 23 1004 40 10000 3.13 80 06:44 18.06.2022
3036 Clear 20 1004 56 10000 2 100 03:24 18.06.2022
3037 Clear 18 1004 63 10000 1 10 01:24 18.06.2022
3038 Clear 16 1004 67 10000 1.79 330 00:46 18.06.2022
3039 Clear 14 1004 71 10000 2 310 23:52 17.06.2022
3040 Clear 12 1004 76 10000 2 290 23:19 17.06.2022
3041 Clear 8 1003 87 10000 2 320 20:55 17.06.2022
3042 Clear 8 1003 87 10000 3 310 19:31 17.06.2022
3043 Clear 9 1003 87 10000 3 320 18:37 17.06.2022
3044 Clear 10 1003 81 10000 3 310 17:43 17.06.2022
3045 Clear 11 1003 82 10000 3 320 16:43 17.06.2022
3046 Clear 11 1003 82 10000 3 320 16:43 17.06.2022
3047 Clear 13 1003 81 10000 2 310 15:43 17.06.2022
3048 Clear 13 1003 87 10000 1 320 15:20 17.06.2022
3049 Clear 18 1002 59 10000 1 60 14:20 17.06.2022
3050 Clear 18 1002 51 10000 2 60 13:46 17.06.2022
3051 Clouds 20 1002 42 10000 3.13 350 12:57 17.06.2022
3052 Clear 20 1002 39 10000 3.13 330 11:57 17.06.2022
3053 Clear 21 1002 35 10000 4.02 340 11:36 17.06.2022
3054 Clear 21 1002 35 10000 3.13 280 10:51 17.06.2022
3055 Clear 21 1002 40 10000 5 300 08:30 17.06.2022
3056 Clear 20 1002 42 10000 4.92 330 07:47 17.06.2022
3057 Clear 20 1002 39 10000 4.02 300 05:57 17.06.2022
3058 Clouds 15 1003 67 10000 1 270 02:52 17.06.2022
3059 Clouds 12 1003 76 10000 3.13 310 00:42 17.06.2022
3060 Clouds 13 1002 71 10000 2 320 22:45 16.06.2022
3061 Clouds 13 1002 71 10000 2 10 22:20 16.06.2022
3062 Clouds 12 1002 76 10000 2 10 21:19 16.06.2022
3063 Clouds 13 1002 66 10000 3.13 40 20:50 16.06.2022
3064 Clouds 14 1001 77 10000 4 330 19:58 16.06.2022
3065 Clouds 16 1001 72 10000 4 360 18:44 16.06.2022
3066 Rain 15 1001 88 10000 1 30 17:44 16.06.2022
3067 Thunderstorm 17 1001 67 10000 10 300 16:46 16.06.2022
3068 Clouds 17 1000 67 10000 4 270 15:44 16.06.2022
3069 Clouds 18 1000 63 10000 5 310 15:20 16.06.2022
3070 Clouds 20 1000 52 10000 1 280 13:49 16.06.2022
3071 Clouds 22 999 46 10000 1 350 12:38 16.06.2022
3072 Clouds 23 999 38 10000 2 30 11:55 16.06.2022
3073 Clouds 24 999 41 10000 2 80 11:19 16.06.2022
3074 Clouds 23 999 40 10000 4.02 60 10:35 16.06.2022
3075 Clouds 25 999 36 10000 5 60 09:37 16.06.2022
3076 Clouds 24 999 35 10000 4.02 70 08:50 16.06.2022
3077 Clouds 25 999 36 10000 6 50 07:38 16.06.2022
3078 Clouds 23 1000 49 10000 4.02 90 05:43 16.06.2022
3079 Clear 21 1001 56 10000 1 80 03:23 16.06.2022
3080 Clear 20 1001 59 10000 3.13 330 01:51 16.06.2022
3081 Clear 20 1001 56 10000 1 260 01:22 16.06.2022
3082 Clear 20 1001 56 10000 1 260 01:22 16.06.2022
3083 Clouds 17 1001 63 10000 3.13 250 23:58 15.06.2022
3084 Clouds 15 1001 76 10000 2 180 22:47 15.06.2022
3085 Clouds 14 1002 82 10000 2 210 21:29 15.06.2022
3086 Clouds 13 1002 87 10000 1 140 20:58 15.06.2022
3087 Clouds 13 1002 81 10000 1 100 20:36 15.06.2022
3088 Clouds 13 1001 87 10000 1 100 19:52 15.06.2022
3089 Clouds 13 1002 87 10000 2 250 18:30 15.06.2022
3090 Rain 14 1002 82 10000 2 330 17:43 15.06.2022
3091 Clouds 14 1002 82 10000 2 240 16:21 15.06.2022
3092 Clouds 16 1002 72 10000 2 230 14:57 15.06.2022
3093 Clouds 20 1002 52 10000 2 240 13:22 15.06.2022
3094 Clouds 20 1002 52 10000 1 10 12:40 15.06.2022
3095 Clouds 19 1002 55 10000 2 100 11:24 15.06.2022
3096 Clouds 20 1002 56 10000 2 60 10:22 15.06.2022
3097 Clouds 18 1002 63 10000 3.13 60 08:59 15.06.2022
3098 Clouds 18 1002 63 10000 5 60 07:36 15.06.2022
3099 Clouds 17 1002 67 10000 5 60 05:36 15.06.2022
3100 Clouds 14 1002 82 10000 3.13 350 02:47 15.06.2022
3101 Clouds 12 1003 93 10000 2 10 01:36 15.06.2022
3102 Clouds 11 1002 93 10000 3.13 310 00:19 15.06.2022
3103 Clouds 11 1002 93 10000 2 340 23:38 14.06.2022
3104 Clouds 10 1002 93 10000 2 330 22:47 14.06.2022
3105 Clouds 10 1002 93 10000 0 0 21:43 14.06.2022
3106 Clouds 10 1002 93 10000 2 270 21:20 14.06.2022
3107 Clouds 10 1002 87 10000 1 310 20:40 14.06.2022
3108 Clouds 11 1002 87 10000 2 350 19:47 14.06.2022
3109 Clouds 12 1002 81 10000 1.79 320 18:39 14.06.2022
3110 Clouds 12 1002 87 10000 2 300 17:19 14.06.2022
3111 Clouds 12 1002 87 10000 1.79 300 16:42 14.06.2022
3112 Clouds 13 1002 81 10000 1 330 15:41 14.06.2022
3113 Clouds 16 1002 67 10000 2 320 14:53 14.06.2022
3114 Clouds 17 1002 63 10000 1 340 14:18 14.06.2022
3115 Clouds 17 1002 67 10000 1 10 13:24 14.06.2022
3116 Clouds 19 1001 52 10000 4 230 11:58 14.06.2022
3117 Clouds 18 1001 55 10000 4.02 230 10:52 14.06.2022
3118 Clouds 18 1002 59 10000 3 230 10:29 14.06.2022
3119 Thunderstorm 17 1002 77 10000 3.13 300 09:22 14.06.2022
3120 Clouds 17 1002 67 10000 3.13 20 08:37 14.06.2022
3121 Clouds 21 1001 43 10000 5 190 06:32 14.06.2022
3122 Clear 19 1002 59 10000 4.02 170 03:52 14.06.2022
3123 Clear 16 1003 72 10000 3.13 190 01:38 14.06.2022
3124 Clear 14 1003 82 10000 3.13 180 00:24 14.06.2022
3125 Clear 11 1003 93 10000 1 220 22:58 13.06.2022
3126 Clear 10 1003 100 10000 0 0 22:23 13.06.2022
3127 Clear 6 1003 100 10000 0 0 21:39 13.06.2022
3128 Mist 7 1003 93 5000 2 310 19:59 13.06.2022
3129 Mist 9 1003 93 1700 1 130 19:18 13.06.2022
3130 Clear 8 1003 93 10000 0 0 17:56 13.06.2022
3131 Clear 10 1003 93 10000 1 160 17:25 13.06.2022
3132 Clear 11 1004 93 10000 2 160 16:31 13.06.2022
3133 Clouds 12 1004 87 10000 1 190 14:52 13.06.2022
3134 Clouds 12 1003 94 10000 2 130 14:31 13.06.2022
3135 Rain 13 1004 88 10000 5 360 13:36 13.06.2022
3136 Rain 14 1005 72 10000 5 350 12:23 13.06.2022
3137 Thunderstorm 20 1003 39 10000 4.02 180 10:58 13.06.2022
3138 Clouds 21 1003 35 10000 5 190 10:26 13.06.2022
3139 Clouds 18 1005 42 10000 2.39 261 08:59 13.06.2022
3140 Clouds 18 1005 43 10000 3.65 231 06:53 13.06.2022
3141 Clear 18 1006 51 10000 6 160 05:35 13.06.2022
3142 Clear 17 1007 51 10000 3.13 250 02:27 13.06.2022
3143 Clear 15 1007 58 10000 3.13 220 01:36 13.06.2022
3144 Clear 15 1007 58 10000 3.13 220 01:36 13.06.2022
3145 Clear 13 1006 71 10000 4.02 240 23:49 12.06.2022
3146 Clear 11 1006 81 10000 4.92 260 22:44 12.06.2022
3147 Clear 10 1006 87 10000 4.02 250 21:58 12.06.2022
3148 Clear 10 1005 87 10000 4.02 250 20:54 12.06.2022
3149 Clear 10 1005 87 10000 5 250 20:18 12.06.2022
3150 Clear 11 1004 87 10000 5 260 19:30 12.06.2022
3151 Clouds 12 1004 87 10000 4.02 260 17:41 12.06.2022
3152 Clouds 14 1003 87 10000 3.13 300 15:57 12.06.2022
3153 Clouds 14 1003 93 10000 1 200 14:56 12.06.2022
3154 Clouds 14 1003 93 10000 1 280 14:20 12.06.2022
3155 Rain 14 1003 93 10000 1 30 13:49 12.06.2022
3156 Clouds 15 1003 87 10000 2 340 12:35 12.06.2022
3157 Clouds 15 1002 87 10000 5 320 11:37 12.06.2022
3158 Clouds 15 1002 87 10000 4.02 320 10:22 12.06.2022
3159 Thunderstorm 16 1002 82 5000 8.05 250 08:54 12.06.2022
3160 Clouds 19 1002 55 10000 6 230 08:35 12.06.2022
3161 Rain 21 1002 43 10000 6 210 07:32 12.06.2022
3162 Clouds 24 1003 38 10000 4 150 04:35 12.06.2022
3163 Clouds 22 1004 43 10000 4.02 130 02:53 12.06.2022
3164 Clouds 19 1004 55 10000 2 90 01:39 12.06.2022
3165 Clouds 18 1005 59 10000 2 100 00:58 12.06.2022
3166 Clouds 16 1005 67 10000 1 90 00:20 12.06.2022
3167 Clouds 15 1005 72 10000 1 320 23:40 11.06.2022
3168 Clouds 14 1006 87 10000 3 70 22:38 11.06.2022
3169 Clouds 13 1007 76 10000 3.13 350 21:42 11.06.2022
3170 Clouds 12 1007 81 10000 1 10 20:36 11.06.2022
3171 Clouds 12 1007 81 10000 1 350 19:46 11.06.2022
3172 Clouds 12 1007 81 10000 1 320 19:19 11.06.2022
3173 Clouds 14 1007 77 10000 1 10 18:33 11.06.2022
3174 Clouds 14 1007 77 10000 0 0 17:50 11.06.2022
3175 Clouds 15 1007 72 10000 1 140 17:26 11.06.2022
3176 Clouds 15 1007 72 10000 1 160 16:55 11.06.2022
3177 Clouds 16 1008 63 10000 2 210 16:27 11.06.2022
3178 Clouds 17 1008 59 10000 1 80 15:31 11.06.2022
3179 Clouds 20 1007 42 10000 2 240 13:53 11.06.2022
3180 Clouds 21 1007 37 10000 3 250 12:51 11.06.2022
3181 Clouds 24 1007 27 10000 4 260 10:48 11.06.2022
3182 Clouds 23 1007 28 10000 3 260 09:51 11.06.2022
3183 Clouds 24 1007 29 10000 4.02 270 09:18 11.06.2022
3184 Clouds 23 1008 28 10000 5 310 07:40 11.06.2022
3185 Clouds 24 1008 27 10000 6 320 06:25 11.06.2022
3186 Clear 24 1008 25 10000 6 280 04:30 11.06.2022
3187 Clear 20 1009 49 10000 4.02 270 01:53 11.06.2022
3188 Clear 18 1009 55 10000 2 250 01:32 11.06.2022
3189 Clear 17 1009 55 10000 5 280 23:49 10.06.2022
3190 Clear 16 1008 58 10000 6 270 22:31 10.06.2022
3191 Clear 15 1008 67 10000 5 280 21:50 10.06.2022
3192 Clear 14 1009 67 10000 4.02 280 20:41 10.06.2022
3193 Clear 13 1009 76 10000 3.13 270 20:21 10.06.2022
3194 Clear 14 1009 77 10000 3 300 19:20 10.06.2022
3195 Clear 14 1008 82 10000 4 300 18:55 10.06.2022
3196 Clouds 15 1008 82 10000 5 310 17:55 10.06.2022
3197 Clouds 16 1008 82 10000 4 300 17:33 10.06.2022
3198 Clouds 16 1008 82 10000 4 290 16:50 10.06.2022
3199 Clouds 16 1008 87 10000 4.02 300 15:44 10.06.2022
3200 Clouds 17 1008 77 10000 3.13 300 14:51 10.06.2022
3201 Clouds 19 1008 77 10000 2 220 13:26 10.06.2022
3202 Clouds 18 1008 77 10000 1 240 11:59 10.06.2022
3203 Clouds 20 1008 68 10000 2 290 11:25 10.06.2022
3204 Clouds 19 1008 72 10000 2 150 10:36 10.06.2022
3205 Clouds 16 1008 82 10000 1 230 09:26 10.06.2022
3206 Clouds 18 1008 72 10000 2 240 07:57 10.06.2022
3207 Clouds 17 1008 72 10000 2 310 06:49 10.06.2022
3208 Clouds 16 1008 82 10000 4 310 06:30 10.06.2022
3209 Rain 15 1008 88 10000 3 290 05:32 10.06.2022
3210 Clouds 20 1007 49 10000 2 20 02:50 10.06.2022
3211 Clouds 20 1006 52 10000 3.13 80 01:37 10.06.2022
3212 Clear 18 1006 55 10000 2 40 23:58 09.06.2022
3213 Clear 17 1006 59 10000 3.13 340 22:43 09.06.2022
3214 Clear 16 1006 58 10000 1 60 21:44 09.06.2022
3215 Clear 15 1006 62 10000 3.13 310 21:25 09.06.2022
3216 Clear 14 1006 67 10000 3.13 330 20:38 09.06.2022
3217 Clear 15 1006 58 10000 4.02 330 19:51 09.06.2022
3218 Clear 14 1006 67 10000 2 310 18:41 09.06.2022
3219 Clear 16 1006 63 10000 3.13 310 17:33 09.06.2022
3220 Clear 18 1006 55 10000 3.13 320 16:28 09.06.2022
3221 Clouds 21 1006 52 10000 2 310 15:22 09.06.2022
3222 Clouds 24 1006 41 10000 3 360 14:30 09.06.2022
3223 Clouds 25 1006 36 10000 3 310 13:44 09.06.2022
3224 Clouds 27 1006 28 10000 4 350 13:19 09.06.2022
3225 Clouds 29 1006 28 10000 4.02 320 11:35 09.06.2022
3226 Clouds 27 1006 32 10000 5 330 10:34 09.06.2022
3227 Clear 29 1006 26 10000 8.05 310 09:38 09.06.2022
3228 Clear 29 1006 28 10000 7.15 310 09:20 09.06.2022
3229 Clear 29 1007 30 10000 6 290 07:29 09.06.2022
3230 Clear 25 1009 44 10000 2 260 04:30 09.06.2022
3231 Clear 20 1010 56 10000 1 240 00:36 09.06.2022
3232 Clear 18 1010 67 10000 2 230 23:23 08.06.2022
3233 Clear 16 1010 72 10000 1 230 22:44 08.06.2022
3234 Clear 14 1011 71 10000 1 230 22:24 08.06.2022
3235 Clear 11 1011 82 10000 1 140 21:40 08.06.2022
3236 Clear 11 1011 82 10000 1 340 20:25 08.06.2022
3237 Clear 11 1010 87 10000 1 320 19:42 08.06.2022
3238 Clear 11 1011 87 10000 1 310 18:48 08.06.2022
3239 Clear 13 1011 81 10000 0 0 17:46 08.06.2022
3240 Clear 17 1011 72 10000 2 280 15:56 08.06.2022
3241 Clear 20 1011 52 10000 1 130 14:46 08.06.2022
3242 Clear 27 1010 32 10000 2 70 12:55 08.06.2022
3243 Clear 27 1010 32 10000 2 70 12:55 08.06.2022
3244 Clear 28 1010 26 10000 3.13 40 11:41 08.06.2022
3245 Clear 28 1010 26 10000 3.13 40 11:19 08.06.2022
3246 Clear 28 1011 24 10000 3.13 50 09:30 08.06.2022
3247 Clear 28 1011 24 10000 3.13 50 08:55 08.06.2022
3248 Clear 28 1011 26 10000 3.13 60 07:22 08.06.2022
3249 Clear 26 1012 31 10000 3.13 50 04:49 08.06.2022
3250 Clear 20 1012 64 10000 3.13 40 01:27 08.06.2022
3251 Clear 19 1012 63 10000 4.02 360 23:41 07.06.2022
3252 Clear 18 1012 67 10000 4.02 10 23:22 07.06.2022
3253 Clouds 18 1012 63 10000 4.02 360 22:38 07.06.2022
3254 Clouds 16 1012 72 10000 4.02 340 21:41 07.06.2022
3255 Clouds 16 1012 72 10000 3.13 330 21:23 07.06.2022
3256 Clouds 16 1011 72 10000 3.13 350 20:42 07.06.2022
3257 Clouds 17 1011 67 10000 3.13 10 19:58 07.06.2022
3258 Clouds 17 1011 67 10000 2 340 18:38 07.06.2022
3259 Clouds 17 1010 72 10000 2 340 17:51 07.06.2022
3260 Clouds 17 1010 72 10000 1 70 16:49 07.06.2022
3261 Clouds 21 1009 56 10000 4 360 16:31 07.06.2022
3262 Clouds 22 1009 56 10000 3 340 15:38 07.06.2022
3263 Clouds 22 1009 56 10000 3 340 15:19 07.06.2022
3264 Clouds 21 1009 68 10000 3 350 14:44 07.06.2022
3265 Clouds 26 1008 47 10000 3 360 13:42 07.06.2022
3266 Clouds 26 1008 47 10000 3 360 13:42 07.06.2022
3267 Clouds 26 1008 47 10000 3 360 13:23 07.06.2022
3268 Clouds 29 1008 30 10000 2 340 11:56 07.06.2022
3269 Clouds 28 1008 37 10000 3.13 310 10:53 07.06.2022
3270 Clouds 26 1008 78 10000 5 70 09:26 07.06.2022
3271 Thunderstorm 22 1009 46 10000 5 60 08:22 07.06.2022
3272 Thunderstorm 23 1009 46 10000 8 350 07:18 07.06.2022
3273 Clouds 28 1009 32 10000 2 170 04:52 07.06.2022
3274 Clear 20 1010 60 10000 2 120 01:28 07.06.2022
3275 Clear 17 1010 67 10000 2 90 23:59 06.06.2022
3276 Clear 16 1010 67 10000 0 0 22:56 06.06.2022
3277 Clear 14 1010 72 10000 0 0 22:30 06.06.2022
3278 Clear 12 1010 76 10000 0 0 21:28 06.06.2022
3279 Clear 13 1010 76 10000 2 310 19:29 06.06.2022
3280 Clear 13 1009 82 10000 2 320 18:59 06.06.2022
3281 Clear 14 1009 77 10000 2 320 18:32 06.06.2022
3282 Clear 16 1009 67 10000 3.13 330 17:27 06.06.2022
3283 Clear 17 1009 67 10000 2 330 16:21 06.06.2022
3284 Clear 19 1009 63 10000 1 310 15:33 06.06.2022
3285 Clear 24 1009 43 10000 1 10 14:36 06.06.2022
3286 Clear 25 1009 41 10000 1 50 13:27 06.06.2022
3287 Clear 27 1009 32 10000 3.13 60 12:37 06.06.2022
3288 Clear 28 1009 28 10000 2 90 11:54 06.06.2022
3289 Clear 28 1009 24 10000 3.13 80 10:46 06.06.2022
3290 Clear 28 1010 28 10000 3.13 80 09:40 06.06.2022
3291 Clear 29 1010 24 10000 3.13 110 08:33 06.06.2022
3292 Clear 27 1011 28 10000 3.13 130 07:28 06.06.2022
3293 Clear 27 1012 28 10000 2 110 05:29 06.06.2022
3294 Clear 27 1012 28 10000 2 110 05:29 06.06.2022
3295 Clear 27 1013 36 10000 2 120 03:44 06.06.2022
3296 Clear 22 1014 46 10000 1 30 01:23 06.06.2022
3297 Clear 22 1014 49 10000 1 10 00:42 06.06.2022
3298 Clear 17 1014 63 10000 1 360 23:44 05.06.2022
3299 Clear 15 1014 67 10000 0 0 22:47 05.06.2022
3300 Clear 12 1014 82 10000 1 330 20:59 05.06.2022
3301 Clear 12 1014 82 10000 0 0 19:50 05.06.2022
3302 Clear 13 1014 82 10000 2 340 18:30 05.06.2022
3303 Clear 13 1014 82 10000 1 360 17:55 05.06.2022
3304 Clear 14 1014 77 10000 2 360 17:27 05.06.2022
3305 Clear 16 1014 72 10000 2 340 16:57 05.06.2022
3306 Clear 16 1014 77 10000 2 360 16:37 05.06.2022
3307 Clear 20 1014 56 10000 1 60 14:34 05.06.2022
3308 Clear 25 1014 38 10000 2 50 12:59 05.06.2022
3309 Clear 24 1014 43 10000 2 70 11:49 05.06.2022
3310 Clear 27 1014 32 10000 3 60 10:42 05.06.2022
3311 Clear 27 1014 30 10000 3.13 60 10:22 05.06.2022
3312 Clear 28 1014 24 10000 3.13 110 08:40 05.06.2022
3313 Clear 28 1014 23 10000 2 120 08:20 05.06.2022
3314 Clear 25 1015 33 10000 3.13 160 05:23 05.06.2022
3315 Clear 24 1016 38 10000 3.13 140 04:30 05.06.2022
3316 Clear 23 1016 38 10000 2 310 01:33 05.06.2022
3317 Clear 22 1016 43 10000 0 0 00:52 05.06.2022
3318 Clear 15 1016 58 10000 1 110 22:43 04.06.2022
3319 Clear 10 1015 76 10000 0 0 20:55 04.06.2022
3320 Clear 12 1014 71 10000 2 350 18:53 04.06.2022
3321 Clear 15 1013 76 10000 2 320 16:47 04.06.2022
3322 Clear 14 1013 82 10000 2 320 16:19 04.06.2022
3323 Clear 19 1012 63 10000 1 200 15:22 04.06.2022
3324 Clear 24 1012 35 10000 1.79 180 13:46 04.06.2022
3325 Clear 26 1012 27 10000 3.13 160 11:23 04.06.2022
3326 Clear 27 1012 26 10000 3.13 170 10:50 04.06.2022
3327 Clear 27 1012 26 10000 3.13 170 09:45 04.06.2022
3328 Clear 29 1012 23 10000 3.13 170 08:44 04.06.2022
3329 Clear 29 1012 23 10000 3.13 170 08:44 04.06.2022
3330 Clear 28 1012 23 10000 5 210 07:51 04.06.2022
3331 Clear 27 1013 24 10000 4.02 190 06:20 04.06.2022
3332 Clear 19 1014 55 10000 2 170 02:36 04.06.2022
3333 Clear 16 1014 67 10000 1 110 00:20 04.06.2022
3334 Clear 14 1014 72 10000 0 0 22:49 03.06.2022
3335 Clear 11 1014 82 10000 0 0 21:43 03.06.2022
3336 Clear 13 1015 76 10000 1.6 219 20:38 03.06.2022
3337 Clouds 16 1014 65 10000 2.2 186 19:19 03.06.2022
3338 Clouds 18 1014 57 10000 1.12 189 16:54 03.06.2022
3339 Clouds 18 1014 56 10000 0.61 190 15:40 03.06.2022
3340 Clouds 19 1014 57 10000 0.88 231 13:49 03.06.2022
3341 Clear 26 1012 29 10000 2 150 11:51 03.06.2022
3342 Clear 26 1012 27 10000 3.13 140 09:54 03.06.2022
3343 Clear 25 1012 31 10000 3.13 210 09:29 03.06.2022
3344 Clear 26 1012 29 10000 4.02 210 07:42 03.06.2022
3345 Clear 25 1012 31 10000 3.13 210 06:45 03.06.2022
3346 Clear 25 1013 31 10000 2 200 06:27 03.06.2022
3347 Clear 21 1013 46 10000 2 200 02:50 03.06.2022
3348 Clear 15 1013 62 10000 3.13 190 23:36 02.06.2022
3349 Clear 14 1012 62 10000 0 0 21:58 02.06.2022
3350 Clear 14 1011 62 10000 2 170 20:34 02.06.2022
3351 Clear 13 1011 66 10000 2 120 19:54 02.06.2022
3352 Clear 13 1011 71 10000 2 110 19:36 02.06.2022
3353 Clear 14 1010 67 10000 1 150 18:34 02.06.2022
3354 Clear 16 1009 63 10000 1 270 16:28 02.06.2022
3355 Clear 19 1009 45 10000 2 140 15:30 02.06.2022
3356 Clouds 21 1008 43 10000 0 0 13:30 02.06.2022
3357 Clouds 21 1008 43 10000 0 0 13:30 02.06.2022
3358 Clouds 21 1008 43 10000 1 120 12:46 02.06.2022
3359 Clouds 23 1007 35 10000 1 70 10:34 02.06.2022
3360 Clear 24 1007 33 10000 3 130 09:29 02.06.2022
3361 Clear 24 1007 35 10000 3 150 08:39 02.06.2022
3362 Clear 24 1007 35 10000 3 150 08:19 02.06.2022
3363 Clear 22 1007 43 10000 5 140 06:20 02.06.2022
3364 Clear 20 1007 52 10000 2 120 03:49 02.06.2022
3365 Clear 14 1006 87 10000 2 30 00:39 02.06.2022
3366 Clouds 12 1005 93 10000 2 350 22:57 01.06.2022
3367 Clouds 12 1005 93 10000 2 30 21:52 01.06.2022
3368 Clouds 12 1005 93 10000 2 20 21:24 01.06.2022
3369 Clouds 12 1005 93 10000 1.79 20 20:38 01.06.2022
3370 Clouds 12 1004 93 10000 2 40 19:50 01.06.2022
3371 Clouds 12 1003 100 10000 2 20 18:28 01.06.2022
3372 Clouds 13 1003 93 10000 2 30 16:56 01.06.2022
3373 Clouds 13 1003 93 10000 2 30 15:42 01.06.2022
3374 Clouds 13 1002 93 10000 2 20 14:46 01.06.2022
3375 Clouds 14 1002 93 10000 3.13 60 13:18 01.06.2022
3376 Clouds 15 1001 93 10000 3.13 60 10:44 01.06.2022
3377 Rain 14 1001 100 5000 0 0 09:28 01.06.2022
3378 Thunderstorm 16 1000 77 10000 5 90 08:18 01.06.2022
3379 Clouds 17 1000 72 10000 2 80 07:20 01.06.2022
3380 Clouds 14 1000 87 10000 2 60 03:55 01.06.2022
3381 Rain 13 999 87 10000 2 30 23:47 31.05.2022
3382 Rain 12 999 93 10000 2 50 22:41 31.05.2022
3383 Rain 12 999 93 10000 2 50 22:22 31.05.2022
3384 Clouds 13 999 87 10000 1.79 340 21:39 31.05.2022
3385 Rain 13 999 87 10000 1 40 20:44 31.05.2022
3386 Clouds 14 999 71 10000 2 130 19:31 31.05.2022
3387 Rain 16 999 67 10000 5 170 18:26 31.05.2022
3388 Clouds 16 999 63 10000 2 130 17:37 31.05.2022
3389 Clear 15 999 67 10000 2 60 15:46 31.05.2022
3390 Clear 15 999 72 10000 2 20 15:22 31.05.2022
3391 Clear 18 999 55 10000 3.13 90 12:56 31.05.2022
3392 Clear 17 999 59 10000 4.02 70 12:18 31.05.2022
3393 Clouds 18 999 59 10000 4 80 10:25 31.05.2022
3394 Clear 18 1000 59 10000 4.02 60 07:46 31.05.2022
3395 Clouds 17 1001 67 10000 3.13 120 06:21 31.05.2022
3396 Clouds 13 1001 88 10000 3 130 04:31 31.05.2022
3397 Clouds 12 1001 87 10000 3.13 120 23:45 30.05.2022
3398 Rain 11 1001 93 10000 3.13 110 23:24 30.05.2022
3399 Rain 11 1001 93 10000 2 110 22:37 30.05.2022
3400 Clouds 12 1002 87 10000 2 140 21:40 30.05.2022
3401 Clouds 12 1001 81 10000 3.13 150 20:51 30.05.2022
3402 Clouds 12 1001 81 10000 3.13 130 19:44 30.05.2022
3403 Clouds 13 1001 71 10000 2 120 18:18 30.05.2022
3404 Clouds 14 1001 67 10000 3 120 17:23 30.05.2022
3405 Clouds 15 1001 63 10000 3 130 16:22 30.05.2022
3406 Clouds 17 1000 55 10000 3 60 13:32 30.05.2022
3407 Clouds 19 1000 48 10000 4 50 11:40 30.05.2022
3408 Clouds 18 1000 55 10000 4.02 350 09:58 30.05.2022
3409 Clouds 18 1000 48 10000 3.13 20 08:52 30.05.2022
3410 Clouds 17 1001 51 10000 4.02 40 06:26 30.05.2022
3411 Clear 17 1002 51 10000 3.13 70 04:52 30.05.2022
3412 Clouds 13 1002 66 10000 2 130 00:43 30.05.2022
3413 Clouds 11 1002 76 10000 1 80 22:46 29.05.2022
3414 Clouds 12 1002 71 10000 2 130 22:28 29.05.2022
3415 Clouds 11 1003 81 10000 1 330 20:29 29.05.2022
3416 Clouds 11 1003 87 10000 1 20 19:29 29.05.2022
3417 Clouds 11 1003 87 10000 0 0 18:34 29.05.2022
3418 Rain 13 1003 76 10000 2 150 16:25 29.05.2022
3419 Rain 14 1004 67 10000 3.13 150 15:46 29.05.2022
3420 Clouds 16 1003 55 10000 4 130 14:54 29.05.2022
3421 Clouds 14 1003 67 10000 2 80 13:18 29.05.2022
3422 Rain 16 1003 58 10000 4.02 110 11:20 29.05.2022
3423 Clouds 18 1003 42 10000 4.02 110 10:34 29.05.2022
3424 Clouds 18 1003 45 10000 4.02 100 08:31 29.05.2022
3425 Clear 18 1004 39 10000 3.13 100 04:58 29.05.2022
3426 Clear 19 1005 37 10000 5 110 04:36 29.05.2022
3427 Clear 17 1006 45 10000 4.02 130 01:52 29.05.2022
3428 Clear 11 1007 71 10000 3.13 20 23:48 28.05.2022
3429 Clear 10 1007 71 10000 3.13 30 23:20 28.05.2022
3430 Clear 10 1007 76 10000 4.02 30 22:19 28.05.2022
3431 Clear 10 1007 66 10000 3.13 20 20:58 28.05.2022
3432 Clear 10 1007 66 10000 4.02 20 19:20 28.05.2022
3433 Clouds 10 1007 71 10000 4.02 30 18:40 28.05.2022
3434 Clouds 10 1007 71 10000 4.02 10 17:33 28.05.2022
3435 Clear 11 1007 57 10000 5 20 15:56 28.05.2022
3436 Clear 11 1008 57 10000 5 30 15:38 28.05.2022
3437 Clear 12 1008 54 10000 7.15 30 13:38 28.05.2022
3438 Clear 13 1008 50 10000 8.05 30 12:43 28.05.2022
3439 Clear 15 1008 44 10000 10 30 11:37 28.05.2022
3440 Clear 16 1008 44 10000 11.18 30 10:41 28.05.2022
3441 Clear 16 1007 41 10000 10 30 09:55 28.05.2022
3442 Clear 14 1008 44 10000 10 30 08:33 28.05.2022
3443 Clouds 14 1008 47 10000 10 30 06:50 28.05.2022
3444 Clouds 13 1008 47 10000 8.05 30 05:18 28.05.2022
3445 Clouds 10 1010 61 10000 5 10 02:27 28.05.2022
3446 Clouds 8 1009 65 10000 4.02 10 23:58 27.05.2022
3447 Clear 8 1009 65 10000 4.02 10 22:48 27.05.2022
3448 Clear 7 1009 65 10000 4.02 360 21:29 27.05.2022
3449 Clear 7 1009 65 10000 3.13 360 20:45 27.05.2022
3450 Clear 7 1009 65 10000 3.13 360 20:19 27.05.2022
3451 Clear 6 1009 65 10000 3.13 20 19:38 27.05.2022
3452 Clear 7 1009 60 10000 3.13 10 19:20 27.05.2022
3453 Clear 8 1009 49 10000 3.13 360 17:24 27.05.2022
3454 Clear 8 1009 65 10000 2 30 15:57 27.05.2022
3455 Clear 11 1009 43 10000 3.13 10 14:57 27.05.2022
3456 Clear 14 1009 35 10000 4 30 13:41 27.05.2022
3457 Clear 14 1009 30 10000 4.02 30 12:20 27.05.2022
3458 Clear 15 1008 28 10000 2 340 11:31 27.05.2022
3459 Clear 15 1009 26 10000 1 340 10:43 27.05.2022
3460 Clear 15 1008 28 10000 4.02 60 09:59 27.05.2022
3461 Clear 15 1008 30 10000 4.02 60 09:30 27.05.2022
3462 Clear 15 1009 26 10000 3 90 07:40 27.05.2022
3463 Clear 12 1009 40 10000 4.02 70 04:58 27.05.2022
3464 Clear 9 1009 53 10000 2 50 01:44 27.05.2022
3465 Clear 6 1008 60 10000 2 20 23:31 26.05.2022
3466 Clear 3 1008 74 10000 2 350 22:28 26.05.2022
3467 Clear 0 1008 86 10000 2 330 21:32 26.05.2022
3468 Clear 1 1007 80 10000 3.13 320 19:39 26.05.2022
3469 Clear 2 1007 74 10000 3.13 320 18:52 26.05.2022
3470 Clear 3 1007 74 10000 3.13 310 17:36 26.05.2022
3471 Clear 3 1007 74 10000 2 310 16:31 26.05.2022
3472 Clear 3 1007 80 10000 0 0 15:33 26.05.2022
3473 Clear 7 1007 60 10000 0 0 14:20 26.05.2022
3474 Clear 9 1006 45 10000 2 50 12:20 26.05.2022
3475 Clear 9 1006 49 10000 4.02 50 11:21 26.05.2022
3476 Clear 9 1006 53 10000 4.02 60 09:39 26.05.2022
3477 Clouds 10 1006 50 10000 3 60 08:51 26.05.2022
3478 Clouds 8 1005 61 10000 3.13 80 06:51 26.05.2022
3479 Rain 5 1005 75 10000 4.02 340 02:54 26.05.2022
3480 Clouds 4 1004 80 10000 3.13 340 00:19 26.05.2022
3481 Clouds 2 1004 93 10000 2 20 23:19 25.05.2022
3482 Clouds 3 1004 86 10000 3.13 310 21:46 25.05.2022
3483 Clouds 2 1004 93 10000 2 280 20:53 25.05.2022
3484 Clouds 2 1004 93 10000 3.13 310 19:59 25.05.2022
3485 Rain 3 1004 80 10000 3.13 280 18:48 25.05.2022
3486 Clear 4 1005 64 10000 3.13 290 17:26 25.05.2022
3487 Clear 4 1005 60 10000 5 290 16:35 25.05.2022
3488 Clear 5 1005 52 10000 4.02 270 15:53 25.05.2022
3489 Clear 5 1006 52 10000 4.02 310 14:51 25.05.2022
3490 Clear 5 1006 52 10000 4.02 300 14:32 25.05.2022
3491 Clear 5 1006 48 10000 7.15 310 13:28 25.05.2022
3492 Clouds 8 1005 44 10000 6.72 314 12:24 25.05.2022
3493 Clear 6 1005 45 10000 8 310 10:42 25.05.2022
3494 Clear 7 1005 45 10000 9 340 09:53 25.05.2022
3495 Clouds 9 1004 45 10000 8.94 310 08:22 25.05.2022
3496 Clouds 10 1003 37 10000 8.32 311 06:45 25.05.2022
3497 Clouds 8 1002 56 10000 7.15 320 02:55 25.05.2022
3498 Clouds 6 1002 70 10000 5 280 23:53 24.05.2022
3499 Clouds 6 1002 70 10000 5 290 23:23 24.05.2022
3500 Clouds 6 1003 70 10000 4.02 280 22:19 24.05.2022
3501 Clear 5 1003 75 10000 4.02 280 21:38 24.05.2022
3502 Clear 5 1003 75 10000 3.13 260 21:19 24.05.2022
3503 Clear 5 1003 80 10000 3.13 290 19:37 24.05.2022
3504 Clear 5 1003 80 10000 3.13 280 18:50 24.05.2022
3505 Clear 6 1004 81 10000 3.13 310 16:41 24.05.2022
3506 Clear 7 1004 81 10000 3.13 310 16:19 24.05.2022
3507 Clear 7 1004 81 10000 3.13 310 16:19 24.05.2022
3508 Clouds 8 1004 87 10000 4.02 310 14:50 24.05.2022
3509 Clouds 11 1004 81 10000 5 330 13:52 24.05.2022
3510 Clouds 11 1003 81 10000 5 320 12:46 24.05.2022
3511 Rain 12 1002 76 10000 4.02 310 10:29 24.05.2022
3512 Clouds 13 1002 76 10000 7.15 250 09:43 24.05.2022
3513 Clouds 13 1002 76 10000 7.15 250 08:49 24.05.2022
3514 Rain 12 1004 81 10000 4.02 230 06:56 24.05.2022
3515 Clouds 13 1006 47 10000 5 200 03:48 24.05.2022
3516 Clouds 10 1007 62 10000 0 0 01:50 24.05.2022
3517 Clouds 9 1007 61 10000 3.13 200 01:19 24.05.2022
3518 Clouds 6 1008 70 10000 3 190 22:51 23.05.2022
3519 Clear 4 1008 81 10000 1 210 21:55 23.05.2022
3520 Clear 2 1008 80 10000 0 0 21:26 23.05.2022
3521 Clear 1 1008 86 10000 1 310 20:26 23.05.2022
3522 Clear 1 1008 86 10000 0 0 19:31 23.05.2022
3523 Clear 2 1008 87 10000 1 300 18:54 23.05.2022
3524 Clear 2 1008 87 10000 1 280 18:27 23.05.2022
3525 Clear 4 1008 86 10000 1 300 17:18 23.05.2022
3526 Clear 10 1008 57 10000 1.79 40 14:52 23.05.2022
3527 Clear 10 1007 53 10000 2 60 12:56 23.05.2022
3528 Clouds 12 1007 46 10000 3.13 80 11:31 23.05.2022
3529 Clouds 14 1007 38 10000 3.13 100 09:50 23.05.2022
3530 Clouds 16 1007 31 10000 3 130 09:28 23.05.2022
3531 Clouds 15 1007 35 10000 4.92 280 08:20 23.05.2022
3532 Clouds 16 1006 29 10000 4.02 290 06:45 23.05.2022
3533 Clouds 15 1006 38 10000 5 300 05:25 23.05.2022
3534 Clear 11 1007 37 10000 3.13 180 02:23 23.05.2022
3535 Clear 8 1007 49 10000 3.13 150 01:37 23.05.2022
3536 Clear 7 1007 45 10000 2 130 23:51 22.05.2022
3537 Clear 6 1007 52 10000 0 0 22:36 22.05.2022
3538 Clear 4 1007 60 10000 1 190 21:55 22.05.2022
3539 Clear 4 1006 60 10000 1 130 20:54 22.05.2022
3540 Clear 5 1006 60 10000 1 150 20:31 22.05.2022
3541 Clear 5 1006 60 10000 2 180 19:56 22.05.2022
3542 Clear 8 1006 45 10000 2 200 18:55 22.05.2022
3543 Clear 7 1006 48 10000 2 210 18:25 22.05.2022
3544 Clear 6 1006 52 10000 2 250 17:34 22.05.2022
3545 Clear 6 1006 70 10000 0 0 16:36 22.05.2022
3546 Clear 7 1006 60 10000 0 0 14:49 22.05.2022
3547 Clear 12 1006 37 10000 0 0 13:54 22.05.2022
3548 Clear 14 1006 28 10000 2 100 12:52 22.05.2022
3549 Clear 17 1005 20 10000 2 110 11:47 22.05.2022
3550 Clear 17 1006 21 10000 4.02 150 09:45 22.05.2022
3551 Clear 17 1006 23 10000 3.13 130 08:54 22.05.2022
3552 Clear 16 1007 29 10000 2 140 07:22 22.05.2022
3553 Clear 17 1000 24 10000 3.13 150 06:24 22.05.2022
3554 Clear 12 1008 50 10000 3.13 180 02:33 22.05.2022
3555 Clear 8 1002 59 10000 3.13 190 00:44 22.05.2022
3556 Clear 6 1008 70 10000 2 180 23:55 21.05.2022
3557 Clear 5 1009 75 10000 0 0 23:21 21.05.2022
3558 Clear 3 998 73 10000 1 310 21:47 21.05.2022
3559 Clear 0 1009 93 10000 1 320 21:26 21.05.2022
3560 Clear 3 998 72 10000 1 20 20:25 21.05.2022
3561 Clear 3 998 71 10000 1 330 19:43 21.05.2022
3562 Clear 5 1008 80 10000 2 200 18:21 21.05.2022
3563 Clear 6 1008 70 10000 2 150 16:55 21.05.2022
3564 Clouds 8 1008 65 10000 1.79 240 14:38 21.05.2022
3565 Clouds 10 1008 53 10000 3.13 150 13:54 21.05.2022
3566 Clouds 14 1008 38 10000 1 90 13:18 21.05.2022
3567 Clouds 15 1007 33 10000 2 130 12:38 21.05.2022
3568 Clouds 15 1007 38 10000 3 110 10:53 21.05.2022
3569 Clouds 15 1007 36 10000 4 90 09:53 21.05.2022
3570 Clouds 15 1007 38 10000 1 220 08:58 21.05.2022
3571 Clouds 15 1007 44 10000 4 300 08:35 21.05.2022
3572 Clouds 6 1010 87 10000 3.21 9 05:29 21.05.2022
3573 Clear 6 1007 81 10000 1 110 01:24 21.05.2022
3574 Clear 1 1007 86 10000 2 10 23:29 20.05.2022
3575 Clear 0 1007 93 10000 1 340 22:26 20.05.2022
3576 Clear 0 1006 93 10000 2 320 21:55 20.05.2022
3577 Clear 0 1006 93 10000 2 330 21:18 20.05.2022
3578 Clear 0 1006 93 10000 2 320 20:44 20.05.2022
3579 Clear 1 1006 86 10000 2 320 19:45 20.05.2022
3580 Clear 4 998 73 10000 1 10 18:48 20.05.2022
3581 Clear 6 998 67 10000 2 340 17:47 20.05.2022
3582 Clear 6 1005 75 10000 2 40 16:22 20.05.2022
3583 Clear 6 1004 70 10000 2 50 15:53 20.05.2022
3584 Clouds 9 1004 57 10000 4.02 10 14:32 20.05.2022
3585 Clouds 10 1004 53 10000 5 20 13:56 20.05.2022
3586 Clouds 12 1003 46 10000 3.13 60 11:51 20.05.2022
3587 Clouds 14 1002 41 10000 6 30 10:30 20.05.2022
3588 Clouds 14 994 37 10000 6 70 08:58 20.05.2022
3589 Clouds 13 1001 47 10000 5 90 07:42 20.05.2022
3590 Clouds 14 1000 38 10000 4 100 06:39 20.05.2022
3591 Clouds 13 1000 41 10000 7 50 05:39 20.05.2022
3592 Clear 10 993 52 10000 4.02 20 01:18 20.05.2022
3593 Clear 6 999 70 10000 5 20 23:28 19.05.2022
3594 Clear 5 992 67 10000 4.02 10 22:33 19.05.2022
3595 Clear 5 992 69 10000 3.13 10 21:49 19.05.2022
3596 Clear 4 999 80 10000 4.02 360 21:23 19.05.2022
3597 Clear 4 999 80 10000 4 10 20:43 19.05.2022
3598 Clear 5 999 75 10000 3.13 10 19:54 19.05.2022
3599 Clear 6 999 65 10000 3.13 40 18:58 19.05.2022
3600 Clear 8 999 56 10000 2 120 17:35 19.05.2022
3601 Clouds 10 1000 46 10000 3 130 15:34 19.05.2022
3602 Clouds 11 993 43 10000 4.02 130 14:35 19.05.2022
3603 Clouds 11 1000 46 10000 3.13 100 13:59 19.05.2022
3604 Clouds 13 993 37 10000 5 110 11:52 19.05.2022
3605 Clouds 14 1000 35 10000 2 110 10:30 19.05.2022
3606 Clouds 14 1001 33 10000 4.02 160 08:33 19.05.2022
3607 Clouds 15 1001 26 10000 2 120 06:57 19.05.2022
3608 Clear 12 1004 40 10000 2 80 03:26 19.05.2022
3609 Clear 7 1005 56 10000 1 20 00:56 19.05.2022
3610 Clear 6 1005 60 10000 2 20 23:21 18.05.2022
3611 Clear 5 999 59 10000 1.79 350 22:41 18.05.2022
3612 Clear 3 1006 69 10000 2 330 21:33 18.05.2022
3613 Clear 4 999 61 10000 2 30 20:55 18.05.2022
3614 Clear 3 1006 69 10000 2 320 20:19 18.05.2022
3615 Clouds 5 1006 65 10000 2 10 18:47 18.05.2022
3616 Clouds 5 1006 65 10000 2 350 17:42 18.05.2022
3617 Clouds 7 999 52 10000 2 360 17:23 18.05.2022
3618 Clouds 6 1006 60 10000 2 350 16:52 18.05.2022
3619 Clouds 6 1006 60 10000 1 80 15:43 18.05.2022
3620 Clouds 7 1006 56 10000 1 80 15:19 18.05.2022
3621 Clouds 11 1005 40 10000 1 360 13:53 18.05.2022
3622 Clouds 11 998 33 10000 2 80 12:53 18.05.2022
3623 Clouds 12 1005 34 10000 3.13 280 11:47 18.05.2022
3624 Clouds 11 1005 40 10000 1 100 11:29 18.05.2022
3625 Clouds 12 1005 37 10000 2 110 10:36 18.05.2022
3626 Clouds 12 1004 37 10000 2 60 07:56 18.05.2022
3627 Clouds 12 1004 40 10000 3.13 60 06:52 18.05.2022
3628 Clear 9 1004 57 10000 3.13 80 02:47 18.05.2022
3629 Clear 6 1004 75 10000 1 90 00:41 18.05.2022
3630 Clouds 3 1004 86 10000 2 70 22:59 17.05.2022
3631 Clouds 2 1003 93 10000 1 70 21:21 17.05.2022
3632 Clouds 2 1003 93 10000 1 70 21:21 17.05.2022
3633 Clouds 2 1003 100 10000 1.79 80 20:38 17.05.2022
3634 Clouds 3 1004 93 10000 1 50 19:29 17.05.2022
3635 Clouds 4 1003 93 10000 0 0 18:22 17.05.2022
3636 Clouds 4 1003 87 10000 0 0 17:28 17.05.2022
3637 Clouds 4 1003 87 10000 1 110 16:36 17.05.2022
3638 Clouds 5 1003 81 10000 1 110 15:45 17.05.2022
3639 Clouds 5 1003 81 10000 1 130 14:48 17.05.2022
3640 Clouds 6 1003 75 10000 1 140 14:23 17.05.2022
3641 Clouds 7 1003 70 10000 1 180 12:36 17.05.2022
3642 Clouds 7 995 63 10000 4.02 140 10:23 17.05.2022
3643 Clouds 8 1002 65 10000 2 110 08:45 17.05.2022
3644 Clouds 9 1002 61 10000 3 120 07:41 17.05.2022
3645 Clouds 6 1002 75 10000 3.13 120 05:58 17.05.2022
3646 Rain 3 1001 93 10000 3.13 350 00:47 17.05.2022
3647 Rain 3 1000 80 10000 3.13 320 22:51 16.05.2022
3648 Clouds 3 993 70 10000 4.02 320 22:30 16.05.2022
3649 Clouds 3 1000 80 10000 3.13 330 20:56 16.05.2022
3650 Clouds 3 1000 86 10000 1 320 20:25 16.05.2022
3651 Clouds 4 1000 86 10000 1.79 30 18:39 16.05.2022
3652 Clouds 6 1000 81 10000 2 330 16:41 16.05.2022
3653 Clouds 8 999 66 10000 4 330 14:48 16.05.2022
3654 Clouds 9 999 43 10000 1 240 13:27 16.05.2022
3655 Clouds 10 998 39 10000 1 40 11:42 16.05.2022
3656 Clouds 10 998 39 10000 2 70 10:34 16.05.2022
3657 Clouds 8 998 61 10000 2 100 07:47 16.05.2022
3658 Clouds 5 997 75 10000 2 100 05:40 16.05.2022
3659 Snow 2 990 61 5000 5 10 00:35 16.05.2022
3660 Snow 2 998 55 10000 4.02 350 22:39 15.05.2022
3661 Clouds 2 998 51 10000 4.02 20 21:54 15.05.2022
3662 Clear 2 998 51 10000 5 350 21:34 15.05.2022
3663 Clear 2 999 51 10000 5 360 20:35 15.05.2022
3664 Clear 2 993 46 10000 5 350 18:37 15.05.2022
3665 Clear 3 1001 51 10000 6 350 16:52 15.05.2022
3666 Clear 3 1005 55 10000 5 330 14:26 15.05.2022
3667 Clear 4 1005 48 10000 5 340 13:44 15.05.2022
3668 Clear 6 1007 38 10000 6 320 11:55 15.05.2022
3669 Clear 6 1001 30 10000 5 320 10:43 15.05.2022
3670 Clear 7 1002 29 10000 4.02 350 08:58 15.05.2022
3671 Clear 6 1010 33 10000 5 20 07:22 15.05.2022
3672 Clear 7 1004 26 10000 3.13 10 06:42 15.05.2022
3673 Clear 4 1005 36 10000 2 310 02:38 15.05.2022
3674 Clear 0 1013 54 10000 2 270 00:22 15.05.2022
3675 Clear 0 1006 47 10000 2 290 23:35 14.05.2022
3676 Clear -2 1005 52 10000 5 300 21:45 14.05.2022
3677 Clear -2 1012 58 10000 3.13 320 21:25 14.05.2022
3678 Clear -2 1011 58 10000 4.02 320 20:25 14.05.2022
3679 Clear -1 1011 54 10000 5 310 19:20 14.05.2022
3680 Clear -1 1011 54 10000 3.13 320 18:57 14.05.2022
3681 Clear -1 1011 54 10000 2 300 17:44 14.05.2022
3682 Clear 0 1011 54 10000 2 300 15:58 14.05.2022
3683 Clear 2 1010 47 10000 4 320 14:38 14.05.2022
3684 Clear 4 1009 41 10000 7.15 320 13:27 14.05.2022
3685 Clear 6 1008 35 10000 9 330 11:45 14.05.2022
3686 Clear 7 1007 33 10000 9 310 10:43 14.05.2022
3687 Clear 7 1007 33 10000 9 310 10:18 14.05.2022
3688 Clear 9 1006 29 10000 8.05 310 09:23 14.05.2022
3689 Clear 9 1005 29 10000 9 310 07:26 14.05.2022
3690 Clear 9 1004 37 10000 8 360 04:32 14.05.2022
3691 Clear 2 1004 55 10000 5 340 00:27 14.05.2022
3692 Clouds 1 1004 69 10000 3.13 340 23:25 13.05.2022
3693 Clouds 1 1004 69 10000 3.13 340 23:25 13.05.2022
3694 Clouds 0 1004 80 10000 4.02 320 22:54 13.05.2022
3695 Clouds 1 1004 74 10000 5 320 22:21 13.05.2022
3696 Clouds 2 1005 80 10000 3.13 320 20:58 13.05.2022
3697 Clouds 2 1005 86 10000 3.13 320 20:37 13.05.2022
3698 Clouds 2 1005 86 10000 3.13 320 20:19 13.05.2022
3699 Rain 2 1006 93 10000 4.02 340 18:56 13.05.2022
3700 Clouds 6 1006 81 10000 5 330 17:30 13.05.2022
3701 Clouds 7 1006 76 10000 4 360 16:29 13.05.2022
3702 Clouds 7 1006 70 10000 4 360 15:45 13.05.2022
3703 Clouds 9 1006 71 10000 6 350 14:38 13.05.2022
3704 Clouds 12 1005 58 10000 7 340 12:51 13.05.2022
3705 Clear 16 1005 20 10000 2 150 11:39 13.05.2022
3706 Clear 17 1005 19 10000 3 160 09:54 13.05.2022
3707 Clear 16 1006 18 10000 2 150 09:26 13.05.2022
3708 Clear 16 1007 20 10000 4 130 07:51 13.05.2022
3709 Clear 16 1008 20 10000 3 120 06:50 13.05.2022
3710 Clear 15 1010 21 10000 2 120 04:54 13.05.2022
3711 Clear 6 1013 45 10000 0 0 00:57 13.05.2022
3712 Clear 1 1014 60 10000 1 20 22:49 12.05.2022
3713 Clear 0 1014 63 10000 1 340 22:30 12.05.2022
3714 Clear -2 1015 69 10000 1 340 20:49 12.05.2022
3715 Clear -1 1015 63 10000 1 330 19:49 12.05.2022
3716 Clear 1 1015 59 10000 2 340 18:25 12.05.2022
3717 Clear 3 1016 55 10000 1 300 16:44 12.05.2022
3718 Clear 7 1016 49 10000 1 310 14:57 12.05.2022
3719 Clear 10 1016 40 10000 1 110 13:48 12.05.2022
3720 Clear 15 1017 21 10000 1 210 11:48 12.05.2022
3721 Clear 15 1017 21 10000 2 230 10:32 12.05.2022
3722 Clear 14 1018 21 10000 1 160 08:53 12.05.2022
3723 Clear 14 1018 23 10000 2 220 07:59 12.05.2022
3724 Clear 13 1019 24 10000 2 240 07:22 12.05.2022
3725 Clear 10 1021 25 10000 4 170 04:32 12.05.2022
3726 Clear 4 1022 48 10000 2 170 01:29 12.05.2022
3727 Clear 1 1022 50 10000 1 210 23:18 11.05.2022
3728 Clear -1 1022 74 10000 1 240 22:18 11.05.2022
3729 Clear -4 1021 80 10000 2 230 21:25 11.05.2022
3730 Clear -4 1021 86 10000 1 260 20:20 11.05.2022
3731 Clear -1 1021 68 10000 1 290 17:37 11.05.2022
3732 Clear 0 1020 69 10000 2 280 16:27 11.05.2022
3733 Clear 1 1020 64 10000 0 0 14:48 11.05.2022
3734 Clear 3 1020 48 10000 0 0 14:25 11.05.2022
3735 Clear 7 1019 36 10000 3 320 12:54 11.05.2022
3736 Clear 8 1018 27 10000 3 300 11:48 11.05.2022
3737 Clear 8 1017 24 10000 4.02 310 09:29 11.05.2022
3738 Clear 6 1016 26 10000 4.02 310 06:30 11.05.2022
3739 Clear 2 1015 37 10000 4.02 300 02:18 11.05.2022
3740 Clear -4 1013 58 10000 5 310 22:58 10.05.2022
3741 Clear -4 1012 58 10000 4.02 330 22:29 10.05.2022
3742 Clear -5 1012 62 10000 3.13 330 21:40 10.05.2022
3743 Clear -4 1012 58 10000 3.13 320 20:34 10.05.2022
3744 Clear -4 1012 58 10000 4.02 330 18:49 10.05.2022
3745 Clear -3 1012 53 10000 5 320 17:38 10.05.2022
3746 Clear -3 1013 58 10000 4.02 330 16:24 10.05.2022
3747 Clear 1 1012 47 10000 7.15 320 13:31 10.05.2022
3748 Clear 3 1011 41 10000 6 320 11:54 10.05.2022
3749 Clear 4 1011 38 10000 5 330 11:32 10.05.2022
3750 Clear 4 1011 38 10000 6 320 10:56 10.05.2022
3751 Clear 4 1011 38 10000 5 360 09:47 10.05.2022
3752 Clear 4 1011 38 10000 6 340 08:18 10.05.2022
3753 Clear 3 1012 40 10000 4.02 320 06:20 10.05.2022
3754 Clouds 0 1013 50 10000 3.13 340 01:54 10.05.2022
3755 Clouds -2 1014 54 10000 4.02 320 23:53 09.05.2022
3756 Clear -3 1014 63 10000 2 320 22:36 09.05.2022
3757 Clear -3 1014 63 10000 2 310 21:39 09.05.2022
3758 Clouds -3 1014 63 10000 3.13 340 20:20 09.05.2022
3759 Clouds -1 1013 63 10000 5 350 18:25 09.05.2022
3760 Clouds -1 1013 68 10000 5 320 17:26 09.05.2022
3761 Clouds 0 1012 74 10000 4.92 330 16:19 09.05.2022
3762 Clouds 0 1012 74 10000 5 330 15:47 09.05.2022
3763 Clear 1 1011 69 10000 5 330 14:36 09.05.2022
3764 Clear 2 1010 69 10000 5 330 13:58 09.05.2022
3765 Clear 4 1009 69 10000 6 330 13:22 09.05.2022
3766 Clear 7 1007 42 10000 5 300 11:53 09.05.2022
3767 Clear 7 1007 42 10000 6 300 10:48 09.05.2022
3768 Clear 7 1007 42 10000 6 280 10:23 09.05.2022
3769 Clear 8 1004 36 10000 7.15 270 07:57 09.05.2022
3770 Clear 9 1003 36 10000 6 290 05:53 09.05.2022
3771 Clouds 4 1001 86 10000 4.02 300 00:59 09.05.2022
3772 Rain 4 1000 93 10000 5 270 23:28 08.05.2022
3773 Rain 4 1000 93 10000 3.13 250 22:32 08.05.2022
3774 Clouds 3 999 100 10000 3 170 21:20 08.05.2022
3775 Rain 4 999 93 10000 1 130 20:25 08.05.2022
3776 Rain 5 1000 93 10000 1 30 19:33 08.05.2022
3777 Rain 5 1000 93 10000 4 320 18:38 08.05.2022
3778 Clouds 7 999 76 10000 5 320 17:39 08.05.2022
3779 Clouds 8 999 61 10000 4 330 16:22 08.05.2022
3780 Clouds 7 999 65 10000 0 0 15:22 08.05.2022
3781 Clouds 11 999 50 10000 2 220 12:49 08.05.2022
3782 Clouds 11 999 50 10000 2 190 11:45 08.05.2022
3783 Clouds 14 998 33 10000 10 230 10:25 08.05.2022
3784 Clear 14 998 28 10000 4 190 09:53 08.05.2022
3785 Clear 15 999 25 10000 6 190 07:44 08.05.2022
3786 Clear 15 1000 26 10000 6 170 05:57 08.05.2022
3787 Clear 11 1003 40 10000 5 150 03:22 08.05.2022
3788 Clear 4 1006 60 10000 2 130 00:48 08.05.2022
3789 Clouds 2 1007 69 10000 2 200 23:56 07.05.2022
3790 Clouds 1 1007 74 10000 1 150 23:28 07.05.2022
3791 Clouds 0 1008 80 10000 0 0 22:35 07.05.2022
3792 Clouds 0 1008 80 10000 1 150 21:56 07.05.2022
3793 Clouds -1 1008 86 10000 1 150 21:21 07.05.2022
3794 Clear -1 1008 80 10000 2 280 20:23 07.05.2022
3795 Clear 0 1008 74 10000 2 60 18:41 07.05.2022
3796 Clear 3 1008 59 10000 2 330 16:34 07.05.2022
3797 Clear 5 1008 56 10000 1 310 14:53 07.05.2022
3798 Clear 11 1007 35 10000 9 310 11:23 07.05.2022
3799 Clear 12 1006 35 10000 7 330 09:42 07.05.2022
3800 Clear 12 1006 35 10000 8 310 08:30 07.05.2022
3801 Clear 11 1006 43 10000 6 270 07:20 07.05.2022
3802 Clear 10 1007 43 10000 6 270 06:42 07.05.2022
3803 Clear 9 1009 40 10000 5 250 03:57 07.05.2022
3804 Clear 1 1011 64 10000 1 170 23:44 06.05.2022
3805 Clear -3 1011 79 10000 0 0 22:35 06.05.2022
3806 Clear -4 1011 79 10000 1 160 21:52 06.05.2022
3807 Clear -4 1011 73 10000 1 320 21:24 06.05.2022
3808 Clear -4 1011 79 10000 1 310 19:43 06.05.2022
3809 Clear -4 1011 79 10000 1 310 19:21 06.05.2022
3810 Clear -2 1011 63 10000 2 300 18:29 06.05.2022
3811 Clear -2 1011 63 10000 2 300 17:34 06.05.2022
3812 Clear 0 1010 54 10000 2 310 15:51 06.05.2022
3813 Clear 1 1010 50 10000 2 290 15:18 06.05.2022
3814 Clear 5 1010 38 10000 2 340 13:45 06.05.2022
3815 Clear 7 1009 33 10000 2 280 12:47 06.05.2022
3816 Clouds 7 1009 33 10000 3 340 11:58 06.05.2022
3817 Clouds 7 1009 33 10000 3 330 10:41 06.05.2022
3818 Clouds 7 1009 30 10000 4.02 310 09:47 06.05.2022
3819 Clouds 7 1009 28 10000 5 300 09:18 06.05.2022
3820 Clear 8 1008 26 10000 5 300 07:40 06.05.2022
3821 Clear 7 1009 28 10000 6 270 06:25 06.05.2022
3822 Clear 6 1009 28 10000 6 300 02:58 06.05.2022
3823 Clear 5 1009 33 10000 5 300 01:58 06.05.2022
3824 Clear 0 1008 46 10000 5 300 22:50 05.05.2022
3825 Clear 0 1007 51 10000 5 300 21:46 05.05.2022
3826 Clear 1 1007 47 10000 5 300 20:34 05.05.2022
3827 Clear 1 1006 47 10000 4 300 18:54 05.05.2022
3828 Clear 3 1005 60 10000 4 310 16:40 05.05.2022
3829 Clear 3 1004 65 10000 2 300 14:59 05.05.2022
3830 Clear 6 1003 52 10000 4 290 13:29 05.05.2022
3831 Clear 6 1003 49 10000 5 290 12:55 05.05.2022
3832 Clouds 7 1001 42 10000 6 340 10:59 05.05.2022
3833 Clear 7 1001 45 10000 7 340 09:40 05.05.2022
3834 Clouds 5 1000 80 10000 5 340 08:34 05.05.2022
3835 Clouds 5 1000 86 10000 5 330 06:23 05.05.2022
3836 Clouds 5 998 70 10000 6 350 02:23 05.05.2022
3837 Clouds 5 998 70 10000 6 360 01:37 05.05.2022
3838 Clouds 2 999 74 10000 3.13 30 23:57 04.05.2022
3839 Clouds 1 999 80 10000 2 350 22:57 04.05.2022
3840 Clouds 1 999 74 10000 3.13 330 21:59 04.05.2022
3841 Clouds 1 1000 74 10000 3.13 360 21:34 04.05.2022
3842 Clouds 1 1000 80 10000 2 360 20:42 04.05.2022
3843 Clouds 2 1000 69 10000 2 20 19:59 04.05.2022
3844 Clouds 1 1000 74 10000 2 340 19:35 04.05.2022
3845 Clouds 1 1001 74 10000 1 360 18:23 04.05.2022
3846 Clouds 2 1001 69 10000 2 360 17:59 04.05.2022
3847 Clouds 2 1001 74 10000 2 350 16:36 04.05.2022
3848 Clouds 2 1002 69 10000 2 40 15:32 04.05.2022
3849 Clouds 3 1002 65 10000 2 90 14:38 04.05.2022
3850 Clouds 3 1002 65 10000 1 100 14:19 04.05.2022
3851 Clouds 6 1002 52 10000 1 150 12:36 04.05.2022
3852 Clouds 7 1001 45 10000 3 200 11:28 04.05.2022
3853 Clouds 7 1001 48 10000 4.02 180 09:50 04.05.2022
3854 Clouds 8 1001 46 10000 4 170 09:20 04.05.2022
3855 Clouds 8 1001 36 10000 4 210 07:33 04.05.2022
3856 Clouds 6 1002 52 10000 5 150 04:34 04.05.2022
3857 Clear 2 1003 74 10000 2 80 02:33 04.05.2022
3858 Clear -4 1005 79 10000 2 350 22:59 03.05.2022
3859 Clear -5 1005 79 10000 2 360 21:47 03.05.2022
3860 Clear -5 1005 79 10000 1 10 21:23 03.05.2022
3861 Clear -5 1006 85 10000 2 10 20:39 03.05.2022
3862 Clear -4 1006 73 10000 3.13 10 19:21 03.05.2022
3863 Clear -4 1006 73 10000 1 20 18:42 03.05.2022
3864 Clear -4 1007 73 10000 2 10 17:20 03.05.2022
3865 Clear -2 1008 64 10000 2 20 15:51 03.05.2022
3866 Clear 0 1008 51 10000 2 40 14:23 03.05.2022
3867 Clear 3 1008 38 10000 2 110 12:35 03.05.2022
3868 Clear 4 1008 32 10000 3.13 100 11:24 03.05.2022
3869 Clear 4 1008 38 10000 2 310 10:26 03.05.2022
3870 Clear 3 1008 44 10000 2 240 08:19 03.05.2022
3871 Clear 2 1008 43 10000 2 170 06:45 03.05.2022
3872 Clouds -2 1008 54 10000 3.13 260 01:59 03.05.2022
3873 Clouds -4 1007 73 10000 6 250 22:56 02.05.2022
3874 Clouds -4 1007 73 10000 5 240 22:28 02.05.2022
3875 Clouds -3 1007 68 10000 4 230 21:27 02.05.2022
3876 Clouds -4 1006 73 10000 4.02 230 19:26 02.05.2022
3877 Snow -4 1006 73 10000 4.02 230 18:26 02.05.2022
3878 Snow -4 1006 73 10000 4.02 230 17:39 02.05.2022
3879 Clouds -4 1006 68 10000 5 250 16:42 02.05.2022
3880 Clouds -3 1006 63 10000 6 260 15:41 02.05.2022
3881 Clouds -3 1005 58 10000 6 260 14:27 02.05.2022
3882 Clouds -2 1004 58 10000 7.15 260 13:19 02.05.2022
3883 Clouds -2 1003 58 10000 7.15 260 11:41 02.05.2022
3884 Clouds -1 1001 63 10000 9 260 09:42 02.05.2022
3885 Clouds -1 999 80 10000 7.15 240 08:20 02.05.2022
3886 Rain 4 996 80 10000 6 200 06:31 02.05.2022
3887 Clear 6 996 35 10000 4.02 160 00:44 02.05.2022
3888 Clear 5 996 38 10000 3.13 160 00:21 02.05.2022
3889 Clear 2 998 47 10000 4.02 150 22:54 01.05.2022
3890 Clear 1 999 50 10000 2 170 21:42 01.05.2022
3891 Clear 0 1000 54 10000 2 170 20:30 01.05.2022
3892 Clear 0 1001 59 10000 2 190 19:21 01.05.2022
3893 Clear 0 1002 59 10000 0 0 18:52 01.05.2022
3894 Clear 1 1003 50 10000 2 260 17:49 01.05.2022
3895 Clear 3 1004 48 10000 3 160 16:29 01.05.2022
3896 Clear 4 1004 45 10000 3 160 15:51 01.05.2022
3897 Clear 4 1005 41 10000 2 160 14:45 01.05.2022
3898 Clear 10 1006 23 10000 4 190 12:24 01.05.2022
3899 Clear 11 1007 22 10000 4 190 10:22 01.05.2022
3900 Clear 11 1008 22 10000 6 200 08:49 01.05.2022
3901 Clear 11 1010 22 10000 4 190 06:31 01.05.2022
3902 Clear 4 1012 41 10000 3.13 200 01:56 01.05.2022
3903 Clear -4 1013 68 10000 1 210 22:18 30.04.2022
3904 Clear -6 1014 92 10000 0 0 21:32 30.04.2022
3905 Clear -5 1014 85 10000 0 0 19:54 30.04.2022
3906 Clear -5 1014 85 10000 0 0 19:24 30.04.2022
3907 Clear -3 1014 68 10000 2 340 17:31 30.04.2022
3908 Clear -2 1015 64 10000 0 0 15:51 30.04.2022
3909 Clear -2 1015 64 10000 0 0 15:51 30.04.2022
3910 Clear -2 1015 58 10000 0 0 15:18 30.04.2022
3911 Clear 3 1015 38 10000 1 130 13:52 30.04.2022
3912 Clear 7 1016 24 10000 2 170 11:48 30.04.2022
3913 Clear 6 1016 28 10000 2 170 11:26 30.04.2022
3914 Clear 7 1016 26 10000 1 220 09:57 30.04.2022
3915 Clear 7 1017 24 10000 3 140 07:47 30.04.2022
3916 Clear 6 1019 31 10000 3 150 04:25 30.04.2022
3917 Clear -5 1020 67 10000 1 160 23:57 29.04.2022
3918 Clear -7 1020 67 10000 2 310 22:51 29.04.2022
3919 Clear -7 1020 67 10000 2 320 21:56 29.04.2022
3920 Clear -7 1020 73 10000 2 310 21:25 29.04.2022
3921 Clear -7 1020 73 10000 2 320 20:18 29.04.2022
3922 Clear -6 1021 73 10000 1 310 19:27 29.04.2022
3923 Clear -4 1021 68 10000 1 310 17:34 29.04.2022
3924 Clear -4 1021 68 10000 1 20 16:36 29.04.2022
3925 Clear -2 1021 59 10000 0 0 14:36 29.04.2022
3926 Clear 2 1021 44 10000 1 80 13:36 29.04.2022
3927 Clear 3 1021 44 10000 1 60 12:36 29.04.2022
3928 Clear 5 1021 35 10000 2 60 10:32 29.04.2022
3929 Clear 5 1021 27 10000 3.13 20 07:55 29.04.2022
3930 Clear 5 1021 30 10000 4.02 360 07:25 29.04.2022
3931 Clear 4 1021 41 10000 3.13 30 06:30 29.04.2022
3932 Clear 1 1022 40 10000 3.13 340 01:47 29.04.2022
3933 Clear -3 1021 53 10000 3.13 330 23:58 28.04.2022
3934 Clear -4 1021 58 10000 4 320 23:25 28.04.2022
3935 Clear -5 1021 58 10000 3 340 22:24 28.04.2022
3936 Clear -5 1021 58 10000 3 340 21:41 28.04.2022
3937 Clear -5 1020 63 10000 3 320 20:45 28.04.2022
3938 Clear -4 1020 58 10000 2 340 19:52 28.04.2022
3939 Clear -3 1020 59 10000 4 320 19:24 28.04.2022
3940 Clear -3 1020 59 10000 4 320 18:52 28.04.2022
3941 Clear -3 1019 63 10000 4 310 17:54 28.04.2022
3942 Clear -3 1019 63 10000 3 320 16:52 28.04.2022
3943 Clear -2 1019 59 10000 3 310 16:20 28.04.2022
3944 Clouds -2 1019 59 10000 2 330 15:48 28.04.2022
3945 Clouds -1 1019 55 10000 3 310 14:58 28.04.2022
3946 Clouds 0 1019 51 10000 2 360 13:37 28.04.2022
3947 Clouds 2 1018 44 10000 4 310 12:29 28.04.2022
3948 Clouds 3 1017 34 10000 5 320 11:37 28.04.2022
3949 Clouds 3 1017 32 10000 6 320 10:26 28.04.2022
3950 Clouds 3 1017 32 10000 5 330 09:50 28.04.2022
3951 Clear 3 1016 34 10000 6 330 07:41 28.04.2022
3952 Clear 4 1015 33 10000 6 330 06:43 28.04.2022
3953 Clear 3 1015 32 10000 4.02 300 05:52 28.04.2022
3954 Clear 3 1015 34 10000 5 300 04:43 28.04.2022
3955 Clouds 0 1014 51 10000 5 310 01:53 28.04.2022
3956 Clear -4 1014 63 10000 5 330 23:32 27.04.2022
3957 Clear -4 1013 63 10000 5 330 22:20 27.04.2022
3958 Clear -4 1013 63 10000 4 330 21:43 27.04.2022
3959 Clear -3 1013 59 10000 5 320 20:45 27.04.2022
3960 Clear -2 1013 54 10000 5 330 19:55 27.04.2022
3961 Clear -3 1012 59 10000 5 320 19:34 27.04.2022
3962 Clear -3 1012 59 10000 5 330 18:41 27.04.2022
3963 Clear -3 1013 59 10000 4 320 18:20 27.04.2022
3964 Clear -1 1013 55 10000 4 320 16:18 27.04.2022
3965 Clear 1 1013 44 10000 2 300 13:18 27.04.2022
3966 Clouds 2 1013 34 10000 2 320 11:26 27.04.2022
3967 Clouds 1 1013 34 10000 2 350 10:50 27.04.2022
3968 Clouds 1 1012 40 10000 2 330 08:28 27.04.2022
3969 Clear 1 1012 40 10000 1 340 06:42 27.04.2022
3970 Clear -1 1013 42 10000 4.02 320 02:35 27.04.2022
3971 Clear -2 1013 42 10000 3.13 330 01:23 27.04.2022
3972 Clear -4 1013 53 10000 4.02 310 00:27 27.04.2022
3973 Clear -6 1013 58 10000 4 320 23:24 26.04.2022
3974 Clear -7 1013 62 10000 3.13 320 22:51 26.04.2022
3975 Clear -7 1013 63 10000 3 310 22:31 26.04.2022
3976 Clear -6 1013 63 10000 3 320 21:24 26.04.2022
3977 Clear -6 1013 63 10000 3 320 20:38 26.04.2022
3978 Clear -6 1013 68 10000 3 320 19:45 26.04.2022
3979 Clear -6 1013 68 10000 3 320 19:26 26.04.2022
3980 Clear -6 1013 68 10000 3 330 18:39 26.04.2022
3981 Clear -4 1013 63 10000 3 350 17:41 26.04.2022
3982 Clear -3 1013 59 10000 2 360 15:41 26.04.2022
3983 Clear -2 1013 59 10000 2 30 13:55 26.04.2022
3984 Clear -1 1013 51 10000 2 60 13:28 26.04.2022
3985 Clear 3 1013 35 10000 4 340 11:24 26.04.2022
3986 Clear 3 1013 34 10000 3.13 350 10:30 26.04.2022
3987 Clear 3 1013 34 10000 5 300 08:34 26.04.2022
3988 Clear 1 1014 37 10000 3.13 320 05:29 26.04.2022
3989 Clear 0 1014 36 10000 5 300 04:22 26.04.2022
3990 Clear -2 1015 46 10000 4.02 310 00:51 26.04.2022
3991 Clear -5 1014 53 10000 3.13 320 23:51 25.04.2022
3992 Clear -7 1014 63 10000 3 330 21:57 25.04.2022
3993 Clear -7 1014 63 10000 3 320 21:26 25.04.2022
3994 Clear -6 1014 63 10000 3 330 19:58 25.04.2022
3995 Clear -5 1014 58 10000 3 320 18:48 25.04.2022
3996 Clear -4 1014 58 10000 3 320 17:40 25.04.2022
3997 Clear -4 1014 58 10000 3 310 16:44 25.04.2022
3998 Clear -2 1013 50 10000 3 320 15:23 25.04.2022
3999 Clear -1 1013 47 10000 3 310 14:34 25.04.2022
4000 Clear 1 1012 44 10000 4 350 12:49 25.04.2022
4001 Clouds 4 1011 30 10000 3 320 10:44 25.04.2022
4002 Clouds 4 1011 35 10000 4.02 300 09:42 25.04.2022
4003 Clouds 4 1011 35 10000 4 280 07:49 25.04.2022
4004 Clear 3 1010 40 10000 3.13 310 05:55 25.04.2022
4005 Clouds -1 1010 54 10000 4.02 350 01:30 25.04.2022
4006 Clouds -4 1009 68 10000 3.13 330 23:56 24.04.2022
4007 Clouds -4 1009 68 10000 3.13 330 23:25 24.04.2022
4008 Clear -4 1009 73 10000 3.13 330 22:39 24.04.2022
4009 Clear -4 1008 68 10000 4.02 330 21:56 24.04.2022
4010 Clear -5 1008 79 10000 3.13 330 21:22 24.04.2022
4011 Clear -5 1008 79 10000 3.13 330 20:46 24.04.2022
4012 Clear -5 1008 79 10000 3.13 320 20:21 24.04.2022
4013 Clear -5 1007 85 10000 2 330 18:44 24.04.2022
4014 Clear -4 1007 92 10000 3.13 320 17:54 24.04.2022
4015 Clouds -3 1007 86 10000 4.02 330 17:21 24.04.2022
4016 Clouds -2 1007 86 10000 3 300 16:55 24.04.2022
4017 Clouds -2 1007 86 10000 2 300 16:29 24.04.2022
4018 Clouds -3 1007 93 10000 1 250 15:43 24.04.2022
4019 Clouds -2 1007 93 10000 2 40 14:36 24.04.2022
4020 Clouds -1 1007 86 10000 2 300 13:27 24.04.2022
4021 Clouds 0 1006 80 10000 3 280 12:56 24.04.2022
4022 Clouds 1 1006 69 10000 2 310 11:50 24.04.2022
4023 Clouds 1 1006 74 10000 1 90 10:47 24.04.2022
4024 Clouds 3 1006 59 10000 4.02 120 09:47 24.04.2022
4025 Clouds 4 1005 48 10000 3 90 07:55 24.04.2022
4026 Clouds 2 1005 51 10000 2 20 05:45 24.04.2022
4027 Clouds -1 1006 74 10000 1 80 02:30 24.04.2022
4028 Clear -3 1006 79 10000 1 320 00:45 24.04.2022
4029 Clear -5 1006 92 10000 2 300 23:52 23.04.2022
4030 Clear -7 1006 92 10000 2 310 23:25 23.04.2022
4031 Clear -7 1006 92 10000 2 310 23:25 23.04.2022
4032 Clear -7 1006 92 10000 1 350 21:59 23.04.2022
4033 Clear -7 1006 92 10000 2 330 21:38 23.04.2022
4034 Clear -6 1006 85 10000 3.13 320 20:59 23.04.2022
4035 Clear -6 1006 92 10000 2 300 19:56 23.04.2022
4036 Clear -5 1006 85 10000 2 310 19:20 23.04.2022
4037 Clear -4 1006 85 10000 2 300 18:54 23.04.2022
4038 Clear -4 1006 85 10000 2 310 18:31 23.04.2022
4039 Clear -3 1006 86 10000 2 310 17:44 23.04.2022
4040 Clouds -3 1006 92 10000 1 120 16:45 23.04.2022
4041 Clouds -1 1006 80 10000 1 350 15:43 23.04.2022
4042 Clouds -1 1006 86 10000 2 160 13:24 23.04.2022
4043 Clouds 0 1006 74 10000 2 60 11:29 23.04.2022
4044 Clouds 1 1005 69 10000 4 280 09:39 23.04.2022
4045 Snow 0 1006 86 3200 3.13 290 07:52 23.04.2022
4046 Clouds 1 1006 55 10000 1 110 03:57 23.04.2022
4047 Clouds -2 1006 63 10000 1 120 02:34 23.04.2022
4048 Clouds -5 1006 79 10000 2 340 23:34 22.04.2022
4049 Clouds -5 1006 79 10000 3 320 22:40 22.04.2022
4050 Clouds -6 1006 85 10000 1 350 21:55 22.04.2022
4051 Clouds -6 1006 85 10000 1 350 21:55 22.04.2022
4052 Clear -6 1006 79 10000 2 330 21:37 22.04.2022
4053 Clear -6 1006 79 10000 2 320 20:29 22.04.2022
4054 Clear -6 1006 79 10000 2 320 19:23 22.04.2022
4055 Clear -6 1006 79 10000 2 320 18:53 22.04.2022
4056 Clear -6 1006 79 10000 2 320 18:20 22.04.2022
4057 Clear -5 1006 79 10000 2 320 16:53 22.04.2022
4058 Clear -4 1006 79 10000 1 10 15:57 22.04.2022
4059 Clear -4 1006 79 10000 1 340 15:23 22.04.2022
4060 Clear -2 1006 69 10000 2 360 14:37 22.04.2022
4061 Clouds 0 1006 55 10000 1 30 13:41 22.04.2022
4062 Clouds 1 1005 55 10000 1 50 12:35 22.04.2022
4063 Clouds 2 1005 47 10000 2 350 11:23 22.04.2022
4064 Clouds 2 1005 51 10000 2 320 10:56 22.04.2022
4065 Clouds 2 1005 51 10000 3.13 290 10:32 22.04.2022
4066 Clouds 3 1005 32 10000 1 310 09:54 22.04.2022
4067 Clouds 2 1005 34 10000 1 120 08:56 22.04.2022
4068 Clouds 2 1005 37 10000 2 80 08:29 22.04.2022
4069 Clouds 2 1006 43 10000 2 100 05:31 22.04.2022
4070 Clear -7 1006 79 10000 0 0 00:53 22.04.2022
4071 Clear -10 1006 78 10000 1 330 23:29 21.04.2022
4072 Clear -11 1006 85 10000 1 290 22:34 21.04.2022
4073 Clear -11 1006 85 10000 1 330 21:25 21.04.2022
4074 Clear -10 1006 85 10000 0 0 20:29 21.04.2022
4075 Clear -9 1006 85 10000 2 320 18:49 21.04.2022
4076 Clear -9 1006 85 10000 2 320 18:49 21.04.2022
4077 Clear -8 1006 85 10000 2 320 18:19 21.04.2022
4078 Clear -7 1006 85 10000 1 330 16:56 21.04.2022
4079 Clear -5 1006 85 10000 0 0 15:24 21.04.2022
4080 Clear -5 1006 85 10000 1 310 14:52 21.04.2022
4081 Clear -3 1005 80 10000 0 0 13:59 21.04.2022
4082 Clear -2 1005 69 10000 2 300 13:21 21.04.2022
4083 Clouds 0 1005 59 10000 2 270 11:46 21.04.2022
4084 Clouds 0 1004 63 10000 3.13 340 09:24 21.04.2022
4085 Clouds 0 1004 59 10000 4.02 330 08:38 21.04.2022
4086 Clouds 0 1004 50 10000 4.02 280 06:36 21.04.2022
4087 Clouds -1 1004 58 10000 2 130 03:39 21.04.2022
4088 Clouds 0 1004 59 10000 2 130 03:20 21.04.2022
4089 Clear -1 1004 58 10000 2 110 02:44 21.04.2022
4090 Clear -5 1003 80 10000 1 20 00:34 21.04.2022
4091 Clouds -5 1003 74 10000 1 290 23:25 20.04.2022
4092 Clouds -5 1003 74 10000 3 320 22:59 20.04.2022
4093 Clouds -5 1003 74 10000 3 320 22:59 20.04.2022
4094 Clouds -5 1003 74 10000 2 320 22:33 20.04.2022
4095 Clouds -6 1002 79 10000 1 280 21:36 20.04.2022
4096 Clouds -5 1002 74 10000 2 320 20:44 20.04.2022
4097 Clouds -5 1002 80 10000 0 0 20:21 20.04.2022
4098 Clouds -4 1002 74 10000 1 320 19:39 20.04.2022
4099 Clouds -4 1002 74 10000 1 350 18:45 20.04.2022
4100 Clouds -4 1002 74 10000 1 340 17:49 20.04.2022
4101 Clouds -4 1001 68 10000 2 120 16:39 20.04.2022
4102 Clouds -3 1001 68 10000 1 30 14:58 20.04.2022
4103 Clouds -1 1000 58 10000 0 0 12:22 20.04.2022
4104 Clouds -1 999 54 10000 2 320 11:40 20.04.2022
4105 Clouds 1 999 43 10000 3 290 10:43 20.04.2022
4106 Clouds 1 998 43 10000 1 250 09:28 20.04.2022
4107 Clouds 1 998 40 10000 3.13 250 08:29 20.04.2022
4108 Clouds 0 997 63 10000 4.02 270 07:53 20.04.2022
4109 Clouds 0 997 59 10000 3.13 220 06:18 20.04.2022
4110 Clear -3 995 73 10000 2 230 01:37 20.04.2022
4111 Clear -4 995 79 10000 2 230 00:21 20.04.2022
4112 Clear -5 994 80 10000 2 240 22:59 19.04.2022
4113 Clear -5 994 80 10000 3 260 22:23 19.04.2022
4114 Clouds -5 994 80 10000 3 250 21:53 19.04.2022
4115 Clouds -4 993 80 10000 4 260 20:59 19.04.2022
4116 Clouds -3 993 74 10000 3 250 20:37 19.04.2022
4117 Clouds -3 992 80 10000 3 250 19:32 19.04.2022
4118 Clouds -3 992 74 10000 4 260 18:30 19.04.2022
4119 Clouds -3 991 74 10000 5 270 16:50 19.04.2022
4120 Clouds -2 990 74 10000 5 260 16:25 19.04.2022
4121 Clouds -1 990 74 10000 4 250 15:59 19.04.2022
4122 Clouds 0 990 80 10000 3 250 14:46 19.04.2022
4123 Clouds 1 988 80 10000 4.02 250 12:53 19.04.2022
4124 Clouds 1 988 74 10000 4.02 260 12:34 19.04.2022
4125 Clouds 1 987 80 10000 5 280 11:34 19.04.2022
4126 Snow 1 985 86 5000 6 290 09:35 19.04.2022
4127 Snow 1 984 86 2400 7.15 290 07:49 19.04.2022
4128 Clouds 1 983 93 1400 2 130 04:25 19.04.2022
4129 Clouds 1 983 86 10000 2 140 02:39 19.04.2022
4130 Snow 0 984 86 10000 2 130 23:51 18.04.2022
4131 Snow 0 985 80 10000 3.13 140 22:53 18.04.2022
4132 Snow 1 986 75 10000 2 150 21:26 18.04.2022
4133 Clouds 1 986 75 10000 2 160 20:39 18.04.2022
4134 Clouds 1 986 74 10000 3.13 190 20:19 18.04.2022
4135 Clouds 1 986 74 10000 2 160 19:33 18.04.2022
4136 Clouds 1 986 80 10000 3.13 160 18:45 18.04.2022
4137 Clouds 1 988 80 10000 4.02 180 17:49 18.04.2022
4138 Clouds 1 988 80 10000 4.02 180 17:19 18.04.2022
4139 Clouds 1 988 74 10000 3.13 200 16:39 18.04.2022
4140 Clouds 2 989 69 10000 3.13 200 15:41 18.04.2022
4141 Clouds 3 989 60 10000 2 180 14:27 18.04.2022
4142 Clear 4 990 48 10000 4 200 13:24 18.04.2022
4143 Clear 4 990 41 10000 5 190 12:27 18.04.2022
4144 Clear 5 990 38 10000 5 180 10:58 18.04.2022
4145 Clear 5 990 35 10000 5 180 10:18 18.04.2022
4146 Clear 5 991 35 10000 5 190 09:30 18.04.2022
4147 Clear 4 992 41 10000 6 180 07:29 18.04.2022
4148 Clear 3 996 47 10000 6 180 03:51 18.04.2022
4149 Clear -7 1001 73 10000 1 160 23:30 17.04.2022
4150 Clear -8 1003 73 10000 1 150 22:37 17.04.2022
4151 Clear -7 1004 73 10000 1 120 21:39 17.04.2022
4152 Clear -7 1004 73 10000 1 120 21:19 17.04.2022
4153 Clear -6 1005 73 10000 1 100 20:25 17.04.2022
4154 Clear -7 1006 79 10000 1 170 19:20 17.04.2022
4155 Clear -7 1008 73 10000 1 200 17:38 17.04.2022
4156 Clear -4 1009 63 10000 2 160 15:37 17.04.2022
4157 Clear -4 1010 63 10000 2 150 14:53 17.04.2022
4158 Clear -5 1010 86 10000 1 180 13:44 17.04.2022
4159 Clear 0 1011 47 10000 1 210 12:56 17.04.2022
4160 Clear 1 1012 47 10000 3.13 160 11:22 17.04.2022
4161 Clear 1 1012 47 10000 4 160 10:38 17.04.2022
4162 Clear 1 1012 43 10000 4.02 160 10:19 17.04.2022
4163 Clear 1 1013 43 10000 4.02 170 09:23 17.04.2022
4164 Clear 1 1013 43 10000 4 160 08:41 17.04.2022
4165 Clear 0 1014 43 10000 3.13 170 06:53 17.04.2022
4166 Clear -3 1016 58 10000 2 160 03:20 17.04.2022
4167 Clear -6 1016 57 10000 4.02 320 00:53 17.04.2022
4168 Clear -8 1016 67 10000 4.02 320 23:48 16.04.2022
4169 Clear -7 1016 63 10000 5 330 22:27 16.04.2022
4170 Clear -7 1016 63 10000 3 320 21:29 16.04.2022
4171 Clear -6 1015 63 10000 4 330 19:54 16.04.2022
4172 Clear -6 1015 63 10000 3 320 18:54 16.04.2022
4173 Clear -5 1015 58 10000 3 330 17:38 16.04.2022
4174 Clear -4 1015 58 10000 3 330 16:32 16.04.2022
4175 Clear -3 1015 54 10000 3 310 15:26 16.04.2022
4176 Clear -2 1015 50 10000 3 310 14:47 16.04.2022
4177 Clear 0 1015 43 10000 2 330 13:56 16.04.2022
4178 Clear 0 1015 47 10000 1 350 13:25 16.04.2022
4179 Clear 1 1014 44 10000 0 0 11:58 16.04.2022
4180 Clear 1 1013 43 10000 3.13 60 10:42 16.04.2022
4181 Clear 1 1013 50 10000 4.02 40 09:41 16.04.2022
4182 Clear 3 1013 35 10000 4 340 08:56 16.04.2022
4183 Clear 3 1012 35 10000 5 10 07:31 16.04.2022
4184 Clear 3 1012 32 10000 3 170 06:22 16.04.2022
4185 Clear -2 1012 54 10000 1 90 01:59 16.04.2022
4186 Clear -5 1012 54 10000 2 360 00:21 16.04.2022
4187 Clear -8 1011 67 10000 2 340 22:54 15.04.2022
4188 Clear -7 1011 68 10000 2 340 22:31 15.04.2022
4189 Clear -7 1011 68 10000 1 330 21:44 15.04.2022
4190 Clear -5 1010 58 10000 2 10 20:55 15.04.2022
4191 Clear -4 1010 58 10000 3 20 19:59 15.04.2022
4192 Clear -4 1010 58 10000 3 10 19:38 15.04.2022
4193 Clear -4 1009 58 10000 3 10 18:46 15.04.2022
4194 Clouds -4 1009 63 10000 3 360 18:24 15.04.2022
4195 Clouds -3 1009 68 10000 3 360 17:30 15.04.2022
4196 Clouds -1 1008 59 10000 2 10 16:26 15.04.2022
4197 Clouds 0 1008 59 10000 4 30 15:59 15.04.2022
4198 Clouds 1 1007 51 10000 4 60 14:41 15.04.2022
4199 Clouds 2 1007 55 10000 3 50 13:33 15.04.2022
4200 Clouds 2 1006 60 10000 3 30 12:40 15.04.2022
4201 Clouds 3 1005 52 10000 2 60 11:54 15.04.2022
4202 Clouds 3 1004 55 10000 3.13 80 10:53 15.04.2022
4203 Clouds 4 1004 48 10000 4 70 10:24 15.04.2022
4204 Clouds 4 1003 45 10000 3 70 09:38 15.04.2022
4205 Clouds 4 1003 45 10000 3 70 09:18 15.04.2022
4206 Clouds 4 1002 48 10000 3 80 06:56 15.04.2022
4207 Clouds 3 1002 47 10000 4.02 50 05:57 15.04.2022
4208 Clouds 0 1001 50 10000 2 80 02:34 15.04.2022
4209 Clouds -2 1001 58 10000 2 120 23:30 14.04.2022
4210 Clouds -3 1001 63 10000 1 120 22:47 14.04.2022
4211 Clouds -2 1001 58 10000 2 140 22:29 14.04.2022
4212 Clouds -2 1001 63 10000 2 140 21:57 14.04.2022
4213 Clouds -2 1002 68 10000 2 140 20:37 14.04.2022
4214 Clouds -1 1002 68 10000 2 160 19:23 14.04.2022
4215 Clouds -1 1003 68 10000 3.13 160 18:19 14.04.2022
4216 Clouds 0 1003 63 10000 2 140 17:28 14.04.2022
4217 Clouds 0 1003 69 10000 2 150 16:36 14.04.2022
4218 Clouds 1 1004 69 10000 3.13 150 14:58 14.04.2022
4219 Clouds 2 1005 60 10000 4 170 13:45 14.04.2022
4220 Clouds 2 1005 59 10000 3.13 150 12:52 14.04.2022
4221 Clouds 3 1005 51 10000 4.02 170 12:31 14.04.2022
4222 Clouds 3 1006 47 10000 3.13 170 11:24 14.04.2022
4223 Clouds 4 1006 45 10000 3 170 10:52 14.04.2022
4224 Clouds 4 1006 48 10000 3.13 160 10:26 14.04.2022
4225 Clouds 4 1007 41 10000 4 190 08:54 14.04.2022
4226 Clouds 4 1009 38 10000 4 190 06:53 14.04.2022
4227 Clear -2 1012 50 10000 2 210 03:28 14.04.2022
4228 Clear -11 1016 78 10000 0 0 23:25 13.04.2022
4229 Clear -12 1017 85 10000 1 250 22:20 13.04.2022
4230 Clear -10 1017 72 10000 2 330 21:36 13.04.2022
4231 Clear -9 1018 78 10000 1 310 20:22 13.04.2022
4232 Clear -8 1018 79 10000 1 320 19:36 13.04.2022
4233 Clear -7 1019 79 10000 1 300 18:27 13.04.2022
4234 Clear -7 1019 86 10000 0 0 17:24 13.04.2022
4235 Clear -4 1020 74 10000 1 250 16:34 13.04.2022
4236 Clear -3 1020 68 10000 1 200 15:40 13.04.2022
4237 Clear -3 1020 68 10000 2 230 14:51 13.04.2022
4238 Clear -2 1021 69 10000 2 230 14:28 13.04.2022
4239 Clear -1 1021 69 10000 1 220 13:29 13.04.2022
4240 Clear 0 1022 59 10000 2 210 12:27 13.04.2022
4241 Clouds 1 1022 55 10000 2 150 10:55 13.04.2022
4242 Clouds 1 1022 50 10000 1 220 09:44 13.04.2022
4243 Clouds 1 1023 50 10000 3.13 200 08:43 13.04.2022
4244 Clouds 1 1024 47 10000 3.13 220 06:52 13.04.2022
4245 Clouds 1 1024 50 10000 3.13 210 06:26 13.04.2022
4246 Clouds 1 1024 50 10000 3.13 180 05:52 13.04.2022
4247 Clear -10 1025 78 10000 1 170 00:24 13.04.2022
4248 Clear -12 1025 85 10000 2 170 23:46 12.04.2022
4249 Clear -12 1025 92 10000 1 230 22:19 12.04.2022
4250 Clear -12 1025 92 10000 0 0 21:32 12.04.2022
4251 Clear -11 1025 85 10000 1 300 20:42 12.04.2022
4252 Clear -10 1025 85 10000 1 290 19:53 12.04.2022
4253 Clear -10 1025 85 10000 1 310 19:32 12.04.2022
4254 Clear -8 1025 79 10000 1 80 18:42 12.04.2022
4255 Clear -8 1025 86 10000 1 300 17:30 12.04.2022
4256 Clear -6 1025 73 10000 2 320 16:25 12.04.2022
4257 Clear -6 1025 79 10000 2 310 15:33 12.04.2022
4258 Clear -4 1025 74 10000 2 230 14:32 12.04.2022
4259 Clear -3 1025 68 10000 1 220 13:38 12.04.2022
4260 Clear -2 1025 64 10000 1 220 12:53 12.04.2022
4261 Clouds 0 1025 55 10000 1 180 11:47 12.04.2022
4262 Clouds 1 1025 51 10000 1 220 11:20 12.04.2022
4263 Clouds 1 1024 47 10000 1 50 09:24 12.04.2022
4264 Clouds 0 1024 59 10000 1 10 07:59 12.04.2022
4265 Clouds -1 1024 63 10000 1 60 06:32 12.04.2022
4266 Clouds -1 1024 63 10000 1 60 06:32 12.04.2022
4267 Clouds -1 1024 63 10000 2 20 05:35 12.04.2022
4268 Clouds -5 1023 68 10000 2 20 00:59 12.04.2022
4269 Clouds -6 1023 73 10000 2 40 22:53 11.04.2022
4270 Clouds -6 1022 73 10000 3 360 21:49 11.04.2022
4271 Clouds -6 1022 68 10000 2 20 20:59 11.04.2022
4272 Clear -6 1022 68 10000 2 20 20:29 11.04.2022
4273 Clear -6 1022 63 10000 2 10 19:56 11.04.2022
4274 Clear -6 1021 63 10000 2 350 19:21 11.04.2022
4275 Clear -7 1021 63 10000 2 340 18:48 11.04.2022
4276 Clear -7 1021 62 10000 3.13 360 17:57 11.04.2022
4277 Clear -7 1021 52 10000 3.13 10 16:57 11.04.2022
4278 Clear -7 1021 52 10000 2 20 16:20 11.04.2022
4279 Clear -5 1020 50 10000 3 40 14:35 11.04.2022
4280 Clear -2 1020 43 10000 2 340 12:53 11.04.2022
4281 Clear -2 1020 43 10000 2 350 12:35 11.04.2022
4282 Clear -1 1020 37 10000 3 340 11:42 11.04.2022
4283 Clear 0 1019 34 10000 3 340 10:34 11.04.2022
4284 Clear 0 1019 32 10000 4 340 09:22 11.04.2022
4285 Clear -2 1019 36 10000 3.13 50 06:51 11.04.2022
4286 Clear -7 1019 49 10000 3 30 02:32 11.04.2022
4287 Clear -11 1018 57 10000 3 350 22:54 10.04.2022
4288 Clear -11 1017 62 10000 3 360 22:26 10.04.2022
4289 Clear -10 1017 62 10000 4 10 21:33 10.04.2022
4290 Clouds -8 1017 67 10000 4 20 20:33 10.04.2022
4291 Clouds -7 1017 73 10000 4 20 19:45 10.04.2022
4292 Clouds -6 1016 73 10000 4 20 19:23 10.04.2022
4293 Clouds -6 1016 73 10000 3 30 18:45 10.04.2022
4294 Clouds -5 1016 74 10000 3 30 17:55 10.04.2022
4295 Snow -4 1016 68 10000 4.02 70 17:35 10.04.2022
4296 Clouds -3 1015 79 10000 5 40 16:25 10.04.2022
4297 Clouds -2 1014 58 10000 4.02 360 15:30 10.04.2022
4298 Clouds -1 1014 69 10000 3 360 14:25 10.04.2022
4299 Clouds 0 1014 69 10000 2 360 12:35 10.04.2022
4300 Clear 0 1014 59 10000 5 350 11:49 10.04.2022
4301 Clear 1 1014 55 10000 3.13 20 11:29 10.04.2022
4302 Clear 1 1014 55 10000 5 360 10:56 10.04.2022
4303 Clear 2 1013 44 10000 4 330 09:58 10.04.2022
4304 Clear 2 1013 44 10000 5 330 09:37 10.04.2022
4305 Clear 2 1013 43 10000 5 330 08:22 10.04.2022
4306 Clear 2 1013 43 10000 6 330 07:27 10.04.2022
4307 Clear 1 1013 47 10000 5 330 05:50 10.04.2022
4308 Clear -2 1013 46 10000 5 320 02:25 10.04.2022
4309 Clear -4 1013 49 10000 5 300 00:28 10.04.2022
4310 Clear -5 1013 57 10000 4.02 300 23:48 09.04.2022
4311 Clear -5 1013 57 10000 5 310 22:47 09.04.2022
4312 Clear -4 1013 53 10000 3.13 300 21:35 09.04.2022
4313 Clear -5 1013 57 10000 2 280 20:49 09.04.2022
4314 Clear -5 1013 58 10000 3 300 20:26 09.04.2022
4315 Clear -5 1013 58 10000 4 300 19:42 09.04.2022
4316 Clear -6 1013 57 10000 3.13 310 18:59 09.04.2022
4317 Clear -6 1013 58 10000 3 310 18:20 09.04.2022
4318 Clear -8 1013 61 10000 3.13 310 17:39 09.04.2022
4319 Clear -7 1013 58 10000 3 310 16:52 09.04.2022
4320 Clear -7 1013 58 10000 2 310 15:55 09.04.2022
4321 Clear -6 1013 58 10000 2 310 15:30 09.04.2022
4322 Clear -7 1013 63 10000 3 310 14:44 09.04.2022
4323 Clear -7 1013 68 10000 2 310 14:22 09.04.2022
4324 Clear -4 1012 54 10000 1 310 13:18 09.04.2022
4325 Clear 0 1012 37 10000 2 360 12:41 09.04.2022
4326 Clear 0 1012 39 10000 2 30 11:22 09.04.2022
4327 Clear 1 1011 34 10000 2 50 10:21 09.04.2022
4328 Clear 1 1011 37 10000 3 40 09:38 09.04.2022
4329 Clear 2 1011 31 10000 3.13 20 08:53 09.04.2022
4330 Clear 1 1011 43 10000 4.02 10 06:56 09.04.2022
4331 Clear -10 1010 78 10000 2 20 01:32 09.04.2022
4332 Clear -14 1009 77 10000 1 350 23:45 08.04.2022
4333 Clear -14 1008 85 10000 2 340 21:58 08.04.2022
4334 Clear -13 1008 85 10000 2 10 21:29 08.04.2022
4335 Clear -12 1007 92 10000 2 360 20:38 08.04.2022
4336 Clear -12 1007 92 10000 3 350 19:20 08.04.2022
4337 Clear -10 1007 85 10000 3 360 18:29 08.04.2022
4338 Clear -10 1007 92 10000 3 360 17:49 08.04.2022
4339 Clear -9 1006 86 10000 3 360 17:25 08.04.2022
4340 Clear -10 1006 85 10000 2 350 16:47 08.04.2022
4341 Clear -8 1006 79 10000 2 360 15:57 08.04.2022
4342 Clear -7 1006 79 10000 2 360 15:26 08.04.2022
4343 Clouds -5 1005 74 10000 1 40 14:27 08.04.2022
4344 Clouds -4 1005 74 10000 1 100 13:46 08.04.2022
4345 Clouds -3 1005 68 10000 2 60 13:27 08.04.2022
4346 Clouds 0 1004 59 10000 3 60 11:56 08.04.2022
4347 Clouds 0 1003 50 10000 3.13 50 10:33 08.04.2022
4348 Clouds 0 1003 59 10000 4.02 40 09:38 08.04.2022
4349 Clouds 0 1003 59 10000 3.13 50 08:51 08.04.2022
4350 Clouds 0 1003 43 10000 2 350 06:55 08.04.2022
4351 Clear -4 1004 45 10000 0 0 05:18 08.04.2022
4352 Clear -14 1004 65 10000 2 40 01:29 08.04.2022
4353 Clear -14 1004 65 10000 1 70 00:25 08.04.2022
4354 Clear -14 1004 65 10000 1 70 00:25 08.04.2022
4355 Clear -15 1004 72 10000 2 30 22:59 07.04.2022
4356 Clear -15 1004 72 10000 3 20 22:39 07.04.2022
4357 Clear -15 1004 72 10000 3 20 22:21 07.04.2022
4358 Clear -14 1004 72 10000 2 40 21:52 07.04.2022
4359 Clear -15 1004 77 10000 1 350 21:19 07.04.2022
4360 Clear -13 1004 71 10000 1 30 20:37 07.04.2022
4361 Clear -13 1004 78 10000 2 360 18:35 07.04.2022
4362 Clear -12 1004 78 10000 2 330 17:27 07.04.2022
4363 Clear -13 1004 78 10000 1 340 16:44 07.04.2022
4364 Clear -12 1004 79 10000 1 350 16:22 07.04.2022
4365 Clear -12 1004 79 10000 1 350 16:22 07.04.2022
4366 Clear -12 1004 72 10000 1 10 14:50 07.04.2022
4367 Clear -9 1004 67 10000 0 0 13:43 07.04.2022
4368 Clear -7 1004 63 10000 2 110 12:58 07.04.2022
4369 Clouds -5 1004 50 10000 0 0 11:40 07.04.2022
4370 Clear -4 1004 49 10000 1 130 09:42 07.04.2022
4371 Clear -4 1004 42 10000 1 240 08:38 07.04.2022
4372 Clear -5 1005 41 10000 1 250 06:57 07.04.2022
4373 Clear -12 1008 55 10000 2 350 02:58 07.04.2022
4374 Clear -13 1008 60 10000 3.13 350 02:27 07.04.2022
4375 Clear -15 1009 65 10000 2 330 00:28 07.04.2022
4376 Clear -15 1010 66 10000 3 330 22:52 06.04.2022
4377 Clear -14 1010 61 10000 3 340 22:30 06.04.2022
4378 Clear -14 1010 61 10000 3 340 21:45 06.04.2022
4379 Clear -14 1010 61 10000 4 340 20:40 06.04.2022
4380 Clear -13 1011 61 10000 3 340 19:57 06.04.2022
4381 Clear -12 1011 56 10000 4 340 18:52 06.04.2022
4382 Clear -12 1012 56 10000 3 340 18:33 06.04.2022
4383 Clear -11 1012 52 10000 3 350 17:35 06.04.2022
4384 Clear -11 1013 57 10000 3 350 16:39 06.04.2022
4385 Clear -10 1013 52 10000 3 340 15:49 06.04.2022
4386 Clear -10 1013 51 10000 4.02 340 15:21 06.04.2022
4387 Clear -9 1014 52 10000 2 330 13:30 06.04.2022
4388 Clear -7 1014 48 10000 4.02 340 12:28 06.04.2022
4389 Clear -7 1015 48 10000 2 360 10:54 06.04.2022
4390 Clear -7 1015 48 10000 1 10 10:31 06.04.2022
4391 Clear -7 1015 48 10000 1 90 09:42 06.04.2022
4392 Clear -7 1015 44 10000 2 10 08:36 06.04.2022
4393 Clear -7 1015 44 10000 2 340 07:56 06.04.2022
4394 Clear -11 1016 56 10000 0.89 120 04:42 06.04.2022
4395 Clear -16 1016 71 10000 3.13 330 23:57 05.04.2022
4396 Clear -16 1016 71 10000 3.13 320 23:22 05.04.2022
4397 Clear -15 1016 65 10000 3.13 330 21:31 05.04.2022
4398 Clear -14 1016 65 10000 3.13 330 20:54 05.04.2022
4399 Clear -14 1016 65 10000 2 330 20:23 05.04.2022
4400 Clear -12 1016 60 10000 3.13 340 18:26 05.04.2022
4401 Clear -11 1016 56 10000 4.02 340 17:20 05.04.2022
4402 Clear -10 1016 57 10000 3 350 16:41 05.04.2022
4403 Clear -9 1016 57 10000 3 330 15:50 05.04.2022
4404 Clear -9 1016 57 10000 3 330 15:30 05.04.2022
4405 Clear -8 1016 53 10000 3 320 13:45 05.04.2022
4406 Clear -6 1015 49 10000 4 310 11:55 05.04.2022
4407 Clear -5 1014 46 10000 5 310 11:33 05.04.2022
4408 Clear -5 1014 46 10000 5 310 10:58 05.04.2022
4409 Clear -4 1014 42 10000 6 310 09:31 05.04.2022
4410 Clear -4 1013 42 10000 6 340 08:27 05.04.2022
4411 Clear -8 1013 57 10000 3.13 310 03:37 05.04.2022
4412 Clear -11 1012 72 10000 3.13 330 23:38 04.04.2022
4413 Clear -10 1012 79 10000 3 320 22:37 04.04.2022
4414 Clouds -10 1012 85 10000 2 330 21:46 04.04.2022
4415 Clouds -9 1012 79 10000 3 320 21:18 04.04.2022
4416 Clouds -8 1012 79 10000 3 330 20:47 04.04.2022
4417 Clouds -8 1012 85 10000 4.02 320 19:28 04.04.2022
4418 Clouds -8 1012 85 10000 4.02 320 18:40 04.04.2022
4419 Clouds -7 1011 85 10000 4.02 330 17:20 04.04.2022
4420 Clouds -6 1011 79 10000 4.02 330 16:31 04.04.2022
4421 Clouds -6 1011 85 10000 4.02 320 15:33 04.04.2022
4422 Clouds -5 1011 79 10000 3.13 320 14:46 04.04.2022
4423 Clouds -5 1011 79 10000 4.02 320 14:27 04.04.2022
4424 Clouds -5 1010 73 10000 2 360 12:58 04.04.2022
4425 Clouds -4 1009 73 10000 2 40 11:29 04.04.2022
4426 Clouds -2 1008 68 10000 3.13 360 10:29 04.04.2022
4427 Clouds -3 1006 68 10000 1 60 05:34 04.04.2022
4428 Clouds -6 1005 79 10000 1 40 02:59 04.04.2022
4429 Snow -9 1003 92 2400 0 0 23:42 03.04.2022
4430 Snow -9 1003 92 5000 0 0 22:18 03.04.2022
4431 Snow -9 1003 92 3200 1 360 21:31 03.04.2022
4432 Clouds -18 1004 100 4978 0.66 8 20:32 03.04.2022
4433 Snow -8 1002 93 3200 0 0 18:47 03.04.2022
4434 Snow -8 1002 93 3200 1 350 17:56 03.04.2022
4435 Snow -8 1002 93 3200 1 350 17:36 03.04.2022
4436 Fog -9 1002 92 800 1 20 16:50 03.04.2022
4437 Snow -8 1002 100 3200 1 80 15:56 03.04.2022
4438 Snow -6 1002 100 2400 1 50 14:27 03.04.2022
4439 Snow -5 1001 93 3200 1 80 13:28 03.04.2022
4440 Clouds -5 1000 92 10000 1 60 11:51 03.04.2022
4441 Snow -4 999 85 5000 2 50 09:59 03.04.2022
4442 Snow -4 998 85 5000 2 50 09:18 03.04.2022
4443 Snow -4 997 73 2400 1 40 06:28 03.04.2022
4444 Snow -7 996 79 3200 3.13 30 02:56 03.04.2022
4445 Snow -8 995 61 5000 3.13 50 23:50 02.04.2022
4446 Clouds -7 995 58 10000 4 50 22:51 02.04.2022
4447 Snow -7 995 79 10000 3.13 40 21:56 02.04.2022
4448 Snow -7 995 79 10000 3.13 40 21:56 02.04.2022
4449 Snow -8 995 85 10000 4.02 50 21:21 02.04.2022
4450 Snow -6 996 73 1800 3.13 50 20:36 02.04.2022
4451 Clouds -6 996 67 10000 3.13 50 18:49 02.04.2022
4452 Clouds -6 996 67 10000 3.13 40 18:20 02.04.2022
4453 Clouds -5 996 73 10000 3.13 40 17:23 02.04.2022
4454 Clouds -3 997 63 10000 3.13 60 15:58 02.04.2022
4455 Clouds -3 997 68 10000 3.13 50 15:20 02.04.2022
4456 Clouds -3 997 73 10000 3.13 90 14:32 02.04.2022
4457 Clouds -2 998 74 10000 3.13 90 13:34 02.04.2022
4458 Clouds -1 998 74 10000 3.13 80 12:32 02.04.2022
4459 Clouds 0 998 69 10000 4.02 100 10:46 02.04.2022
4460 Clouds 1 999 69 10000 2 100 08:33 02.04.2022
4461 Clouds -2 1000 79 10000 3.13 60 05:58 02.04.2022
4462 Snow -4 1002 79 10000 2 70 03:28 02.04.2022
4463 Snow -6 1004 85 5000 2 120 23:55 01.04.2022
4464 Snow -6 1005 85 10000 2 110 22:51 01.04.2022
4465 Clouds -5 1006 67 10000 2 130 21:30 01.04.2022
4466 Clouds -5 1006 73 10000 2 120 20:50 01.04.2022
4467 Clouds -5 1007 79 10000 2 120 19:51 01.04.2022
4468 Clouds -5 1007 79 10000 2 130 19:27 01.04.2022
4469 Snow -5 1007 73 10000 2 140 18:42 01.04.2022
4470 Clouds -7 1008 73 10000 0 0 17:45 01.04.2022
4471 Clouds -6 1009 57 10000 1 70 16:34 01.04.2022
4472 Clouds -6 1010 57 10000 1 100 15:19 01.04.2022
4473 Clouds -6 1010 62 10000 2 40 14:18 01.04.2022
4474 Clouds -6 1011 62 10000 1 60 13:32 01.04.2022
4475 Clouds -7 1011 67 10000 2 30 12:32 01.04.2022
4476 Clouds -6 1012 62 10000 1 20 11:18 01.04.2022
4477 Clear -3 1013 42 10000 1 80 09:53 01.04.2022
4478 Clear -4 1014 45 10000 2 100 07:59 01.04.2022
4479 Clear -7 1016 52 10000 1 80 06:30 01.04.2022
4480 Clear -10 1017 57 10000 1 40 04:45 01.04.2022
4481 Clear -14 1018 66 10000 1 60 03:41 01.04.2022
4482 Clear -18 1018 78 10000 1 80 01:53 01.04.2022
4483 Clear -21 1019 83 10000 2 300 22:56 31.03.2022
4484 Clear -22 1020 83 10000 0 0 21:50 31.03.2022
4485 Clear -21 1020 83 10000 1 300 21:31 31.03.2022
4486 Clear -21 1020 76 10000 0 0 20:28 31.03.2022
4487 Clear -20 1020 76 10000 1 280 19:47 31.03.2022
4488 Clear -17 1020 71 10000 3.13 310 18:43 31.03.2022
4489 Clear -15 1020 66 10000 2 320 17:41 31.03.2022
4490 Clear -13 1020 61 10000 3 330 16:34 31.03.2022
4491 Clear -13 1020 61 10000 3 330 15:35 31.03.2022
4492 Clear -11 1021 57 10000 3 310 14:54 31.03.2022
4493 Clear -11 1021 57 10000 2 310 14:34 31.03.2022
4494 Clear -5 1020 42 10000 3 330 11:34 31.03.2022
4495 Clear -5 1020 42 10000 1 100 10:41 31.03.2022
4496 Clear -5 1020 45 10000 2 100 09:44 31.03.2022
4497 Clear -6 1020 48 10000 2 100 07:53 31.03.2022
4498 Clear -6 1020 48 10000 4.02 20 04:42 31.03.2022
4499 Clear -16 1019 71 10000 2 340 23:34 30.03.2022
4500 Clear -16 1019 71 10000 3.13 310 22:27 30.03.2022
4501 Clear -15 1019 65 10000 3.13 320 21:37 30.03.2022
4502 Clear -15 1019 71 10000 3.13 320 20:44 30.03.2022
4503 Clear -16 1019 71 10000 2 290 19:59 30.03.2022
4504 Clear -15 1019 65 10000 2 320 18:50 30.03.2022
4505 Clear -15 1019 72 10000 3 310 17:53 30.03.2022
4506 Clear -14 1019 66 10000 3 320 17:34 30.03.2022
4507 Clear -13 1019 66 10000 2 320 16:51 30.03.2022
4508 Clear -13 1019 66 10000 2 310 16:30 30.03.2022
4509 Clear -11 1019 62 10000 3 300 14:55 30.03.2022
4510 Clouds -9 1019 53 10000 3 300 13:34 30.03.2022
4511 Clouds -8 1019 53 10000 2 310 12:41 30.03.2022
4512 Clouds -6 1018 48 10000 3.13 360 10:54 30.03.2022
4513 Clouds -5 1018 45 10000 5 310 09:58 30.03.2022
4514 Clouds -5 1018 45 10000 3.13 300 08:57 30.03.2022
4515 Clouds -6 1018 53 10000 5 290 07:31 30.03.2022
4516 Clouds -6 1017 53 10000 5 300 05:40 30.03.2022
4517 Clear -10 1017 66 10000 2 160 03:21 30.03.2022
4518 Clear -15 1016 78 10000 4 280 23:32 29.03.2022
4519 Clear -15 1016 78 10000 3 280 22:19 29.03.2022
4520 Clear -15 1016 78 10000 3 280 21:41 29.03.2022
4521 Clear -14 1015 78 10000 3 280 20:44 29.03.2022
4522 Clear -12 1015 79 10000 4 300 19:45 29.03.2022
4523 Clear -12 1015 85 10000 4 310 18:54 29.03.2022
4524 Clear -11 1014 79 10000 5 310 18:18 29.03.2022
4525 Clear -10 1014 79 10000 5 310 17:20 29.03.2022
4526 Clear -10 1013 73 10000 3 330 16:55 29.03.2022
4527 Clear -10 1013 73 10000 3 330 15:57 29.03.2022
4528 Clear -8 1012 62 10000 3 310 14:44 29.03.2022
4529 Clear -7 1012 58 10000 3 310 13:52 29.03.2022
4530 Clear -5 1011 54 10000 3 320 12:46 29.03.2022
4531 Clear -3 1010 53 10000 1 160 11:28 29.03.2022
4532 Clouds -4 1009 58 10000 2 100 10:23 29.03.2022
4533 Clouds -3 1008 53 10000 1 140 09:20 29.03.2022
4534 Snow -5 1007 73 5000 4.02 320 06:55 29.03.2022
4535 Clouds -7 1006 73 10000 4.02 310 03:47 29.03.2022
4536 Clouds -9 1003 61 10000 2 20 23:49 28.03.2022
4537 Clear -9 1003 61 10000 3.13 350 22:59 28.03.2022
4538 Clear -9 1003 61 10000 3.13 350 22:39 28.03.2022
4539 Clear -10 1003 61 10000 1 330 22:19 28.03.2022
4540 Clear -11 1002 67 10000 3 330 20:47 28.03.2022
4541 Clear -11 1002 67 10000 3 10 19:59 28.03.2022
4542 Clear -11 1002 67 10000 3 10 19:40 28.03.2022
4543 Clear -11 1002 67 10000 3 10 19:40 28.03.2022
4544 Clear -10 1002 62 10000 2 360 18:52 28.03.2022
4545 Clear -10 1001 62 10000 2 360 18:18 28.03.2022
4546 Clear -10 1001 67 10000 2 20 17:30 28.03.2022
4547 Clear -9 1001 62 10000 3 10 15:48 28.03.2022
4548 Clear -7 1001 52 10000 2 20 14:24 28.03.2022
4549 Clear -7 1001 57 10000 2 20 13:33 28.03.2022
4550 Clear -5 1000 53 10000 2 30 11:54 28.03.2022
4551 Clear -3 1000 49 10000 3.13 20 10:49 28.03.2022
4552 Clear -2 1000 42 10000 4 10 09:38 28.03.2022
4553 Clear -2 1000 42 10000 4.02 10 08:46 28.03.2022
4554 Clear -3 1000 45 10000 4.02 360 08:21 28.03.2022
4555 Clear -4 1000 49 10000 4.02 350 07:26 28.03.2022
4556 Clear -12 1002 51 10000 3.13 10 02:46 28.03.2022
4557 Clear -19 1004 64 10000 2 340 22:57 27.03.2022
4558 Clear -19 1004 70 10000 2 20 21:55 27.03.2022
4559 Clear -19 1004 70 10000 2 20 21:37 27.03.2022
4560 Clear -18 1005 70 10000 2 10 20:42 27.03.2022
4561 Clear -17 1005 71 10000 2 20 19:44 27.03.2022
4562 Clear -16 1005 65 10000 2 10 18:47 27.03.2022
4563 Clear -16 1006 71 10000 2 350 18:25 27.03.2022
4564 Clear -15 1006 71 10000 2 330 17:37 27.03.2022
4565 Clear -14 1007 65 10000 2 360 15:57 27.03.2022
4566 Clear -12 1008 60 10000 2 30 14:22 27.03.2022
4567 Clear -12 1008 72 10000 2 30 13:33 27.03.2022
4568 Clear -7 1009 57 10000 2 20 11:41 27.03.2022
4569 Clear -5 1010 53 10000 3.13 30 09:49 27.03.2022
4570 Clear -6 1011 57 10000 2 50 07:55 27.03.2022
4571 Clear -10 1013 61 10000 1 10 05:18 27.03.2022
4572 Clear -21 1016 77 10000 1 50 00:30 27.03.2022
4573 Clear -23 1016 76 10000 1 350 22:53 26.03.2022
4574 Clear -23 1016 83 10000 1 360 22:25 26.03.2022
4575 Clear -22 1016 83 10000 2 330 21:31 26.03.2022
4576 Clear -21 1017 83 10000 1.79 330 19:39 26.03.2022
4577 Clear -20 1017 84 10000 2 330 18:44 26.03.2022
4578 Clear -19 1017 84 10000 2 330 17:44 26.03.2022
4579 Clear -18 1017 84 10000 2 330 16:47 26.03.2022
4580 Clear -17 1017 84 10000 2 310 15:43 26.03.2022
4581 Clear -16 1017 84 10000 2 320 14:18 26.03.2022
4582 Clear -15 1018 84 10000 3.13 320 13:47 26.03.2022
4583 Clear -13 1018 84 10000 1 330 12:31 26.03.2022
4584 Clear -9 1018 67 10000 1 10 10:56 26.03.2022
4585 Clear -6 1018 62 10000 2 40 09:21 26.03.2022
4586 Clear -6 1019 62 10000 2 50 07:34 26.03.2022
4587 Clear -7 1020 62 10000 1 90 05:52 26.03.2022
4588 Clear -10 1021 66 10000 1 120 03:22 26.03.2022
4589 Clear -19 1021 77 10000 2 330 22:50 25.03.2022
4590 Clear -20 1021 84 10000 0 0 20:58 25.03.2022
4591 Clear -20 1021 84 10000 0 0 20:37 25.03.2022
4592 Clear -17 1020 85 10000 2 330 19:20 25.03.2022
4593 Clear -16 1020 78 10000 4 320 18:37 25.03.2022
4594 Clear -17 1020 84 10000 2 310 17:34 25.03.2022
4595 Clear -17 1020 84 10000 3.13 320 16:29 25.03.2022
4596 Clear -19 1020 84 10000 1 340 15:46 25.03.2022
4597 Clear -14 1019 84 10000 1 10 13:32 25.03.2022
4598 Clear -10 1019 73 10000 2 340 11:38 25.03.2022
4599 Clear -6 1018 62 10000 3.13 30 09:43 25.03.2022
4600 Clear -5 1017 57 10000 2 50 08:56 25.03.2022
4601 Clear -4 1017 53 10000 1 60 07:46 25.03.2022
4602 Clear -5 1017 57 10000 2 50 07:19 25.03.2022
4603 Clear -10 1016 73 10000 1 90 03:45 25.03.2022
4604 Clear -18 1014 85 10000 1 300 23:54 24.03.2022
4605 Clear -18 1014 85 10000 1 320 22:24 24.03.2022
4606 Clear -17 1013 78 10000 2 330 21:24 24.03.2022
4607 Clear -17 1013 85 10000 2 330 19:50 24.03.2022
4608 Clear -16 1012 84 10000 1 340 18:45 24.03.2022
4609 Clear -15 1012 92 10000 2 340 17:36 24.03.2022
4610 Clear -14 1012 92 10000 2 350 16:33 24.03.2022
4611 Clear -12 1011 85 10000 2 360 14:53 24.03.2022
4612 Clouds -9 1011 78 10000 2 10 14:32 24.03.2022
4613 Clouds -8 1011 72 10000 2 10 13:36 24.03.2022
4614 Clouds -8 1011 72 10000 1 10 12:29 24.03.2022
4615 Clouds -6 1010 67 10000 2 30 11:27 24.03.2022
4616 Clear -5 1009 62 10000 2 30 09:28 24.03.2022
4617 Clear -5 1009 62 10000 2 40 08:38 24.03.2022
4618 Clear -9 1009 67 10000 2 50 05:36 24.03.2022
4619 Clear -17 1009 71 10000 0 0 00:38 24.03.2022
4620 Snow -20 1009 84 10000 2 350 22:21 23.03.2022
4621 Snow -19 1008 77 10000 1 350 21:24 23.03.2022
4622 Snow -19 1008 84 10000 1 360 20:44 23.03.2022
4623 Clouds -19 1008 77 10000 1 360 19:33 23.03.2022
4624 Clear -20 1008 76 10000 2 310 18:18 23.03.2022
4625 Clear -19 1007 77 10000 1 340 17:25 23.03.2022
4626 Clear -18 1007 77 10000 2 320 15:56 23.03.2022
4627 Clear -17 1007 78 10000 2 330 14:48 23.03.2022
4628 Clear -15 1006 78 10000 2 350 13:34 23.03.2022
4629 Clear -11 1005 66 10000 1 150 11:33 23.03.2022
4630 Clear -5 1005 49 10000 2 150 08:41 23.03.2022
4631 Clear -8 1004 57 10000 3.13 160 05:50 23.03.2022
4632 Clear -13 1004 72 10000 3 160 02:50 23.03.2022
4633 Clear -15 1003 77 10000 2 320 00:27 23.03.2022
4634 Clear -20 1003 84 10000 1 290 21:53 22.03.2022
4635 Clear -20 1003 84 10000 1 10 21:23 22.03.2022
4636 Clear -16 1002 78 10000 2 20 20:29 22.03.2022
4637 Clear -17 1002 77 10000 1 360 19:27 22.03.2022
4638 Clear -15 1002 78 10000 2 340 18:49 22.03.2022
4639 Clear -14 1001 78 10000 4 300 17:44 22.03.2022
4640 Clear -15 1001 84 10000 3.13 310 16:58 22.03.2022
4641 Clear -15 1001 77 10000 2 300 15:48 22.03.2022
4642 Clear -15 1001 77 10000 2 310 15:21 22.03.2022
4643 Clear -15 1001 77 10000 2 320 14:45 22.03.2022
4644 Clear -13 1001 72 10000 3 310 13:52 22.03.2022
4645 Clear -11 1001 67 10000 3 300 12:34 22.03.2022
4646 Clear -11 1001 61 10000 2 300 11:24 22.03.2022
4647 Clear -7 1000 52 10000 4 330 09:42 22.03.2022
4648 Clear -6 1000 48 10000 5 310 07:35 22.03.2022
4649 Clear -14 999 61 10000 2 140 03:58 22.03.2022
4650 Clear -19 999 78 10000 1 170 01:27 22.03.2022
4651 Clear -25 999 76 10000 1 280 22:57 21.03.2022
4652 Clear -23 999 77 10000 3 310 21:39 21.03.2022
4653 Clear -26 999 75 10000 1 70 20:44 21.03.2022
4654 Clear -21 999 77 10000 3 330 20:23 21.03.2022
4655 Clear -24 999 76 10000 1 350 19:47 21.03.2022
4656 Clear -21 998 84 10000 3 320 18:59 21.03.2022
4657 Clear -22 998 83 10000 2 300 17:36 21.03.2022
4658 Clear -21 998 76 10000 2 290 16:59 21.03.2022
4659 Clear -21 999 83 10000 2 290 16:35 21.03.2022
4660 Clear -20 999 84 10000 2 300 15:44 21.03.2022
4661 Clear -19 999 84 10000 2 330 14:45 21.03.2022
4662 Clear -18 999 84 10000 1 320 13:20 21.03.2022
4663 Clear -18 1000 77 10000 0 0 12:22 21.03.2022
4664 Clear -15 1000 71 10000 0 0 11:34 21.03.2022
4665 Clear -10 1000 56 10000 1 90 09:53 21.03.2022
4666 Clear -9 1000 61 10000 1 70 07:53 21.03.2022
4667 Clear -11 1001 61 10000 1 80 06:30 21.03.2022
4668 Clear -20 1004 77 10000 1 50 02:24 21.03.2022
4669 Clear -28 1006 75 10000 1 360 23:26 20.03.2022
4670 Clear -29 1006 75 10000 1 350 22:36 20.03.2022
4671 Clear -28 1006 68 10000 2 360 21:40 20.03.2022
4672 Clear -28 1007 75 10000 2 330 20:58 20.03.2022
4673 Clear -28 1007 75 10000 2 350 20:36 20.03.2022
4674 Clear -28 1007 75 10000 1 340 19:55 20.03.2022
4675 Clear -27 1008 75 10000 1 350 19:24 20.03.2022
4676 Clear -26 1008 75 10000 1 340 17:50 20.03.2022
4677 Clear -25 1008 76 10000 2 320 17:28 20.03.2022
4678 Clear -25 1009 76 10000 1 340 16:40 20.03.2022
4679 Clear -23 1010 76 10000 1 350 14:53 20.03.2022
4680 Clear -22 1010 76 10000 1 350 13:39 20.03.2022
4681 Clear -19 1011 77 10000 2 10 12:20 20.03.2022
4682 Clear -16 1011 65 10000 2 350 10:38 20.03.2022
4683 Clear -11 1011 56 10000 1 70 08:35 20.03.2022
4684 Clear -13 1012 61 10000 1 60 06:40 20.03.2022
4685 Clear -19 1014 65 10000 1 300 03:27 20.03.2022
4686 Clear -27 1015 69 10000 0 0 00:54 20.03.2022
4687 Clear -27 1015 69 10000 0 0 00:54 20.03.2022
4688 Clear -28 1015 76 10000 1 10 00:35 20.03.2022
4689 Clear -30 1015 75 10000 1 340 22:42 19.03.2022
4690 Clear -29 1015 75 10000 1 350 21:27 19.03.2022
4691 Clear -28 1016 75 10000 2 340 19:42 19.03.2022
4692 Clear -27 1016 75 10000 2 330 18:44 19.03.2022
4693 Clear -26 1016 75 10000 2 310 17:55 19.03.2022
4694 Clear -26 1016 75 10000 1 320 17:33 19.03.2022
4695 Clear -25 1017 69 10000 2 320 15:41 19.03.2022
4696 Clear -23 1017 77 10000 2 320 14:21 19.03.2022
4697 Clear -22 1017 76 10000 1 340 12:56 19.03.2022
4698 Clear -21 1017 70 10000 1 340 12:37 19.03.2022
4699 Clear -20 1017 65 10000 1 40 11:47 19.03.2022
4700 Clear -13 1017 47 10000 1 60 09:55 19.03.2022
4701 Clear -13 1019 42 10000 1 110 05:59 19.03.2022
4702 Clear -18 1021 59 10000 1 150 02:48 19.03.2022
4703 Clear -23 1021 64 10000 0 0 01:32 19.03.2022
4704 Clear -27 1021 68 10000 1 280 23:22 18.03.2022
4705 Clear -27 1021 68 10000 0 0 22:23 18.03.2022
4706 Clear -27 1022 69 10000 0 0 20:48 18.03.2022
4707 Clear -26 1022 76 10000 1 300 19:49 18.03.2022
4708 Clear -26 1022 76 10000 1 330 19:19 18.03.2022
4709 Clear -25 1022 77 10000 1 310 17:27 18.03.2022
4710 Clear -25 1022 77 10000 1 300 16:45 18.03.2022
4711 Clear -22 1023 77 10000 1 350 14:37 18.03.2022
4712 Clear -22 1023 77 10000 1 350 14:18 18.03.2022
4713 Clear -18 1024 70 10000 2 250 12:19 18.03.2022
4714 Clear -16 1024 59 10000 2 220 10:39 18.03.2022
4715 Clear -13 1024 46 10000 1 200 09:23 18.03.2022
4716 Clear -12 1024 39 10000 1 80 07:45 18.03.2022
4717 Clear -13 1025 39 10000 1 70 05:46 18.03.2022
4718 Clear -16 1026 45 10000 3.13 350 02:50 18.03.2022
4719 Clear -20 1027 58 10000 3.13 330 00:22 18.03.2022
4720 Clear -21 1027 58 10000 3.13 330 23:20 17.03.2022
4721 Clear -21 1027 64 10000 3.13 330 22:23 17.03.2022
4722 Clear -22 1027 63 10000 3.13 320 21:48 17.03.2022
4723 Clear -22 1027 63 10000 3.13 320 21:20 17.03.2022
4724 Clear -22 1027 63 10000 3 310 20:41 17.03.2022
4725 Clear -22 1027 63 10000 3.13 320 19:45 17.03.2022
4726 Clear -22 1028 63 10000 3.13 320 18:57 17.03.2022
4727 Clear -21 1028 64 10000 3.13 320 17:56 17.03.2022
4728 Clear -21 1028 64 10000 3.13 320 16:48 17.03.2022
4729 Clear -21 1028 70 10000 2 320 15:44 17.03.2022
4730 Clear -20 1028 64 10000 2 330 15:23 17.03.2022
4731 Clear -19 1028 70 10000 3.13 320 13:50 17.03.2022
4732 Clear -20 1028 84 10000 3.13 320 12:49 17.03.2022
4733 Clear -20 1028 76 10000 1 300 12:21 17.03.2022
4734 Clear -18 1028 77 10000 0 0 11:27 17.03.2022
4735 Clear -14 1028 77 10000 1 60 09:57 17.03.2022
4736 Snow -13 1027 71 10000 4.02 340 08:34 17.03.2022
4737 Snow -13 1027 71 10000 4.02 340 08:34 17.03.2022
4738 Clear -14 1027 55 10000 2 40 07:33 17.03.2022
4739 Clear -14 1028 46 10000 3.13 20 05:47 17.03.2022
4740 Clear -19 1029 59 10000 2 350 00:46 17.03.2022
4741 Clear -20 1029 64 10000 3 320 23:39 16.03.2022
4742 Clear -21 1029 70 10000 1 320 22:44 16.03.2022
4743 Clear -20 1029 64 10000 2 330 22:21 16.03.2022
4744 Clear -20 1030 64 10000 1 340 21:34 16.03.2022
4745 Clear -21 1030 70 10000 1.79 10 19:40 16.03.2022
4746 Clear -21 1030 70 10000 1 60 19:19 16.03.2022
4747 Clear -21 1030 64 10000 2 40 18:35 16.03.2022
4748 Clear -21 1030 64 10000 2 30 17:41 16.03.2022
4749 Clear -21 1031 70 10000 2 20 16:50 16.03.2022
4750 Clear -21 1031 64 10000 1 20 15:53 16.03.2022
4751 Clear -20 1031 65 10000 2 360 14:25 16.03.2022
4752 Clear -20 1031 65 10000 2 20 13:24 16.03.2022
4753 Clear -19 1031 65 10000 3 360 11:53 16.03.2022
4754 Clear -19 1031 65 10000 3 10 11:20 16.03.2022
4755 Clear -18 1031 60 10000 3 10 10:18 16.03.2022
4756 Clear -17 1030 59 10000 4.02 30 08:51 16.03.2022
4757 Clear -18 1031 59 10000 2 80 04:45 16.03.2022
4758 Clear -25 1030 77 10000 2 340 00:48 16.03.2022
4759 Clear -27 1029 75 10000 2 340 22:37 15.03.2022
4760 Clear -28 1029 75 10000 1 10 21:52 15.03.2022
4761 Clear -26 1029 75 10000 2 350 19:53 15.03.2022
4762 Clear -27 1029 75 10000 2 330 18:45 15.03.2022
4763 Clear -26 1028 76 10000 2 330 16:55 15.03.2022
4764 Clear -26 1028 75 10000 1 340 16:20 15.03.2022
4765 Clear -25 1027 76 10000 3.13 330 14:57 15.03.2022
4766 Clear -24 1027 76 10000 0 0 14:34 15.03.2022
4767 Clear -24 1027 76 10000 2 320 13:27 15.03.2022
4768 Clear -23 1027 76 10000 2 360 12:21 15.03.2022
4769 Clear -21 1026 70 10000 3.13 360 11:28 15.03.2022
4770 Clear -15 1025 55 10000 2 190 09:39 15.03.2022
4771 Clear -15 1025 55 10000 3.13 200 08:32 15.03.2022
4772 Clear -15 1025 55 10000 3.13 200 07:50 15.03.2022
4773 Clear -15 1025 55 10000 2 200 06:51 15.03.2022
4774 Clear -23 1025 70 10000 1 160 02:59 15.03.2022
4775 Fog -30 1024 76 10000 0 0 23:39 14.03.2022
4776 Clear -30 1023 76 10000 1 160 23:21 14.03.2022
4777 Clear -29 1023 76 10000 0 0 22:19 14.03.2022
4778 Clear -25 1023 76 10000 2 290 21:22 14.03.2022
4779 Clear -24 1022 76 10000 1 280 20:35 14.03.2022
4780 Clear -23 1022 76 10000 2 300 19:59 14.03.2022
4781 Snow -20 1022 76 10000 3.13 300 18:37 14.03.2022
4782 Snow -19 1022 77 10000 2 310 17:44 14.03.2022
4783 Snow -21 1022 76 10000 2 290 16:57 14.03.2022
4784 Snow -20 1021 76 10000 2 280 15:37 14.03.2022
4785 Snow -19 1021 84 10000 2 300 14:38 14.03.2022
4786 Clear -17 1021 65 10000 0 0 12:21 14.03.2022
4787 Clear -15 1021 60 10000 1 90 10:51 14.03.2022
4788 Clear -14 1021 55 10000 1 80 09:41 14.03.2022
4789 Clear -14 1021 55 10000 1 80 09:21 14.03.2022
4790 Clear -14 1021 60 10000 1 80 08:55 14.03.2022
4791 Clear -14 1021 60 10000 1 90 07:28 14.03.2022
4792 Clear -15 1021 60 10000 2 160 05:44 14.03.2022
4793 Clear -18 1022 64 10000 0 0 01:52 14.03.2022
4794 Clear -19 1022 70 10000 0 0 01:20 14.03.2022
4795 Clear -24 1022 77 10000 2 310 22:43 13.03.2022
4796 Clear -23 1022 84 10000 2 320 21:29 13.03.2022
4797 Clear -24 1022 77 10000 2 310 20:55 13.03.2022
4798 Clear -23 1022 77 10000 2 310 20:30 13.03.2022
4799 Clear -22 1022 76 10000 2 330 19:49 13.03.2022
4800 Clear -21 1023 76 10000 2 320 19:27 13.03.2022
4801 Clear -21 1023 76 10000 2 330 18:59 13.03.2022
4802 Clear -22 1023 76 10000 2 300 18:31 13.03.2022
4803 Clear -21 1023 76 10000 2 310 17:41 13.03.2022
4804 Clear -20 1023 76 10000 2 310 16:57 13.03.2022
4805 Clear -20 1023 76 10000 3.13 310 16:29 13.03.2022
4806 Clear -22 1023 76 10000 2 320 15:44 13.03.2022
4807 Clear -17 1023 65 10000 1 360 14:56 13.03.2022
4808 Clear -17 1023 65 10000 3.13 330 13:43 13.03.2022
4809 Clear -22 1024 84 10000 3 320 12:38 13.03.2022
4810 Clear -22 1024 77 10000 1 20 11:51 13.03.2022
4811 Clear -19 1024 70 10000 1 10 11:31 13.03.2022
4812 Clear -19 1024 70 10000 1 10 11:31 13.03.2022
4813 Clear -18 1024 70 10000 2 20 10:46 13.03.2022
4814 Clear -15 1023 60 10000 0 0 09:59 13.03.2022
4815 Clear -15 1023 60 10000 1 210 09:40 13.03.2022
4816 Clear -13 1024 55 10000 2 190 08:45 13.03.2022
4817 Clear -12 1024 55 10000 2 200 07:40 13.03.2022
4818 Clear -15 1024 61 10000 2 190 05:40 13.03.2022
4819 Clear -23 1024 70 10000 1 180 02:39 13.03.2022
4820 Clear -30 1025 76 10000 1 230 23:33 12.03.2022
4821 Clear -29 1024 76 10000 1 170 21:53 12.03.2022
4822 Clear -28 1024 75 10000 1 240 20:34 12.03.2022
4823 Clear -29 1024 76 10000 1 180 19:47 12.03.2022
4824 Clear -27 1024 83 10000 2 320 18:58 12.03.2022
4825 Clear -25 1024 76 10000 1 260 18:22 12.03.2022
4826 Clear -27 1024 68 10000 1 250 17:23 12.03.2022
4827 Clear -26 1024 75 10000 2 310 16:23 12.03.2022
4828 Clear -26 1024 75 10000 2 310 16:23 12.03.2022
4829 Clear -25 1024 76 10000 2 310 15:22 12.03.2022
4830 Clear -23 1024 76 10000 1 290 14:28 12.03.2022
4831 Clear -23 1024 76 10000 2 320 12:45 12.03.2022
4832 Clear -22 1025 76 10000 1 330 11:56 12.03.2022
4833 Clear -22 1025 77 10000 1 330 11:34 12.03.2022
4834 Clear -21 1024 70 10000 0 0 10:52 12.03.2022
4835 Clear -17 1025 59 10000 0 0 09:45 12.03.2022
4836 Clear -16 1025 65 10000 1 70 08:55 12.03.2022
4837 Clear -17 1025 66 10000 1 50 07:19 12.03.2022
4838 Clear -23 1027 70 10000 1 120 02:36 12.03.2022
4839 Clear -28 1027 68 10000 2 290 23:56 11.03.2022
4840 Clear -28 1027 75 10000 2 310 22:56 11.03.2022
4841 Clear -28 1027 75 10000 2 320 21:35 11.03.2022
4842 Clear -27 1027 75 10000 3.13 320 20:54 11.03.2022
4843 Clear -27 1027 75 10000 3.13 310 20:29 11.03.2022
4844 Clear -27 1027 83 10000 3.13 320 19:42 11.03.2022
4845 Clear -28 1027 75 10000 2 320 19:20 11.03.2022
4846 Clear -25 1026 76 10000 2 320 17:29 11.03.2022
4847 Clear -25 1027 83 10000 2 320 16:27 11.03.2022
4848 Clear -24 1027 76 10000 1 340 15:53 11.03.2022
4849 Clear -26 1026 83 10000 1 340 14:19 11.03.2022
4850 Clear -23 1026 76 10000 1 330 12:44 11.03.2022
4851 Clear -24 1026 83 10000 2 350 12:20 11.03.2022
4852 Clear -23 1026 77 10000 0 0 11:43 11.03.2022
4853 Clear -19 1025 59 10000 1 30 09:40 11.03.2022
4854 Clear -18 1024 60 10000 1 30 08:47 11.03.2022
4855 Clear -18 1024 65 10000 1 50 07:53 11.03.2022
4856 Clear -18 1024 65 10000 1 50 07:28 11.03.2022
4857 Clear -19 1023 65 10000 1 50 05:42 11.03.2022
4858 Clear -25 1023 77 10000 2 160 02:56 11.03.2022
4859 Clear -30 1021 76 10000 2 330 22:56 10.03.2022
4860 Clear -31 1021 76 10000 2 320 22:28 10.03.2022
4861 Clear -31 1020 76 10000 2 300 21:27 10.03.2022
4862 Clear -30 1020 76 10000 0 0 20:45 10.03.2022
4863 Clear -30 1019 76 10000 1 290 19:22 10.03.2022
4864 Clear -31 1019 69 10000 1 280 18:39 10.03.2022
4865 Clear -28 1018 76 10000 2 310 16:53 10.03.2022
4866 Clear -26 1018 76 10000 2 310 15:41 10.03.2022
4867 Clear -28 1018 83 10000 1 310 14:23 10.03.2022
4868 Clear -26 1018 76 10000 1 310 12:46 10.03.2022
4869 Clear -24 1018 83 10000 0 0 11:39 10.03.2022
4870 Clear -20 1017 70 10000 0 0 10:19 10.03.2022
4871 Clear -17 1017 65 10000 1 150 08:48 10.03.2022
4872 Clear -17 1018 66 10000 1 180 05:50 10.03.2022
4873 Clear -23 1018 70 10000 1 160 03:42 10.03.2022
4874 Clear -29 1018 76 10000 0 0 00:23 10.03.2022
4875 Clear -30 1018 76 10000 0 0 22:45 09.03.2022
4876 Clear -29 1018 76 10000 1 310 21:48 09.03.2022
4877 Clear -29 1018 76 10000 1 330 20:59 09.03.2022
4878 Clear -29 1018 76 10000 1 330 19:40 09.03.2022
4879 Clear -29 1018 76 10000 1 330 18:19 09.03.2022
4880 Clear -27 1017 76 10000 1 340 17:26 09.03.2022
4881 Clear -26 1017 76 10000 1 340 16:23 09.03.2022
4882 Clear -25 1017 84 10000 2 320 14:27 09.03.2022
4883 Clear -23 1017 84 10000 2 330 13:51 09.03.2022
4884 Clear -25 1016 84 10000 1 10 12:36 09.03.2022
4885 Clear -23 1016 70 10000 1 360 11:48 09.03.2022
4886 Clear -21 1016 77 10000 2 340 11:18 09.03.2022
4887 Clear -14 1015 56 10000 2 190 09:41 09.03.2022
4888 Clear -14 1015 56 10000 2 200 08:47 09.03.2022
4889 Clear -16 1014 60 10000 3 180 06:27 09.03.2022
4890 Clear -26 1014 76 10000 1 170 01:53 09.03.2022
4891 Clear -28 1014 76 10000 1 210 00:22 09.03.2022
4892 Clear -28 1014 76 10000 1 320 22:46 08.03.2022
4893 Clear -25 1014 84 10000 3 350 21:51 08.03.2022
4894 Clear -28 1014 76 10000 1 300 21:21 08.03.2022
4895 Clear -30 1014 76 10000 1 280 20:22 08.03.2022
4896 Clear -29 1014 76 10000 1 330 19:24 08.03.2022
4897 Clear -29 1014 83 10000 1 290 18:22 08.03.2022
4898 Clear -24 1014 76 10000 3.13 310 16:44 08.03.2022
4899 Clear -25 1015 77 10000 3 310 14:57 08.03.2022
4900 Clear -24 1015 84 10000 1 310 13:45 08.03.2022
4901 Clear -22 1015 77 10000 1 290 12:23 08.03.2022
4902 Clear -21 1014 76 10000 1 330 11:42 08.03.2022
4903 Clear -16 1014 65 10000 2 360 10:28 08.03.2022
4904 Clear -15 1014 65 10000 1 40 08:57 08.03.2022
4905 Clear -16 1012 66 10000 0 0 06:30 08.03.2022
4906 Clear -20 1012 77 10000 3 40 02:50 08.03.2022
4907 Clear -21 1010 76 10000 3.13 10 22:48 07.03.2022
4908 Clear -21 1010 76 10000 3.13 20 21:45 07.03.2022
4909 Clear -20 1010 76 10000 3.13 10 21:22 07.03.2022
4910 Clear -21 1009 83 10000 2 10 20:33 07.03.2022
4911 Clear -22 1009 83 10000 3 20 19:50 07.03.2022
4912 Clear -22 1009 83 10000 2 10 19:20 07.03.2022
4913 Clear -21 1009 83 10000 2 30 18:29 07.03.2022
4914 Clear -21 1009 76 10000 3.13 20 17:31 07.03.2022
4915 Clear -20 1009 84 10000 3.13 10 16:43 07.03.2022
4916 Clear -18 1008 77 10000 2 350 14:51 07.03.2022
4917 Clear -17 1008 71 10000 2 360 12:34 07.03.2022
4918 Clear -17 1008 71 10000 3 20 11:34 07.03.2022
4919 Clear -16 1008 71 10000 2 20 10:31 07.03.2022
4920 Clear -14 1008 66 10000 2 20 08:34 07.03.2022
4921 Clear -21 1011 77 10000 2 20 02:50 07.03.2022
4922 Clear -24 1011 76 10000 2 10 00:20 07.03.2022
4923 Clear -27 1012 83 10000 2 10 23:26 06.03.2022
4924 Clear -26 1012 75 10000 1 20 22:29 06.03.2022
4925 Clear -27 1012 83 10000 2 40 21:37 06.03.2022
4926 Clear -25 1012 76 10000 1 360 20:29 06.03.2022
4927 Clear -26 1013 75 10000 2 350 19:43 06.03.2022
4928 Clear -25 1013 76 10000 2 20 18:50 06.03.2022
4929 Clear -24 1013 76 10000 2 20 17:49 06.03.2022
4930 Clear -24 1013 83 10000 2 20 17:20 06.03.2022
4931 Clear -23 1013 83 10000 2 10 16:39 06.03.2022
4932 Clear -22 1014 76 10000 3.13 360 15:31 06.03.2022
4933 Clear -24 1014 83 10000 3 340 14:42 06.03.2022
4934 Clear -25 1014 77 10000 1 360 13:49 06.03.2022
4935 Clear -23 1014 84 10000 2 10 12:40 06.03.2022
4936 Clear -22 1014 77 10000 2 30 11:46 06.03.2022
4937 Clear -21 1014 71 10000 2 20 10:43 06.03.2022
4938 Clear -19 1015 71 10000 2 20 09:21 06.03.2022
4939 Clear -17 1015 66 10000 2 20 08:28 06.03.2022
4940 Clear -17 1016 71 10000 3 30 07:26 06.03.2022
4941 Clear -26 1018 70 10000 1 50 02:45 06.03.2022
4942 Clear -32 1018 75 10000 1 10 00:41 06.03.2022
4943 Clear -32 1018 75 10000 1 10 00:22 06.03.2022
4944 Clear -31 1018 69 10000 2 350 23:19 05.03.2022
4945 Clear -31 1018 76 10000 1 340 22:35 05.03.2022
4946 Clear -31 1018 76 10000 2 340 21:31 05.03.2022
4947 Clear -31 1018 76 10000 2 350 20:39 05.03.2022
4948 Clear -30 1018 75 10000 2 340 19:23 05.03.2022
4949 Clear -30 1019 75 10000 2 340 18:48 05.03.2022
4950 Clear -29 1019 75 10000 1 340 17:35 05.03.2022
4951 Clear -29 1019 82 10000 2 320 16:19 05.03.2022
4952 Clear -28 1019 75 10000 2 330 15:30 05.03.2022
4953 Clear -28 1019 75 10000 2 330 14:36 05.03.2022
4954 Clear -28 1019 82 10000 1 350 13:46 05.03.2022
4955 Clear -26 1019 83 10000 2 320 12:46 05.03.2022
4956 Clear -23 1018 76 10000 2 10 11:21 05.03.2022
4957 Clear -25 1018 76 10000 2 350 10:53 05.03.2022
4958 Clear -22 1018 63 10000 1.79 40 09:40 05.03.2022
4959 Clear -20 1018 64 10000 1 20 08:46 05.03.2022
4960 Clear -19 1017 71 10000 1 70 07:23 05.03.2022
4961 Clear -19 1017 71 10000 1 70 07:23 05.03.2022
4962 Clear -20 1017 71 10000 0 0 05:39 05.03.2022
4963 Clear -29 1015 76 10000 2 330 00:51 05.03.2022
4964 Clear -31 1014 74 10000 1 260 23:21 04.03.2022
4965 Clear -31 1014 67 10000 1 300 22:39 04.03.2022
4966 Snow -29 1013 75 10000 1 320 21:45 04.03.2022
4967 Snow -27 1013 75 10000 2 310 20:48 04.03.2022
4968 Snow -26 1013 75 10000 2 310 19:39 04.03.2022
4969 Snow -26 1012 75 10000 1 310 18:59 04.03.2022
4970 Snow -27 1012 75 10000 1 320 18:36 04.03.2022
4971 Clear -26 1011 83 10000 2 350 17:29 04.03.2022
4972 Clear -25 1011 76 10000 2 360 16:36 04.03.2022
4973 Clear -23 1011 76 10000 2 360 15:27 04.03.2022
4974 Clear -23 1011 76 10000 2 360 15:27 04.03.2022
4975 Clear -21 1011 76 10000 2 360 13:38 04.03.2022
4976 Clear -22 1010 83 10000 3.13 10 12:51 04.03.2022
4977 Clear -21 1010 76 10000 2 360 11:38 04.03.2022
4978 Clear -20 1009 71 10000 2 10 10:42 04.03.2022
4979 Clear -18 1009 70 10000 2 360 09:28 04.03.2022
4980 Clear -17 1008 66 10000 3 20 08:20 04.03.2022
4981 Clear -17 1008 66 10000 2 50 06:58 04.03.2022
4982 Clear -21 1007 71 10000 3 30 03:28 04.03.2022
4983 Snow -24 1007 77 3200 3 20 00:19 04.03.2022
4984 Clear -25 1006 77 10000 2 10 22:19 03.03.2022
4985 Clear -26 1006 75 10000 2 20 21:37 03.03.2022
4986 Clear -26 1006 75 10000 2 20 20:59 03.03.2022
4987 Clear -27 1006 75 10000 1 350 19:48 03.03.2022
4988 Clear -28 1005 76 10000 1 360 18:49 03.03.2022
4989 Clear -28 1005 76 10000 2 360 17:46 03.03.2022
4990 Clear -28 1005 76 10000 2 350 17:26 03.03.2022
4991 Clear -28 1005 76 10000 2 350 15:47 03.03.2022
4992 Clear -28 1005 76 10000 2 340 14:59 03.03.2022
4993 Clear -28 1005 76 10000 2 340 14:33 03.03.2022
4994 Clear -28 1004 75 10000 2 330 12:52 03.03.2022
4995 Clear -28 1004 75 10000 2 350 11:45 03.03.2022
4996 Clear -28 1004 82 10000 2 60 10:40 03.03.2022
4997 Clear -23 1003 69 10000 1 100 08:45 03.03.2022
4998 Clear -23 1003 70 10000 1 90 07:25 03.03.2022
4999 Clear -23 1004 70 10000 1 70 06:33 03.03.2022
5000 Mist -32 1005 75 5000 1 60 01:44 03.03.2022
5001 Clouds -33 1005 74 10000 1 310 23:29 02.03.2022
5002 Clear -33 1005 74 10000 0 0 22:50 02.03.2022
5003 Clear -33 1005 74 10000 0 0 22:50 02.03.2022
5004 Clear -33 1005 74 10000 1 330 21:29 02.03.2022
5005 Clear -32 1005 74 10000 1 340 20:44 02.03.2022
5006 Clear -32 1006 74 10000 1 340 20:22 02.03.2022
5007 Clear -31 1006 74 10000 1 350 19:34 02.03.2022
5008 Clear -31 1006 74 10000 1.79 340 18:44 02.03.2022
5009 Clear -31 1006 82 10000 2 10 17:59 02.03.2022
5010 Clear -31 1006 74 10000 2 310 17:23 02.03.2022
5011 Clear -29 1006 75 10000 1 350 16:45 02.03.2022
5012 Clear -29 1006 75 10000 1 350 16:45 02.03.2022
5013 Clear -27 1006 75 10000 3.13 320 14:45 02.03.2022
5014 Clear -26 1007 75 10000 2 320 13:24 02.03.2022
5015 Clear -26 1007 75 10000 2 330 12:43 02.03.2022
5016 Clear -25 1007 76 10000 2 340 11:47 02.03.2022
5017 Clear -25 1007 76 10000 2 350 11:24 02.03.2022
5018 Clear -20 1007 76 10000 1 100 09:46 02.03.2022
5019 Clear -18 1007 70 10000 1 110 08:59 02.03.2022
5020 Clear -16 1006 59 10000 1 160 07:39 02.03.2022
5021 Clear -16 1006 65 10000 2 170 06:51 02.03.2022
5022 Clear -18 1006 70 10000 1 110 02:54 02.03.2022
5023 Snow -21 1005 83 10000 1 60 00:29 02.03.2022
5024 Snow -21 1005 83 10000 1 320 22:48 01.03.2022
5025 Snow -20 1005 76 10000 1 330 22:21 01.03.2022
5026 Snow -21 1005 83 10000 2 330 21:25 01.03.2022
5027 Snow -21 1004 76 10000 1 320 20:32 01.03.2022
5028 Snow -21 1004 76 10000 1 340 19:45 01.03.2022
5029 Snow -22 1004 83 10000 1 320 18:51 01.03.2022
5030 Snow -23 1004 84 10000 0 0 18:21 01.03.2022
5031 Snow -24 1004 84 5000 0 0 17:30 01.03.2022
5032 Snow -20 1004 76 5000 0 0 16:35 01.03.2022
5033 Snow -20 1003 84 5000 0 0 15:42 01.03.2022
5034 Snow -19 1003 77 5000 1 360 14:41 01.03.2022
5035 Snow -19 1003 77 5000 1 360 14:23 01.03.2022
5036 Snow -19 1003 77 5000 0.89 10 13:25 01.03.2022
5037 Snow -20 1003 84 5000 1 30 12:34 01.03.2022
5038 Snow -19 1003 77 5000 1 50 10:38 01.03.2022
5039 Snow -18 1002 77 5000 1 90 09:25 01.03.2022
5040 Clear -18 1001 71 10000 0 0 07:55 01.03.2022
5041 Clear -18 1001 64 10000 0 0 06:27 01.03.2022
5042 Snow -19 1001 70 10000 1 30 02:45 01.03.2022
5043 Snow -21 1001 76 10000 1.79 320 00:40 01.03.2022
5044 Snow -21 1001 76 10000 1 320 23:35 28.02.2022
5045 Snow -21 1001 76 5000 1 330 22:28 28.02.2022
5046 Snow -21 1001 76 5000 1 300 21:43 28.02.2022
5047 Snow -21 1001 76 5000 1 280 20:33 28.02.2022
5048 Snow -21 1002 76 5000 2 290 19:42 28.02.2022
5049 Snow -22 1002 83 10000 0 0 18:49 28.02.2022
5050 Snow -23 1002 84 10000 3 310 17:33 28.02.2022
5051 Snow -23 1003 77 5000 2 300 16:54 28.02.2022
5052 Snow -23 1003 77 5000 2 290 15:58 28.02.2022
5053 Snow -24 1003 77 10000 1 320 14:32 28.02.2022
5054 Clear -24 1004 77 10000 1 330 13:52 28.02.2022
5055 Clear -26 1004 84 10000 1 280 13:18 28.02.2022
5056 Clear -28 1004 83 10000 0 0 11:59 28.02.2022
5057 Clear -26 1005 76 10000 0 0 11:19 28.02.2022
5058 Clear -22 1004 77 10000 1 340 10:22 28.02.2022
5059 Clear -21 1004 70 10000 1 260 09:43 28.02.2022
5060 Clear -20 1004 64 10000 2 180 08:52 28.02.2022
5061 Clear -20 1004 65 10000 3 210 07:58 28.02.2022
5062 Clear -22 1004 71 10000 3 180 05:54 28.02.2022
5063 Clear -23 1005 70 10000 3 190 04:30 28.02.2022
5064 Clear -26 1006 76 10000 2 280 00:52 28.02.2022
5065 Clear -29 1006 76 10000 1 230 22:45 27.02.2022
5066 Clear -28 1006 76 10000 1 150 22:26 27.02.2022
5067 Snow -26 1006 75 10000 1 220 21:37 27.02.2022
5068 Clear -28 1006 76 10000 1 230 20:43 27.02.2022
5069 Clear -29 1006 76 10000 1 140 20:18 27.02.2022
5070 Clear -29 1006 76 10000 1 170 19:48 27.02.2022
5071 Clear -29 1006 76 10000 2 250 19:21 27.02.2022
5072 Clear -29 1006 76 10000 2 250 19:21 27.02.2022
5073 Clear -28 1006 75 10000 1 190 18:33 27.02.2022
5074 Clear -29 1006 76 10000 2 160 17:49 27.02.2022
5075 Clear -30 1006 75 10000 1 270 16:25 27.02.2022
5076 Clear -31 1007 74 10000 0 0 15:21 27.02.2022
5077 Clear -33 1007 75 10000 0 0 12:37 27.02.2022
5078 Clear -31 1007 74 10000 2 330 11:51 27.02.2022
5079 Clear -29 1007 68 10000 1 170 10:37 27.02.2022
5080 Clear -26 1007 69 10000 2 210 09:58 27.02.2022
5081 Clear -25 1007 63 10000 2 210 09:23 27.02.2022
5082 Clear -25 1007 63 10000 2 190 08:45 27.02.2022
5083 Clear -25 1007 63 10000 2 190 08:45 27.02.2022
5084 Clear -25 1006 64 10000 2 180 06:26 27.02.2022
5085 Snow -31 1006 69 10000 2 170 03:44 27.02.2022
5086 Clear -38 1006 74 10000 1 240 23:57 26.02.2022
5087 Clear -37 1005 74 10000 1 160 22:43 26.02.2022
5088 Clear -35 1005 75 10000 1 300 21:29 26.02.2022
5089 Clear -34 1005 68 10000 2 280 20:43 26.02.2022
5090 Clear -33 1005 75 10000 2 310 19:57 26.02.2022
5091 Clear -34 1005 75 10000 0 0 19:33 26.02.2022
5092 Clear -32 1004 74 10000 2 310 18:34 26.02.2022
5093 Clear -30 1004 75 10000 3.13 320 17:37 26.02.2022
5094 Snow -30 1004 75 10000 3.13 320 16:39 26.02.2022
5095 Snow -29 1004 68 10000 4.02 320 15:42 26.02.2022
5096 Snow -29 1004 75 10000 3.13 320 15:19 26.02.2022
5097 Clear -29 1004 75 10000 3.13 320 14:44 26.02.2022
5098 Clear -29 1004 75 10000 3.13 320 14:20 26.02.2022
5099 Clear -29 1004 75 10000 3.13 320 12:53 26.02.2022
5100 Clear -27 1004 75 10000 2 300 11:54 26.02.2022
5101 Clear -25 1004 76 10000 2 310 11:27 26.02.2022
5102 Clear -25 1004 69 10000 2 300 10:22 26.02.2022
5103 Clear -22 1003 58 10000 4.02 300 08:35 26.02.2022
5104 Clear -22 1003 58 10000 3.13 300 06:46 26.02.2022
5105 Snow -27 1003 76 10000 3 250 00:26 26.02.2022
5106 Snow -26 1003 76 10000 3 260 22:44 25.02.2022
5107 Clear -24 1003 69 10000 4.02 280 21:33 25.02.2022
5108 Clear -24 1003 69 10000 4.02 290 20:57 25.02.2022
5109 Clear -24 1004 69 10000 4.02 280 20:28 25.02.2022
5110 Clear -23 1004 69 10000 5 290 18:18 25.02.2022
5111 Clear -23 1004 69 10000 3.13 290 17:21 25.02.2022
5112 Clear -22 1004 69 10000 3.13 300 16:20 25.02.2022
5113 Clear -21 1005 70 10000 4 310 15:42 25.02.2022
5114 Clear -21 1005 70 10000 4.02 310 15:18 25.02.2022
5115 Clear -21 1005 70 10000 5 310 14:39 25.02.2022
5116 Clear -19 1005 64 10000 5 320 13:36 25.02.2022
5117 Clear -19 1005 70 10000 6 310 12:45 25.02.2022
5118 Clear -17 1005 71 10000 5 330 11:28 25.02.2022
5119 Clouds -15 1004 71 10000 6 310 10:28 25.02.2022
5120 Clouds -15 1004 71 10000 4.02 320 09:53 25.02.2022
5121 Clouds -13 1003 71 10000 5 310 08:46 25.02.2022
5122 Snow -15 1003 78 10000 2 180 07:37 25.02.2022
5123 Clear -17 1003 66 10000 2 170 05:47 25.02.2022
5124 Snow -22 1004 71 10000 0 0 02:58 25.02.2022
5125 Snow -27 1005 76 10000 1 310 22:56 24.02.2022
5126 Snow -28 1005 76 10000 1 360 21:56 24.02.2022
5127 Snow -28 1005 76 10000 1 360 21:37 24.02.2022
5128 Snow -30 1004 76 10000 1 60 21:18 24.02.2022
5129 Snow -26 1005 76 10000 0 0 19:38 24.02.2022
5130 Snow -27 1005 76 10000 1 290 18:38 24.02.2022
5131 Snow -28 1005 76 10000 1 310 18:18 24.02.2022
5132 Snow -28 1005 76 10000 1 340 17:33 24.02.2022
5133 Snow -26 1005 76 10000 1 20 16:45 24.02.2022
5134 Snow -24 1005 77 5000 0 0 16:21 24.02.2022
5135 Clouds -24 1006 77 10000 1 350 14:53 24.02.2022
5136 Snow -25 1006 77 10000 0 0 14:26 24.02.2022
5137 Snow -24 1006 77 10000 1 350 13:39 24.02.2022
5138 Snow -24 1006 77 10000 1 350 13:39 24.02.2022
5139 Snow -24 1007 84 10000 2 350 12:49 24.02.2022
5140 Snow -24 1007 77 10000 0 0 10:40 24.02.2022
5141 Snow -20 1007 70 10000 0 0 08:59 24.02.2022
5142 Snow -20 1007 70 10000 1 50 08:40 24.02.2022
5143 Clear -19 1007 71 10000 1 90 05:52 24.02.2022
5144 Snow -22 1008 77 10000 2 360 01:56 24.02.2022
5145 Snow -22 1008 77 10000 2 360 01:56 24.02.2022
5146 Snow -22 1009 76 10000 2 40 22:56 23.02.2022
5147 Snow -22 1009 76 10000 2 30 21:40 23.02.2022
5148 Snow -23 1009 76 10000 2 30 20:31 23.02.2022
5149 Snow -23 1010 76 10000 2 20 19:46 23.02.2022
5150 Snow -23 1010 76 10000 3.13 40 18:32 23.02.2022
5151 Snow -24 1011 83 10000 3.13 40 17:36 23.02.2022
5152 Snow -25 1012 76 10000 2 20 14:44 23.02.2022
5153 Snow -26 1013 75 10000 2 20 12:45 23.02.2022
5154 Snow -26 1014 75 10000 1 20 11:59 23.02.2022
5155 Clear -27 1014 68 10000 1 10 10:31 23.02.2022
5156 Clear -25 1014 70 10000 1 10 08:59 23.02.2022
5157 Clear -26 1015 70 10000 1 40 08:23 23.02.2022
5158 Clear -27 1016 63 10000 2 50 05:49 23.02.2022
5159 Clear -34 1018 68 10000 1 360 00:40 23.02.2022
5160 Clear -35 1018 75 10000 1 360 23:38 22.02.2022
5161 Clear -34 1018 68 10000 1 360 22:32 22.02.2022
5162 Clear -34 1018 75 10000 1 340 21:49 22.02.2022
5163 Clear -34 1018 68 10000 1 330 21:31 22.02.2022
5164 Clear -34 1018 68 10000 1 360 20:55 22.02.2022
5165 Clear -34 1018 75 10000 1 350 20:30 22.02.2022
5166 Clear -34 1018 75 10000 1 350 19:42 22.02.2022
5167 Clear -34 1018 75 10000 1 350 19:19 22.02.2022
5168 Clear -32 1017 68 10000 2 320 17:49 22.02.2022
5169 Clear -32 1018 68 10000 2 320 17:23 22.02.2022
5170 Clear -32 1018 68 10000 2 320 16:41 22.02.2022
5171 Clear -32 1018 75 10000 1 300 15:44 22.02.2022
5172 Clear -32 1018 75 10000 1 300 15:44 22.02.2022
5173 Clear -32 1018 75 10000 2 320 14:44 22.02.2022
5174 Clear -29 1018 76 10000 2 40 12:31 22.02.2022
5175 Clear -28 1018 69 10000 2 40 10:52 22.02.2022
5176 Clear -26 1017 70 10000 3 40 08:41 22.02.2022
5177 Clear -26 1017 70 10000 3 50 07:27 22.02.2022
5178 Clear -26 1016 70 10000 2 60 05:57 22.02.2022
5179 Clear -27 1017 69 10000 4 30 02:45 22.02.2022
5180 Snow -26 1016 70 10000 4 30 22:46 21.02.2022
5181 Snow -26 1016 76 10000 4 30 21:42 21.02.2022
5182 Snow -26 1016 76 5000 4 30 20:35 21.02.2022
5183 Snow -25 1016 70 10000 4 30 18:46 21.02.2022
5184 Snow -25 1017 77 2400 2 10 17:36 21.02.2022
5185 Snow -26 1018 76 5000 2 30 15:22 21.02.2022
5186 Snow -26 1018 76 2400 2 30 14:21 21.02.2022
5187 Snow -26 1018 76 2400 2 30 14:21 21.02.2022
5188 Snow -27 1019 76 5000 2 30 13:22 21.02.2022
5189 Snow -28 1020 76 5000 2 360 12:23 21.02.2022
5190 Snow -30 1021 76 10000 2 360 11:19 21.02.2022
5191 Clear -32 1022 68 10000 2 350 09:34 21.02.2022
5192 Mist -32 1025 68 5000 1 20 05:35 21.02.2022
5193 Fog -40 1027 74 550 0 0 23:44 20.02.2022
5194 Fog -40 1028 67 600 0 0 22:25 20.02.2022
5195 Fog -40 1028 67 550 0 0 21:42 20.02.2022
5196 Fog -40 1028 67 800 0 0 20:53 20.02.2022
5197 Fog -40 1028 67 1000 0 0 20:35 20.02.2022
5198 Mist -39 1029 65 1000 0 0 19:32 20.02.2022
5199 Mist -39 1029 67 2400 0 0 18:50 20.02.2022
5200 Mist -39 1029 65 2400 0 0 18:31 20.02.2022
5201 Mist -39 1029 65 2400 0 0 18:31 20.02.2022
5202 Mist -40 1029 74 2400 0 0 17:49 20.02.2022
5203 Clear -37 1029 73 10000 2 310 15:37 20.02.2022
5204 Clear -37 1030 73 10000 2 320 14:42 20.02.2022
5205 Clear -36 1030 73 10000 1 340 13:23 20.02.2022
5206 Clear -36 1030 73 10000 2 350 12:28 20.02.2022
5207 Clear -34 1030 74 10000 2 10 10:47 20.02.2022
5208 Clear -33 1030 67 10000 1 360 10:19 20.02.2022
5209 Clear -29 1030 68 10000 2 180 08:50 20.02.2022
5210 Snow -37 1031 66 10000 1 280 00:54 20.02.2022
5211 Snow -37 1031 66 10000 1 280 00:54 20.02.2022
5212 Snow -37 1031 73 10000 1 260 00:30 20.02.2022
5213 Snow -37 1031 73 10000 0 0 22:47 19.02.2022
5214 Clear -37 1031 73 10000 0 0 22:22 19.02.2022
5215 Clear -37 1031 66 10000 1 320 21:25 19.02.2022
5216 Clear -37 1031 74 10000 0 0 19:53 19.02.2022
5217 Clear -36 1031 73 10000 1 330 19:28 19.02.2022
5218 Clear -36 1031 68 10000 2 330 18:33 19.02.2022
5219 Clear -36 1031 75 10000 2 320 17:36 19.02.2022
5220 Clear -36 1031 68 10000 1 320 16:28 19.02.2022
5221 Clear -34 1032 67 10000 2 340 14:56 19.02.2022
5222 Clear -34 1032 68 10000 2 320 14:37 19.02.2022
5223 Clear -34 1032 68 10000 2 320 13:22 19.02.2022
5224 Clear -34 1032 75 10000 1 10 11:37 19.02.2022
5225 Clear -31 1032 67 10000 0 0 09:55 19.02.2022
5226 Clear -28 1032 63 10000 1 170 06:54 19.02.2022
5227 Snow -31 1033 69 10000 0 0 03:38 19.02.2022
5228 Clear -36 1033 66 10000 0 0 23:29 18.02.2022
5229 Clear -36 1033 66 10000 0 0 21:49 18.02.2022
5230 Mist -37 1033 73 5000 0 0 20:51 18.02.2022
5231 Mist -37 1033 73 5000 0 0 19:53 18.02.2022
5232 Clear -36 1033 66 10000 1 280 18:50 18.02.2022
5233 Clear -37 1033 66 10000 1 290 18:22 18.02.2022
5234 Clear -37 1033 73 10000 1 320 17:50 18.02.2022
5235 Clear -34 1033 67 10000 2 310 14:50 18.02.2022
5236 Mist -34 1034 74 5000 2 310 13:55 18.02.2022
5237 Mist -34 1034 74 5000 1 340 12:53 18.02.2022
5238 Mist -34 1034 74 5000 1 20 12:32 18.02.2022
5239 Mist -34 1033 74 5000 2 40 11:27 18.02.2022
5240 Mist -33 1033 74 5000 1 50 10:23 18.02.2022
5241 Clear -28 1033 69 10000 1 170 06:56 18.02.2022
5242 Clear -30 1033 69 10000 1 170 05:39 18.02.2022
5243 Mist -39 1033 67 2400 1 330 23:24 17.02.2022
5244 Clear -38 1033 74 10000 1 310 21:45 17.02.2022
5245 Clear -37 1033 73 10000 1 280 21:19 17.02.2022
5246 Clear -37 1033 66 10000 1 290 20:37 17.02.2022
5247 Clear -36 1033 73 10000 1 320 19:48 17.02.2022
5248 Clear -36 1033 75 10000 0 0 18:41 17.02.2022
5249 Clear -35 1033 66 10000 2 330 17:50 17.02.2022
5250 Mist -37 1032 74 3200 0 0 16:25 17.02.2022
5251 Mist -35 1032 75 3200 1 290 15:32 17.02.2022
5252 Clear -34 1032 75 10000 1 330 14:26 17.02.2022
5253 Clear -33 1032 75 10000 1 50 12:35 17.02.2022
5254 Clear -32 1032 75 10000 1 50 11:21 17.02.2022
5255 Clear -27 1032 62 10000 1 160 08:52 17.02.2022
5256 Clear -32 1033 68 10000 0 0 01:45 17.02.2022
5257 Clear -34 1034 68 10000 1 330 23:19 16.02.2022
5258 Clear -34 1034 75 10000 0 0 21:31 16.02.2022
5259 Clear -34 1034 68 10000 0 0 19:47 16.02.2022
5260 Clear -34 1034 75 10000 0 0 18:38 16.02.2022
5261 Clear -34 1034 75 10000 0 0 17:53 16.02.2022
5262 Clear -32 1035 68 10000 2 170 15:38 16.02.2022
5263 Clear -32 1035 68 10000 2 170 15:18 16.02.2022
5264 Clear -32 1035 68 10000 0 0 12:59 16.02.2022
5265 Clear -32 1035 68 10000 1 140 11:58 16.02.2022
5266 Clear -33 1035 75 10000 0 0 11:26 16.02.2022
5267 Mist -32 1035 68 5000 1 80 10:33 16.02.2022
5268 Mist -32 1036 75 5000 1 150 07:54 16.02.2022
5269 Mist -33 1036 68 5000 1 170 06:26 16.02.2022
5270 Fog -41 1037 65 550 1 310 23:45 15.02.2022
5271 Fog -39 1037 65 400 0 0 22:29 15.02.2022
5272 Fog -39 1037 65 900 2 310 21:47 15.02.2022
5273 Fog -40 1038 72 900 1 330 21:27 15.02.2022
5274 Fog -39 1037 65 900 2 330 20:56 15.02.2022
5275 Fog -39 1038 65 900 2 330 19:57 15.02.2022
5276 Mist -39 1038 65 1000 3.13 320 18:56 15.02.2022
5277 Mist -39 1038 73 1200 1 350 18:22 15.02.2022
5278 Mist -38 1038 66 2400 1 360 17:50 15.02.2022
5279 Mist -38 1038 66 2400 3.13 320 16:50 15.02.2022
5280 Clear -38 1038 66 10000 2 320 15:28 15.02.2022
5281 Clear -37 1038 73 10000 1 10 13:27 15.02.2022
5282 Clear -37 1038 73 10000 1 10 12:37 15.02.2022
5283 Clear -37 1038 66 10000 2 20 11:40 15.02.2022
5284 Clear -35 1038 66 10000 1 40 09:31 15.02.2022
5285 Clear -33 1038 68 10000 2 60 06:59 15.02.2022
5286 Mist -35 1038 68 5000 2 60 05:32 15.02.2022
5287 Fog -41 1039 65 400 1 340 23:33 14.02.2022
5288 Fog -40 1039 65 450 1 330 21:54 14.02.2022
5289 Fog -40 1039 65 900 2 330 20:40 14.02.2022
5290 Fog -39 1039 65 600 2 330 19:44 14.02.2022
5291 Fog -39 1039 73 1200 2 320 19:25 14.02.2022
5292 Mist -38 1039 66 1300 2 320 18:23 14.02.2022
5293 Mist -38 1039 66 3200 2 320 17:26 14.02.2022
5294 Clear -38 1040 73 10000 2 330 16:25 14.02.2022
5295 Clear -37 1040 73 10000 1.79 330 14:39 14.02.2022
5296 Clear -37 1040 66 10000 1 340 13:33 14.02.2022
5297 Clear -37 1040 73 10000 0 0 12:55 14.02.2022
5298 Clear -36 1041 73 10000 1 350 11:55 14.02.2022
5299 Clear -35 1041 66 10000 1 10 10:58 14.02.2022
5300 Clear -32 1041 67 10000 1 40 08:46 14.02.2022
5301 Clear -31 1041 61 10000 1 60 07:33 14.02.2022
5302 Clear -32 1042 68 10000 1 70 06:32 14.02.2022
5303 Mist -38 1043 66 1500 2 320 22:43 13.02.2022
5304 Mist -39 1043 73 1500 2 320 22:25 13.02.2022
5305 Mist -38 1043 66 5000 1 350 21:36 13.02.2022
5306 Mist -38 1043 66 5000 2 320 20:42 13.02.2022
5307 Clear -38 1043 67 10000 1 330 19:51 13.02.2022
5308 Clear -37 1043 73 10000 1 340 18:54 13.02.2022
5309 Clear -37 1043 66 10000 1 360 18:35 13.02.2022
5310 Clear -36 1044 68 10000 1 340 16:38 13.02.2022
5311 Clear -36 1044 75 10000 1 360 15:27 13.02.2022
5312 Clear -35 1044 75 10000 1 360 14:37 13.02.2022
5313 Clear -33 1044 75 10000 2 20 12:52 13.02.2022
5314 Clear -33 1044 75 10000 2 10 12:18 13.02.2022
5315 Clear -33 1044 75 10000 2 360 10:38 13.02.2022
5316 Clear -32 1044 75 10000 2 10 09:49 13.02.2022
5317 Clear -27 1044 69 10000 1 170 07:54 13.02.2022
5318 Clear -34 1044 68 10000 1 180 00:49 13.02.2022
5319 Clear -35 1044 75 10000 2 160 00:20 13.02.2022
5320 Clear -35 1044 75 10000 1 150 22:34 12.02.2022
5321 Clear -35 1044 75 10000 1 170 21:40 12.02.2022
5322 Clear -36 1044 75 10000 1 180 20:55 12.02.2022
5323 Mist -37 1044 74 5000 0 0 19:56 12.02.2022
5324 Mist -38 1044 74 5000 1 170 18:54 12.02.2022
5325 Mist -38 1044 74 5000 1 170 18:54 12.02.2022
5326 Mist -37 1044 74 5000 0 0 18:35 12.02.2022
5327 Mist -37 1044 74 5000 0 0 17:38 12.02.2022
5328 Mist -37 1044 67 5000 1 260 16:44 12.02.2022
5329 Clear -38 1044 67 10000 1 280 15:52 12.02.2022
5330 Clear -37 1044 66 10000 0 0 15:20 12.02.2022
5331 Clear -37 1044 73 10000 0 0 14:25 12.02.2022
5332 Clear -35 1043 66 10000 0 0 11:31 12.02.2022
5333 Clear -33 1043 67 10000 1 40 10:30 12.02.2022
5334 Clear -31 1043 74 10000 1 190 09:37 12.02.2022
5335 Clear -30 1043 68 10000 2 190 08:46 12.02.2022
5336 Clear -29 1043 69 10000 2 180 06:52 12.02.2022
5337 Clear -32 1043 68 10000 2 170 04:47 12.02.2022
5338 Clear -35 1043 75 10000 1 190 02:19 12.02.2022
5339 Clear -38 1043 73 10000 2 180 23:21 11.02.2022
5340 Clear -39 1043 73 10000 0 0 22:21 11.02.2022
5341 Clear -38 1043 73 10000 0 0 21:32 11.02.2022
5342 Clear -38 1043 73 10000 1 240 20:26 11.02.2022
5343 Clear -37 1043 73 10000 0 0 19:28 11.02.2022
5344 Clear -37 1043 66 10000 1 230 18:29 11.02.2022
5345 Clear -36 1043 73 10000 1 180 17:27 11.02.2022
5346 Clear -37 1043 66 10000 0.89 150 16:40 11.02.2022
5347 Clear -37 1043 66 10000 0 0 15:19 11.02.2022
5348 Clear -36 1043 66 10000 0 0 14:37 11.02.2022
5349 Clear -37 1043 73 10000 0 0 14:19 11.02.2022
5350 Clear -37 1043 73 10000 0 0 13:44 11.02.2022
5351 Clear -37 1043 73 10000 1 190 13:25 11.02.2022
5352 Clear -31 1042 74 10000 2 190 10:59 11.02.2022
5353 Clear -29 1042 75 10000 2 180 09:32 11.02.2022
5354 Clear -26 1042 62 10000 1 190 08:33 11.02.2022
5355 Clear -26 1042 62 10000 1.79 180 07:45 11.02.2022
5356 Clear -27 1042 62 10000 2 170 06:22 11.02.2022
5357 Clear -30 1042 68 10000 1 200 02:21 11.02.2022
5358 Clear -30 1041 76 10000 0 0 23:45 10.02.2022
5359 Clear -30 1041 76 10000 0 0 22:26 10.02.2022
5360 Clear -30 1041 69 10000 0 0 21:41 10.02.2022
5361 Clear -31 1041 76 10000 0 0 20:50 10.02.2022
5362 Clear -32 1041 75 10000 0 0 19:51 10.02.2022
5363 Clear -32 1040 75 10000 0 0 19:22 10.02.2022
5364 Clear -33 1040 75 10000 0 0 18:32 10.02.2022
5365 Clear -33 1040 67 10000 1 300 17:21 10.02.2022
5366 Clear -33 1040 67 10000 1.79 320 16:43 10.02.2022
5367 Clear -36 1040 73 10000 1 320 15:40 10.02.2022
5368 Clear -37 1040 73 10000 1 320 15:21 10.02.2022
5369 Clear -38 1040 74 10000 0 0 14:35 10.02.2022
5370 Clear -37 1040 67 10000 0 0 13:40 10.02.2022
5371 Clear -37 1040 67 10000 0 0 13:19 10.02.2022
5372 Clear -35 1039 68 10000 0 0 11:52 10.02.2022
5373 Clear -35 1039 68 10000 1 180 11:30 10.02.2022
5374 Clear -35 1039 75 10000 1 200 10:23 10.02.2022
5375 Clear -34 1039 68 10000 1 180 09:44 10.02.2022
5376 Clear -31 1038 69 10000 2 180 08:40 10.02.2022
5377 Clear -31 1038 62 10000 2 160 06:33 10.02.2022
5378 Clear -33 1038 68 10000 1 320 02:43 10.02.2022
5379 Clear -38 1038 74 10000 0 0 00:53 10.02.2022
5380 Clear -37 1038 67 10000 1 170 00:30 10.02.2022
5381 Clear -37 1038 74 10000 1 170 23:58 09.02.2022
5382 Clear -35 1038 75 10000 2 320 22:54 09.02.2022
5383 Clear -36 1038 68 10000 0 0 22:30 09.02.2022
5384 Clear -36 1038 75 10000 1 290 21:47 09.02.2022
5385 Clear -37 1038 74 10000 1 300 21:27 09.02.2022
5386 Clear -38 1037 74 10000 0 0 20:43 09.02.2022
5387 Clear -38 1037 73 10000 0 0 20:22 09.02.2022
5388 Clear -38 1037 73 10000 1 300 19:41 09.02.2022
5389 Clear -37 1037 66 10000 0 0 18:38 09.02.2022
5390 Clear -35 1037 66 10000 2 310 16:55 09.02.2022
5391 Clear -35 1037 74 10000 3.13 320 15:59 09.02.2022
5392 Clear -38 1036 73 10000 1 310 15:22 09.02.2022
5393 Clear -37 1036 66 10000 1 20 12:43 09.02.2022
5394 Clear -36 1036 73 10000 0 0 11:29 09.02.2022
5395 Mist -35 1035 66 3200 1 160 10:33 09.02.2022
5396 Mist -34 1035 74 3200 1 180 09:47 09.02.2022
5397 Clear -33 1035 74 10000 1 180 09:21 09.02.2022
5398 Clear -32 1035 67 10000 1 160 08:43 09.02.2022
5399 Clear -32 1034 68 10000 1 80 05:57 09.02.2022
5400 Mist -34 1034 75 5000 0 0 03:51 09.02.2022
5401 Mist -34 1034 68 5000 1 170 03:25 09.02.2022
5402 Mist -37 1033 66 5000 0 0 23:45 08.02.2022
5403 Mist -38 1032 73 5000 1 210 23:18 08.02.2022
5404 Mist -37 1032 66 5000 1 300 22:38 08.02.2022
5405 Mist -37 1032 73 5000 1 300 22:18 08.02.2022
5406 Mist -37 1032 73 5000 2 310 21:22 08.02.2022
5407 Mist -37 1032 73 5000 2 310 21:22 08.02.2022
5408 Mist -37 1032 73 5000 2 310 21:22 08.02.2022
5409 Mist -38 1032 73 5000 1 290 20:57 08.02.2022
5410 Mist -37 1031 66 5000 1 290 20:34 08.02.2022
5411 Snow -37 1031 73 10000 0 0 19:18 08.02.2022
5412 Snow -35 1030 66 10000 2 330 17:58 08.02.2022
5413 Clear -35 1030 74 10000 2 320 16:56 08.02.2022
5414 Clear -35 1030 74 10000 2 330 15:46 08.02.2022
5415 Clear -36 1030 73 10000 2 320 14:58 08.02.2022
5416 Clear -36 1029 73 10000 2 330 13:48 08.02.2022
5417 Clear -35 1029 74 10000 1 320 12:24 08.02.2022
5418 Clear -33 1028 74 10000 2 350 10:48 08.02.2022
5419 Clear -32 1028 67 10000 2 350 09:47 08.02.2022
5420 Clear -30 1027 68 10000 1 10 08:38 08.02.2022
5421 Clear -30 1026 68 10000 1 90 06:24 08.02.2022
5422 Snow -29 1026 68 10000 1 50 04:40 08.02.2022
5423 Snow -30 1026 68 10000 1 50 04:22 08.02.2022
5424 Snow -31 1026 74 10000 1 40 03:36 08.02.2022
5425 Snow -31 1026 74 10000 1 40 03:18 08.02.2022
5426 Snow -31 1026 74 10000 1 40 02:59 08.02.2022
5427 Snow -32 1026 74 10000 2 350 02:36 08.02.2022
5428 Snow -32 1026 74 10000 2 350 02:18 08.02.2022
5429 Snow -32 1026 67 10000 1 20 01:44 08.02.2022
5430 Snow -33 1025 75 10000 1 330 01:25 08.02.2022
5431 Snow -34 1025 75 10000 1 360 00:55 08.02.2022
5432 Snow -34 1025 75 10000 1 350 00:21 08.02.2022
5433 Snow -34 1025 68 10000 1 360 23:44 07.02.2022
5434 Snow -35 1025 74 10000 1 360 23:18 07.02.2022
5435 Clear -35 1025 66 10000 1 350 22:59 07.02.2022
5436 Clear -35 1025 68 10000 1 10 22:19 07.02.2022
5437 Clear -35 1025 68 10000 1 320 21:50 07.02.2022
5438 Clear -36 1025 73 10000 1 20 21:27 07.02.2022
5439 Clear -35 1025 66 10000 2 10 20:43 07.02.2022
5440 Clear -36 1025 73 10000 1 10 20:24 07.02.2022
5441 Clear -37 1025 73 10000 1 20 19:47 07.02.2022
5442 Clear -35 1025 74 10000 1 30 18:34 07.02.2022
5443 Clear -33 1025 68 10000 2 40 16:53 07.02.2022
5444 Clear -33 1025 68 10000 2 30 16:24 07.02.2022
5445 Clear -33 1025 75 10000 1 40 15:48 07.02.2022
5446 Clear -34 1025 74 10000 2 40 13:39 07.02.2022
5447 Clear -35 1025 66 10000 2 40 13:21 07.02.2022
5448 Clear -36 1025 75 10000 2 20 11:58 07.02.2022
5449 Clear -35 1025 68 10000 2 30 11:38 07.02.2022
5450 Clear -35 1025 68 10000 2 40 10:54 07.02.2022
5451 Clear -34 1024 68 10000 2 20 10:36 07.02.2022
5452 Clear -34 1024 68 10000 3 360 09:53 07.02.2022
5453 Clear -33 1024 68 10000 3 20 09:18 07.02.2022
5454 Clear -33 1024 67 10000 3.13 20 08:44 07.02.2022
5455 Clear -33 1024 68 10000 3 10 07:34 07.02.2022
5456 Clear -33 1024 62 10000 2 50 06:34 07.02.2022
5457 Mist -36 1024 75 5000 2 30 04:22 07.02.2022
5458 Mist -37 1024 66 3200 3.13 20 01:30 07.02.2022
5459 Snow -37 1024 66 10000 3.13 30 23:51 06.02.2022
5460 Snow -37 1024 73 10000 3.13 20 23:19 06.02.2022
5461 Clear -37 1024 73 10000 3.13 20 22:39 06.02.2022
5462 Clear -36 1024 66 10000 4.02 20 21:37 06.02.2022
5463 Clear -36 1024 66 10000 4.02 20 21:18 06.02.2022
5464 Clear -36 1024 66 10000 3.13 20 20:48 06.02.2022
5465 Clear -37 1024 73 10000 3.13 10 20:21 06.02.2022
5466 Snow -36 1024 73 10000 3.13 20 18:54 06.02.2022
5467 Snow -37 1024 73 10000 1.79 20 18:27 06.02.2022
5468 Snow -36 1024 66 10000 0.89 10 17:29 06.02.2022
5469 Snow -36 1024 73 10000 3.13 20 16:51 06.02.2022
5470 Snow -35 1025 66 10000 1.79 20 15:51 06.02.2022
5471 Snow -35 1024 74 10000 1.79 20 15:28 06.02.2022
5472 Snow -35 1024 74 10000 1.79 20 14:59 06.02.2022
5473 Snow -35 1024 66 10000 1.79 30 13:59 06.02.2022
5474 Snow -35 1024 74 10000 3.13 20 13:20 06.02.2022
5475 Snow -35 1024 74 10000 3.13 10 12:19 06.02.2022
5476 Snow -34 1024 74 10000 3.13 30 10:33 06.02.2022
5477 Snow -33 1024 67 10000 1.79 20 09:43 06.02.2022
5478 Snow -32 1024 74 10000 1.79 10 08:41 06.02.2022
5479 Snow -31 1024 67 10000 0 0 06:34 06.02.2022
5480 Clear -31 1024 74 10000 0.89 10 05:28 06.02.2022
5481 Clear -31 1024 74 10000 0.89 10 05:28 06.02.2022
5482 Clear -33 1024 74 10000 0.89 30 02:25 06.02.2022
5483 Snow -33 1024 75 10000 1 70 00:32 06.02.2022
5484 Snow -32 1024 75 10000 0 0 23:39 05.02.2022
5485 Snow -31 1025 69 5000 1 70 21:47 05.02.2022
5486 Snow -32 1025 74 10000 1 10 20:41 05.02.2022
5487 Snow -33 1025 74 10000 0.89 10 20:20 05.02.2022
5488 Snow -32 1025 67 10000 0.89 60 19:42 05.02.2022
5489 Snow -33 1025 74 10000 0.89 340 18:37 05.02.2022
5490 Snow -32 1025 74 10000 0.89 340 17:35 05.02.2022
5491 Snow -32 1026 74 10000 0.89 10 16:20 05.02.2022
5492 Snow -33 1026 74 10000 0.89 10 15:31 05.02.2022
5493 Snow -32 1026 74 10000 1.79 360 13:38 05.02.2022
5494 Clear -32 1026 67 10000 0.89 360 12:46 05.02.2022
5495 Clear -32 1026 67 10000 0.89 10 11:45 05.02.2022
5496 Snow -31 1026 67 10000 1.79 10 10:43 05.02.2022
5497 Snow -31 1026 74 10000 1.79 20 09:50 05.02.2022
5498 Snow -29 1026 75 10000 0.89 60 08:47 05.02.2022
5499 Clear -29 1026 68 10000 1.79 180 06:59 05.02.2022
5500 Clear -29 1026 68 10000 1.79 180 06:35 05.02.2022
5501 Snow -36 1026 68 10000 0 0 02:40 05.02.2022
5502 Snow -37 1026 73 10000 0 0 01:18 05.02.2022
5503 Snow -35 1026 66 10000 0.89 110 00:36 05.02.2022
5504 Snow -35 1026 74 5000 0.89 290 23:33 04.02.2022
5505 Clear -37 1026 73 10000 1.79 280 22:45 04.02.2022
5506 Clear -38 1026 67 10000 1 290 21:36 04.02.2022
5507 Clear -38 1026 67 10000 1 290 21:18 04.02.2022
5508 Clear -37 1026 67 10000 1 280 20:36 04.02.2022
5509 Clear -38 1026 67 10000 0 0 19:18 04.02.2022
5510 Clear -36 1026 75 10000 2 320 16:22 04.02.2022
5511 Clear -35 1027 68 10000 2 340 15:19 04.02.2022
5512 Clear -35 1027 75 10000 2 10 14:40 04.02.2022
5513 Clear -34 1027 75 10000 2 350 12:43 04.02.2022
5514 Clear -33 1027 75 10000 2 90 11:45 04.02.2022
5515 Clear -32 1026 74 10000 3.13 20 10:55 04.02.2022
5516 Clear -28 1026 75 10000 1.79 300 09:56 04.02.2022
5517 Clear -26 1026 69 10000 3.13 300 07:56 04.02.2022
5518 Clear -28 1026 68 10000 3.13 310 03:47 04.02.2022
5519 Clear -29 1026 68 10000 1.79 350 02:36 04.02.2022
5520 Clear -30 1027 68 10000 1.79 250 23:40 03.02.2022
5521 Clouds -31 1027 74 10000 0.89 300 22:51 03.02.2022
5522 Clouds -28 1027 75 10000 0.89 310 21:52 03.02.2022
5523 Clouds -28 1027 75 10000 0.89 310 21:29 03.02.2022
5524 Clouds -27 1027 68 10000 0.89 330 20:22 03.02.2022
5525 Clear -27 1027 68 10000 3.13 300 19:46 03.02.2022
5526 Clear -28 1027 68 10000 0.89 300 18:56 03.02.2022
5527 Clear -29 1028 76 10000 1 320 17:59 03.02.2022
5528 Clear -28 1028 75 10000 0.89 320 16:55 03.02.2022
5529 Clear -28 1028 75 10000 1.79 300 15:34 03.02.2022
5530 Clear -30 1029 76 10000 0 0 13:50 03.02.2022
5531 Clear -31 1029 76 10000 0 0 12:22 03.02.2022
5532 Clear -30 1029 75 10000 0.89 200 08:56 03.02.2022
5533 Clear -29 1029 68 10000 0.89 190 07:41 03.02.2022
5534 Clear -38 1029 73 10000 0 0 00:49 03.02.2022
5535 Clear -38 1029 73 10000 0 0 00:22 03.02.2022
5536 Clear -37 1029 66 10000 0 0 22:39 02.02.2022
5537 Clear -38 1028 73 10000 1.79 310 21:46 02.02.2022
5538 Clear -37 1029 73 10000 1.79 280 21:28 02.02.2022
5539 Clear -38 1029 67 10000 0 0 20:24 02.02.2022
5540 Clear -38 1029 67 10000 0 0 19:46 02.02.2022
5541 Clear -37 1028 74 10000 1 340 18:56 02.02.2022
5542 Clear -37 1028 67 10000 0 0 18:24 02.02.2022
5543 Snow -37 1028 74 10000 0 0 17:20 02.02.2022
5544 Snow -36 1028 75 10000 0 0 16:56 02.02.2022
5545 Snow -32 1027 75 10000 1 50 15:23 02.02.2022
5546 Snow -31 1027 76 5000 1 40 12:30 02.02.2022
5547 Snow -31 1027 76 5000 1 30 11:48 02.02.2022
5548 Snow -30 1027 75 10000 0.89 100 11:30 02.02.2022
5549 Snow -30 1027 75 10000 0.89 100 11:30 02.02.2022
5550 Snow -29 1025 68 5000 1.79 50 08:30 02.02.2022
5551 Snow -29 1024 68 10000 3.13 330 01:46 02.02.2022
5552 Snow -29 1024 75 10000 0.89 300 22:33 01.02.2022
5553 Snow -28 1024 75 10000 0.89 280 20:51 01.02.2022
5554 Snow -31 1024 76 10000 0 0 19:23 01.02.2022
5555 Snow -31 1025 74 10000 0 0 16:57 01.02.2022
5556 Snow -31 1025 74 10000 0 0 16:19 01.02.2022
5557 Snow -31 1026 76 10000 1 30 12:57 01.02.2022
5558 Snow -31 1026 76 10000 1 10 11:57 01.02.2022
5559 Snow -30 1026 76 10000 2 20 08:51 01.02.2022
5560 Snow -30 1026 68 10000 0.89 30 02:20 01.02.2022
5561 Snow -30 1026 75 10000 1.79 320 23:37 31.01.2022
5562 Snow -29 1026 75 5000 0.89 230 22:33 31.01.2022
5563 Snow -29 1026 75 5000 0 0 21:35 31.01.2022
5564 Snow -29 1026 75 5000 0 0 21:35 31.01.2022
5565 Snow -29 1026 75 10000 0 0 20:34 31.01.2022
5566 Snow -29 1026 75 10000 0 0 19:57 31.01.2022
5567 Snow -29 1026 68 10000 0.89 350 18:32 31.01.2022
5568 Snow -28 1026 68 10000 0.89 360 17:57 31.01.2022
5569 Snow -28 1026 68 10000 0 0 17:18 31.01.2022
5570 Snow -29 1026 75 10000 0 0 16:23 31.01.2022
5571 Snow -28 1026 75 10000 0 0 14:53 31.01.2022
5572 Snow -28 1027 75 10000 0.89 160 13:31 31.01.2022
5573 Snow -29 1027 75 10000 0 0 12:37 31.01.2022
5574 Snow -29 1027 68 10000 0 0 11:20 31.01.2022
5575 Snow -29 1027 68 10000 0.89 40 10:47 31.01.2022
5576 Snow -30 1027 75 5000 0.89 50 09:37 31.01.2022
5577 Snow -30 1028 75 5000 0.89 40 08:56 31.01.2022
5578 Snow -30 1028 76 10000 0 0 08:20 31.01.2022
5579 Snow -30 1028 69 10000 1 130 07:40 31.01.2022
5580 Snow -32 1028 68 5000 0 0 05:25 31.01.2022
5581 Mist -36 1029 66 2000 0.89 90 00:24 31.01.2022
5582 Fog -38 1029 66 800 0 0 22:33 30.01.2022
5583 Fog -38 1030 66 700 0.89 350 21:46 30.01.2022
5584 Fog -38 1030 66 700 0.89 360 21:24 30.01.2022
5585 Mist -38 1030 66 1100 0.89 330 20:53 30.01.2022
5586 Mist -38 1029 66 1500 0.89 70 20:31 30.01.2022
5587 Mist -39 1029 74 1500 0 0 19:56 30.01.2022
5588 Mist -38 1029 66 3200 0.89 330 18:51 30.01.2022
5589 Mist -38 1029 66 3200 0.89 20 18:22 30.01.2022
5590 Mist -39 1029 67 3200 1 330 17:31 30.01.2022
5591 Mist -38 1029 66 3200 0.89 320 16:43 30.01.2022
5592 Mist -38 1029 66 3200 0.89 320 16:23 30.01.2022
5593 Mist -39 1029 67 5000 1 360 15:54 30.01.2022
5594 Mist -38 1029 66 5000 0.89 360 15:33 30.01.2022
5595 Mist -38 1029 66 5000 0.89 340 14:47 30.01.2022
5596 Clear -37 1029 66 10000 1.79 10 13:47 30.01.2022
5597 Clear -37 1029 73 10000 1.79 360 12:46 30.01.2022
5598 Clear -37 1029 73 10000 1.79 10 10:47 30.01.2022
5599 Clear -37 1029 66 10000 1.79 20 10:25 30.01.2022
5600 Clear -37 1028 74 10000 1 30 09:23 30.01.2022
5601 Clear -35 1028 75 10000 2 40 07:59 30.01.2022
5602 Mist -36 1026 68 2100 0 0 02:44 30.01.2022
5603 Clear -35 1025 66 10000 0.89 300 01:54 30.01.2022
5604 Clear -35 1024 66 10000 0.89 320 23:49 29.01.2022
5605 Clear -36 1024 66 10000 0.89 270 22:50 29.01.2022
5606 Clear -35 1024 66 10000 1.79 160 21:29 29.01.2022
5607 Clear -36 1023 73 10000 0 0 20:57 29.01.2022
5608 Clear -36 1023 66 10000 0 0 19:52 29.01.2022
5609 Clear -35 1023 66 10000 0 0 19:31 29.01.2022
5610 Clear -36 1023 73 10000 0 0 18:44 29.01.2022
5611 Clear -35 1022 66 10000 0 0 17:54 29.01.2022
5612 Clear -35 1022 66 10000 0.89 300 16:44 29.01.2022
5613 Clear -35 1022 74 10000 1.79 290 15:25 29.01.2022
5614 Mist -35 1022 75 5000 1 280 13:48 29.01.2022
5615 Mist -35 1021 68 5000 1 240 13:27 29.01.2022
5616 Mist -36 1021 75 5000 1 240 12:52 29.01.2022
5617 Clear -36 1021 75 10000 0 0 11:39 29.01.2022
5618 Clear -34 1021 68 10000 1 340 10:32 29.01.2022
5619 Clear -29 1019 75 10000 0.89 110 07:57 29.01.2022
5620 Snow -33 1018 75 10000 2 300 01:38 29.01.2022
5621 Clear -32 1017 74 10000 0.89 270 00:31 29.01.2022
5622 Clear -32 1017 74 10000 0.89 270 00:31 29.01.2022
5623 Snow -33 1017 67 10000 0.89 280 23:29 28.01.2022
5624 Clear -33 1017 74 10000 0.89 240 22:46 28.01.2022
5625 Clear -34 1017 74 10000 1.79 270 22:18 28.01.2022
5626 Clear -36 1017 75 10000 1 280 20:41 28.01.2022
5627 Clear -36 1017 68 10000 1 220 19:53 28.01.2022
5628 Clear -34 1017 74 10000 0.89 240 18:51 28.01.2022
5629 Clear -34 1017 74 10000 1.79 220 17:52 28.01.2022
5630 Clear -37 1018 74 10000 1 240 15:46 28.01.2022
5631 Clear -36 1018 73 10000 1.79 260 14:46 28.01.2022
5632 Clear -37 1019 74 10000 1 320 12:40 28.01.2022
5633 Clear -36 1019 75 10000 0 0 11:38 28.01.2022
5634 Clear -36 1019 75 10000 0 0 11:38 28.01.2022
5635 Clear -37 1019 67 10000 0 0 10:22 28.01.2022
5636 Clear -35 1019 66 10000 0.89 180 09:45 28.01.2022
5637 Clear -33 1019 67 10000 0.89 170 07:40 28.01.2022
5638 Clear -34 1020 68 10000 1 170 05:30 28.01.2022
5639 Mist -35 1020 66 5000 0.89 230 03:48 28.01.2022
5640 Mist -36 1022 73 5000 1.79 160 02:23 28.01.2022
5641 Clear -37 1022 66 10000 0.89 230 01:35 28.01.2022
5642 Clear -35 1022 74 10000 0.89 220 23:47 27.01.2022
5643 Clear -35 1024 75 10000 1 170 21:58 27.01.2022
5644 Clear -35 1024 75 10000 1 180 21:34 27.01.2022
5645 Clear -35 1024 75 10000 2 170 20:55 27.01.2022
5646 Clear -36 1025 75 10000 1 180 19:35 27.01.2022
5647 Mist -36 1026 68 5000 0 0 17:58 27.01.2022
5648 Mist -36 1027 68 5000 0 0 15:43 27.01.2022
5649 Mist -37 1028 67 1500 1 290 13:39 27.01.2022
5650 Mist -38 1028 67 1100 0 0 12:46 27.01.2022
5651 Clear -39 1027 73 10000 0.89 360 10:59 27.01.2022
5652 Clear -39 1027 73 10000 0.89 360 09:27 27.01.2022
5653 Clear -39 1027 73 10000 0.89 30 08:39 27.01.2022
5654 Clear -36 1027 66 10000 0.89 70 07:23 27.01.2022
5655 Mist -37 1025 66 5000 0.89 30 02:59 27.01.2022
5656 Clear -37 1025 73 10000 0.89 40 23:52 26.01.2022
5657 Clear -36 1024 73 10000 1.79 40 22:27 26.01.2022
5658 Clear -35 1024 66 10000 0.89 40 21:41 26.01.2022
5659 Snow -33 1024 67 10000 3.13 30 20:42 26.01.2022
5660 Snow -31 1024 67 10000 3.13 30 20:23 26.01.2022
5661 Snow -30 1024 68 5000 3.13 30 19:28 26.01.2022
5662 Snow -30 1023 68 5000 3.13 10 18:46 26.01.2022
5663 Snow -30 1023 75 5000 3.13 20 17:52 26.01.2022
5664 Snow -30 1023 75 5000 3.13 10 17:24 26.01.2022
5665 Snow -30 1023 75 10000 1.79 10 16:40 26.01.2022
5666 Snow -30 1023 75 10000 1.79 20 15:50 26.01.2022
5667 Snow -30 1023 76 5000 2 10 14:23 26.01.2022
5668 Snow -30 1023 76 10000 2 20 11:56 26.01.2022
5669 Snow -30 1023 76 5000 2 10 10:45 26.01.2022
5670 Snow -31 1023 76 5000 2 10 09:49 26.01.2022
5671 Snow -30 1023 76 5000 1 10 08:32 26.01.2022
5672 Clear -27 1023 76 10000 1 180 05:42 26.01.2022
5673 Clear -30 1024 76 10000 3 260 00:18 26.01.2022
5674 Snow -28 1024 68 5000 1.79 290 23:28 25.01.2022
5675 Snow -27 1024 75 5000 3.13 300 22:48 25.01.2022
5676 Snow -27 1023 75 5000 3.13 280 22:18 25.01.2022
5677 Clear -31 1024 76 10000 1 260 21:22 25.01.2022
5678 Clear -33 1024 75 10000 1 260 20:44 25.01.2022
5679 Clear -35 1024 68 10000 2 250 19:53 25.01.2022
5680 Clear -35 1024 68 10000 2 250 19:53 25.01.2022
5681 Clear -36 1024 75 10000 1 270 18:46 25.01.2022
5682 Clear -35 1024 68 10000 1 260 17:45 25.01.2022
5683 Clear -35 1024 68 10000 0 0 16:58 25.01.2022
5684 Clear -35 1024 68 10000 0 0 16:34 25.01.2022
5685 Clear -35 1024 75 10000 1 320 15:39 25.01.2022
5686 Snow -35 1023 75 10000 0 0 14:58 25.01.2022
5687 Snow -34 1023 68 10000 1 330 13:47 25.01.2022
5688 Clear -34 1023 75 10000 0 0 10:59 25.01.2022
5689 Clear -33 1022 68 10000 1 20 09:20 25.01.2022
5690 Clear -29 1022 69 10000 0 0 07:30 25.01.2022
5691 Clear -30 1022 69 10000 0 0 06:53 25.01.2022
5692 Clear -30 1021 69 10000 1 70 05:22 25.01.2022
5693 Snow -29 1019 76 10000 2 40 23:37 24.01.2022
5694 Snow -29 1019 76 10000 2 40 23:19 24.01.2022
5695 Snow -29 1019 76 10000 2 30 23:00 24.01.2022
5696 Snow -28 1019 76 5000 2 50 22:41 24.01.2022
5697 Snow -27 1019 76 5000 3 50 21:55 24.01.2022
5698 Snow -27 1019 76 5000 2 50 21:32 24.01.2022
5699 Snow -26 1019 70 5000 4 30 20:33 24.01.2022
5700 Snow -26 1019 76 5000 3 40 19:57 24.01.2022
5701 Snow -26 1019 76 10000 3 40 19:35 24.01.2022
5702 Snow -26 1019 76 10000 2 30 18:35 24.01.2022
5703 Snow -26 1019 76 10000 3 40 17:24 24.01.2022
5704 Snow -26 1019 76 10000 3 40 16:55 24.01.2022
5705 Snow -25 1019 69 10000 3.13 40 16:21 24.01.2022
5706 Snow -24 1020 76 10000 1.79 360 14:44 24.01.2022
5707 Snow -24 1020 76 10000 1.79 20 13:26 24.01.2022
5708 Snow -25 1020 76 10000 1.79 10 12:30 24.01.2022
5709 Snow -25 1021 76 10000 1.79 20 10:46 24.01.2022
5710 Snow -26 1021 75 10000 1.79 20 09:49 24.01.2022
5711 Snow -26 1021 75 10000 1.79 10 08:54 24.01.2022
5712 Snow -26 1022 75 10000 0.89 10 07:19 24.01.2022
5713 Snow -30 1024 75 10000 0.89 30 01:31 24.01.2022
5714 Snow -29 1023 76 10000 1 20 00:45 24.01.2022
5715 Snow -28 1024 76 10000 1 360 00:26 24.01.2022
5716 Snow -27 1024 76 10000 2 60 22:43 23.01.2022
5717 Snow -26 1024 76 10000 1 40 21:50 23.01.2022
5718 Snow -26 1024 76 10000 1 50 21:26 23.01.2022
5719 Snow -26 1024 76 10000 0 0 20:48 23.01.2022
5720 Snow -27 1024 75 10000 0.89 90 19:54 23.01.2022
5721 Snow -27 1024 75 10000 0 0 18:52 23.01.2022
5722 Snow -26 1024 75 10000 0 0 17:52 23.01.2022
5723 Snow -27 1024 75 10000 1.79 340 16:48 23.01.2022
5724 Snow -27 1024 75 10000 1.79 10 15:18 23.01.2022
5725 Clouds -27 1024 75 10000 3.13 40 14:32 23.01.2022
5726 Clouds -28 1024 75 10000 0.89 360 13:27 23.01.2022
5727 Clear -27 1024 75 10000 1.79 50 12:36 23.01.2022
5728 Clear -27 1024 75 10000 1.79 50 12:18 23.01.2022
5729 Snow -27 1024 75 10000 0.89 40 11:24 23.01.2022
5730 Snow -27 1024 68 10000 1.79 30 10:57 23.01.2022
5731 Snow -27 1024 75 10000 0.89 10 10:21 23.01.2022
5732 Snow -28 1025 75 10000 0.89 60 09:19 23.01.2022
5733 Snow -28 1025 76 10000 1 60 05:58 23.01.2022
5734 Snow -28 1025 68 5000 1.79 20 02:25 23.01.2022
5735 Snow -29 1025 76 5000 2 20 01:34 23.01.2022
5736 Snow -29 1025 76 5000 1 30 00:31 23.01.2022
5737 Snow -29 1025 69 5000 1 40 23:57 22.01.2022
5738 Snow -30 1025 76 5000 0 0 22:47 22.01.2022
5739 Snow -31 1026 76 10000 0 0 21:38 22.01.2022
5740 Snow -32 1026 75 10000 0 0 20:24 22.01.2022
5741 Snow -31 1027 76 10000 2 20 19:34 22.01.2022
5742 Clear -30 1027 69 10000 1 30 18:29 22.01.2022
5743 Clear -30 1027 76 10000 0 0 17:42 22.01.2022
5744 Snow -30 1027 69 10000 1 40 16:57 22.01.2022
5745 Snow -30 1027 69 10000 0 0 16:20 22.01.2022
5746 Snow -31 1028 76 10000 0 0 15:42 22.01.2022
5747 Snow -32 1028 68 5000 1 70 13:59 22.01.2022
5748 Snow -32 1029 67 5000 0 0 12:58 22.01.2022
5749 Snow -32 1029 67 5000 0 0 12:31 22.01.2022
5750 Snow -34 1029 75 5000 1 10 11:58 22.01.2022
5751 Clear -37 1029 74 10000 0 0 10:39 22.01.2022
5752 Clear -37 1029 74 10000 0 0 10:19 22.01.2022
5753 Clear -34 1029 68 10000 0 0 08:54 22.01.2022
5754 Clear -33 1029 75 10000 1 160 08:31 22.01.2022
5755 Clear -30 1029 69 10000 0 0 05:20 22.01.2022
5756 Snow -32 1029 75 10000 1 30 02:27 22.01.2022
5757 Snow -32 1029 68 10000 2 10 23:49 21.01.2022
5758 Snow -32 1029 75 10000 2 30 22:58 21.01.2022
5759 Snow -32 1029 75 10000 3 50 20:48 21.01.2022
5760 Snow -32 1029 75 10000 2 20 19:20 21.01.2022
5761 Snow -32 1029 68 10000 3 20 17:48 21.01.2022
5762 Snow -32 1029 75 10000 2 20 15:54 21.01.2022
5763 Clear -33 1030 68 10000 2 30 14:41 21.01.2022
5764 Clouds -27 1034 99 964 0.94 72 12:43 21.01.2022
5765 Snow -32 1031 75 10000 2 10 11:29 21.01.2022
5766 Snow -32 1031 75 5000 2 20 10:27 21.01.2022
5767 Snow -32 1031 68 3200 1 10 08:58 21.01.2022
5768 Snow -32 1031 67 5000 1.79 10 07:48 21.01.2022
5769 Snow -35 1033 66 10000 0.89 30 01:48 21.01.2022
5770 Snow -36 1033 66 5000 0.89 30 22:47 20.01.2022
5771 Mist -37 1033 73 5000 0.89 20 21:49 20.01.2022
5772 Mist -37 1034 73 5000 0.89 20 21:25 20.01.2022
5773 Snow -37 1034 66 5000 0 0 19:47 20.01.2022
5774 Snow -37 1034 66 5000 0 0 19:18 20.01.2022
5775 Mist -38 1033 66 3200 0 0 17:37 20.01.2022
5776 Mist -39 1033 65 3200 0 0 16:19 20.01.2022
5777 Mist -39 1033 65 2100 0 0 15:29 20.01.2022
5778 Mist -40 1034 65 2400 0 0 14:20 20.01.2022
5779 Mist -40 1033 65 1200 0 0 12:49 20.01.2022
5780 Mist -40 1034 65 2400 0 0 12:29 20.01.2022
5781 Mist -41 1033 65 2400 0 0 11:19 20.01.2022
5782 Mist -41 1033 66 1800 1 20 10:18 20.01.2022
5783 Mist -41 1033 65 5000 0 0 08:51 20.01.2022
5784 Mist -41 1033 66 3200 0 0 06:57 20.01.2022
5785 Fog -43 1033 64 900 0.89 20 00:40 20.01.2022
5786 Fog -43 1033 64 900 0.89 350 22:39 19.01.2022
5787 Fog -43 1033 64 900 0 0 21:36 19.01.2022
5788 Fog -43 1033 64 900 0.89 20 20:58 19.01.2022
5789 Fog -43 1033 64 900 0.89 20 20:40 19.01.2022
5790 Fog -43 1033 64 600 0 0 18:59 19.01.2022
5791 Mist -42 1033 64 1100 0.89 10 17:51 19.01.2022
5792 Fog -42 1033 64 900 0.89 30 17:18 19.01.2022
5793 Fog -42 1034 64 600 0.89 30 15:35 19.01.2022
5794 Fog -42 1034 72 800 0.89 20 13:26 19.01.2022
5795 Fog -42 1035 64 400 0.89 360 11:59 19.01.2022
5796 Fog -42 1035 64 400 0.89 360 11:38 19.01.2022
5797 Fog -42 1035 64 900 0 0 09:49 19.01.2022
5798 Fog -42 1035 64 900 0 0 09:22 19.01.2022
5799 Fog -41 1036 66 900 1 60 05:29 19.01.2022
5800 Mist -41 1038 65 1300 0 0 00:22 19.01.2022
5801 Fog -41 1038 65 750 0.89 20 23:18 18.01.2022
5802 Fog -41 1039 65 900 0.89 30 21:50 18.01.2022
5803 Fog -41 1039 65 800 0.89 10 20:38 18.01.2022
5804 Fog -40 1039 65 600 0.89 10 19:51 18.01.2022
5805 Fog -40 1039 65 700 0 0 19:33 18.01.2022
5806 Fog -40 1039 65 600 0.89 360 18:23 18.01.2022
5807 Fog -40 1040 65 650 0.89 350 17:32 18.01.2022
5808 Fog -40 1040 65 700 0 0 16:22 18.01.2022
5809 Mist -39 1040 65 1500 0.89 10 15:25 18.01.2022
5810 Mist -39 1040 65 1600 0.89 50 14:23 18.01.2022
5811 Fog -40 1041 72 450 0 0 11:45 18.01.2022
5812 Fog -40 1041 65 300 0 0 10:30 18.01.2022
5813 Fog -39 1041 65 450 0 0 08:36 18.01.2022
5814 Fog -39 1041 65 400 0 0 07:45 18.01.2022
5815 Fog -40 1041 65 250 0 0 01:34 18.01.2022
5816 Fog -42 1040 72 550 0 0 22:47 17.01.2022
5817 Fog -42 1040 64 450 0 0 21:50 17.01.2022
5818 Fog -42 1040 64 300 0 0 21:29 17.01.2022
5819 Fog -41 1040 65 450 0.89 160 19:37 17.01.2022
5820 Fog -41 1039 65 700 0 0 18:26 17.01.2022
5821 Fog -41 1039 65 500 0 0 17:22 17.01.2022
5822 Fog -42 1040 64 250 0.89 350 16:22 17.01.2022
5823 Fog -41 1039 65 450 0 0 14:58 17.01.2022
5824 Fog -41 1039 65 650 0 0 14:32 17.01.2022
5825 Fog -41 1039 65 900 0.89 340 13:19 17.01.2022
5826 Fog -40 1039 65 900 0.89 300 12:27 17.01.2022
5827 Mist -39 1039 65 1100 0 0 11:33 17.01.2022
5828 Mist -40 1039 65 3200 0 0 10:21 17.01.2022
5829 Mist -39 1039 65 5000 0 0 08:44 17.01.2022
5830 Mist -36 1038 73 5000 0.89 180 07:21 17.01.2022
5831 Fog -39 1039 65 700 0.89 300 01:52 17.01.2022
5832 Fog -38 1039 67 1500 2 310 00:43 17.01.2022
5833 Mist -39 1038 65 5000 0.89 310 21:22 16.01.2022
5834 Mist -39 1038 65 5000 0 0 20:28 16.01.2022
5835 Mist -36 1038 75 5000 1 220 18:46 16.01.2022
5836 Mist -36 1038 73 3200 0 0 17:50 16.01.2022
5837 Mist -36 1038 66 3200 0 0 16:55 16.01.2022
5838 Mist -36 1038 75 3200 0 0 15:43 16.01.2022
5839 Mist -36 1038 66 1500 0 0 14:29 16.01.2022
5840 Mist -36 1038 66 1500 0 0 14:29 16.01.2022
5841 Mist -38 1038 73 1500 0.89 240 13:33 16.01.2022
5842 Mist -38 1038 66 1300 0.89 180 12:21 16.01.2022
5843 Mist -38 1038 66 1200 0 0 11:27 16.01.2022
5844 Mist -38 1037 66 1400 0.89 170 10:28 16.01.2022
5845 Mist -38 1037 66 1200 0.89 140 09:58 16.01.2022
5846 Mist -38 1037 66 1200 0.89 290 09:37 16.01.2022
5847 Fog -38 1037 66 900 0.89 290 09:19 16.01.2022
5848 Fog -37 1036 66 750 0.89 160 06:35 16.01.2022
5849 Fog -40 1035 65 250 0 0 00:19 16.01.2022
5850 Fog -41 1035 72 250 0 0 22:50 15.01.2022
5851 Fog -40 1034 65 350 0 0 21:21 15.01.2022
5852 Fog -40 1034 65 250 0 0 20:44 15.01.2022
5853 Fog -40 1034 65 350 0 0 20:21 15.01.2022
5854 Fog -41 1034 72 350 0 0 19:26 15.01.2022
5855 Fog -41 1033 72 200 0 0 17:58 15.01.2022
5856 Fog -41 1033 65 200 0.89 290 16:49 15.01.2022
5857 Fog -39 1033 65 600 0.89 170 14:36 15.01.2022
5858 Fog -40 1032 65 750 0 0 12:39 15.01.2022
5859 Fog -40 1032 65 900 0 0 11:21 15.01.2022
5860 Fog -39 1032 65 1200 0.89 210 09:45 15.01.2022
5861 Fog -40 1031 72 550 0 0 01:27 15.01.2022
5862 Mist -39 1031 65 2100 0.89 260 22:40 14.01.2022
5863 Mist -40 1030 65 2100 0 0 20:57 14.01.2022
5864 Mist -40 1030 65 1700 0 0 20:24 14.01.2022
5865 Fog -40 1030 65 900 0 0 19:49 14.01.2022
5866 Fog -40 1029 72 450 0 0 18:33 14.01.2022
5867 Fog -40 1029 65 650 0 0 17:21 14.01.2022
5868 Fog -40 1029 72 750 1 330 16:40 14.01.2022
5869 Mist -39 1028 65 1500 1.79 320 14:50 14.01.2022
5870 Clear -39 1028 73 10000 0 0 14:20 14.01.2022
5871 Mist -38 1027 73 5000 0.89 320 12:47 14.01.2022
5872 Mist -37 1027 66 2400 0.89 320 11:51 14.01.2022
5873 Clear -37 1026 67 10000 0 0 10:24 14.01.2022
5874 Snow -34 1025 68 10000 0 0 08:52 14.01.2022
5875 Snow -32 1024 68 10000 1 40 07:30 14.01.2022
5876 Snow -34 1023 75 10000 2 30 02:20 14.01.2022
5877 Clear -35 1022 68 10000 2 40 23:40 13.01.2022
5878 Clear -36 1022 68 10000 2 10 21:46 13.01.2022
5879 Clear -36 1022 75 10000 2 20 21:27 13.01.2022
5880 Clear -36 1022 75 10000 2 40 19:44 13.01.2022
5881 Clear -35 1022 68 10000 2 20 19:23 13.01.2022
5882 Clear -35 1022 75 10000 2 10 18:36 13.01.2022
5883 Mist -35 1022 66 5000 1.79 20 16:48 13.01.2022
5884 Mist -36 1021 66 2400 1.79 20 15:38 13.01.2022
5885 Mist -36 1022 66 2400 1.79 10 15:18 13.01.2022
5886 Mist -37 1021 73 2400 1.79 10 13:28 13.01.2022
5887 Clear -37 1021 73 10000 1.79 360 10:39 13.01.2022
5888 Clear -36 1021 66 10000 1.79 360 09:23 13.01.2022
5889 Clear -36 1021 73 10000 1.79 20 08:28 13.01.2022
5890 Clear -36 1021 73 10000 1.79 360 07:58 13.01.2022
5891 Clear -35 1021 66 10000 1.79 360 07:18 13.01.2022
5892 Mist -35 1021 74 5000 1.79 20 05:20 13.01.2022
5893 Mist -37 1021 66 1700 0.89 340 03:34 13.01.2022
5894 Mist -39 1021 74 5000 2 320 01:38 13.01.2022
5895 Clear -36 1021 68 10000 1 340 23:53 12.01.2022
5896 Clear -36 1021 68 10000 2 350 23:33 12.01.2022
5897 Snow -35 1022 68 10000 2 350 21:59 12.01.2022
5898 Snow -35 1022 68 10000 2 350 21:39 12.01.2022
5899 Snow -35 1022 75 10000 2 350 21:18 12.01.2022
5900 Snow -34 1022 68 10000 2 360 20:41 12.01.2022
5901 Snow -33 1022 68 10000 2 10 18:48 12.01.2022
5902 Snow -33 1023 68 10000 1 30 17:54 12.01.2022
5903 Snow -33 1023 68 10000 1 20 16:52 12.01.2022
5904 Snow -34 1024 75 10000 1 20 14:50 12.01.2022
5905 Snow -34 1024 75 10000 1 30 14:19 12.01.2022
5906 Snow -34 1024 67 10000 1.79 40 12:57 12.01.2022
5907 Snow -34 1025 67 10000 0.89 40 09:48 12.01.2022
5908 Snow -34 1025 68 10000 1 20 07:57 12.01.2022
5909 Snow -34 1025 68 5000 1 50 07:33 12.01.2022
5910 Mist -35 1025 68 5000 1 350 02:20 12.01.2022
5911 Snow -36 1025 68 3200 2 20 23:26 11.01.2022
5912 Mist -37 1025 74 2100 1 340 22:39 11.01.2022
5913 Mist -37 1025 74 2100 1 340 22:18 11.01.2022
5914 Fog -38 1025 67 900 1 340 20:40 11.01.2022
5915 Mist -38 1025 67 1500 2 10 19:35 11.01.2022
5916 Clear -38 1025 67 10000 2 10 17:54 11.01.2022
5917 Clear -38 1025 74 10000 2 30 16:46 11.01.2022
5918 Clear -37 1025 67 10000 2 10 16:28 11.01.2022
5919 Clear -36 1025 68 10000 2 10 14:57 11.01.2022
5920 Clear -36 1025 68 10000 2 10 14:38 11.01.2022
5921 Mist -36 1026 68 5000 2 10 13:52 11.01.2022
5922 Mist -36 1025 68 5000 2 360 13:28 11.01.2022
5923 Mist -36 1026 75 5000 2 20 12:36 11.01.2022
5924 Mist -35 1026 68 3200 2 20 10:40 11.01.2022
5925 Mist -36 1026 68 2100 2 20 08:26 11.01.2022
5926 Mist -38 1026 67 2100 2 20 04:30 11.01.2022
5927 Mist -40 1027 67 2100 1 10 00:28 11.01.2022
5928 Mist -41 1027 66 1000 1 30 23:40 10.01.2022
5929 Fog -41 1027 66 900 1 360 22:42 10.01.2022
5930 Fog -41 1028 66 900 1 360 22:18 10.01.2022
5931 Fog -42 1028 66 900 1 10 21:42 10.01.2022
5932 Fog -42 1028 66 900 2 10 21:18 10.01.2022
5933 Fog -41 1028 65 800 1.79 10 20:55 10.01.2022
5934 Fog -41 1029 65 900 0.89 10 20:23 10.01.2022
5935 Fog -41 1029 65 600 0.89 360 19:39 10.01.2022
5936 Fog -41 1029 65 600 0.89 360 19:19 10.01.2022
5937 Fog -41 1029 65 750 0.89 20 18:47 10.01.2022
5938 Fog -41 1030 65 550 0.89 20 16:51 10.01.2022
5939 Fog -41 1030 65 600 1.79 350 16:33 10.01.2022
5940 Fog -41 1031 65 400 0.89 10 14:50 10.01.2022
5941 Fog -41 1033 65 400 1.79 10 13:35 10.01.2022
5942 Fog -41 1033 65 450 0 0 11:57 10.01.2022
5943 Fog -41 1034 65 500 0.89 40 11:24 10.01.2022
5944 Fog -41 1035 65 550 0 0 09:40 10.01.2022
5945 Fog -39 1036 65 600 0 0 05:52 10.01.2022
5946 Fog -39 1036 65 350 0 0 04:48 10.01.2022
5947 Fog -41 1037 65 700 0 0 01:22 10.01.2022
5948 Fog -41 1038 65 750 0 0 00:22 10.01.2022
5949 Fog -41 1038 65 550 0 0 23:28 09.01.2022
5950 Fog -41 1038 65 400 0 0 22:21 09.01.2022
5951 Fog -41 1038 65 650 0 0 21:42 09.01.2022
5952 Fog -41 1038 65 650 0 0 21:22 09.01.2022
5953 Fog -41 1038 65 550 0 0 20:49 09.01.2022
5954 Fog -41 1038 65 650 0 0 20:29 09.01.2022
5955 Fog -41 1038 65 450 0 0 19:44 09.01.2022
5956 Fog -41 1038 65 450 0 0 19:22 09.01.2022
5957 Fog -41 1038 65 600 0 0 18:49 09.01.2022
5958 Fog -40 1038 67 750 0 0 18:30 09.01.2022
5959 Fog -40 1038 67 1200 1 310 17:30 09.01.2022
5960 Mist -40 1038 67 1500 1 300 16:51 09.01.2022
5961 Clear -38 1039 67 10000 1 300 15:52 09.01.2022
5962 Clear -38 1039 67 10000 1 300 15:33 09.01.2022
5963 Clear -37 1039 67 10000 1 290 14:39 09.01.2022
5964 Clear -37 1039 74 10000 1 300 13:50 09.01.2022
5965 Clear -34 1039 68 10000 1 310 12:31 09.01.2022
5966 Clouds -43 1043 100 10000 0.84 300 11:47 09.01.2022
5967 Clear -33 1038 68 10000 1 290 09:59 09.01.2022
5968 Clear -33 1038 68 10000 1 290 09:41 09.01.2022
5969 Clear -34 1038 68 10000 1 270 08:30 09.01.2022
5970 Snow -37 1036 67 10000 0 0 02:31 09.01.2022
5971 Mist -38 1036 66 5000 0 0 01:20 09.01.2022
5972 Snow -36 1035 75 5000 0 0 23:38 08.01.2022
5973 Snow -36 1035 73 2400 0 0 22:59 08.01.2022
5974 Snow -36 1034 66 5000 0 0 21:33 08.01.2022
5975 Mist -37 1034 73 2400 0 0 20:45 08.01.2022
5976 Mist -37 1033 66 2000 0 0 20:24 08.01.2022
5977 Mist -37 1033 66 1000 0 0 19:58 08.01.2022
5978 Fog -41 1032 66 200 0 0 18:21 08.01.2022
5979 Fog -40 1032 67 700 0 0 17:21 08.01.2022
5980 Fog -40 1031 72 300 0 0 15:47 08.01.2022
5981 Fog -40 1031 65 250 0 0 14:41 08.01.2022
5982 Fog -41 1030 65 150 0 0 12:44 08.01.2022
5983 Fog -41 1030 65 150 0 0 11:24 08.01.2022
5984 Fog -41 1029 65 150 0 0 10:25 08.01.2022
5985 Fog -41 1028 65 150 0 0 09:47 08.01.2022
5986 Fog -41 1027 58 400 0 0 07:19 08.01.2022
5987 Fog -42 1026 64 300 0 0 02:45 08.01.2022
5988 Fog -42 1026 64 500 0 0 00:41 08.01.2022
5989 Fog -42 1027 64 400 0 0 22:47 07.01.2022
5990 Fog -41 1027 65 350 0.89 330 20:56 07.01.2022
5991 Fog -41 1027 65 450 0 0 19:56 07.01.2022
5992 Fog -41 1027 65 450 0 0 19:56 07.01.2022
5993 Fog -41 1028 65 400 0 0 18:58 07.01.2022
5994 Fog -41 1028 65 400 0 0 18:38 07.01.2022
5995 Fog -41 1028 65 350 0 0 17:25 07.01.2022
5996 Fog -40 1029 65 500 0 0 16:30 07.01.2022
5997 Mist -39 1030 67 2100 0 0 13:53 07.01.2022
5998 Mist -39 1030 67 1500 0 0 13:22 07.01.2022
5999 Mist -38 1030 66 1500 0 0 12:49 07.01.2022
6000 Fog -39 1031 65 400 0 0 09:37 07.01.2022
6001 Fog -42 1033 64 900 0.89 190 02:55 07.01.2022
6002 Fog -43 1033 64 200 0 0 01:54 07.01.2022
6003 Fog -44 1034 64 250 0 0 01:28 07.01.2022
6004 Fog -44 1034 64 300 0 0 00:58 07.01.2022
6005 Fog -45 1033 64 400 0 0 22:54 06.01.2022
6006 Fog -45 1034 64 250 0 0 21:28 06.01.2022
6007 Fog -45 1034 57 350 0.89 170 20:21 06.01.2022
6008 Fog -45 1034 64 550 0.89 140 19:44 06.01.2022
6009 Fog -46 1034 63 800 0 0 17:54 06.01.2022
6010 Fog -46 1034 56 1000 0 0 17:34 06.01.2022
6011 Fog -47 1034 63 900 0 0 16:42 06.01.2022
6012 Fog -47 1034 63 500 0 0 15:46 06.01.2022
6013 Fog -47 1034 63 350 0 0 15:25 06.01.2022
6014 Fog -47 1034 63 900 0.89 360 14:45 06.01.2022
6015 Fog -47 1035 56 700 0.89 360 14:18 06.01.2022
6016 Fog -47 1035 56 550 0.89 10 12:50 06.01.2022
6017 Fog -47 1035 63 550 0.89 350 11:43 06.01.2022
6018 Fog -47 1035 63 600 0.89 350 11:22 06.01.2022
6019 Fog -47 1035 63 500 0.89 350 08:51 06.01.2022
6020 Fog -46 1034 63 200 0.89 350 00:53 06.01.2022
6021 Fog -46 1033 63 600 0.89 70 23:37 05.01.2022
6022 Fog -46 1033 63 450 0 0 22:57 05.01.2022
6023 Fog -46 1033 63 500 0 0 22:32 05.01.2022
6024 Fog -46 1033 63 800 0.89 330 21:48 05.01.2022
6025 Fog -46 1032 63 700 0.89 320 20:57 05.01.2022
6026 Fog -47 1032 63 700 0.89 350 20:18 05.01.2022
6027 Fog -46 1031 63 500 0.89 300 18:44 05.01.2022
6028 Fog -46 1032 63 700 0.89 320 17:26 05.01.2022
6029 Fog -46 1032 63 600 0.89 320 16:50 05.01.2022
6030 Fog -46 1032 63 500 0.89 330 15:26 05.01.2022
6031 Fog -46 1032 63 500 0.89 320 13:51 05.01.2022
6032 Fog -46 1032 63 600 0 0 13:22 05.01.2022
6033 Mist -44 1033 64 3200 0.89 310 10:34 05.01.2022
6034 Mist -43 1032 64 3200 0 0 07:47 05.01.2022
6035 Mist -43 1032 64 3200 0 0 07:47 05.01.2022
6036 Mist -43 1032 66 2000 1 310 06:25 05.01.2022
6037 Snow -43 1030 66 1300 0 0 00:58 05.01.2022
6038 Fog -43 1029 66 1500 1 330 23:28 04.01.2022
6039 Fog -43 1029 66 1500 1 330 23:28 04.01.2022
6040 Fog -43 1029 66 1000 1 330 22:46 04.01.2022
6041 Fog -44 1029 66 2100 1 40 21:24 04.01.2022
6042 Mist -43 1027 66 1500 2 20 19:20 04.01.2022
6043 Mist -44 1027 66 2100 2 20 17:52 04.01.2022
6044 Mist -43 1027 66 2400 2 20 16:44 04.01.2022
6045 Mist -43 1027 66 2400 2 20 16:24 04.01.2022
6046 Mist -43 1026 66 2400 3 30 14:54 04.01.2022
6047 Mist -43 1026 66 2100 3 30 14:34 04.01.2022
6048 Mist -44 1026 66 1800 2 30 13:27 04.01.2022
6049 Mist -45 1025 65 1600 3 20 10:41 04.01.2022
6050 Mist -45 1025 65 1600 3 10 09:47 04.01.2022
6051 Mist -46 1025 65 1800 3 30 08:32 04.01.2022
6052 Fog -47 1024 63 1200 0.89 30 02:32 04.01.2022
6053 Fog -46 1024 63 800 0.89 20 00:41 04.01.2022
6054 Fog -45 1024 57 750 0.89 10 23:26 03.01.2022
6055 Fog -44 1023 64 500 0.89 360 21:52 03.01.2022
6056 Fog -44 1023 64 400 0.89 10 21:33 03.01.2022
6057 Fog -44 1023 64 300 0.89 10 20:22 03.01.2022
6058 Fog -42 1022 64 200 0 0 18:54 03.01.2022
6059 Fog -43 1022 64 200 0 0 18:28 03.01.2022
6060 Fog -43 1021 64 650 0 0 16:58 03.01.2022
6061 Mist -41 1020 65 5000 0 0 15:39 03.01.2022
6062 Clear -37 1020 66 10000 0 0 14:30 03.01.2022
6063 Clear -38 1020 66 10000 0 0 12:48 03.01.2022
6064 Clear -37 1019 66 10000 0.89 250 11:38 03.01.2022
6065 Clear -36 1019 66 10000 0.89 240 10:36 03.01.2022
6066 Mist -36 1019 66 5000 0.89 240 08:48 03.01.2022
6067 Mist -39 1019 73 3200 0 0 07:36 03.01.2022
6068 Fog -39 1019 65 800 0 0 23:56 02.01.2022
6069 Fog -39 1019 65 800 0 0 23:22 02.01.2022
6070 Fog -40 1019 65 750 0.89 130 22:55 02.01.2022
6071 Fog -42 1018 64 500 0 0 21:46 02.01.2022
6072 Fog -41 1018 65 350 0 0 20:38 02.01.2022
6073 Fog -41 1018 65 350 0 0 20:18 02.01.2022
6074 Fog -40 1018 65 150 0 0 19:30 02.01.2022
6075 Fog -40 1018 67 150 1 240 18:46 02.01.2022
6076 Fog -40 1018 67 150 1 240 18:46 02.01.2022
6077 Fog -40 1018 67 150 0 0 17:54 02.01.2022
6078 Fog -40 1018 67 150 0 0 17:36 02.01.2022
6079 Fog -40 1018 67 150 0 0 17:18 02.01.2022
6080 Fog -40 1018 67 150 0 0 16:26 02.01.2022
6081 Fog -40 1018 65 400 0 0 14:32 02.01.2022
6082 Fog -40 1018 65 550 0 0 12:50 02.01.2022
6083 Fog -40 1018 65 150 0 0 12:22 02.01.2022
6084 Fog -41 1018 65 450 0 0 11:32 02.01.2022
6085 Fog -41 1018 65 500 0 0 10:46 02.01.2022
6086 Fog -41 1019 65 700 0.89 190 09:45 02.01.2022
6087 Fog -42 1019 66 650 1 160 05:50 02.01.2022
6088 Fog -44 1022 66 800 0 0 01:48 02.01.2022
6089 Fog -43 1022 66 600 0 0 23:40 01.01.2022
6090 Fog -43 1023 66 500 0 0 22:57 01.01.2022
6091 Fog -43 1023 64 500 0 0 22:23 01.01.2022
6092 Fog -43 1023 64 550 0 0 21:44 01.01.2022
6093 Clouds -39 1027 97 10000 0.63 103 20:55 01.01.2022
6094 Fog -44 1024 66 800 0 0 19:58 01.01.2022
6095 Fog -44 1024 66 800 0 0 19:26 01.01.2022
6096 Fog -45 1025 64 450 0 0 17:59 01.01.2022
6097 Fog -44 1025 57 700 0 0 16:43 01.01.2022
6098 Fog -44 1025 57 700 0 0 16:20 01.01.2022
6099 Fog -44 1025 57 800 0 0 15:27 01.01.2022
6100 Fog -45 1026 64 600 0 0 13:59 01.01.2022
6101 Fog -45 1026 64 350 0 0 12:50 01.01.2022
6102 Fog -45 1026 64 1300 0 0 11:58 01.01.2022
6103 Mist -45 1026 64 1500 0 0 11:23 01.01.2022
6104 Mist -45 1026 64 1800 0 0 10:40 01.01.2022
6105 Fog -45 1026 64 900 0 0 09:46 01.01.2022
6106 Fog -45 1025 64 600 0 0 08:26 01.01.2022
6107 Fog -44 1025 57 900 0 0 07:54 01.01.2022
6108 Mist -44 1025 64 1000 0 0 07:34 01.01.2022
6109 Mist -44 1026 64 1300 0 0 06:41 01.01.2022
6110 Fog -44 1025 64 1100 0 0 04:38 01.01.2022
6111 Fog -44 1026 57 700 0.89 20 02:54 01.01.2022
6112 Fog -45 1025 64 800 0.89 10 23:44 31.12.2021
6113 Mist -44 1025 57 1500 0.89 30 21:53 31.12.2021
6114 Mist -44 1025 64 2100 0.89 30 20:39 31.12.2021
6115 Mist -44 1026 64 1200 0.89 20 19:31 31.12.2021
6116 Mist -44 1026 64 1200 0.89 20 19:31 31.12.2021
6117 Mist -44 1026 64 1200 0.89 20 19:31 31.12.2021
6118 Mist -45 1026 65 1000 1 20 18:44 31.12.2021
6119 Fog -45 1026 64 900 0.89 20 17:45 31.12.2021
6120 Fog -45 1026 64 800 0.89 20 17:19 31.12.2021
6121 Mist -44 1026 57 2400 0.89 20 16:40 31.12.2021
6122 Mist -45 1026 64 2400 0.89 20 15:57 31.12.2021
6123 Mist -45 1027 64 2400 0.89 30 15:29 31.12.2021
6124 Mist -45 1027 64 2400 0.89 30 15:29 31.12.2021
6125 Mist -45 1027 64 2100 0.89 20 14:57 31.12.2021
6126 Mist -45 1027 64 2100 0.89 20 14:31 31.12.2021
6127 Mist -45 1027 64 1700 0.89 20 13:37 31.12.2021
6128 Mist -45 1027 64 1500 0.89 20 12:49 31.12.2021
6129 Mist -46 1027 63 1500 0.89 20 11:52 31.12.2021
6130 Mist -45 1027 64 1500 0.89 20 11:33 31.12.2021
6131 Mist -45 1027 64 1300 0.89 30 10:38 31.12.2021
6132 Mist -45 1027 57 1300 0.89 40 10:20 31.12.2021
6133 Mist -46 1028 63 1300 0.89 20 09:33 31.12.2021
6134 Mist -46 1028 63 1400 0.89 20 08:47 31.12.2021
6135 Fog -46 1027 56 900 0.89 20 07:49 31.12.2021
6136 Fog -46 1028 63 900 0.89 20 00:47 31.12.2021
6137 Fog -45 1028 57 600 0.89 30 22:50 30.12.2021
6138 Fog -45 1028 64 500 0.89 20 22:26 30.12.2021
6139 Fog -45 1028 57 600 0.89 20 21:37 30.12.2021
6140 Fog -45 1028 57 800 0.89 40 20:49 30.12.2021
6141 Fog -45 1028 64 600 0.89 40 20:28 30.12.2021
6142 Fog -45 1028 64 550 0.89 40 19:48 30.12.2021
6143 Fog -45 1027 64 450 0.89 20 19:24 30.12.2021
6144 Fog -45 1027 65 450 1 360 18:21 30.12.2021
6145 Fog -44 1027 59 650 0 0 16:37 30.12.2021
6146 Fog -44 1027 59 500 1 40 15:53 30.12.2021
6147 Fog -44 1027 66 450 1 30 14:49 30.12.2021
6148 Fog -44 1027 66 450 1 20 14:30 30.12.2021
6149 Fog -44 1028 66 400 0 0 13:24 30.12.2021
6150 Mist -44 1028 66 1200 1 30 11:45 30.12.2021
6151 Fog -44 1027 66 900 1 50 10:27 30.12.2021
6152 Fog -44 1027 66 800 1 50 09:27 30.12.2021
6153 Mist -44 1027 64 1100 0 0 06:56 30.12.2021
6154 Fog -44 1027 66 500 0 0 04:42 30.12.2021
6155 Fog -44 1027 66 500 1 30 03:40 30.12.2021
6156 Fog -45 1027 65 400 0 0 02:19 30.12.2021
6157 Fog -45 1027 65 600 0 0 23:37 29.12.2021
6158 Fog -45 1027 65 700 1 20 22:33 29.12.2021
6159 Fog -44 1027 59 700 1 40 21:55 29.12.2021
6160 Fog -44 1027 66 550 1 350 20:56 29.12.2021
6161 Fog -44 1027 66 500 0 0 20:26 29.12.2021
6162 Fog -44 1027 66 600 1 360 19:31 29.12.2021
6163 Fog -43 1027 66 1000 0 0 18:35 29.12.2021
6164 Fog -42 1026 60 500 1 50 17:41 29.12.2021
6165 Fog -42 1026 60 500 1 50 17:20 29.12.2021
6166 Fog -42 1026 66 300 0 0 16:19 29.12.2021
6167 Fog -43 1027 66 400 0 0 14:59 29.12.2021
6168 Fog -43 1026 66 400 0 0 12:57 29.12.2021
6169 Fog -43 1026 59 400 0 0 12:32 29.12.2021
6170 Fog -44 1026 66 350 0 0 11:22 29.12.2021
6171 Fog -44 1026 66 400 0 0 09:24 29.12.2021
6172 Fog -46 1026 65 650 0 0 07:30 29.12.2021
6173 Fog -47 1025 65 450 0 0 06:32 29.12.2021
6174 Fog -47 1025 65 450 0 0 05:55 29.12.2021
6175 Fog -47 1025 65 350 0 0 04:57 29.12.2021
6176 Fog -47 1026 63 400 0 0 00:43 29.12.2021
6177 Fog -47 1026 56 600 0 0 23:58 28.12.2021
6178 Fog -48 1026 63 600 0 0 22:57 28.12.2021
6179 Fog -48 1026 63 450 0 0 22:25 28.12.2021
6180 Fog -48 1026 63 450 0 0 22:25 28.12.2021
6181 Fog -48 1026 56 300 0 0 21:54 28.12.2021
6182 Fog -48 1026 56 300 0 0 21:54 28.12.2021
6183 Fog -49 1026 64 300 0 0 21:34 28.12.2021
6184 Fog -49 1026 62 450 0 0 19:53 28.12.2021
6185 Fog -49 1026 62 450 0 0 18:54 28.12.2021
6186 Fog -49 1026 62 450 0 0 18:27 28.12.2021
6187 Fog -49 1026 62 400 0 0 17:34 28.12.2021
6188 Fog -49 1026 62 550 0 0 16:20 28.12.2021
6189 Fog -49 1026 62 1000 0 0 15:41 28.12.2021
6190 Fog -49 1026 62 900 0 0 14:56 28.12.2021
6191 Fog -49 1026 62 750 0 0 14:38 28.12.2021
6192 Fog -49 1026 62 750 0 0 14:38 28.12.2021
6193 Fog -49 1026 62 750 0 0 14:19 28.12.2021
6194 Fog -49 1026 62 900 0.89 20 13:37 28.12.2021
6195 Fog -49 1026 62 300 0.89 340 12:56 28.12.2021
6196 Fog -49 1026 62 300 0.89 340 12:21 28.12.2021
6197 Fog -49 1026 62 550 0.89 40 10:47 28.12.2021
6198 Fog -48 1025 63 450 0.89 30 07:39 28.12.2021
6199 Fog -48 1025 63 900 0.89 40 03:37 28.12.2021
6200 Fog -48 1024 63 650 0 0 23:41 27.12.2021
6201 Fog -48 1024 63 300 0 0 22:27 27.12.2021
6202 Fog -48 1024 63 350 0 0 21:31 27.12.2021
6203 Fog -48 1024 63 350 0 0 20:40 27.12.2021
6204 Fog -48 1024 63 300 0 0 19:55 27.12.2021
6205 Fog -48 1024 63 200 0 0 19:37 27.12.2021
6206 Fog -47 1024 56 350 0 0 17:55 27.12.2021
6207 Fog -47 1024 56 350 0 0 17:55 27.12.2021
6208 Fog -47 1024 63 550 0 0 17:29 27.12.2021
6209 Fog -47 1025 56 550 0 0 16:27 27.12.2021
6210 Fog -47 1025 63 550 0 0 15:49 27.12.2021
6211 Fog -47 1025 58 800 0 0 14:26 27.12.2021
6212 Mist -47 1025 65 1100 1 20 13:32 27.12.2021
6213 Fog -47 1026 65 650 1 360 11:34 27.12.2021
6214 Fog -46 1026 58 750 1 10 10:27 27.12.2021
6215 Fog -46 1026 65 600 1 360 09:38 27.12.2021
6216 Fog -45 1026 57 800 0.89 20 07:35 27.12.2021
6217 Fog -46 1026 65 650 0 0 06:30 27.12.2021
6218 Fog -46 1026 65 650 0 0 06:30 27.12.2021
6219 Fog -46 1027 63 200 0 0 01:59 27.12.2021
6220 Fog -44 1027 57 150 0 0 23:50 26.12.2021
6221 Fog -43 1027 64 400 0 0 23:32 26.12.2021
6222 Fog -43 1027 64 550 0.89 150 21:48 26.12.2021
6223 Fog -43 1028 64 450 0 0 20:31 26.12.2021
6224 Fog -44 1028 64 600 0 0 19:31 26.12.2021
6225 Fog -43 1028 64 750 0.89 190 18:23 26.12.2021
6226 Fog -43 1029 57 900 0.89 180 15:56 26.12.2021
6227 Fog -44 1030 64 900 0.89 190 13:52 26.12.2021
6228 Mist -44 1030 64 5000 0.89 220 13:32 26.12.2021
6229 Clear -44 1030 64 10000 0.89 230 12:38 26.12.2021
6230 Clear -45 1030 64 10000 0.89 240 11:58 26.12.2021
6231 Clear -45 1031 64 10000 0 0 09:52 26.12.2021
6232 Clear -45 1031 57 10000 0 0 09:18 26.12.2021
6233 Clear -45 1031 57 10000 0.89 300 08:39 26.12.2021
6234 Mist -46 1030 63 5000 0.89 290 06:47 26.12.2021
6235 Fog -49 1030 62 900 0.89 330 00:59 26.12.2021
6236 Fog -49 1030 62 550 0.89 320 23:51 25.12.2021
6237 Fog -49 1030 62 700 0.89 10 23:26 25.12.2021
6238 Fog -49 1030 62 550 0.89 20 22:23 25.12.2021
6239 Fog -49 1030 62 700 0 0 20:48 25.12.2021
6240 Fog -48 1031 56 800 0.89 20 19:22 25.12.2021
6241 Fog -48 1031 56 800 0.89 30 18:54 25.12.2021
6242 Fog -48 1031 56 800 0.89 10 17:28 25.12.2021
6243 Fog -48 1031 56 800 0.89 20 16:35 25.12.2021
6244 Fog -48 1032 56 750 0.89 10 14:38 25.12.2021
6245 Fog -48 1033 56 600 0.89 360 12:49 25.12.2021
6246 Fog -48 1033 63 800 0.89 20 11:45 25.12.2021
6247 Fog -48 1034 63 900 0.89 20 09:50 25.12.2021
6248 Mist -48 1034 63 1400 0.89 20 08:19 25.12.2021
6249 Mist -47 1036 56 1500 0.89 60 02:59 25.12.2021
6250 Mist -48 1037 63 2100 0 0 00:33 25.12.2021
6251 Mist -48 1038 63 1000 1 30 23:39 24.12.2021
6252 Mist -48 1039 63 1500 0.89 10 19:40 24.12.2021
6253 Mist -48 1039 63 1500 0.89 20 19:22 24.12.2021
6254 Mist -48 1040 63 2100 0.89 20 16:50 24.12.2021
6255 Mist -48 1040 63 2100 0.89 20 16:21 24.12.2021
6256 Mist -48 1040 63 2100 0.89 30 15:47 24.12.2021
6257 Mist -48 1040 63 1000 0.89 10 14:47 24.12.2021
6258 Mist -48 1040 63 1200 0.89 20 14:24 24.12.2021
6259 Mist -48 1041 63 1500 0.89 20 13:39 24.12.2021
6260 Mist -48 1041 63 3200 0.89 40 12:48 24.12.2021
6261 Mist -48 1041 63 1500 1.79 50 11:58 24.12.2021
6262 Mist -48 1041 63 1500 0.89 50 11:27 24.12.2021
6263 Mist -48 1041 63 1500 0.89 20 10:53 24.12.2021
6264 Mist -47 1041 56 1500 0.89 20 10:22 24.12.2021
6265 Mist -47 1042 63 1000 0.89 20 08:25 24.12.2021
6266 Mist -47 1042 63 1200 0.89 20 07:50 24.12.2021
6267 Fog -47 1042 63 450 0.89 360 03:21 24.12.2021
6268 Fog -46 1043 63 250 0 0 00:19 24.12.2021
6269 Fog -45 1043 64 300 0.89 320 23:23 23.12.2021
6270 Fog -44 1043 57 300 0.89 310 22:39 23.12.2021
6271 Fog -44 1043 57 500 0.89 300 22:20 23.12.2021
6272 Fog -45 1043 64 1200 0.89 300 21:33 23.12.2021
6273 Fog -44 1043 57 300 0.89 290 20:20 23.12.2021
6274 Fog -45 1043 64 400 0 0 18:53 23.12.2021
6275 Fog -44 1043 64 250 0 0 17:57 23.12.2021
6276 Mist -44 1043 64 1500 0.89 280 16:57 23.12.2021
6277 Mist -44 1043 64 1200 0.89 260 16:25 23.12.2021
6278 Fog -43 1043 64 500 1.79 250 15:32 23.12.2021
6279 Fog -44 1043 64 300 0.89 260 14:54 23.12.2021
6280 Fog -43 1043 64 300 1.79 240 14:36 23.12.2021
6281 Fog -43 1044 64 250 0.89 230 13:19 23.12.2021
6282 Fog -43 1044 64 300 0.89 240 10:54 23.12.2021
6283 Fog -43 1044 64 250 0.89 220 09:47 23.12.2021
6284 Fog -43 1044 64 250 0.89 230 09:19 23.12.2021
6285 Fog -44 1043 66 450 1 190 06:59 23.12.2021
6286 Fog -45 1043 65 350 1 190 04:35 23.12.2021
6287 Fog -47 1043 56 200 0 0 23:26 22.12.2021
6288 Fog -48 1043 63 200 0 0 22:48 22.12.2021
6289 Fog -47 1044 56 250 0 0 21:57 22.12.2021
6290 Fog -48 1044 63 250 0 0 21:29 22.12.2021
6291 Fog -48 1044 63 250 0 0 20:50 22.12.2021
6292 Fog -48 1044 63 200 0 0 20:30 22.12.2021
6293 Fog -48 1043 63 200 0 0 19:35 22.12.2021
6294 Fog -48 1044 63 200 0 0 18:18 22.12.2021
6295 Fog -48 1043 63 200 0 0 17:35 22.12.2021
6296 Fog -48 1044 63 200 0 0 15:46 22.12.2021
6297 Fog -48 1044 63 450 0 0 13:44 22.12.2021
6298 Fog -48 1044 63 450 0.89 40 12:41 22.12.2021
6299 Fog -48 1044 65 350 0 0 10:46 22.12.2021
6300 Fog -48 1044 65 450 0 0 09:40 22.12.2021
6301 Fog -47 1044 58 450 0 0 07:48 22.12.2021
6302 Fog -47 1043 65 400 0 0 05:51 22.12.2021
6303 Fog -47 1043 65 300 0 0 05:28 22.12.2021
6304 Fog -47 1043 65 300 0 0 04:54 22.12.2021
6305 Fog -47 1043 65 300 1 80 04:30 22.12.2021
6306 Fog -47 1042 65 350 0 0 03:34 22.12.2021
6307 Fog -48 1042 65 450 0 0 01:37 22.12.2021
6308 Fog -48 1041 65 500 0 0 23:33 21.12.2021
6309 Fog -48 1040 65 200 0 0 22:29 21.12.2021
6310 Fog -48 1040 65 300 0 0 21:51 21.12.2021
6311 Fog -48 1040 63 450 0 0 21:26 21.12.2021
6312 Fog -48 1040 63 650 0 0 20:23 21.12.2021
6313 Fog -48 1039 63 700 0 0 19:52 21.12.2021
6314 Fog -48 1039 63 700 0 0 19:26 21.12.2021
6315 Fog -48 1038 65 650 0 0 18:22 21.12.2021
6316 Fog -48 1038 65 700 1 60 17:51 21.12.2021
6317 Fog -48 1037 65 600 1 60 16:39 21.12.2021
6318 Fog -48 1037 65 750 1 50 15:33 21.12.2021
6319 Fog -48 1036 65 400 1 70 13:51 21.12.2021
6320 Fog -48 1036 65 400 0 0 13:32 21.12.2021
6321 Fog -48 1035 65 400 1 30 12:20 21.12.2021
6322 Fog -48 1034 63 350 0.89 10 10:37 21.12.2021
6323 Fog -48 1034 63 350 0.89 350 09:41 21.12.2021
6324 Fog -48 1033 63 250 0.89 10 08:39 21.12.2021
6325 Fog -47 1032 56 250 0.89 350 07:35 21.12.2021
6326 Fog -47 1032 65 300 1 10 06:56 21.12.2021
6327 Fog -48 1030 63 300 0.89 360 03:22 21.12.2021
6328 Fog -48 1028 56 200 0.89 10 01:18 21.12.2021
6329 Fog -48 1027 63 250 0.89 10 23:34 20.12.2021
6330 Fog -48 1026 63 350 0.89 360 22:35 20.12.2021
6331 Fog -48 1026 63 250 0.89 340 21:48 20.12.2021
6332 Fog -48 1026 63 250 0.89 350 21:24 20.12.2021
6333 Fog -48 1026 63 350 0.89 350 20:48 20.12.2021
6334 Fog -46 1025 63 300 0.89 360 19:55 20.12.2021
6335 Fog -46 1025 63 300 0.89 360 19:55 20.12.2021
6336 Fog -46 1025 63 300 0.89 360 19:55 20.12.2021
6337 Fog -46 1025 63 200 0 0 19:34 20.12.2021
6338 Fog -46 1025 56 150 0 0 18:55 20.12.2021
6339 Fog -47 1024 63 250 0 0 18:25 20.12.2021
6340 Fog -47 1024 63 200 0.89 290 17:46 20.12.2021
6341 Fog -46 1023 63 300 0.89 330 16:44 20.12.2021
6342 Fog -46 1023 63 300 0.89 330 15:52 20.12.2021
6343 Fog -46 1022 65 250 1 310 14:58 20.12.2021
6344 Fog -45 1022 65 150 1 340 13:24 20.12.2021
6345 Fog -46 1020 65 300 0 0 11:36 20.12.2021
6346 Fog -45 1019 65 350 0 0 09:56 20.12.2021
6347 Fog -45 1019 65 300 0 0 09:32 20.12.2021
6348 Fog -45 1018 65 200 0 0 08:43 20.12.2021
6349 Fog -45 1018 65 200 1 90 07:57 20.12.2021
6350 Fog -44 1017 66 150 0 0 07:31 20.12.2021
6351 Fog -42 1015 66 350 1 10 04:36 20.12.2021
6352 Clouds -33 1017 95 1221 2.24 285 00:19 20.12.2021
6353 Clouds -33 1016 95 1287 1.96 281 22:55 19.12.2021
6354 Clouds -33 1016 95 1193 1.56 278 21:55 19.12.2021
6355 Fog -43 1012 66 450 2 190 21:31 19.12.2021
6356 Clouds -33 1015 96 910 1.28 275 20:34 19.12.2021
6357 Clouds -34 1015 95 957 1.07 275 19:52 19.12.2021
6358 Fog -44 1012 66 200 0 0 19:32 19.12.2021
6359 Fog -45 1011 65 300 1 270 18:30 19.12.2021
6360 Fog -45 1011 65 350 1 290 17:53 19.12.2021
6361 Fog -45 1011 65 350 0 0 17:21 19.12.2021
6362 Fog -45 1011 65 550 0 0 16:27 19.12.2021
6363 Fog -45 1011 65 800 1 270 15:50 19.12.2021
6364 Fog -45 1010 65 750 2 300 15:23 19.12.2021
6365 Fog -45 1010 65 700 2 310 14:44 19.12.2021
6366 Fog -46 1010 65 900 2 310 13:26 19.12.2021
6367 Fog -46 1010 65 800 3 320 12:47 19.12.2021
6368 Fog -46 1010 65 800 3 320 12:28 19.12.2021
6369 Fog -45 1010 65 350 0 0 11:26 19.12.2021
6370 Fog -45 1009 65 450 0 0 10:28 19.12.2021
6371 Fog -46 1009 65 500 0 0 09:48 19.12.2021
6372 Fog -47 1009 65 500 0 0 08:45 19.12.2021
6373 Clouds -37 1012 97 2130 1.37 10 04:45 19.12.2021
6374 Fog -47 1008 65 600 1 340 01:34 19.12.2021
6375 Fog -47 1008 65 300 1 350 00:53 19.12.2021
6376 Fog -47 1009 65 350 2 350 22:50 18.12.2021
6377 Fog -47 1009 65 500 1 20 22:20 18.12.2021
6378 Fog -47 1009 65 500 1 20 22:20 18.12.2021
6379 Fog -47 1009 65 600 1 340 21:41 18.12.2021
6380 Fog -47 1009 65 600 1 340 21:22 18.12.2021
6381 Fog -46 1008 65 500 2 350 20:20 18.12.2021
6382 Fog -46 1008 65 500 2 20 19:25 18.12.2021
6383 Fog -45 1009 65 500 2 10 18:22 18.12.2021
6384 Fog -45 1009 65 500 2 10 17:48 18.12.2021
6385 Fog -45 1009 65 800 2 30 16:26 18.12.2021
6386 Fog -44 1009 66 900 2 20 15:48 18.12.2021
6387 Mist -44 1009 66 1500 2 30 14:51 18.12.2021
6388 Snow -44 1009 66 3200 3 40 13:29 18.12.2021
6389 Snow -44 1009 66 3200 3 40 13:29 18.12.2021
6390 Mist -43 1009 66 1000 2 360 11:47 18.12.2021
6391 Clouds -33 1012 99 2550 1.41 40 09:52 18.12.2021
6392 Snow -42 1010 66 5000 2 50 08:48 18.12.2021
6393 Snow -41 1010 66 3200 2 40 08:27 18.12.2021
6394 Snow -41 1010 66 3200 2 40 06:27 18.12.2021
6395 Clouds -32 1013 98 1899 1.15 50 00:34 18.12.2021
6396 Clouds -32 1013 97 1417 1.21 50 23:46 17.12.2021
6397 Snow -41 1011 66 3200 2 30 22:18 17.12.2021
6398 Mist -42 1011 66 2100 2 360 21:23 17.12.2021
6399 Mist -42 1011 66 1700 2 10 20:42 17.12.2021
6400 Mist -42 1011 66 2100 2 10 19:45 17.12.2021
6401 Snow -41 1011 66 5000 3 30 18:39 17.12.2021
6402 Snow -41 1011 66 5000 2 20 17:40 17.12.2021
6403 Mist -41 1012 66 5000 3 40 16:50 17.12.2021
6404 Mist -41 1012 66 5000 3 40 16:25 17.12.2021
6405 Snow -41 1011 66 3200 2 30 15:25 17.12.2021
6406 Snow -40 1012 67 3200 3 40 14:41 17.12.2021
6407 Snow -40 1011 67 3200 3 30 13:22 17.12.2021
6408 Snow -39 1011 67 3200 2 20 12:21 17.12.2021
6409 Snow -39 1011 67 3200 2 20 12:21 17.12.2021
6410 Snow -38 1011 67 3200 3 10 10:38 17.12.2021
6411 Snow -38 1011 67 3200 3 10 09:44 17.12.2021
6412 Mist -39 1011 74 3200 2 20 08:31 17.12.2021
6413 Mist -39 1011 74 3200 3 10 07:18 17.12.2021
6414 Snow -39 1011 67 2400 2 30 04:40 17.12.2021
6415 Snow -40 1012 74 3200 2 40 23:58 16.12.2021
6416 Mist -39 1012 67 3200 1 360 22:24 16.12.2021
6417 Snow -39 1012 67 3200 1 360 22:24 16.12.2021
6418 Snow -39 1012 67 3200 1 360 22:23 16.12.2021
6419 Mist -39 1012 67 3200 1 360 22:23 16.12.2021
6420 Snow -40 1012 74 3200 1 10 21:45 16.12.2021
6421 Snow -40 1012 67 3200 1 50 20:57 16.12.2021
6422 Mist -40 1012 67 2000 2 80 20:27 16.12.2021
6423 Fog -40 1013 67 650 1 70 19:33 16.12.2021
6424 Fog -41 1013 66 800 1 60 18:37 16.12.2021
6425 Fog -41 1013 66 600 0 0 17:49 16.12.2021
6426 Fog -42 1014 66 500 1 330 16:55 16.12.2021
6427 Mist -42 1014 66 1100 1 20 16:20 16.12.2021
6428 Fog -43 1015 66 300 1 70 14:32 16.12.2021
6429 Mist -42 1016 66 1400 1 40 12:34 16.12.2021
6430 Fog -42 1016 73 300 1 90 11:19 16.12.2021
6431 Fog -42 1016 73 300 1 90 11:19 16.12.2021
6432 Fog -41 1016 66 300 1 10 10:46 16.12.2021
6433 Fog -42 1017 66 400 0 0 09:52 16.12.2021
6434 Clouds -32 1020 100 1338 0.84 82 07:19 16.12.2021
6435 Clouds -31 1020 98 1680 0.47 69 06:19 16.12.2021
6436 Fog -41 1018 66 600 1 350 00:44 16.12.2021
6437 Fog -40 1018 67 500 1 360 23:21 15.12.2021
6438 Fog -40 1018 67 600 1 350 22:26 15.12.2021
6439 Mist -39 1018 67 5000 1 60 21:46 15.12.2021
6440 Mist -39 1018 67 5000 1 60 21:26 15.12.2021
6441 Snow -38 1018 67 5000 1 50 19:55 15.12.2021
6442 Snow -38 1018 67 10000 1 40 19:22 15.12.2021
6443 Snow -37 1018 67 5000 1 50 18:26 15.12.2021
6444 Snow -37 1018 67 5000 1 50 17:49 15.12.2021
6445 Snow -37 1018 67 10000 1 70 17:27 15.12.2021
6446 Snow -37 1018 67 10000 1 90 16:26 15.12.2021
6447 Snow -37 1018 67 5000 1 70 15:45 15.12.2021
6448 Snow -37 1018 67 5000 1 70 15:27 15.12.2021
6449 Snow -37 1018 74 5000 2 50 13:59 15.12.2021
6450 Snow -37 1018 74 10000 2 40 11:57 15.12.2021
6451 Snow -35 1018 61 10000 3 300 10:24 15.12.2021
6452 Snow -36 1018 68 10000 3 300 08:48 15.12.2021
6453 Snow -35 1017 61 10000 4 310 05:59 15.12.2021
6454 Mist -37 1017 67 3200 1 30 00:47 15.12.2021
6455 Snow -38 1017 74 1100 0 0 23:41 14.12.2021
6456 Snow -37 1016 67 1100 1 320 22:48 14.12.2021
6457 Mist -38 1016 67 5000 0 0 21:51 14.12.2021
6458 Mist -38 1016 67 5000 0 0 20:27 14.12.2021
6459 Mist -37 1016 67 5000 1 230 19:40 14.12.2021
6460 Mist -38 1016 67 5000 1 240 18:42 14.12.2021
6461 Clear -37 1016 67 10000 1 220 17:58 14.12.2021
6462 Clear -38 1016 67 10000 2 220 17:27 14.12.2021
6463 Clear -37 1016 67 10000 1 280 16:38 14.12.2021
6464 Clear -37 1016 67 10000 2 290 14:52 14.12.2021
6465 Clear -36 1016 66 10000 3.13 290 13:31 14.12.2021
6466 Clear -36 1017 66 10000 1.79 290 11:57 14.12.2021
6467 Clear -36 1016 66 10000 1.79 300 11:23 14.12.2021
6468 Clear -36 1016 66 10000 1.79 300 09:56 14.12.2021
6469 Clear -36 1016 66 10000 3.13 310 09:35 14.12.2021
6470 Clear -36 1015 66 10000 3.13 300 08:23 14.12.2021
6471 Clear -36 1015 73 10000 1.79 300 07:43 14.12.2021
6472 Clear -35 1014 66 10000 1.79 310 02:25 14.12.2021
6473 Clear -35 1014 75 10000 1 330 22:55 13.12.2021
6474 Clear -35 1013 75 10000 1 300 21:52 13.12.2021
6475 Clear -36 1013 75 10000 1 310 20:59 13.12.2021
6476 Mist -38 1013 67 5000 1 320 20:38 13.12.2021
6477 Mist -38 1013 67 5000 1 340 19:52 13.12.2021
6478 Mist -36 1013 75 5000 1 270 17:56 13.12.2021
6479 Clear -37 1013 67 10000 1 190 17:24 13.12.2021
6480 Snow -37 1013 67 10000 1 180 15:50 13.12.2021
6481 Snow -37 1013 74 10000 1 220 15:19 13.12.2021
6482 Snow -34 1013 68 5000 1 160 13:39 13.12.2021
6483 Snow -34 1013 67 5000 0.89 180 12:46 13.12.2021
6484 Snow -34 1013 74 5000 0.89 200 11:54 13.12.2021
6485 Mist -33 1013 74 5000 0.89 270 11:35 13.12.2021
6486 Mist -33 1014 67 5000 0.89 320 10:43 13.12.2021
6487 Mist -36 1014 68 3200 1 210 09:29 13.12.2021
6488 Mist -37 1014 74 3200 0 0 07:46 13.12.2021
6489 Mist -37 1014 74 5000 1 50 05:35 13.12.2021
6490 Mist -37 1016 74 3200 1 30 03:26 13.12.2021
6491 Mist -37 1018 67 2400 2 20 22:23 12.12.2021
6492 Mist -38 1019 74 2400 1 40 21:38 12.12.2021
6493 Mist -38 1020 67 2400 2 30 19:47 12.12.2021
6494 Fog -39 1021 67 500 1 360 18:36 12.12.2021
6495 Fog -39 1021 67 500 1 360 18:36 12.12.2021
6496 Fog -39 1022 67 500 2 360 17:31 12.12.2021
6497 Fog -40 1022 67 400 1 20 16:27 12.12.2021
6498 Fog -40 1023 67 400 2 20 15:45 12.12.2021
6499 Fog -40 1023 67 400 1 40 15:25 12.12.2021
6500 Fog -41 1024 66 400 1 360 14:34 12.12.2021
6501 Fog -41 1024 74 400 1 350 13:22 12.12.2021
6502 Fog -40 1025 65 400 0.89 20 12:30 12.12.2021
6503 Fog -40 1025 65 400 0.89 360 11:44 12.12.2021
6504 Fog -40 1025 67 400 1 30 11:20 12.12.2021
6505 Fog -40 1026 74 600 1 360 10:22 12.12.2021
6506 Fog -40 1026 74 600 1 360 08:58 12.12.2021
6507 Mist -38 1027 67 2000 1 30 07:32 12.12.2021
6508 Mist -36 1027 68 3200 1 160 05:57 12.12.2021
6509 Mist -38 1028 74 1300 1 240 04:56 12.12.2021
6510 Clouds -28 1030 100 2142 0.11 231 03:27 12.12.2021
6511 Clouds -28 1030 100 1554 0.57 112 23:39 11.12.2021
6512 Snow -37 1028 74 10000 0 0 22:22 11.12.2021
6513 Snow -36 1028 68 10000 1 350 21:51 11.12.2021
6514 Snow -36 1028 68 10000 1 330 20:51 11.12.2021
6515 Snow -36 1028 75 10000 0 0 19:23 11.12.2021
6516 Snow -36 1028 75 10000 0 0 18:52 11.12.2021
6517 Snow -35 1028 68 10000 0 0 18:21 11.12.2021
6518 Mist -35 1028 75 5000 1 260 17:21 11.12.2021
6519 Mist -36 1028 75 5000 1 270 15:53 11.12.2021
6520 Clear -35 1028 68 10000 1 320 15:27 11.12.2021
6521 Snow -33 1028 68 10000 2 340 12:57 11.12.2021
6522 Clear -34 1028 75 10000 2 320 11:25 11.12.2021
6523 Clear -33 1027 68 10000 2 340 09:46 11.12.2021
6524 Clear -33 1027 68 10000 1 340 08:23 11.12.2021
6525 Clear -31 1027 76 10000 2 10 02:23 11.12.2021
6526 Clear -31 1027 69 10000 1 10 00:36 11.12.2021
6527 Snow -31 1026 76 10000 2 360 23:21 10.12.2021
6528 Snow -31 1026 76 10000 2 20 21:56 10.12.2021
6529 Snow -31 1026 76 10000 2 20 21:28 10.12.2021
6530 Snow -32 1026 75 10000 2 360 19:21 10.12.2021
6531 Snow -31 1026 76 10000 2 350 18:19 10.12.2021
6532 Clear -32 1026 75 10000 1 10 16:56 10.12.2021
6533 Clear -32 1026 75 10000 2 360 16:28 10.12.2021
6534 Clouds -23 1028 100 1095 0.95 58 15:41 10.12.2021
6535 Clouds -23 1028 100 795 0.82 70 15:21 10.12.2021
6536 Clear -32 1025 75 10000 2 340 13:52 10.12.2021
6537 Clear -31 1025 69 10000 2 10 13:26 10.12.2021
6538 Snow -31 1025 76 10000 1 360 12:39 10.12.2021
6539 Snow -30 1025 69 5000 1 230 11:29 10.12.2021
6540 Snow -29 1025 76 3200 1 150 10:37 10.12.2021
6541 Clear -27 1024 75 10000 0.89 200 08:57 10.12.2021
6542 Snow -23 1023 84 5000 1 180 06:56 10.12.2021
6543 Clouds -25 1023 77 10000 2 300 02:48 10.12.2021
6544 Clouds -25 1023 77 10000 2 300 02:48 10.12.2021
6545 Snow -24 1023 77 10000 2 240 00:38 10.12.2021
6546 Clouds -26 1022 76 10000 1 240 23:22 09.12.2021
6547 Clear -26 1022 76 10000 2 240 22:28 09.12.2021
6548 Clear -25 1022 77 10000 1 230 21:59 09.12.2021
6549 Clear -25 1022 77 10000 3 210 21:19 09.12.2021
6550 Clear -26 1021 76 10000 2 230 20:28 09.12.2021
6551 Clear -26 1021 76 10000 3 200 19:22 09.12.2021
6552 Clear -27 1021 75 10000 1.79 160 18:49 09.12.2021
6553 Clear -26 1021 76 10000 2 220 17:57 09.12.2021
6554 Snow -25 1021 77 10000 2 190 17:27 09.12.2021
6555 Snow -25 1021 77 10000 2 200 16:56 09.12.2021
6556 Snow -26 1020 76 10000 2 200 15:57 09.12.2021
6557 Snow -27 1020 76 10000 2 200 14:50 09.12.2021
6558 Snow -27 1019 76 10000 2 230 13:39 09.12.2021
6559 Snow -27 1019 69 10000 2 240 12:47 09.12.2021
6560 Clouds -28 1018 68 10000 3.13 270 11:24 09.12.2021
6561 Snow -29 1017 68 10000 0.89 280 09:44 09.12.2021
6562 Snow -29 1015 68 10000 0.89 320 06:51 09.12.2021
6563 Clear -31 1013 74 10000 3.13 360 03:46 09.12.2021
6564 Snow -31 1013 74 10000 3.13 20 23:46 08.12.2021
6565 Clear -31 1013 74 10000 4.02 20 23:26 08.12.2021
6566 Clear -31 1013 74 10000 3.13 10 22:50 08.12.2021
6567 Clear -32 1013 74 10000 3.13 10 21:49 08.12.2021
6568 Snow -32 1013 74 10000 3.13 20 21:30 08.12.2021
6569 Snow -31 1013 67 10000 3.13 20 20:19 08.12.2021
6570 Snow -31 1013 67 10000 3.13 20 19:39 08.12.2021
6571 Snow -32 1014 74 10000 4.02 20 18:53 08.12.2021
6572 Snow -31 1014 67 10000 4.02 30 18:21 08.12.2021
6573 Clouds -31 1014 67 10000 4.02 40 15:59 08.12.2021
6574 Clouds -32 1014 74 10000 3.13 40 15:31 08.12.2021
6575 Clouds -31 1014 67 10000 1.79 40 14:52 08.12.2021
6576 Snow -31 1015 69 10000 3 40 13:21 08.12.2021
6577 Clouds -34 1015 74 10000 4.02 30 10:36 08.12.2021
6578 Clear -35 1015 66 10000 3.13 10 09:32 08.12.2021
6579 Mist -36 1014 68 5000 3 10 07:37 08.12.2021
6580 Mist -36 1015 66 3200 1.79 10 04:58 08.12.2021
6581 Fog -42 1016 72 800 0.89 30 23:56 07.12.2021
6582 Fog -43 1017 64 400 0.89 20 22:48 07.12.2021
6583 Fog -43 1017 64 200 0.89 10 21:24 07.12.2021
6584 Fog -43 1017 64 250 0.89 320 20:25 07.12.2021
6585 Fog -41 1017 65 300 0.89 340 18:57 07.12.2021
6586 Fog -41 1017 65 350 0 0 18:19 07.12.2021
6587 Fog -41 1017 65 350 0.89 320 17:20 07.12.2021
6588 Fog -40 1017 72 400 0.89 290 16:37 07.12.2021
6589 Fog -40 1016 65 450 0 0 15:59 07.12.2021
6590 Fog -40 1016 65 600 0 0 14:37 07.12.2021
6591 Fog -41 1016 65 300 0 0 13:29 07.12.2021
6592 Fog -42 1015 64 300 0 0 12:22 07.12.2021
6593 Mist -41 1015 72 1400 0.89 30 10:48 07.12.2021
6594 Mist -39 1014 65 5000 0.89 100 09:20 07.12.2021
6595 Clear -37 1012 73 10000 0.89 160 06:40 07.12.2021
6596 Clear -36 1012 68 10000 1 210 05:47 07.12.2021
6597 Clear -37 1010 67 10000 2 10 02:35 07.12.2021
6598 Snow -36 1010 75 5000 2 10 23:21 06.12.2021
6599 Snow -36 1010 75 5000 2 30 22:40 06.12.2021
6600 Snow -36 1010 75 5000 3 40 21:59 06.12.2021
6601 Snow -36 1010 75 5000 1 50 21:27 06.12.2021
6602 Snow -36 1011 75 10000 1 100 20:32 06.12.2021
6603 Snow -35 1012 66 5000 0 0 19:24 06.12.2021
6604 Snow -36 1013 75 10000 0 0 18:34 06.12.2021
6605 Snow -36 1013 75 10000 0 0 17:53 06.12.2021
6606 Snow -36 1013 68 10000 0 0 17:33 06.12.2021
6607 Mist -36 1013 75 5000 1 340 15:51 06.12.2021
6608 Mist -35 1013 68 5000 1 300 14:35 06.12.2021
6609 Mist -35 1013 75 5000 1 330 13:23 06.12.2021
6610 Snow -33 1013 68 5000 1 330 12:37 06.12.2021
6611 Clear -34 1013 75 10000 1 10 09:56 06.12.2021
6612 Snow -33 1012 74 10000 0.89 330 07:38 06.12.2021
6613 Mist -32 1010 75 5000 0 0 02:20 06.12.2021
6614 Clear -31 1008 76 10000 2 180 22:25 05.12.2021
6615 Clear -30 1008 76 10000 1 240 21:25 05.12.2021
6616 Clear -31 1008 76 10000 1 200 20:43 05.12.2021
6617 Clear -31 1007 76 10000 2 170 20:18 05.12.2021
6618 Clear -31 1006 76 10000 2 160 19:23 05.12.2021
6619 Clear -31 1005 76 10000 0 0 18:28 05.12.2021
6620 Clear -30 1005 69 10000 2 20 17:49 05.12.2021
6621 Clear -31 1004 69 10000 1 350 17:18 05.12.2021
6622 Clear -31 1003 69 10000 3 310 16:28 05.12.2021
6623 Clear -31 1003 69 10000 3 310 15:59 05.12.2021
6624 Snow -31 1002 69 10000 2 320 14:48 05.12.2021
6625 Clear -31 1002 76 10000 1 310 14:29 05.12.2021
6626 Clear -31 1000 76 10000 1 340 13:33 05.12.2021
6627 Clear -30 1000 69 10000 2 350 12:43 05.12.2021
6628 Clear -30 999 76 10000 2 20 12:25 05.12.2021
6629 Snow -30 999 76 10000 2 10 11:43 05.12.2021
6630 Snow -29 998 76 10000 2 10 10:25 05.12.2021
6631 Clear -29 998 69 10000 2 30 09:41 05.12.2021
6632 Snow -29 996 69 10000 2 40 05:30 05.12.2021
6633 Snow -30 996 75 10000 0.89 90 01:24 05.12.2021
6634 Snow -30 996 75 10000 1.79 70 22:45 04.12.2021
6635 Clear -31 996 74 10000 1.79 40 21:38 04.12.2021
6636 Clear -32 996 75 10000 2 30 20:47 04.12.2021
6637 Snow -30 996 69 5000 2 50 19:54 04.12.2021
6638 Snow -30 996 76 3200 2 50 19:30 04.12.2021
6639 Snow -30 996 76 3200 3 60 17:53 04.12.2021
6640 Snow -30 996 76 2400 3 70 17:35 04.12.2021
6641 Snow -30 996 69 2400 3 70 16:47 04.12.2021
6642 Snow -30 996 69 2400 3 70 16:28 04.12.2021
6643 Snow -32 999 68 10000 4 70 13:30 04.12.2021
6644 Snow -33 1001 68 10000 4 80 11:41 04.12.2021
6645 Clear -33 1001 68 10000 4 80 11:19 04.12.2021
6646 Clear -34 1003 75 10000 3 70 09:57 04.12.2021
6647 Clear -36 1004 68 10000 3 40 08:42 04.12.2021
6648 Mist -39 1007 67 1800 3 20 05:30 04.12.2021
6649 Mist -39 1008 67 1400 3 20 04:40 04.12.2021
6650 Fog -42 1012 64 750 3.13 10 23:49 03.12.2021
6651 Fog -42 1013 72 800 1.79 20 22:55 03.12.2021
6652 Fog -41 1013 65 750 1.79 20 21:58 03.12.2021
6653 Fog -41 1014 65 650 1.79 10 21:24 03.12.2021
6654 Fog -41 1014 72 550 1.79 10 20:43 03.12.2021
6655 Mist -38 1014 66 1500 0.89 350 19:36 03.12.2021
6656 Clear -38 1015 73 10000 0.89 360 18:26 03.12.2021
6657 Clear -37 1015 66 10000 2 250 17:42 03.12.2021
6658 Clear -34 1015 67 10000 3.13 270 13:48 03.12.2021
6659 Clear -34 1014 74 10000 1.79 220 12:52 03.12.2021
6660 Clear -33 1014 67 10000 1.79 240 11:24 03.12.2021
6661 Clear -32 1013 67 10000 3.13 270 09:55 03.12.2021
6662 Clear -32 1012 67 10000 0.89 300 08:23 03.12.2021
6663 Clear -31 1011 61 10000 3.13 300 07:37 03.12.2021
6664 Clear -31 1007 61 10000 4.02 310 01:56 03.12.2021
6665 Clear -31 1006 67 10000 4.02 310 00:47 03.12.2021
6666 Clear -31 1006 67 10000 4.02 310 23:44 02.12.2021
6667 Clouds -30 1004 68 10000 5.81 320 21:42 02.12.2021
6668 Clear -30 1004 68 10000 5.81 320 20:57 02.12.2021
6669 Clear -30 1004 68 10000 5.81 320 20:37 02.12.2021
6670 Clear -29 1004 68 10000 3.13 310 19:25 02.12.2021
6671 Clear -29 1003 68 10000 4.02 310 17:43 02.12.2021
6672 Clear -29 1003 68 10000 3.13 310 15:42 02.12.2021
6673 Clear -28 1004 68 10000 4.02 320 14:59 02.12.2021
6674 Clear -29 1004 68 10000 4.02 300 13:58 02.12.2021
6675 Clear -29 1005 68 10000 3.13 310 12:52 02.12.2021
6676 Clear -29 1005 68 10000 3.13 320 12:18 02.12.2021
6677 Clear -31 1006 74 10000 1.79 330 09:34 02.12.2021
6678 Clear -34 1007 75 10000 1 10 08:52 02.12.2021
6679 Clear -33 1009 75 10000 3 310 04:54 02.12.2021
6680 Mist -37 1011 73 5000 0.89 350 00:53 02.12.2021
6681 Mist -36 1011 66 5000 1.79 360 23:28 01.12.2021
6682 Clear -36 1011 68 10000 2 20 22:23 01.12.2021
6683 Clear -34 1011 67 10000 3.13 10 20:39 01.12.2021
6684 Clear -34 1011 68 10000 3 10 19:57 01.12.2021
6685 Clear -34 1012 68 10000 3 10 19:28 01.12.2021
6686 Clear -35 1012 75 10000 4 20 17:50 01.12.2021
6687 Clear -34 1012 68 10000 4 20 16:50 01.12.2021
6688 Clear -34 1013 68 10000 3 20 14:54 01.12.2021
6689 Clear -34 1013 75 10000 4 10 13:46 01.12.2021
6690 Clouds -24 1015 98 1086 2.99 61 12:51 01.12.2021
6691 Snow -33 1013 68 10000 4 20 10:43 01.12.2021
6692 Clouds -22 1015 98 820 3.21 78 09:25 01.12.2021
6693 Clouds -22 1015 98 820 3.21 78 08:30 01.12.2021
6694 Clouds -22 1015 98 877 3.22 77 07:34 01.12.2021
6695 Clouds -22 1015 98 1146 3.1 75 06:59 01.12.2021
6696 Clouds -22 1017 97 1064 1.69 78 03:47 01.12.2021
6697 Clouds -23 1018 99 888 1.22 75 01:59 01.12.2021
6698 Snow -33 1016 68 10000 2 360 23:55 30.11.2021
6699 Snow -33 1016 75 10000 2 10 23:26 30.11.2021
6700 Snow -33 1017 75 10000 2 360 21:40 30.11.2021
6701 Snow -33 1017 75 10000 1 10 20:46 30.11.2021
6702 Snow -33 1018 75 5000 1 360 20:19 30.11.2021
6703 Snow -33 1018 75 5000 1 50 19:38 30.11.2021
6704 Clouds -23 1020 100 1151 0.93 161 18:38 30.11.2021
6705 Clouds -23 1021 100 927 1.16 159 16:50 30.11.2021
6706 Clouds -23 1021 100 759 1.09 162 15:44 30.11.2021
6707 Clouds -23 1021 99 1189 1.19 171 14:23 30.11.2021
6708 Snow -33 1019 75 5000 0 0 13:28 30.11.2021
6709 Snow -33 1019 75 5000 0 0 12:52 30.11.2021
6710 Mist -33 1019 75 5000 1 350 11:50 30.11.2021
6711 Mist -33 1019 75 5000 1 360 11:25 30.11.2021
6712 Snow -33 1019 75 5000 1 10 10:34 30.11.2021
6713 Clear -33 1019 75 10000 1 10 08:53 30.11.2021
6714 Clear -33 1019 75 10000 1 20 08:31 30.11.2021
6715 Clear -33 1019 75 10000 1 20 07:48 30.11.2021
6716 Mist -30 1018 76 5000 0 0 04:59 30.11.2021
6717 Clouds -32 1018 75 10000 1 20 01:45 30.11.2021
6718 Clear -31 1018 76 10000 0 0 00:33 30.11.2021
6719 Clear -31 1018 76 10000 1 70 23:25 29.11.2021
6720 Clear -31 1017 76 10000 1 30 22:58 29.11.2021
6721 Clear -31 1017 76 10000 2 40 22:34 29.11.2021
6722 Clear -31 1017 76 10000 1 40 21:44 29.11.2021
6723 Clear -31 1017 76 10000 1 40 21:18 29.11.2021
6724 Clear -31 1017 76 10000 1 10 20:41 29.11.2021
6725 Clear -30 1017 69 10000 0 0 19:56 29.11.2021
6726 Clear -30 1017 76 10000 1 360 19:37 29.11.2021
6727 Snow -30 1017 76 10000 2 20 18:52 29.11.2021
6728 Clouds -23 1020 100 1856 0.58 273 18:26 29.11.2021
6729 Clouds -23 1020 100 1255 0.66 268 17:21 29.11.2021
6730 Clouds -23 1020 100 1255 0.66 268 16:32 29.11.2021
6731 Clouds -23 1020 99 808 0.74 281 15:52 29.11.2021
6732 Clouds -23 1020 99 1172 0.72 268 14:43 29.11.2021
6733 Clouds -23 1020 99 1273 0.75 258 13:47 29.11.2021
6734 Clouds -23 1021 99 1127 0.89 272 12:44 29.11.2021
6735 Clouds -25 1021 100 1405 0.95 275 11:43 29.11.2021
6736 Clouds -25 1021 100 1593 1.01 268 10:59 29.11.2021
6737 Snow -22 1018 77 10000 0 0 09:50 29.11.2021
6738 Clear -22 1018 84 10000 1 110 06:22 29.11.2021
6739 Clouds -20 1018 77 10000 0 0 04:53 29.11.2021
6740 Clouds -20 1019 77 10000 2 270 00:44 29.11.2021
6741 Clouds -20 1020 77 10000 2 240 23:45 28.11.2021
6742 Clouds -20 1020 77 10000 2 260 23:25 28.11.2021
6743 Clouds -19 1020 78 10000 3 260 21:53 28.11.2021
6744 Snow -20 1020 84 10000 2 240 21:26 28.11.2021
6745 Snow -20 1020 77 10000 2 260 20:35 28.11.2021
6746 Snow -21 1021 77 10000 2 240 19:29 28.11.2021
6747 Snow -22 1021 77 10000 2 260 18:38 28.11.2021
6748 Snow -22 1021 77 10000 3 270 17:56 28.11.2021
6749 Snow -22 1021 77 10000 3 250 17:32 28.11.2021
6750 Snow -22 1021 77 10000 3 240 16:44 28.11.2021
6751 Snow -22 1021 77 10000 2 240 16:22 28.11.2021
6752 Snow -21 1021 84 10000 2 220 15:43 28.11.2021
6753 Snow -21 1021 77 10000 2 220 14:49 28.11.2021
6754 Clear -23 1022 77 10000 2 240 13:49 28.11.2021
6755 Clear -23 1022 84 10000 1 90 12:54 28.11.2021
6756 Clear -23 1022 77 10000 1 130 11:19 28.11.2021
6757 Clear -21 1022 77 10000 1 280 10:22 28.11.2021
6758 Clear -20 1022 71 10000 2 270 09:40 28.11.2021
6759 Clear -19 1022 78 10000 2 290 08:20 28.11.2021
6760 Clear -17 1022 78 10000 4 250 00:40 28.11.2021
6761 Clear -16 1021 78 10000 3 300 21:45 27.11.2021
6762 Clear -16 1021 72 10000 2 290 19:50 27.11.2021
6763 Snow -16 1020 72 10000 3 290 18:20 27.11.2021
6764 Clouds -14 1018 66 10000 7 300 15:59 27.11.2021
6765 Clouds -13 1017 66 10000 4 280 14:35 27.11.2021
6766 Clouds -13 1016 72 10000 5 290 13:20 27.11.2021
6767 Clear -18 1014 85 10000 2 240 10:57 27.11.2021
6768 Clear -21 1014 84 10000 2 230 09:54 27.11.